<?xml version="1.0" encoding="utf-8"?>
<gpx xmlns:xsi="http://www.w3.org/2001/XMLSchema-instance" xmlns:xsd="http://www.w3.org/2001/XMLSchema" version="1.1" creator="Shapelink.com" xmlns="http://www.topografix.com/GPX/1/1" xmlns:gpxtpx="http://www.garmin.com/xmlschemas/TrackPointExtension/v1">
  <metadata>
    <name>Löpning 8.85 km, 2018-03-14</name>
    <desc></desc>
    <author><name>Bengt-Åke Forslund</name></author> 
    <time>2018-03-14T16:46:03Z</time>
  </metadata>
  <trk>
    <name>Löpning 8.85 km, 2018-03-14</name>
    <trkseg>
      <trkpt lat="62.635867616329" lon="17.967699086339">
        <ele>62.6</ele>
        <time>2018-03-14T16:46:03Z</time>
      </trkpt>
      <trkpt lat="62.635954955727" lon="17.96804349861">
        <ele>62.2</ele>
        <time>2018-03-14T16:46:13Z</time>
      </trkpt>
      <trkpt lat="62.635963002351" lon="17.96808037897">
        <ele>62.2</ele>
        <time>2018-03-14T16:46:14Z</time>
      </trkpt>
      <trkpt lat="62.635973815002" lon="17.968117343149">
        <ele>62.2</ele>
        <time>2018-03-14T16:46:15Z</time>
      </trkpt>
      <trkpt lat="62.635983957101" lon="17.968155229337">
        <ele>62.4</ele>
        <time>2018-03-14T16:46:16Z</time>
      </trkpt>
      <trkpt lat="62.635996781408" lon="17.9682035929">
        <ele>62.4</ele>
        <time>2018-03-14T16:46:17Z</time>
      </trkpt>
      <trkpt lat="62.636010611543" lon="17.968249609531">
        <ele>62.4</ele>
        <time>2018-03-14T16:46:18Z</time>
      </trkpt>
      <trkpt lat="62.63602259766" lon="17.968282298941">
        <ele>62.6</ele>
        <time>2018-03-14T16:46:19Z</time>
      </trkpt>
      <trkpt lat="62.63603349413" lon="17.968315826541">
        <ele>62.6</ele>
        <time>2018-03-14T16:46:20Z</time>
      </trkpt>
      <trkpt lat="62.636052940138" lon="17.968373661651">
        <ele>62.6</ele>
        <time>2018-03-14T16:46:21Z</time>
      </trkpt>
      <trkpt lat="62.636066770273" lon="17.968418337178">
        <ele>62.6</ele>
        <time>2018-03-14T16:46:22Z</time>
      </trkpt>
      <trkpt lat="62.636085042815" lon="17.968442225593">
        <ele>62.6</ele>
        <time>2018-03-14T16:46:23Z</time>
      </trkpt>
      <trkpt lat="62.636108344497" lon="17.968462677429">
        <ele>62.6</ele>
        <time>2018-03-14T16:46:24Z</time>
      </trkpt>
      <trkpt lat="62.636131813817" lon="17.968477932487">
        <ele>62.6</ele>
        <time>2018-03-14T16:46:25Z</time>
      </trkpt>
      <trkpt lat="62.636151343644" lon="17.968487236396">
        <ele>62.8</ele>
        <time>2018-03-14T16:46:26Z</time>
      </trkpt>
      <trkpt lat="62.636180847932" lon="17.968499390151">
        <ele>63</ele>
        <time>2018-03-14T16:46:27Z</time>
      </trkpt>
      <trkpt lat="62.636203143786" lon="17.968508023508">
        <ele>63.4</ele>
        <time>2018-03-14T16:46:28Z</time>
      </trkpt>
      <trkpt lat="62.636232312798" lon="17.968523027109">
        <ele>63.4</ele>
        <time>2018-03-14T16:46:29Z</time>
      </trkpt>
      <trkpt lat="62.636265588941" lon="17.968534342674">
        <ele>63.8</ele>
        <time>2018-03-14T16:46:30Z</time>
      </trkpt>
      <trkpt lat="62.636288806804" lon="17.968550100646">
        <ele>63.8</ele>
        <time>2018-03-14T16:46:31Z</time>
      </trkpt>
      <trkpt lat="62.636313617228" lon="17.968582538599">
        <ele>63.6</ele>
        <time>2018-03-14T16:46:32Z</time>
      </trkpt>
      <trkpt lat="62.636339517299" lon="17.968609109222">
        <ele>63.6</ele>
        <time>2018-03-14T16:46:33Z</time>
      </trkpt>
      <trkpt lat="62.636356867832" lon="17.968634925474">
        <ele>63.6</ele>
        <time>2018-03-14T16:46:34Z</time>
      </trkpt>
      <trkpt lat="62.636378409315" lon="17.968683624313">
        <ele>63.4</ele>
        <time>2018-03-14T16:46:35Z</time>
      </trkpt>
      <trkpt lat="62.636400537531" lon="17.968737436111">
        <ele>63.2</ele>
        <time>2018-03-14T16:46:36Z</time>
      </trkpt>
      <trkpt lat="62.636417217512" lon="17.968782698371">
        <ele>63.2</ele>
        <time>2018-03-14T16:46:37Z</time>
      </trkpt>
      <trkpt lat="62.636437920805" lon="17.968824607871">
        <ele>63.2</ele>
        <time>2018-03-14T16:46:38Z</time>
      </trkpt>
      <trkpt lat="62.636455606614" lon="17.968857045824">
        <ele>63.2</ele>
        <time>2018-03-14T16:46:39Z</time>
      </trkpt>
      <trkpt lat="62.636469520568" lon="17.968889735234">
        <ele>63.2</ele>
        <time>2018-03-14T16:46:40Z</time>
      </trkpt>
      <trkpt lat="62.63649282225" lon="17.968947654163">
        <ele>63.2</ele>
        <time>2018-03-14T16:46:41Z</time>
      </trkpt>
      <trkpt lat="62.636508412584" lon="17.968986127084">
        <ele>63.2</ele>
        <time>2018-03-14T16:46:42Z</time>
      </trkpt>
      <trkpt lat="62.636524505832" lon="17.969034742104">
        <ele>63.4</ele>
        <time>2018-03-14T16:46:43Z</time>
      </trkpt>
      <trkpt lat="62.63654479003" lon="17.969065084582">
        <ele>63.4</ele>
        <time>2018-03-14T16:46:44Z</time>
      </trkpt>
      <trkpt lat="62.636563481667" lon="17.969121159493">
        <ele>63.4</ele>
        <time>2018-03-14T16:46:45Z</time>
      </trkpt>
      <trkpt lat="62.636582173304" lon="17.969167762857">
        <ele>63.4</ele>
        <time>2018-03-14T16:46:46Z</time>
      </trkpt>
      <trkpt lat="62.636599356199" lon="17.969210678185">
        <ele>63.4</ele>
        <time>2018-03-14T16:46:47Z</time>
      </trkpt>
      <trkpt lat="62.636614108343" lon="17.969273458616">
        <ele>63.6</ele>
        <time>2018-03-14T16:46:48Z</time>
      </trkpt>
      <trkpt lat="62.636627184107" lon="17.96932844388">
        <ele>63.4</ele>
        <time>2018-03-14T16:46:49Z</time>
      </trkpt>
      <trkpt lat="62.636639337862" lon="17.9693770589">
        <ele>63.4</ele>
        <time>2018-03-14T16:46:50Z</time>
      </trkpt>
      <trkpt lat="62.636649982875" lon="17.969438833503">
        <ele>63.4</ele>
        <time>2018-03-14T16:46:51Z</time>
      </trkpt>
      <trkpt lat="62.636660208793" lon="17.969491304197">
        <ele>63.4</ele>
        <time>2018-03-14T16:46:52Z</time>
      </trkpt>
      <trkpt lat="62.636670015616" lon="17.969537069371">
        <ele>63.6</ele>
        <time>2018-03-14T16:46:53Z</time>
      </trkpt>
      <trkpt lat="62.636679235706" lon="17.969590126798">
        <ele>63.6</ele>
        <time>2018-03-14T16:46:54Z</time>
      </trkpt>
      <trkpt lat="62.636691640918" lon="17.969636311067">
        <ele>63.6</ele>
        <time>2018-03-14T16:46:55Z</time>
      </trkpt>
      <trkpt lat="62.636698849352" lon="17.969682243879">
        <ele>63.6</ele>
        <time>2018-03-14T16:46:56Z</time>
      </trkpt>
      <trkpt lat="62.636709410546" lon="17.969732870555">
        <ele>63.6</ele>
        <time>2018-03-14T16:46:57Z</time>
      </trkpt>
      <trkpt lat="62.636719887921" lon="17.969768996544">
        <ele>63.6</ele>
        <time>2018-03-14T16:46:58Z</time>
      </trkpt>
      <trkpt lat="62.636735813531" lon="17.96981627046">
        <ele>63.8</ele>
        <time>2018-03-14T16:46:59Z</time>
      </trkpt>
      <trkpt lat="62.63675349934" lon="17.96986572367">
        <ele>63.8</ele>
        <time>2018-03-14T16:47:00Z</time>
      </trkpt>
      <trkpt lat="62.636767413294" lon="17.969903358401">
        <ele>64</ele>
        <time>2018-03-14T16:47:01Z</time>
      </trkpt>
      <trkpt lat="62.636786440207" lon="17.969949375032">
        <ele>64</ele>
        <time>2018-03-14T16:47:02Z</time>
      </trkpt>
      <trkpt lat="62.636806472948" lon="17.969970329782">
        <ele>64</ele>
        <time>2018-03-14T16:47:03Z</time>
      </trkpt>
      <trkpt lat="62.636824242576" lon="17.970008467427">
        <ele>64</ele>
        <time>2018-03-14T16:47:04Z</time>
      </trkpt>
      <trkpt lat="62.636843604765" lon="17.970043755226">
        <ele>64.2</ele>
        <time>2018-03-14T16:47:05Z</time>
      </trkpt>
      <trkpt lat="62.636865900619" lon="17.970083988346">
        <ele>64</ele>
        <time>2018-03-14T16:47:06Z</time>
      </trkpt>
      <trkpt lat="62.636893979984" lon="17.970118354136">
        <ele>64.2</ele>
        <time>2018-03-14T16:47:07Z</time>
      </trkpt>
      <trkpt lat="62.636921053521" lon="17.970134279746">
        <ele>64.4</ele>
        <time>2018-03-14T16:47:08Z</time>
      </trkpt>
      <trkpt lat="62.636942259728" lon="17.970143918931">
        <ele>64.4</ele>
        <time>2018-03-14T16:47:09Z</time>
      </trkpt>
      <trkpt lat="62.636968495075" lon="17.970159593084">
        <ele>64.4</ele>
        <time>2018-03-14T16:47:10Z</time>
      </trkpt>
      <trkpt lat="62.63701333824" lon="17.9701733394">
        <ele>64.4</ele>
        <time>2018-03-14T16:47:11Z</time>
      </trkpt>
      <trkpt lat="62.637056756482" lon="17.970159173989">
        <ele>64.4</ele>
        <time>2018-03-14T16:47:12Z</time>
      </trkpt>
      <trkpt lat="62.637087266598" lon="17.970149283347">
        <ele>64.4</ele>
        <time>2018-03-14T16:47:13Z</time>
      </trkpt>
      <trkpt lat="62.637124146958" lon="17.970133860651">
        <ele>64.4</ele>
        <time>2018-03-14T16:47:14Z</time>
      </trkpt>
      <trkpt lat="62.637160943499" lon="17.970115671928">
        <ele>64.4</ele>
        <time>2018-03-14T16:47:15Z</time>
      </trkpt>
      <trkpt lat="62.637200925162" lon="17.970094968635">
        <ele>64.2</ele>
        <time>2018-03-14T16:47:16Z</time>
      </trkpt>
      <trkpt lat="62.637240236273" lon="17.970079378301">
        <ele>64.2</ele>
        <time>2018-03-14T16:47:17Z</time>
      </trkpt>
      <trkpt lat="62.637283989791" lon="17.970059597017">
        <ele>64</ele>
        <time>2018-03-14T16:47:18Z</time>
      </trkpt>
      <trkpt lat="62.637321456884" lon="17.970040402466">
        <ele>64</ele>
        <time>2018-03-14T16:47:19Z</time>
      </trkpt>
      <trkpt lat="62.637355403579" lon="17.970027075245">
        <ele>63.6</ele>
        <time>2018-03-14T16:47:20Z</time>
      </trkpt>
      <trkpt lat="62.637401504029" lon="17.970011233454">
        <ele>63.4</ele>
        <time>2018-03-14T16:47:21Z</time>
      </trkpt>
      <trkpt lat="62.637435786" lon="17.970007210142">
        <ele>63.2</ele>
        <time>2018-03-14T16:47:22Z</time>
      </trkpt>
      <trkpt lat="62.637477024948" lon="17.969998492966">
        <ele>63</ele>
        <time>2018-03-14T16:47:23Z</time>
      </trkpt>
      <trkpt lat="62.637512312747" lon="17.970008886522">
        <ele>62.8</ele>
        <time>2018-03-14T16:47:24Z</time>
      </trkpt>
      <trkpt lat="62.637546259442" lon="17.970033194032">
        <ele>62.6</ele>
        <time>2018-03-14T16:47:25Z</time>
      </trkpt>
      <trkpt lat="62.637572243332" lon="17.970070996401">
        <ele>62.2</ele>
        <time>2018-03-14T16:47:26Z</time>
      </trkpt>
      <trkpt lat="62.637597305213" lon="17.970124389104">
        <ele>62.2</ele>
        <time>2018-03-14T16:47:27Z</time>
      </trkpt>
      <trkpt lat="62.637621696542" lon="17.97017166302">
        <ele>61.8</ele>
        <time>2018-03-14T16:47:28Z</time>
      </trkpt>
      <trkpt lat="62.637639885265" lon="17.970213237244">
        <ele>61.6</ele>
        <time>2018-03-14T16:47:29Z</time>
      </trkpt>
      <trkpt lat="62.637662013481" lon="17.97027559858">
        <ele>61.4</ele>
        <time>2018-03-14T16:47:30Z</time>
      </trkpt>
      <trkpt lat="62.637681710946" lon="17.970322621039">
        <ele>61.4</ele>
        <time>2018-03-14T16:47:31Z</time>
      </trkpt>
      <trkpt lat="62.637697385099" lon="17.970383222176">
        <ele>61.4</ele>
        <time>2018-03-14T16:47:32Z</time>
      </trkpt>
      <trkpt lat="62.637718004573" lon="17.970433094481">
        <ele>61.4</ele>
        <time>2018-03-14T16:47:33Z</time>
      </trkpt>
      <trkpt lat="62.637728817224" lon="17.970474333429">
        <ele>61.4</ele>
        <time>2018-03-14T16:47:34Z</time>
      </trkpt>
      <trkpt lat="62.637739126961" lon="17.97053459929">
        <ele>61.4</ele>
        <time>2018-03-14T16:47:35Z</time>
      </trkpt>
      <trkpt lat="62.637749101422" lon="17.970596206255">
        <ele>61.4</ele>
        <time>2018-03-14T16:47:36Z</time>
      </trkpt>
      <trkpt lat="62.637757986236" lon="17.970645827103">
        <ele>61.4</ele>
        <time>2018-03-14T16:47:37Z</time>
      </trkpt>
      <trkpt lat="62.63776603286" lon="17.970689412983">
        <ele>61.4</ele>
        <time>2018-03-14T16:47:38Z</time>
      </trkpt>
      <trkpt lat="62.637774330941" lon="17.970743560057">
        <ele>61.4</ele>
        <time>2018-03-14T16:47:39Z</time>
      </trkpt>
      <trkpt lat="62.637783299574" lon="17.970803155366">
        <ele>61.4</ele>
        <time>2018-03-14T16:47:40Z</time>
      </trkpt>
      <trkpt lat="62.637793441673" lon="17.970853614404">
        <ele>61.6</ele>
        <time>2018-03-14T16:47:41Z</time>
      </trkpt>
      <trkpt lat="62.637801823573" lon="17.970914634636">
        <ele>61.6</ele>
        <time>2018-03-14T16:47:42Z</time>
      </trkpt>
      <trkpt lat="62.63781129512" lon="17.970972469746">
        <ele>61.6</ele>
        <time>2018-03-14T16:47:43Z</time>
      </trkpt>
      <trkpt lat="62.637821688676" lon="17.971027119734">
        <ele>61.8</ele>
        <time>2018-03-14T16:47:44Z</time>
      </trkpt>
      <trkpt lat="62.637839877399" lon="17.971099120255">
        <ele>61.8</ele>
        <time>2018-03-14T16:47:45Z</time>
      </trkpt>
      <trkpt lat="62.637847253471" lon="17.97114983075">
        <ele>61.8</ele>
        <time>2018-03-14T16:47:46Z</time>
      </trkpt>
      <trkpt lat="62.637855970647" lon="17.97120850405">
        <ele>62</ele>
        <time>2018-03-14T16:47:47Z</time>
      </trkpt>
      <trkpt lat="62.637866531841" lon="17.971254772138">
        <ele>62</ele>
        <time>2018-03-14T16:47:48Z</time>
      </trkpt>
      <trkpt lat="62.63787248299" lon="17.971305901728">
        <ele>62.2</ele>
        <time>2018-03-14T16:47:49Z</time>
      </trkpt>
      <trkpt lat="62.637883463279" lon="17.971367592512">
        <ele>62.2</ele>
        <time>2018-03-14T16:47:50Z</time>
      </trkpt>
      <trkpt lat="62.637892348093" lon="17.97141721336">
        <ele>62.4</ele>
        <time>2018-03-14T16:47:51Z</time>
      </trkpt>
      <trkpt lat="62.637900562355" lon="17.971458368489">
        <ele>62.4</ele>
        <time>2018-03-14T16:47:52Z</time>
      </trkpt>
      <trkpt lat="62.637909279531" lon="17.971522238567">
        <ele>62.6</ele>
        <time>2018-03-14T16:47:53Z</time>
      </trkpt>
      <trkpt lat="62.637918248164" lon="17.971575798908">
        <ele>62.6</ele>
        <time>2018-03-14T16:47:54Z</time>
      </trkpt>
      <trkpt lat="62.637925959512" lon="17.971637238235">
        <ele>62.6</ele>
        <time>2018-03-14T16:47:55Z</time>
      </trkpt>
      <trkpt lat="62.637938029448" lon="17.971701946503">
        <ele>62.8</ele>
        <time>2018-03-14T16:47:56Z</time>
      </trkpt>
      <trkpt lat="62.637945154063" lon="17.971750142428">
        <ele>62.8</ele>
        <time>2018-03-14T16:47:57Z</time>
      </trkpt>
      <trkpt lat="62.637948255366" lon="17.971798422172">
        <ele>62.8</ele>
        <time>2018-03-14T16:47:58Z</time>
      </trkpt>
      <trkpt lat="62.637952446316" lon="17.971861705517">
        <ele>62.8</ele>
        <time>2018-03-14T16:47:59Z</time>
      </trkpt>
      <trkpt lat="62.637952530135" lon="17.971917780428">
        <ele>62.8</ele>
        <time>2018-03-14T16:48:00Z</time>
      </trkpt>
      <trkpt lat="62.637953200687" lon="17.971996235012">
        <ele>62.8</ele>
        <time>2018-03-14T16:48:01Z</time>
      </trkpt>
      <trkpt lat="62.637954122696" lon="17.972048873344">
        <ele>62.8</ele>
        <time>2018-03-14T16:48:02Z</time>
      </trkpt>
      <trkpt lat="62.637954374153" lon="17.97210704373">
        <ele>62.8</ele>
        <time>2018-03-14T16:48:03Z</time>
      </trkpt>
      <trkpt lat="62.637955212343" lon="17.972173176921">
        <ele>62.8</ele>
        <time>2018-03-14T16:48:04Z</time>
      </trkpt>
      <trkpt lat="62.637958481284" lon="17.972228916556">
        <ele>62.8</ele>
        <time>2018-03-14T16:48:05Z</time>
      </trkpt>
      <trkpt lat="62.637958984198" lon="17.97228641639">
        <ele>63</ele>
        <time>2018-03-14T16:48:06Z</time>
      </trkpt>
      <trkpt lat="62.63795965475" lon="17.972351543753">
        <ele>63</ele>
        <time>2018-03-14T16:48:07Z</time>
      </trkpt>
      <trkpt lat="62.637960744397" lon="17.972405271732">
        <ele>63.2</ele>
        <time>2018-03-14T16:48:08Z</time>
      </trkpt>
      <trkpt lat="62.637966947003" lon="17.972445756309">
        <ele>63.2</ele>
        <time>2018-03-14T16:48:09Z</time>
      </trkpt>
      <trkpt lat="62.637969377754" lon="17.972493114044">
        <ele>63.2</ele>
        <time>2018-03-14T16:48:10Z</time>
      </trkpt>
      <trkpt lat="62.63797138941" lon="17.972552709353">
        <ele>63.4</ele>
        <time>2018-03-14T16:48:11Z</time>
      </trkpt>
      <trkpt lat="62.637974574532" lon="17.972612304662">
        <ele>63.4</ele>
        <time>2018-03-14T16:48:12Z</time>
      </trkpt>
      <trkpt lat="62.637979016939" lon="17.972653208334">
        <ele>63.6</ele>
        <time>2018-03-14T16:48:13Z</time>
      </trkpt>
      <trkpt lat="62.637982704975" lon="17.97270718777">
        <ele>63.6</ele>
        <time>2018-03-14T16:48:14Z</time>
      </trkpt>
      <trkpt lat="62.637985722459" lon="17.972774410608">
        <ele>63.8</ele>
        <time>2018-03-14T16:48:15Z</time>
      </trkpt>
      <trkpt lat="62.6379889914" lon="17.972821013972">
        <ele>63.8</ele>
        <time>2018-03-14T16:48:16Z</time>
      </trkpt>
      <trkpt lat="62.637992092703" lon="17.972859403074">
        <ele>64</ele>
        <time>2018-03-14T16:48:17Z</time>
      </trkpt>
      <trkpt lat="62.637993685264" lon="17.972915813261">
        <ele>64</ele>
        <time>2018-03-14T16:48:18Z</time>
      </trkpt>
      <trkpt lat="62.637995948377" lon="17.97297205581">
        <ele>64</ele>
        <time>2018-03-14T16:48:19Z</time>
      </trkpt>
      <trkpt lat="62.637998714404" lon="17.973020922287">
        <ele>64.2</ele>
        <time>2018-03-14T16:48:20Z</time>
      </trkpt>
      <trkpt lat="62.638001228974" lon="17.973074650266">
        <ele>64.2</ele>
        <time>2018-03-14T16:48:21Z</time>
      </trkpt>
      <trkpt lat="62.638002653897" lon="17.973134413213">
        <ele>64.2</ele>
        <time>2018-03-14T16:48:22Z</time>
      </trkpt>
      <trkpt lat="62.6380057552" lon="17.97318495607">
        <ele>64.4</ele>
        <time>2018-03-14T16:48:23Z</time>
      </trkpt>
      <trkpt lat="62.638008521227" lon="17.973226949389">
        <ele>64.6</ele>
        <time>2018-03-14T16:48:24Z</time>
      </trkpt>
      <trkpt lat="62.638011957806" lon="17.973272630744">
        <ele>64.6</ele>
        <time>2018-03-14T16:48:25Z</time>
      </trkpt>
      <trkpt lat="62.638011538711" lon="17.973330633492">
        <ele>64.8</ele>
        <time>2018-03-14T16:48:26Z</time>
      </trkpt>
      <trkpt lat="62.63801246072" lon="17.973385367299">
        <ele>65</ele>
        <time>2018-03-14T16:48:27Z</time>
      </trkpt>
      <trkpt lat="62.638015981118" lon="17.973422247659">
        <ele>65.2</ele>
        <time>2018-03-14T16:48:28Z</time>
      </trkpt>
      <trkpt lat="62.63801581348" lon="17.97347916076">
        <ele>65.4</ele>
        <time>2018-03-14T16:48:29Z</time>
      </trkpt>
      <trkpt lat="62.638013885643" lon="17.973548898168">
        <ele>65.4</ele>
        <time>2018-03-14T16:48:30Z</time>
      </trkpt>
      <trkpt lat="62.638014304738" lon="17.973600363034">
        <ele>65.6</ele>
        <time>2018-03-14T16:48:31Z</time>
      </trkpt>
      <trkpt lat="62.638014891471" lon="17.973644787104">
        <ele>65.6</ele>
        <time>2018-03-14T16:48:32Z</time>
      </trkpt>
      <trkpt lat="62.638013550367" lon="17.97371469215">
        <ele>65.8</ele>
        <time>2018-03-14T16:48:33Z</time>
      </trkpt>
      <trkpt lat="62.63801916624" lon="17.973765235007">
        <ele>65.8</ele>
        <time>2018-03-14T16:48:34Z</time>
      </trkpt>
      <trkpt lat="62.638021094077" lon="17.973816616054">
        <ele>65.8</ele>
        <time>2018-03-14T16:48:35Z</time>
      </trkpt>
      <trkpt lat="62.63802503357" lon="17.97388233015">
        <ele>66</ele>
        <time>2018-03-14T16:48:36Z</time>
      </trkpt>
      <trkpt lat="62.638030649443" lon="17.973923233822">
        <ele>66</ele>
        <time>2018-03-14T16:48:37Z</time>
      </trkpt>
      <trkpt lat="62.638032996375" lon="17.973987355357">
        <ele>66</ele>
        <time>2018-03-14T16:48:38Z</time>
      </trkpt>
      <trkpt lat="62.638037354963" lon="17.974025157726">
        <ele>66</ele>
        <time>2018-03-14T16:48:39Z</time>
      </trkpt>
      <trkpt lat="62.638042300284" lon="17.974093134935">
        <ele>66</ele>
        <time>2018-03-14T16:48:40Z</time>
      </trkpt>
      <trkpt lat="62.6380476647" lon="17.974149964217">
        <ele>66</ele>
        <time>2018-03-14T16:48:41Z</time>
      </trkpt>
      <trkpt lat="62.638049676356" lon="17.974201931997">
        <ele>66</ele>
        <time>2018-03-14T16:48:42Z</time>
      </trkpt>
      <trkpt lat="62.638050598365" lon="17.97426454479">
        <ele>66</ele>
        <time>2018-03-14T16:48:43Z</time>
      </trkpt>
      <trkpt lat="62.638058225894" lon="17.974310226145">
        <ele>66</ele>
        <time>2018-03-14T16:48:44Z</time>
      </trkpt>
      <trkpt lat="62.638057890618" lon="17.974384825055">
        <ele>66</ele>
        <time>2018-03-14T16:48:45Z</time>
      </trkpt>
      <trkpt lat="62.638059650817" lon="17.974446012925">
        <ele>66</ele>
        <time>2018-03-14T16:48:46Z</time>
      </trkpt>
      <trkpt lat="62.638058812627" lon="17.974496136687">
        <ele>66</ele>
        <time>2018-03-14T16:48:47Z</time>
      </trkpt>
      <trkpt lat="62.638061578654" lon="17.974560174403">
        <ele>66</ele>
        <time>2018-03-14T16:48:48Z</time>
      </trkpt>
      <trkpt lat="62.638065769604" lon="17.97460317355">
        <ele>66</ele>
        <time>2018-03-14T16:48:49Z</time>
      </trkpt>
      <trkpt lat="62.6380560466" lon="17.97466352323">
        <ele>66</ele>
        <time>2018-03-14T16:48:50Z</time>
      </trkpt>
      <trkpt lat="62.638043976664" lon="17.974726219842">
        <ele>66</ele>
        <time>2018-03-14T16:48:51Z</time>
      </trkpt>
      <trkpt lat="62.638036097678" lon="17.974766536781">
        <ele>66</ele>
        <time>2018-03-14T16:48:52Z</time>
      </trkpt>
      <trkpt lat="62.638019333878" lon="17.974817079638">
        <ele>66</ele>
        <time>2018-03-14T16:48:53Z</time>
      </trkpt>
      <trkpt lat="62.637996786567" lon="17.974868209228">
        <ele>66</ele>
        <time>2018-03-14T16:48:54Z</time>
      </trkpt>
      <trkpt lat="62.637977424378" lon="17.974913052393">
        <ele>66</ele>
        <time>2018-03-14T16:48:55Z</time>
      </trkpt>
      <trkpt lat="62.637961834044" lon="17.974949178382">
        <ele>66.2</ele>
        <time>2018-03-14T16:48:56Z</time>
      </trkpt>
      <trkpt lat="62.637942974769" lon="17.974988321855">
        <ele>66.2</ele>
        <time>2018-03-14T16:48:57Z</time>
      </trkpt>
      <trkpt lat="62.637917577612" lon="17.975028052061">
        <ele>66.2</ele>
        <time>2018-03-14T16:48:58Z</time>
      </trkpt>
      <trkpt lat="62.637899221251" lon="17.975063423679">
        <ele>66.4</ele>
        <time>2018-03-14T16:48:59Z</time>
      </trkpt>
      <trkpt lat="62.637883547098" lon="17.975097370374">
        <ele>66.4</ele>
        <time>2018-03-14T16:49:00Z</time>
      </trkpt>
      <trkpt lat="62.637865609832" lon="17.975133161087">
        <ele>66.6</ele>
        <time>2018-03-14T16:49:01Z</time>
      </trkpt>
      <trkpt lat="62.637838787752" lon="17.975177249881">
        <ele>66.8</ele>
        <time>2018-03-14T16:49:02Z</time>
      </trkpt>
      <trkpt lat="62.637819257925" lon="17.975218740286">
        <ele>66.8</ele>
        <time>2018-03-14T16:49:03Z</time>
      </trkpt>
      <trkpt lat="62.637806768894" lon="17.975247154927">
        <ele>67</ele>
        <time>2018-03-14T16:49:04Z</time>
      </trkpt>
      <trkpt lat="62.637785981782" lon="17.975284035287">
        <ele>67.2</ele>
        <time>2018-03-14T16:49:05Z</time>
      </trkpt>
      <trkpt lat="62.637763099195" lon="17.975322759665">
        <ele>67.4</ele>
        <time>2018-03-14T16:49:06Z</time>
      </trkpt>
      <trkpt lat="62.637744994291" lon="17.975348156822">
        <ele>67.6</ele>
        <time>2018-03-14T16:49:07Z</time>
      </trkpt>
      <trkpt lat="62.637725296826" lon="17.975373721617">
        <ele>67.8</ele>
        <time>2018-03-14T16:49:08Z</time>
      </trkpt>
      <trkpt lat="62.637706018456" lon="17.975395933652">
        <ele>67.8</ele>
        <time>2018-03-14T16:49:09Z</time>
      </trkpt>
      <trkpt lat="62.637689422294" lon="17.975417558954">
        <ele>68</ele>
        <time>2018-03-14T16:49:10Z</time>
      </trkpt>
      <trkpt lat="62.637670814476" lon="17.975441950283">
        <ele>68.2</ele>
        <time>2018-03-14T16:49:11Z</time>
      </trkpt>
      <trkpt lat="62.637648015708" lon="17.975458043531">
        <ele>68.6</ele>
        <time>2018-03-14T16:49:12Z</time>
      </trkpt>
      <trkpt lat="62.63763192246" lon="17.975472628037">
        <ele>69</ele>
        <time>2018-03-14T16:49:13Z</time>
      </trkpt>
      <trkpt lat="62.637605435656" lon="17.975485619982">
        <ele>69.6</ele>
        <time>2018-03-14T16:49:14Z</time>
      </trkpt>
      <trkpt lat="62.637578362119" lon="17.975512442062">
        <ele>69.8</ele>
        <time>2018-03-14T16:49:15Z</time>
      </trkpt>
      <trkpt lat="62.63756738183" lon="17.975523422351">
        <ele>70</ele>
        <time>2018-03-14T16:49:16Z</time>
      </trkpt>
      <trkpt lat="62.637537039352" lon="17.975544125644">
        <ele>70</ele>
        <time>2018-03-14T16:49:17Z</time>
      </trkpt>
      <trkpt lat="62.637512312747" lon="17.97556457748">
        <ele>70</ele>
        <time>2018-03-14T16:49:18Z</time>
      </trkpt>
      <trkpt lat="62.637495716585" lon="17.975577904701">
        <ele>70</ele>
        <time>2018-03-14T16:49:19Z</time>
      </trkpt>
      <trkpt lat="62.637478952785" lon="17.975589806999">
        <ele>70.2</ele>
        <time>2018-03-14T16:49:20Z</time>
      </trkpt>
      <trkpt lat="62.637456321655" lon="17.975606403161">
        <ele>70</ele>
        <time>2018-03-14T16:49:21Z</time>
      </trkpt>
      <trkpt lat="62.637434863991" lon="17.975620317115">
        <ele>70</ele>
        <time>2018-03-14T16:49:22Z</time>
      </trkpt>
      <trkpt lat="62.637414747431" lon="17.975638086743">
        <ele>70.2</ele>
        <time>2018-03-14T16:49:23Z</time>
      </trkpt>
      <trkpt lat="62.637399157097" lon="17.975652838887">
        <ele>70.4</ele>
        <time>2018-03-14T16:49:24Z</time>
      </trkpt>
      <trkpt lat="62.637378621442" lon="17.975668596859">
        <ele>70.6</ele>
        <time>2018-03-14T16:49:25Z</time>
      </trkpt>
      <trkpt lat="62.637354649208" lon="17.975684103374">
        <ele>70.8</ele>
        <time>2018-03-14T16:49:26Z</time>
      </trkpt>
      <trkpt lat="62.637334448829" lon="17.975699274613">
        <ele>71</ele>
        <time>2018-03-14T16:49:27Z</time>
      </trkpt>
      <trkpt lat="62.637318355581" lon="17.975718469164">
        <ele>71.2</ele>
        <time>2018-03-14T16:49:28Z</time>
      </trkpt>
      <trkpt lat="62.637297400831" lon="17.975742441398">
        <ele>71.4</ele>
        <time>2018-03-14T16:49:29Z</time>
      </trkpt>
      <trkpt lat="62.637272758045" lon="17.975770688401">
        <ele>71.6</ele>
        <time>2018-03-14T16:49:30Z</time>
      </trkpt>
      <trkpt lat="62.637252306209" lon="17.975801617612">
        <ele>72</ele>
        <time>2018-03-14T16:49:31Z</time>
      </trkpt>
      <trkpt lat="62.637234955676" lon="17.975826763312">
        <ele>72.2</ele>
        <time>2018-03-14T16:49:32Z</time>
      </trkpt>
      <trkpt lat="62.637220287351" lon="17.975849310623">
        <ele>72.4</ele>
        <time>2018-03-14T16:49:33Z</time>
      </trkpt>
      <trkpt lat="62.637205870483" lon="17.975881497119">
        <ele>72.6</ele>
        <time>2018-03-14T16:49:34Z</time>
      </trkpt>
      <trkpt lat="62.63719354909" lon="17.975912761606">
        <ele>72.6</ele>
        <time>2018-03-14T16:49:35Z</time>
      </trkpt>
      <trkpt lat="62.637177791118" lon="17.975952743269">
        <ele>73</ele>
        <time>2018-03-14T16:49:36Z</time>
      </trkpt>
      <trkpt lat="62.63716253606" lon="17.975992976389">
        <ele>73.2</ele>
        <time>2018-03-14T16:49:37Z</time>
      </trkpt>
      <trkpt lat="62.637151220495" lon="17.976036562269">
        <ele>73.4</ele>
        <time>2018-03-14T16:49:38Z</time>
      </trkpt>
      <trkpt lat="62.637143592966" lon="17.976068245851">
        <ele>73.4</ele>
        <time>2018-03-14T16:49:39Z</time>
      </trkpt>
      <trkpt lat="62.637132109763" lon="17.976108898066">
        <ele>73.6</ele>
        <time>2018-03-14T16:49:40Z</time>
      </trkpt>
      <trkpt lat="62.637124146958" lon="17.976159105647">
        <ele>73.6</ele>
        <time>2018-03-14T16:49:41Z</time>
      </trkpt>
      <trkpt lat="62.637115094506" lon="17.976196740378">
        <ele>73.8</ele>
        <time>2018-03-14T16:49:42Z</time>
      </trkpt>
      <trkpt lat="62.637104030398" lon="17.976241583543">
        <ele>74</ele>
        <time>2018-03-14T16:49:43Z</time>
      </trkpt>
      <trkpt lat="62.637097324878" lon="17.976289444192">
        <ele>74</ele>
        <time>2018-03-14T16:49:44Z</time>
      </trkpt>
      <trkpt lat="62.637093888299" lon="17.976330180226">
        <ele>74.2</ele>
        <time>2018-03-14T16:49:45Z</time>
      </trkpt>
      <trkpt lat="62.637086763684" lon="17.97638181273">
        <ele>74.2</ele>
        <time>2018-03-14T16:49:46Z</time>
      </trkpt>
      <trkpt lat="62.637080058164" lon="17.976423973687">
        <ele>74.2</ele>
        <time>2018-03-14T16:49:47Z</time>
      </trkpt>
      <trkpt lat="62.637078549422" lon="17.976467727205">
        <ele>74.4</ele>
        <time>2018-03-14T16:49:48Z</time>
      </trkpt>
      <trkpt lat="62.637071089531" lon="17.976521874279">
        <ele>74.4</ele>
        <time>2018-03-14T16:49:49Z</time>
      </trkpt>
      <trkpt lat="62.637064384011" lon="17.976581972502">
        <ele>74.4</ele>
        <time>2018-03-14T16:49:50Z</time>
      </trkpt>
      <trkpt lat="62.637061282708" lon="17.976624468735">
        <ele>74.6</ele>
        <time>2018-03-14T16:49:51Z</time>
      </trkpt>
      <trkpt lat="62.637054744826" lon="17.976700827844">
        <ele>74.8</ele>
        <time>2018-03-14T16:49:52Z</time>
      </trkpt>
      <trkpt lat="62.63705524774" lon="17.976754136728">
        <ele>75</ele>
        <time>2018-03-14T16:49:53Z</time>
      </trkpt>
      <trkpt lat="62.637054744826" lon="17.976801578282">
        <ele>75</ele>
        <time>2018-03-14T16:49:54Z</time>
      </trkpt>
      <trkpt lat="62.637054325731" lon="17.976877518296">
        <ele>75</ele>
        <time>2018-03-14T16:49:55Z</time>
      </trkpt>
      <trkpt lat="62.637056756482" lon="17.976921020357">
        <ele>75.2</ele>
        <time>2018-03-14T16:49:56Z</time>
      </trkpt>
      <trkpt lat="62.63705608593" lon="17.97699452962">
        <ele>75</ele>
        <time>2018-03-14T16:49:57Z</time>
      </trkpt>
      <trkpt lat="62.637060863613" lon="17.97704482102">
        <ele>75</ele>
        <time>2018-03-14T16:49:58Z</time>
      </trkpt>
      <trkpt lat="62.637060779794" lon="17.977111540944">
        <ele>75.2</ele>
        <time>2018-03-14T16:49:59Z</time>
      </trkpt>
      <trkpt lat="62.637061869441" lon="17.977182870913">
        <ele>75.2</ele>
        <time>2018-03-14T16:50:00Z</time>
      </trkpt>
      <trkpt lat="62.637064803106" lon="17.977230396286">
        <ele>75.2</ele>
        <time>2018-03-14T16:50:01Z</time>
      </trkpt>
      <trkpt lat="62.637061450346" lon="17.977298960228">
        <ele>75.2</ele>
        <time>2018-03-14T16:50:02Z</time>
      </trkpt>
      <trkpt lat="62.637056421206" lon="17.977356795338">
        <ele>75.2</ele>
        <time>2018-03-14T16:50:03Z</time>
      </trkpt>
      <trkpt lat="62.637044435089" lon="17.977400716494">
        <ele>75.2</ele>
        <time>2018-03-14T16:50:04Z</time>
      </trkpt>
      <trkpt lat="62.637027503651" lon="17.977460311803">
        <ele>75.4</ele>
        <time>2018-03-14T16:50:05Z</time>
      </trkpt>
      <trkpt lat="62.637013086783" lon="17.977511022298">
        <ele>75.2</ele>
        <time>2018-03-14T16:50:06Z</time>
      </trkpt>
      <trkpt lat="62.636999675743" lon="17.977556033101">
        <ele>75.2</ele>
        <time>2018-03-14T16:50:07Z</time>
      </trkpt>
      <trkpt lat="62.636982995762" lon="17.97761898117">
        <ele>75.4</ele>
        <time>2018-03-14T16:50:08Z</time>
      </trkpt>
      <trkpt lat="62.636980229735" lon="17.977668853475">
        <ele>75.4</ele>
        <time>2018-03-14T16:50:09Z</time>
      </trkpt>
      <trkpt lat="62.63696807598" lon="17.977724760748">
        <ele>75.4</ele>
        <time>2018-03-14T16:50:10Z</time>
      </trkpt>
      <trkpt lat="62.636959358804" lon="17.977783434048">
        <ele>75.4</ele>
        <time>2018-03-14T16:50:11Z</time>
      </trkpt>
      <trkpt lat="62.636958520614" lon="17.977832635801">
        <ele>75.4</ele>
        <time>2018-03-14T16:50:12Z</time>
      </trkpt>
      <trkpt lat="62.636950306352" lon="17.977890890006">
        <ele>75.6</ele>
        <time>2018-03-14T16:50:13Z</time>
      </trkpt>
      <trkpt lat="62.636944103746" lon="17.977949144211">
        <ele>75.6</ele>
        <time>2018-03-14T16:50:14Z</time>
      </trkpt>
      <trkpt lat="62.636937733502" lon="17.977998765059">
        <ele>75.8</ele>
        <time>2018-03-14T16:50:15Z</time>
      </trkpt>
      <trkpt lat="62.636926920851" lon="17.978061713128">
        <ele>75.8</ele>
        <time>2018-03-14T16:50:16Z</time>
      </trkpt>
      <trkpt lat="62.636915940562" lon="17.978119967333">
        <ele>75.6</ele>
        <time>2018-03-14T16:50:17Z</time>
      </trkpt>
      <trkpt lat="62.636908983585" lon="17.978165648688">
        <ele>75.8</ele>
        <time>2018-03-14T16:50:18Z</time>
      </trkpt>
      <trkpt lat="62.636897081287" lon="17.978218035563">
        <ele>75.8</ele>
        <time>2018-03-14T16:50:19Z</time>
      </trkpt>
      <trkpt lat="62.636883921704" lon="17.97827444575">
        <ele>75.8</ele>
        <time>2018-03-14T16:50:20Z</time>
      </trkpt>
      <trkpt lat="62.636873947243" lon="17.978311493748">
        <ele>75.8</ele>
        <time>2018-03-14T16:50:21Z</time>
      </trkpt>
      <trkpt lat="62.636858356909" lon="17.978365640822">
        <ele>75.8</ele>
        <time>2018-03-14T16:50:22Z</time>
      </trkpt>
      <trkpt lat="62.636841928385" lon="17.978418195335">
        <ele>76</ele>
        <time>2018-03-14T16:50:23Z</time>
      </trkpt>
      <trkpt lat="62.636828768802" lon="17.978456668256">
        <ele>76</ele>
        <time>2018-03-14T16:50:24Z</time>
      </trkpt>
      <trkpt lat="62.636805886215" lon="17.978517437031">
        <ele>76</ele>
        <time>2018-03-14T16:50:25Z</time>
      </trkpt>
      <trkpt lat="62.636791385528" lon="17.978556831961">
        <ele>76</ele>
        <time>2018-03-14T16:50:26Z</time>
      </trkpt>
      <trkpt lat="62.636771688063" lon="17.978598909099">
        <ele>76.2</ele>
        <time>2018-03-14T16:50:27Z</time>
      </trkpt>
      <trkpt lat="62.636748721657" lon="17.978639142219">
        <ele>76.2</ele>
        <time>2018-03-14T16:50:28Z</time>
      </trkpt>
      <trkpt lat="62.636727347812" lon="17.978664790833">
        <ele>76.2</ele>
        <time>2018-03-14T16:50:29Z</time>
      </trkpt>
      <trkpt lat="62.636709745822" lon="17.978692870198">
        <ele>76.4</ele>
        <time>2018-03-14T16:50:30Z</time>
      </trkpt>
      <trkpt lat="62.636682923742" lon="17.97870862817">
        <ele>76.4</ele>
        <time>2018-03-14T16:50:31Z</time>
      </trkpt>
      <trkpt lat="62.636654006187" lon="17.978728912368">
        <ele>76.6</ele>
        <time>2018-03-14T16:50:32Z</time>
      </trkpt>
      <trkpt lat="62.636635398369" lon="17.978738132458">
        <ele>76.6</ele>
        <time>2018-03-14T16:50:33Z</time>
      </trkpt>
      <trkpt lat="62.636612934877" lon="17.978742574865">
        <ele>76.8</ele>
        <time>2018-03-14T16:50:34Z</time>
      </trkpt>
      <trkpt lat="62.636582927675" lon="17.978741233761">
        <ele>77</ele>
        <time>2018-03-14T16:50:35Z</time>
      </trkpt>
      <trkpt lat="62.636554680672" lon="17.978741652856">
        <ele>77.2</ele>
        <time>2018-03-14T16:50:36Z</time>
      </trkpt>
      <trkpt lat="62.636535653759" lon="17.978744167426">
        <ele>77.2</ele>
        <time>2018-03-14T16:50:37Z</time>
      </trkpt>
      <trkpt lat="62.636505311281" lon="17.978741401399">
        <ele>77.4</ele>
        <time>2018-03-14T16:50:38Z</time>
      </trkpt>
      <trkpt lat="62.636478992115" lon="17.978744251245">
        <ele>77.6</ele>
        <time>2018-03-14T16:50:39Z</time>
      </trkpt>
      <trkpt lat="62.636457869727" lon="17.978744837978">
        <ele>77.6</ele>
        <time>2018-03-14T16:50:40Z</time>
      </trkpt>
      <trkpt lat="62.636432975484" lon="17.978737881001">
        <ele>77.6</ele>
        <time>2018-03-14T16:50:41Z</time>
      </trkpt>
      <trkpt lat="62.636403387377" lon="17.978740898485">
        <ele>77.8</ele>
        <time>2018-03-14T16:50:42Z</time>
      </trkpt>
      <trkpt lat="62.636380337152" lon="17.978743077779">
        <ele>78</ele>
        <time>2018-03-14T16:50:43Z</time>
      </trkpt>
      <trkpt lat="62.636359801497" lon="17.978747520186">
        <ele>78</ele>
        <time>2018-03-14T16:50:44Z</time>
      </trkpt>
      <trkpt lat="62.636338343833" lon="17.978754309525">
        <ele>78.4</ele>
        <time>2018-03-14T16:50:45Z</time>
      </trkpt>
      <trkpt lat="62.636323256413" lon="17.978766128004">
        <ele>78.6</ele>
        <time>2018-03-14T16:50:46Z</time>
      </trkpt>
      <trkpt lat="62.636304648595" lon="17.978774174628">
        <ele>78.6</ele>
        <time>2018-03-14T16:50:47Z</time>
      </trkpt>
      <trkpt lat="62.6362790838" lon="17.978799068871">
        <ele>78.8</ele>
        <time>2018-03-14T16:50:48Z</time>
      </trkpt>
      <trkpt lat="62.636262739095" lon="17.978812060816">
        <ele>79</ele>
        <time>2018-03-14T16:50:49Z</time>
      </trkpt>
      <trkpt lat="62.636241449069" lon="17.978833015566">
        <ele>79.2</ele>
        <time>2018-03-14T16:50:50Z</time>
      </trkpt>
      <trkpt lat="62.636216973921" lon="17.978864196234">
        <ele>79.4</ele>
        <time>2018-03-14T16:50:51Z</time>
      </trkpt>
      <trkpt lat="62.636196186809" lon="17.978885150984">
        <ele>79.8</ele>
        <time>2018-03-14T16:50:52Z</time>
      </trkpt>
      <trkpt lat="62.636172717489" lon="17.978915158186">
        <ele>80</ele>
        <time>2018-03-14T16:50:53Z</time>
      </trkpt>
      <trkpt lat="62.636154025852" lon="17.978939046601">
        <ele>80.4</ele>
        <time>2018-03-14T16:50:54Z</time>
      </trkpt>
      <trkpt lat="62.636140698631" lon="17.978955391306">
        <ele>80.6</ele>
        <time>2018-03-14T16:50:55Z</time>
      </trkpt>
      <trkpt lat="62.636125778849" lon="17.978980453187">
        <ele>81</ele>
        <time>2018-03-14T16:50:56Z</time>
      </trkpt>
      <trkpt lat="62.636111781076" lon="17.979008784009">
        <ele>81.2</ele>
        <time>2018-03-14T16:50:57Z</time>
      </trkpt>
      <trkpt lat="62.63609971114" lon="17.979032672424">
        <ele>81.8</ele>
        <time>2018-03-14T16:50:58Z</time>
      </trkpt>
      <trkpt lat="62.636086886833" lon="17.979061338522">
        <ele>82</ele>
        <time>2018-03-14T16:50:59Z</time>
      </trkpt>
      <trkpt lat="62.636068446653" lon="17.979104672945">
        <ele>82.4</ele>
        <time>2018-03-14T16:51:00Z</time>
      </trkpt>
      <trkpt lat="62.636051179939" lon="17.979145241341">
        <ele>82.8</ele>
        <time>2018-03-14T16:51:01Z</time>
      </trkpt>
      <trkpt lat="62.636034499958" lon="17.979184468633">
        <ele>83.2</ele>
        <time>2018-03-14T16:51:02Z</time>
      </trkpt>
      <trkpt lat="62.636027542981" lon="17.979217074224">
        <ele>83.4</ele>
        <time>2018-03-14T16:51:03Z</time>
      </trkpt>
      <trkpt lat="62.636012287923" lon="17.979265270149">
        <ele>83.6</ele>
        <time>2018-03-14T16:51:04Z</time>
      </trkpt>
      <trkpt lat="62.636003486928" lon="17.979314974816">
        <ele>83.8</ele>
        <time>2018-03-14T16:51:05Z</time>
      </trkpt>
      <trkpt lat="62.635997619598" lon="17.97936493094">
        <ele>84</ele>
        <time>2018-03-14T16:51:06Z</time>
      </trkpt>
      <trkpt lat="62.635990243526" lon="17.979433411063">
        <ele>84.2</ele>
        <time>2018-03-14T16:51:07Z</time>
      </trkpt>
      <trkpt lat="62.635992255182" lon="17.979492168182">
        <ele>84.4</ele>
        <time>2018-03-14T16:51:08Z</time>
      </trkpt>
      <trkpt lat="62.635992171363" lon="17.979584788177">
        <ele>84.4</ele>
        <time>2018-03-14T16:51:09Z</time>
      </trkpt>
      <trkpt lat="62.635989656793" lon="17.979702302415">
        <ele>84.4</ele>
        <time>2018-03-14T16:51:10Z</time>
      </trkpt>
      <trkpt lat="62.635984962929" lon="17.979831383675">
        <ele>84.4</ele>
        <time>2018-03-14T16:51:11Z</time>
      </trkpt>
      <trkpt lat="62.635981693988" lon="17.979981503504">
        <ele>84.2</ele>
        <time>2018-03-14T16:51:12Z</time>
      </trkpt>
      <trkpt lat="62.635985465843" lon="17.980115781542">
        <ele>83.8</ele>
        <time>2018-03-14T16:51:13Z</time>
      </trkpt>
      <trkpt lat="62.635997787236" lon="17.980244108431">
        <ele>83.2</ele>
        <time>2018-03-14T16:51:14Z</time>
      </trkpt>
      <trkpt lat="62.636014131941" lon="17.980381739229">
        <ele>82.4</ele>
        <time>2018-03-14T16:51:15Z</time>
      </trkpt>
      <trkpt lat="62.636031901569" lon="17.980504366426">
        <ele>81.4</ele>
        <time>2018-03-14T16:51:16Z</time>
      </trkpt>
      <trkpt lat="62.636049838835" lon="17.980615426601">
        <ele>80.2</ele>
        <time>2018-03-14T16:51:17Z</time>
      </trkpt>
      <trkpt lat="62.636070039214" lon="17.980731096821">
        <ele>79</ele>
        <time>2018-03-14T16:51:18Z</time>
      </trkpt>
      <trkpt lat="62.636087808842" lon="17.980833188363">
        <ele>78.4</ele>
        <time>2018-03-14T16:51:19Z</time>
      </trkpt>
      <trkpt lat="62.63610893123" lon="17.980935950457">
        <ele>78</ele>
        <time>2018-03-14T16:51:20Z</time>
      </trkpt>
      <trkpt lat="62.636130221256" lon="17.98104131094">
        <ele>77.8</ele>
        <time>2018-03-14T16:51:21Z</time>
      </trkpt>
      <trkpt lat="62.636147739427" lon="17.981143486301">
        <ele>77.6</ele>
        <time>2018-03-14T16:51:22Z</time>
      </trkpt>
      <trkpt lat="62.636175064421" lon="17.981221940885">
        <ele>77.4</ele>
        <time>2018-03-14T16:51:23Z</time>
      </trkpt>
      <trkpt lat="62.636197192637" lon="17.981320931124">
        <ele>77.4</ele>
        <time>2018-03-14T16:51:24Z</time>
      </trkpt>
      <trkpt lat="62.636218231206" lon="17.981404163391">
        <ele>77.4</ele>
        <time>2018-03-14T16:51:25Z</time>
      </trkpt>
      <trkpt lat="62.63622292507" lon="17.981487144201">
        <ele>77.4</ele>
        <time>2018-03-14T16:51:26Z</time>
      </trkpt>
      <trkpt lat="62.636231055513" lon="17.981559228541">
        <ele>77.6</ele>
        <time>2018-03-14T16:51:27Z</time>
      </trkpt>
      <trkpt lat="62.636245807657" lon="17.981618572393">
        <ele>77.8</ele>
        <time>2018-03-14T16:51:28Z</time>
      </trkpt>
      <trkpt lat="62.636250920616" lon="17.981690153819">
        <ele>77.8</ele>
        <time>2018-03-14T16:51:29Z</time>
      </trkpt>
      <trkpt lat="62.636260140706" lon="17.981764501272">
        <ele>77.8</ele>
        <time>2018-03-14T16:51:30Z</time>
      </trkpt>
      <trkpt lat="62.63627573104" lon="17.981817810156">
        <ele>77.8</ele>
        <time>2018-03-14T16:51:31Z</time>
      </trkpt>
      <trkpt lat="62.636285537863" lon="17.981897270568">
        <ele>77.8</ele>
        <time>2018-03-14T16:51:32Z</time>
      </trkpt>
      <trkpt lat="62.636296434333" lon="17.981964577225">
        <ele>77.6</ele>
        <time>2018-03-14T16:51:33Z</time>
      </trkpt>
      <trkpt lat="62.636301463473" lon="17.982024759267">
        <ele>77.6</ele>
        <time>2018-03-14T16:51:34Z</time>
      </trkpt>
      <trkpt lat="62.636301295835" lon="17.982104806412">
        <ele>77.6</ele>
        <time>2018-03-14T16:51:35Z</time>
      </trkpt>
      <trkpt lat="62.636307246984" lon="17.982175549648">
        <ele>77.4</ele>
        <time>2018-03-14T16:51:36Z</time>
      </trkpt>
      <trkpt lat="62.636308336631" lon="17.982241263744">
        <ele>77.4</ele>
        <time>2018-03-14T16:51:37Z</time>
      </trkpt>
      <trkpt lat="62.63630255312" lon="17.982323406364">
        <ele>77.4</ele>
        <time>2018-03-14T16:51:38Z</time>
      </trkpt>
      <trkpt lat="62.636310432106" lon="17.982383504587">
        <ele>77.4</ele>
        <time>2018-03-14T16:51:39Z</time>
      </trkpt>
      <trkpt lat="62.636312359943" lon="17.982444021905">
        <ele>77.4</ele>
        <time>2018-03-14T16:51:40Z</time>
      </trkpt>
      <trkpt lat="62.636304648595" lon="17.982515770969">
        <ele>77.4</ele>
        <time>2018-03-14T16:51:41Z</time>
      </trkpt>
      <trkpt lat="62.636304397138" lon="17.982581485065">
        <ele>77.4</ele>
        <time>2018-03-14T16:51:42Z</time>
      </trkpt>
      <trkpt lat="62.63631009683" lon="17.982648624084">
        <ele>77.4</ele>
        <time>2018-03-14T16:51:43Z</time>
      </trkpt>
      <trkpt lat="62.636305654423" lon="17.982716266017">
        <ele>77.4</ele>
        <time>2018-03-14T16:51:44Z</time>
      </trkpt>
      <trkpt lat="62.636306073518" lon="17.982776615697">
        <ele>77.4</ele>
        <time>2018-03-14T16:51:45Z</time>
      </trkpt>
      <trkpt lat="62.636302469301" lon="17.982833528798">
        <ele>77.4</ele>
        <time>2018-03-14T16:51:46Z</time>
      </trkpt>
      <trkpt lat="62.636297272523" lon="17.982902344197">
        <ele>77.4</ele>
        <time>2018-03-14T16:51:47Z</time>
      </trkpt>
      <trkpt lat="62.636289728813" lon="17.982948863742">
        <ele>77.6</ele>
        <time>2018-03-14T16:51:48Z</time>
      </trkpt>
      <trkpt lat="62.636285454044" lon="17.983011727992">
        <ele>77.6</ele>
        <time>2018-03-14T16:51:49Z</time>
      </trkpt>
      <trkpt lat="62.636278413248" lon="17.9830814654">
        <ele>77.6</ele>
        <time>2018-03-14T16:51:50Z</time>
      </trkpt>
      <trkpt lat="62.636290231727" lon="17.983137288854">
        <ele>77.8</ele>
        <time>2018-03-14T16:51:51Z</time>
      </trkpt>
      <trkpt lat="62.636287549519" lon="17.983200153104">
        <ele>77.8</ele>
        <time>2018-03-14T16:51:52Z</time>
      </trkpt>
      <trkpt lat="62.63628914208" lon="17.983267459761">
        <ele>77.8</ele>
        <time>2018-03-14T16:51:53Z</time>
      </trkpt>
      <trkpt lat="62.63628662751" lon="17.983327222708">
        <ele>77.8</ele>
        <time>2018-03-14T16:51:54Z</time>
      </trkpt>
      <trkpt lat="62.636289225899" lon="17.983390170777">
        <ele>77.8</ele>
        <time>2018-03-14T16:51:55Z</time>
      </trkpt>
      <trkpt lat="62.636283023293" lon="17.983461919841">
        <ele>78</ele>
        <time>2018-03-14T16:51:56Z</time>
      </trkpt>
      <trkpt lat="62.636267013864" lon="17.983529729412">
        <ele>78</ele>
        <time>2018-03-14T16:51:57Z</time>
      </trkpt>
      <trkpt lat="62.636256033575" lon="17.983594018585">
        <ele>78</ele>
        <time>2018-03-14T16:51:58Z</time>
      </trkpt>
      <trkpt lat="62.636257877593" lon="17.983643387976">
        <ele>78.2</ele>
        <time>2018-03-14T16:51:59Z</time>
      </trkpt>
      <trkpt lat="62.636247148761" lon="17.983723686578">
        <ele>78.2</ele>
        <time>2018-03-14T16:52:00Z</time>
      </trkpt>
      <trkpt lat="62.636242873992" lon="17.983788311027">
        <ele>78.4</ele>
        <time>2018-03-14T16:52:01Z</time>
      </trkpt>
      <trkpt lat="62.636234911187" lon="17.983839608255">
        <ele>78.6</ele>
        <time>2018-03-14T16:52:02Z</time>
      </trkpt>
      <trkpt lat="62.63622795421" lon="17.983919571581">
        <ele>78.6</ele>
        <time>2018-03-14T16:52:03Z</time>
      </trkpt>
      <trkpt lat="62.636212196238" lon="17.983982100555">
        <ele>78.8</ele>
        <time>2018-03-14T16:52:04Z</time>
      </trkpt>
      <trkpt lat="62.636212782971" lon="17.984028703919">
        <ele>78.8</ele>
        <time>2018-03-14T16:52:05Z</time>
      </trkpt>
      <trkpt lat="62.636205406899" lon="17.984088299228">
        <ele>78.8</ele>
        <time>2018-03-14T16:52:06Z</time>
      </trkpt>
      <trkpt lat="62.636190738574" lon="17.9841543486">
        <ele>79</ele>
        <time>2018-03-14T16:52:07Z</time>
      </trkpt>
      <trkpt lat="62.636189648927" lon="17.984198018299">
        <ele>79.2</ele>
        <time>2018-03-14T16:52:08Z</time>
      </trkpt>
      <trkpt lat="62.636185122701" lon="17.984262642748">
        <ele>79.2</ele>
        <time>2018-03-14T16:52:09Z</time>
      </trkpt>
      <trkpt lat="62.636181937579" lon="17.984335481459">
        <ele>79.4</ele>
        <time>2018-03-14T16:52:10Z</time>
      </trkpt>
      <trkpt lat="62.636188056366" lon="17.984378061511">
        <ele>79.4</ele>
        <time>2018-03-14T16:52:11Z</time>
      </trkpt>
      <trkpt lat="62.636185374158" lon="17.984442853598">
        <ele>79.4</ele>
        <time>2018-03-14T16:52:12Z</time>
      </trkpt>
      <trkpt lat="62.636178668638" lon="17.984513010101">
        <ele>79.4</ele>
        <time>2018-03-14T16:52:13Z</time>
      </trkpt>
      <trkpt lat="62.636175232059" lon="17.984555171058">
        <ele>79.6</ele>
        <time>2018-03-14T16:52:14Z</time>
      </trkpt>
      <trkpt lat="62.636170538195" lon="17.98461954405">
        <ele>79.6</ele>
        <time>2018-03-14T16:52:15Z</time>
      </trkpt>
      <trkpt lat="62.636164670865" lon="17.984685928698">
        <ele>79.8</ele>
        <time>2018-03-14T16:52:16Z</time>
      </trkpt>
      <trkpt lat="62.636166933978" lon="17.984715600624">
        <ele>79.8</ele>
        <time>2018-03-14T16:52:17Z</time>
      </trkpt>
      <trkpt lat="62.636172214575" lon="17.984757761581">
        <ele>79.8</ele>
        <time>2018-03-14T16:52:18Z</time>
      </trkpt>
      <trkpt lat="62.636148242341" lon="17.984897320216">
        <ele>79.8</ele>
        <time>2018-03-14T16:52:20Z</time>
      </trkpt>
      <trkpt lat="62.636146565961" lon="17.984941911924">
        <ele>80</ele>
        <time>2018-03-14T16:52:21Z</time>
      </trkpt>
      <trkpt lat="62.636138770794" lon="17.98500762602">
        <ele>80</ele>
        <time>2018-03-14T16:52:22Z</time>
      </trkpt>
      <trkpt lat="62.636139022251" lon="17.985057498325">
        <ele>80.2</ele>
        <time>2018-03-14T16:52:23Z</time>
      </trkpt>
      <trkpt lat="62.636138603156" lon="17.985099659282">
        <ele>80.4</ele>
        <time>2018-03-14T16:52:24Z</time>
      </trkpt>
      <trkpt lat="62.636136340043" lon="17.985177694771">
        <ele>80.8</ele>
        <time>2018-03-14T16:52:25Z</time>
      </trkpt>
      <trkpt lat="62.6361365915" lon="17.985221699746">
        <ele>80.8</ele>
        <time>2018-03-14T16:52:26Z</time>
      </trkpt>
      <trkpt lat="62.636136256224" lon="17.985273416069">
        <ele>81</ele>
        <time>2018-03-14T16:52:27Z</time>
      </trkpt>
      <trkpt lat="62.636136004767" lon="17.985341058002">
        <ele>81</ele>
        <time>2018-03-14T16:52:28Z</time>
      </trkpt>
      <trkpt lat="62.636143799934" lon="17.98537475324">
        <ele>81</ele>
        <time>2018-03-14T16:52:29Z</time>
      </trkpt>
      <trkpt lat="62.636137932604" lon="17.985438288042">
        <ele>81</ele>
        <time>2018-03-14T16:52:30Z</time>
      </trkpt>
      <trkpt lat="62.636133657835" lon="17.985506013794">
        <ele>81</ele>
        <time>2018-03-14T16:52:31Z</time>
      </trkpt>
      <trkpt lat="62.636131981455" lon="17.985549599674">
        <ele>81.2</ele>
        <time>2018-03-14T16:52:32Z</time>
      </trkpt>
      <trkpt lat="62.6361198277" lon="17.985620762005">
        <ele>81.2</ele>
        <time>2018-03-14T16:52:33Z</time>
      </trkpt>
      <trkpt lat="62.636106584298" lon="17.985667113912">
        <ele>81.4</ele>
        <time>2018-03-14T16:52:34Z</time>
      </trkpt>
      <trkpt lat="62.636100130235" lon="17.985709861602">
        <ele>81.4</ele>
        <time>2018-03-14T16:52:35Z</time>
      </trkpt>
      <trkpt lat="62.636086803014" lon="17.985771133291">
        <ele>81.4</ele>
        <time>2018-03-14T16:52:36Z</time>
      </trkpt>
      <trkpt lat="62.636062160228" lon="17.985827040564">
        <ele>81.4</ele>
        <time>2018-03-14T16:52:37Z</time>
      </trkpt>
      <trkpt lat="62.636047910998" lon="17.985855706662">
        <ele>81.6</ele>
        <time>2018-03-14T16:52:38Z</time>
      </trkpt>
      <trkpt lat="62.636026620972" lon="17.985891832651">
        <ele>81.6</ele>
        <time>2018-03-14T16:52:39Z</time>
      </trkpt>
      <trkpt lat="62.635998457788" lon="17.985943632793">
        <ele>81.6</ele>
        <time>2018-03-14T16:52:40Z</time>
      </trkpt>
      <trkpt lat="62.635961661247" lon="17.986011945278">
        <ele>81.6</ele>
        <time>2018-03-14T16:52:41Z</time>
      </trkpt>
      <trkpt lat="62.635927211638" lon="17.986007754328">
        <ele>81.8</ele>
        <time>2018-03-14T16:52:42Z</time>
      </trkpt>
      <trkpt lat="62.635901982119" lon="17.986024685766">
        <ele>81.8</ele>
        <time>2018-03-14T16:52:43Z</time>
      </trkpt>
      <trkpt lat="62.635877842247" lon="17.986047903629">
        <ele>82</ele>
        <time>2018-03-14T16:52:44Z</time>
      </trkpt>
      <trkpt lat="62.635852109814" lon="17.986070870035">
        <ele>82</ele>
        <time>2018-03-14T16:52:45Z</time>
      </trkpt>
      <trkpt lat="62.635832831444" lon="17.986088220568">
        <ele>82.4</ele>
        <time>2018-03-14T16:52:46Z</time>
      </trkpt>
      <trkpt lat="62.635809278305" lon="17.986115042648">
        <ele>82.6</ele>
        <time>2018-03-14T16:52:47Z</time>
      </trkpt>
      <trkpt lat="62.635788239736" lon="17.986143708746">
        <ele>82.6</ele>
        <time>2018-03-14T16:52:48Z</time>
      </trkpt>
      <trkpt lat="62.63576862609" lon="17.986173715948">
        <ele>82.8</ele>
        <time>2018-03-14T16:52:49Z</time>
      </trkpt>
      <trkpt lat="62.635751275557" lon="17.986201124761">
        <ele>83</ele>
        <time>2018-03-14T16:52:50Z</time>
      </trkpt>
      <trkpt lat="62.635736942508" lon="17.986225013176">
        <ele>83</ele>
        <time>2018-03-14T16:52:51Z</time>
      </trkpt>
      <trkpt lat="62.635723950563" lon="17.986258624595">
        <ele>83.4</ele>
        <time>2018-03-14T16:52:52Z</time>
      </trkpt>
      <trkpt lat="62.635707773496" lon="17.986299444448">
        <ele>83.6</ele>
        <time>2018-03-14T16:52:53Z</time>
      </trkpt>
      <trkpt lat="62.635686986384" lon="17.986349400572">
        <ele>84</ele>
        <time>2018-03-14T16:52:54Z</time>
      </trkpt>
      <trkpt lat="62.635668378566" lon="17.986405643121">
        <ele>84.2</ele>
        <time>2018-03-14T16:52:55Z</time>
      </trkpt>
      <trkpt lat="62.635652536775" lon="17.986451408295">
        <ele>84.2</ele>
        <time>2018-03-14T16:52:56Z</time>
      </trkpt>
      <trkpt lat="62.635632168758" lon="17.986500190953">
        <ele>84.4</ele>
        <time>2018-03-14T16:52:57Z</time>
      </trkpt>
      <trkpt lat="62.635618003347" lon="17.986538747693">
        <ele>84.4</ele>
        <time>2018-03-14T16:52:58Z</time>
      </trkpt>
      <trkpt lat="62.635601742461" lon="17.986583339401">
        <ele>84.2</ele>
        <time>2018-03-14T16:52:59Z</time>
      </trkpt>
      <trkpt lat="62.635585733032" lon="17.98663706738">
        <ele>84.4</ele>
        <time>2018-03-14T16:53:00Z</time>
      </trkpt>
      <trkpt lat="62.63556997506" lon="17.986686436771">
        <ele>84.4</ele>
        <time>2018-03-14T16:53:01Z</time>
      </trkpt>
      <trkpt lat="62.635559330047" lon="17.986731028479">
        <ele>84.6</ele>
        <time>2018-03-14T16:53:02Z</time>
      </trkpt>
      <trkpt lat="62.635555306735" lon="17.986771429237">
        <ele>84.6</ele>
        <time>2018-03-14T16:53:03Z</time>
      </trkpt>
      <trkpt lat="62.635542650066" lon="17.986815685669">
        <ele>84.6</ele>
        <time>2018-03-14T16:53:04Z</time>
      </trkpt>
      <trkpt lat="62.635525299533" lon="17.98687595153">
        <ele>84.6</ele>
        <time>2018-03-14T16:53:05Z</time>
      </trkpt>
      <trkpt lat="62.635516582357" lon="17.986918196306">
        <ele>84.8</ele>
        <time>2018-03-14T16:53:06Z</time>
      </trkpt>
      <trkpt lat="62.635497555444" lon="17.986966140774">
        <ele>85</ele>
        <time>2018-03-14T16:53:07Z</time>
      </trkpt>
      <trkpt lat="62.635480791644" lon="17.987005200428">
        <ele>85</ele>
        <time>2018-03-14T16:53:08Z</time>
      </trkpt>
      <trkpt lat="62.635462183826" lon="17.987044595358">
        <ele>85.2</ele>
        <time>2018-03-14T16:53:09Z</time>
      </trkpt>
      <trkpt lat="62.635443324551" lon="17.987084325564">
        <ele>85.4</ele>
        <time>2018-03-14T16:53:10Z</time>
      </trkpt>
      <trkpt lat="62.635420190507" lon="17.987133443498">
        <ele>85.4</ele>
        <time>2018-03-14T16:53:11Z</time>
      </trkpt>
      <trkpt lat="62.635397559377" lon="17.987172922247">
        <ele>85.6</ele>
        <time>2018-03-14T16:53:12Z</time>
      </trkpt>
      <trkpt lat="62.635379286835" lon="17.987206449847">
        <ele>85.6</ele>
        <time>2018-03-14T16:53:13Z</time>
      </trkpt>
      <trkpt lat="62.635358080628" lon="17.987249700451">
        <ele>85.8</ele>
        <time>2018-03-14T16:53:14Z</time>
      </trkpt>
      <trkpt lat="62.63533695824" lon="17.9872891792">
        <ele>86</ele>
        <time>2018-03-14T16:53:15Z</time>
      </trkpt>
      <trkpt lat="62.635319440069" lon="17.987322036248">
        <ele>86.2</ele>
        <time>2018-03-14T16:53:16Z</time>
      </trkpt>
      <trkpt lat="62.635296641301" lon="17.987356066762">
        <ele>86.2</ele>
        <time>2018-03-14T16:53:17Z</time>
      </trkpt>
      <trkpt lat="62.63527744675" lon="17.987390935466">
        <ele>86.2</ele>
        <time>2018-03-14T16:53:18Z</time>
      </trkpt>
      <trkpt lat="62.635260012398" lon="17.98742580417">
        <ele>86.2</ele>
        <time>2018-03-14T16:53:19Z</time>
      </trkpt>
      <trkpt lat="62.635239476743" lon="17.987469138593">
        <ele>86.2</ele>
        <time>2018-03-14T16:53:20Z</time>
      </trkpt>
      <trkpt lat="62.635220366011" lon="17.987511215731">
        <ele>86.4</ele>
        <time>2018-03-14T16:53:21Z</time>
      </trkpt>
      <trkpt lat="62.635204943315" lon="17.9875490181">
        <ele>86.4</ele>
        <time>2018-03-14T16:53:22Z</time>
      </trkpt>
      <trkpt lat="62.635190191171" lon="17.987593693627">
        <ele>86.4</ele>
        <time>2018-03-14T16:53:23Z</time>
      </trkpt>
      <trkpt lat="62.635178121235" lon="17.987643230656">
        <ele>86.6</ele>
        <time>2018-03-14T16:53:24Z</time>
      </trkpt>
      <trkpt lat="62.635164961652" lon="17.987690756029">
        <ele>86.6</ele>
        <time>2018-03-14T16:53:25Z</time>
      </trkpt>
      <trkpt lat="62.635156244476" lon="17.98774263999">
        <ele>86.8</ele>
        <time>2018-03-14T16:53:26Z</time>
      </trkpt>
      <trkpt lat="62.635149958051" lon="17.987791590286">
        <ele>86.8</ele>
        <time>2018-03-14T16:53:27Z</time>
      </trkpt>
      <trkpt lat="62.635144342178" lon="17.987829392655">
        <ele>87</ele>
        <time>2018-03-14T16:53:28Z</time>
      </trkpt>
      <trkpt lat="62.635134619174" lon="17.987888065955">
        <ele>87.4</ele>
        <time>2018-03-14T16:53:29Z</time>
      </trkpt>
      <trkpt lat="62.635125231446" lon="17.987946487798">
        <ele>87.6</ele>
        <time>2018-03-14T16:53:30Z</time>
      </trkpt>
      <trkpt lat="62.635117855374" lon="17.987990828049">
        <ele>87.6</ele>
        <time>2018-03-14T16:53:31Z</time>
      </trkpt>
      <trkpt lat="62.635107210361" lon="17.988042041458">
        <ele>87.8</ele>
        <time>2018-03-14T16:53:32Z</time>
      </trkpt>
      <trkpt lat="62.635095140425" lon="17.988089566831">
        <ele>88</ele>
        <time>2018-03-14T16:53:33Z</time>
      </trkpt>
      <trkpt lat="62.635084327774" lon="17.988131392512">
        <ele>88</ele>
        <time>2018-03-14T16:53:34Z</time>
      </trkpt>
      <trkpt lat="62.635066809603" lon="17.988187467423">
        <ele>88.2</ele>
        <time>2018-03-14T16:53:35Z</time>
      </trkpt>
      <trkpt lat="62.635045519577" lon="17.988236417719">
        <ele>88.4</ele>
        <time>2018-03-14T16:53:36Z</time>
      </trkpt>
      <trkpt lat="62.635028085225" lon="17.988276147925">
        <ele>88.6</ele>
        <time>2018-03-14T16:53:37Z</time>
      </trkpt>
      <trkpt lat="62.635012997805" lon="17.98830841824">
        <ele>88.6</ele>
        <time>2018-03-14T16:53:38Z</time>
      </trkpt>
      <trkpt lat="62.634992043055" lon="17.988336832881">
        <ele>88.8</ele>
        <time>2018-03-14T16:53:39Z</time>
      </trkpt>
      <trkpt lat="62.63496731645" lon="17.98835619507">
        <ele>89</ele>
        <time>2018-03-14T16:53:40Z</time>
      </trkpt>
      <trkpt lat="62.63494217075" lon="17.988383268607">
        <ele>88.8</ele>
        <time>2018-03-14T16:53:41Z</time>
      </trkpt>
      <trkpt lat="62.634914929575" lon="17.988411347972">
        <ele>89</ele>
        <time>2018-03-14T16:53:42Z</time>
      </trkpt>
      <trkpt lat="62.634890957341" lon="17.98843582312">
        <ele>89</ele>
        <time>2018-03-14T16:53:43Z</time>
      </trkpt>
      <trkpt lat="62.634868996763" lon="17.988459795354">
        <ele>89.2</ele>
        <time>2018-03-14T16:53:44Z</time>
      </trkpt>
      <trkpt lat="62.634847203823" lon="17.98847773262">
        <ele>89.2</ele>
        <time>2018-03-14T16:53:45Z</time>
      </trkpt>
      <trkpt lat="62.634822980132" lon="17.988499190284">
        <ele>89.2</ele>
        <time>2018-03-14T16:53:46Z</time>
      </trkpt>
      <trkpt lat="62.634799929907" lon="17.988515702627">
        <ele>89.4</ele>
        <time>2018-03-14T16:53:47Z</time>
      </trkpt>
      <trkpt lat="62.63476447447" lon="17.988536825015">
        <ele>89.4</ele>
        <time>2018-03-14T16:53:48Z</time>
      </trkpt>
      <trkpt lat="62.634750728154" lon="17.98854227325">
        <ele>89.6</ele>
        <time>2018-03-14T16:53:49Z</time>
      </trkpt>
      <trkpt lat="62.634730863051" lon="17.98856071343">
        <ele>89.8</ele>
        <time>2018-03-14T16:53:50Z</time>
      </trkpt>
      <trkpt lat="62.634707393731" lon="17.988574292108">
        <ele>90.2</ele>
        <time>2018-03-14T16:53:51Z</time>
      </trkpt>
      <trkpt lat="62.63468065547" lon="17.988589295709">
        <ele>90.2</ele>
        <time>2018-03-14T16:53:52Z</time>
      </trkpt>
      <trkpt lat="62.634666070964" lon="17.988598348161">
        <ele>90.2</ele>
        <time>2018-03-14T16:53:53Z</time>
      </trkpt>
      <trkpt lat="62.634643691291" lon="17.988606981518">
        <ele>90.4</ele>
        <time>2018-03-14T16:53:54Z</time>
      </trkpt>
      <trkpt lat="62.634610750424" lon="17.988636737263">
        <ele>90.4</ele>
        <time>2018-03-14T16:53:55Z</time>
      </trkpt>
      <trkpt lat="62.634586107638" lon="17.988655093624">
        <ele>90.4</ele>
        <time>2018-03-14T16:53:56Z</time>
      </trkpt>
      <trkpt lat="62.634561800128" lon="17.988673785261">
        <ele>90.4</ele>
        <time>2018-03-14T16:53:57Z</time>
      </trkpt>
      <trkpt lat="62.634543108491" lon="17.988689040319">
        <ele>90.6</ele>
        <time>2018-03-14T16:53:58Z</time>
      </trkpt>
      <trkpt lat="62.634520896456" lon="17.988712677277">
        <ele>90.8</ele>
        <time>2018-03-14T16:53:59Z</time>
      </trkpt>
      <trkpt lat="62.634504300294" lon="17.988734470217">
        <ele>91</ele>
        <time>2018-03-14T16:54:00Z</time>
      </trkpt>
      <trkpt lat="62.634481836802" lon="17.98876942274">
        <ele>91.2</ele>
        <time>2018-03-14T16:54:01Z</time>
      </trkpt>
      <trkpt lat="62.634466833201" lon="17.988795071354">
        <ele>91.4</ele>
        <time>2018-03-14T16:54:02Z</time>
      </trkpt>
      <trkpt lat="62.634450320858" lon="17.988822480167">
        <ele>91.6</ele>
        <time>2018-03-14T16:54:03Z</time>
      </trkpt>
      <trkpt lat="62.634434898162" lon="17.988848715514">
        <ele>91.6</ele>
        <time>2018-03-14T16:54:04Z</time>
      </trkpt>
      <trkpt lat="62.634415452154" lon="17.98889096029">
        <ele>91.8</ele>
        <time>2018-03-14T16:54:05Z</time>
      </trkpt>
      <trkpt lat="62.63440070001" lon="17.988926415727">
        <ele>91.8</ele>
        <time>2018-03-14T16:54:06Z</time>
      </trkpt>
      <trkpt lat="62.634377146871" lon="17.988978467326">
        <ele>92</ele>
        <time>2018-03-14T16:54:07Z</time>
      </trkpt>
      <trkpt lat="62.634361891813" lon="17.989015766781">
        <ele>92</ele>
        <time>2018-03-14T16:54:08Z</time>
      </trkpt>
      <trkpt lat="62.634349905696" lon="17.989049545838">
        <ele>92.2</ele>
        <time>2018-03-14T16:54:09Z</time>
      </trkpt>
      <trkpt lat="62.634328280394" lon="17.989092042071">
        <ele>92.4</ele>
        <time>2018-03-14T16:54:10Z</time>
      </trkpt>
      <trkpt lat="62.634309253481" lon="17.98913487358">
        <ele>92.4</ele>
        <time>2018-03-14T16:54:11Z</time>
      </trkpt>
      <trkpt lat="62.634288634007" lon="17.989169826103">
        <ele>92.6</ele>
        <time>2018-03-14T16:54:12Z</time>
      </trkpt>
      <trkpt lat="62.634263069212" lon="17.989209304852">
        <ele>92.6</ele>
        <time>2018-03-14T16:54:13Z</time>
      </trkpt>
      <trkpt lat="62.634245802498" lon="17.989245766117">
        <ele>92.8</ele>
        <time>2018-03-14T16:54:14Z</time>
      </trkpt>
      <trkpt lat="62.634226691766" lon="17.989275773319">
        <ele>92.8</ele>
        <time>2018-03-14T16:54:15Z</time>
      </trkpt>
      <trkpt lat="62.63420623993" lon="17.989305696702">
        <ele>92.8</ele>
        <time>2018-03-14T16:54:16Z</time>
      </trkpt>
      <trkpt lat="62.634195594917" lon="17.989326567633">
        <ele>92.8</ele>
        <time>2018-03-14T16:54:17Z</time>
      </trkpt>
      <trkpt lat="62.634174891624" lon="17.989348025297">
        <ele>92.8</ele>
        <time>2018-03-14T16:54:18Z</time>
      </trkpt>
      <trkpt lat="62.63415343396" lon="17.989377529585">
        <ele>92.8</ele>
        <time>2018-03-14T16:54:19Z</time>
      </trkpt>
      <trkpt lat="62.6341333174" lon="17.989403178199">
        <ele>92.8</ele>
        <time>2018-03-14T16:54:20Z</time>
      </trkpt>
      <trkpt lat="62.634112865564" lon="17.989430167917">
        <ele>92.8</ele>
        <time>2018-03-14T16:54:21Z</time>
      </trkpt>
      <trkpt lat="62.634085456751" lon="17.9894600913">
        <ele>93</ele>
        <time>2018-03-14T16:54:22Z</time>
      </trkpt>
      <trkpt lat="62.634068106218" lon="17.989485237">
        <ele>93</ele>
        <time>2018-03-14T16:54:23Z</time>
      </trkpt>
      <trkpt lat="62.634050504228" lon="17.989513567822">
        <ele>93</ele>
        <time>2018-03-14T16:54:24Z</time>
      </trkpt>
      <trkpt lat="62.63402938184" lon="17.989538210608">
        <ele>93</ele>
        <time>2018-03-14T16:54:25Z</time>
      </trkpt>
      <trkpt lat="62.633998452629" lon="17.989562853394">
        <ele>93.2</ele>
        <time>2018-03-14T16:54:26Z</time>
      </trkpt>
      <trkpt lat="62.633975150947" lon="17.98957827609">
        <ele>93.2</ele>
        <time>2018-03-14T16:54:27Z</time>
      </trkpt>
      <trkpt lat="62.633959895889" lon="17.989590178388">
        <ele>93.4</ele>
        <time>2018-03-14T16:54:28Z</time>
      </trkpt>
      <trkpt lat="62.633931732705" lon="17.989609875853">
        <ele>93.4</ele>
        <time>2018-03-14T16:54:29Z</time>
      </trkpt>
      <trkpt lat="62.633908011928" lon="17.989634770096">
        <ele>93.6</ele>
        <time>2018-03-14T16:54:30Z</time>
      </trkpt>
      <trkpt lat="62.633885799893" lon="17.989663268556">
        <ele>93.8</ele>
        <time>2018-03-14T16:54:31Z</time>
      </trkpt>
      <trkpt lat="62.633854619225" lon="17.989693611034">
        <ele>93.8</ele>
        <time>2018-03-14T16:54:32Z</time>
      </trkpt>
      <trkpt lat="62.633833999751" lon="17.989729653204">
        <ele>94.2</ele>
        <time>2018-03-14T16:54:33Z</time>
      </trkpt>
      <trkpt lat="62.633812122992" lon="17.989763180804">
        <ele>94.4</ele>
        <time>2018-03-14T16:54:34Z</time>
      </trkpt>
      <trkpt lat="62.633788905129" lon="17.989813975118">
        <ele>94.6</ele>
        <time>2018-03-14T16:54:35Z</time>
      </trkpt>
      <trkpt lat="62.633767782741" lon="17.989855214066">
        <ele>94.6</ele>
        <time>2018-03-14T16:54:36Z</time>
      </trkpt>
      <trkpt lat="62.633749929294" lon="17.989899051403">
        <ele>94.8</ele>
        <time>2018-03-14T16:54:37Z</time>
      </trkpt>
      <trkpt lat="62.633738278453" lon="17.9899378596">
        <ele>94.6</ele>
        <time>2018-03-14T16:54:38Z</time>
      </trkpt>
      <trkpt lat="62.63371757516" lon="17.989989240647">
        <ele>94.6</ele>
        <time>2018-03-14T16:54:39Z</time>
      </trkpt>
      <trkpt lat="62.633700978998" lon="17.99002419317">
        <ele>94.6</ele>
        <time>2018-03-14T16:54:40Z</time>
      </trkpt>
      <trkpt lat="62.633687316501" lon="17.990057301675">
        <ele>94.8</ele>
        <time>2018-03-14T16:54:41Z</time>
      </trkpt>
      <trkpt lat="62.633671558529" lon="17.990088566162">
        <ele>94.6</ele>
        <time>2018-03-14T16:54:42Z</time>
      </trkpt>
      <trkpt lat="62.63364968177" lon="17.990128380187">
        <ele>94.6</ele>
        <time>2018-03-14T16:54:43Z</time>
      </trkpt>
      <trkpt lat="62.633629481391" lon="17.990168864764">
        <ele>94.8</ele>
        <time>2018-03-14T16:54:44Z</time>
      </trkpt>
      <trkpt lat="62.633613723419" lon="17.990200799803">
        <ele>94.8</ele>
        <time>2018-03-14T16:54:45Z</time>
      </trkpt>
      <trkpt lat="62.633589583547" lon="17.990234746498">
        <ele>95</ele>
        <time>2018-03-14T16:54:46Z</time>
      </trkpt>
      <trkpt lat="62.633568042064" lon="17.990266597718">
        <ele>95</ele>
        <time>2018-03-14T16:54:47Z</time>
      </trkpt>
      <trkpt lat="62.633550859169" lon="17.990287971563">
        <ele>95</ele>
        <time>2018-03-14T16:54:48Z</time>
      </trkpt>
      <trkpt lat="62.633530155876" lon="17.990313201082">
        <ele>95</ele>
        <time>2018-03-14T16:54:49Z</time>
      </trkpt>
      <trkpt lat="62.633503669072" lon="17.990336418945">
        <ele>95</ele>
        <time>2018-03-14T16:54:50Z</time>
      </trkpt>
      <trkpt lat="62.63348539653" lon="17.990359133894">
        <ele>95</ele>
        <time>2018-03-14T16:54:51Z</time>
      </trkpt>
      <trkpt lat="62.633463771228" lon="17.990375478599">
        <ele>95.4</ele>
        <time>2018-03-14T16:54:52Z</time>
      </trkpt>
      <trkpt lat="62.633435440406" lon="17.990390566019">
        <ele>95.4</ele>
        <time>2018-03-14T16:54:53Z</time>
      </trkpt>
      <trkpt lat="62.633407947774" lon="17.990407665095">
        <ele>95.4</ele>
        <time>2018-03-14T16:54:54Z</time>
      </trkpt>
      <trkpt lat="62.633375342183" lon="17.990422165782">
        <ele>95.6</ele>
        <time>2018-03-14T16:54:55Z</time>
      </trkpt>
      <trkpt lat="62.63334960975" lon="17.990436079736">
        <ele>95.6</ele>
        <time>2018-03-14T16:54:56Z</time>
      </trkpt>
      <trkpt lat="62.633311472105" lon="17.990457956495">
        <ele>95.6</ele>
        <time>2018-03-14T16:54:57Z</time>
      </trkpt>
      <trkpt lat="62.633288673337" lon="17.990487628421">
        <ele>95.8</ele>
        <time>2018-03-14T16:54:58Z</time>
      </trkpt>
      <trkpt lat="62.633257241212" lon="17.990518976727">
        <ele>95.8</ele>
        <time>2018-03-14T16:54:59Z</time>
      </trkpt>
      <trkpt lat="62.63322891039" lon="17.990558036381">
        <ele>95.6</ele>
        <time>2018-03-14T16:55:00Z</time>
      </trkpt>
      <trkpt lat="62.633210386391" lon="17.99057907495">
        <ele>95.6</ele>
        <time>2018-03-14T16:55:01Z</time>
      </trkpt>
      <trkpt lat="62.63318197175" lon="17.990619810984">
        <ele>95.6</ele>
        <time>2018-03-14T16:55:02Z</time>
      </trkpt>
      <trkpt lat="62.633160514086" lon="17.990655936973">
        <ele>95.6</ele>
        <time>2018-03-14T16:55:03Z</time>
      </trkpt>
      <trkpt lat="62.633141570992" lon="17.9907006125">
        <ele>95.4</ele>
        <time>2018-03-14T16:55:04Z</time>
      </trkpt>
      <trkpt lat="62.633117179663" lon="17.990769260261">
        <ele>95.4</ele>
        <time>2018-03-14T16:55:05Z</time>
      </trkpt>
      <trkpt lat="62.633108546306" lon="17.990829861398">
        <ele>95.6</ele>
        <time>2018-03-14T16:55:06Z</time>
      </trkpt>
      <trkpt lat="62.633092620696" lon="17.990875207477">
        <ele>95.6</ele>
        <time>2018-03-14T16:55:07Z</time>
      </trkpt>
      <trkpt lat="62.633071749765" lon="17.990917368434">
        <ele>95.4</ele>
        <time>2018-03-14T16:55:08Z</time>
      </trkpt>
      <trkpt lat="62.633057584354" lon="17.990963385065">
        <ele>95.4</ele>
        <time>2018-03-14T16:55:09Z</time>
      </trkpt>
      <trkpt lat="62.633039730907" lon="17.991016777768">
        <ele>95.4</ele>
        <time>2018-03-14T16:55:10Z</time>
      </trkpt>
      <trkpt lat="62.633022212736" lon="17.99108785628">
        <ele>95.4</ele>
        <time>2018-03-14T16:55:11Z</time>
      </trkpt>
      <trkpt lat="62.633008131144" lon="17.991139404965">
        <ele>95.4</ele>
        <time>2018-03-14T16:55:12Z</time>
      </trkpt>
      <trkpt lat="62.632990948249" lon="17.991193384401">
        <ele>95.4</ele>
        <time>2018-03-14T16:55:13Z</time>
      </trkpt>
      <trkpt lat="62.632977704847" lon="17.991248621122">
        <ele>95.4</ele>
        <time>2018-03-14T16:55:14Z</time>
      </trkpt>
      <trkpt lat="62.632959683762" lon="17.991300505083">
        <ele>95.4</ele>
        <time>2018-03-14T16:55:15Z</time>
      </trkpt>
      <trkpt lat="62.632945518351" lon="17.991333865045">
        <ele>95.6</ele>
        <time>2018-03-14T16:55:16Z</time>
      </trkpt>
      <trkpt lat="62.632915175873" lon="17.991397232209">
        <ele>95.4</ele>
        <time>2018-03-14T16:55:17Z</time>
      </trkpt>
      <trkpt lat="62.632894137304" lon="17.991446769238">
        <ele>95.6</ele>
        <time>2018-03-14T16:55:18Z</time>
      </trkpt>
      <trkpt lat="62.632876702952" lon="17.991492953507">
        <ele>95.6</ele>
        <time>2018-03-14T16:55:19Z</time>
      </trkpt>
      <trkpt lat="62.632851641071" lon="17.991544921287">
        <ele>95.6</ele>
        <time>2018-03-14T16:55:20Z</time>
      </trkpt>
      <trkpt lat="62.632841918067" lon="17.991584567674">
        <ele>95.6</ele>
        <time>2018-03-14T16:55:21Z</time>
      </trkpt>
      <trkpt lat="62.63282657919" lon="17.991620861301">
        <ele>95.6</ele>
        <time>2018-03-14T16:55:22Z</time>
      </trkpt>
      <trkpt lat="62.63280143349" lon="17.991669476321">
        <ele>95.6</ele>
        <time>2018-03-14T16:55:23Z</time>
      </trkpt>
      <trkpt lat="62.632778550903" lon="17.991720773549">
        <ele>95.4</ele>
        <time>2018-03-14T16:55:24Z</time>
      </trkpt>
      <trkpt lat="62.632760948913" lon="17.991770562035">
        <ele>95.4</ele>
        <time>2018-03-14T16:55:25Z</time>
      </trkpt>
      <trkpt lat="62.632750471538" lon="17.991824792928">
        <ele>95.4</ele>
        <time>2018-03-14T16:55:26Z</time>
      </trkpt>
      <trkpt lat="62.632739742706" lon="17.99188329859">
        <ele>95.4</ele>
        <time>2018-03-14T16:55:27Z</time>
      </trkpt>
      <trkpt lat="62.632735635575" lon="17.991931578334">
        <ele>95.4</ele>
        <time>2018-03-14T16:55:28Z</time>
      </trkpt>
      <trkpt lat="62.632743933656" lon="17.991981953553">
        <ele>95.4</ele>
        <time>2018-03-14T16:55:29Z</time>
      </trkpt>
      <trkpt lat="62.632759943085" lon="17.992013804773">
        <ele>95.6</ele>
        <time>2018-03-14T16:55:30Z</time>
      </trkpt>
      <trkpt lat="62.632780646378" lon="17.992040543034">
        <ele>95.6</ele>
        <time>2018-03-14T16:55:31Z</time>
      </trkpt>
      <trkpt lat="62.632799673291" lon="17.992049176391">
        <ele>95.6</ele>
        <time>2018-03-14T16:55:32Z</time>
      </trkpt>
      <trkpt lat="62.632816437091" lon="17.992056049549">
        <ele>95.6</ele>
        <time>2018-03-14T16:55:33Z</time>
      </trkpt>
      <trkpt lat="62.632842672438" lon="17.992061413965">
        <ele>95.6</ele>
        <time>2018-03-14T16:55:34Z</time>
      </trkpt>
      <trkpt lat="62.632868740147" lon="17.992065772553">
        <ele>95.6</ele>
        <time>2018-03-14T16:55:35Z</time>
      </trkpt>
      <trkpt lat="62.632889108164" lon="17.992071136969">
        <ele>95.8</ele>
        <time>2018-03-14T16:55:36Z</time>
      </trkpt>
      <trkpt lat="62.632912326027" lon="17.992081698163">
        <ele>95.8</ele>
        <time>2018-03-14T16:55:37Z</time>
      </trkpt>
      <trkpt lat="62.632932945501" lon="17.992085553837">
        <ele>95.8</ele>
        <time>2018-03-14T16:55:38Z</time>
      </trkpt>
      <trkpt lat="62.632955911907" lon="17.992095444479">
        <ele>95.8</ele>
        <time>2018-03-14T16:55:39Z</time>
      </trkpt>
      <trkpt lat="62.632981895797" lon="17.99211380084">
        <ele>95.8</ele>
        <time>2018-03-14T16:55:40Z</time>
      </trkpt>
      <trkpt lat="62.633004359289" lon="17.992124110577">
        <ele>96</ele>
        <time>2018-03-14T16:55:41Z</time>
      </trkpt>
      <trkpt lat="62.633031432826" lon="17.992136348151">
        <ele>96</ele>
        <time>2018-03-14T16:55:42Z</time>
      </trkpt>
      <trkpt lat="62.633054147775" lon="17.992153950141">
        <ele>96</ele>
        <time>2018-03-14T16:55:43Z</time>
      </trkpt>
      <trkpt lat="62.633077281819" lon="17.992174485796">
        <ele>95.8</ele>
        <time>2018-03-14T16:55:44Z</time>
      </trkpt>
      <trkpt lat="62.633106283193" lon="17.992187645379">
        <ele>95.8</ele>
        <time>2018-03-14T16:55:45Z</time>
      </trkpt>
      <trkpt lat="62.633132099445" lon="17.992185968999">
        <ele>95.8</ele>
        <time>2018-03-14T16:55:46Z</time>
      </trkpt>
      <trkpt lat="62.633160346448" lon="17.99218923794">
        <ele>95.8</ele>
        <time>2018-03-14T16:55:47Z</time>
      </trkpt>
      <trkpt lat="62.633193035858" lon="17.99219845803">
        <ele>95.8</ele>
        <time>2018-03-14T16:55:48Z</time>
      </trkpt>
      <trkpt lat="62.633230502951" lon="17.992206672292">
        <ele>95.8</ele>
        <time>2018-03-14T16:55:50Z</time>
      </trkpt>
      <trkpt lat="62.633245087457" lon="17.992193596528">
        <ele>95.8</ele>
        <time>2018-03-14T16:55:51Z</time>
      </trkpt>
      <trkpt lat="62.633283644197" lon="17.992191836329">
        <ele>95.8</ele>
        <time>2018-03-14T16:55:52Z</time>
      </trkpt>
      <trkpt lat="62.633312310295" lon="17.992202313704">
        <ele>95.8</ele>
        <time>2018-03-14T16:55:53Z</time>
      </trkpt>
      <trkpt lat="62.633358159288" lon="17.992208013396">
        <ele>95.8</ele>
        <time>2018-03-14T16:55:54Z</time>
      </trkpt>
      <trkpt lat="62.633395794019" lon="17.992222849359">
        <ele>95.8</ele>
        <time>2018-03-14T16:55:55Z</time>
      </trkpt>
      <trkpt lat="62.633436110958" lon="17.992244055566">
        <ele>95.6</ele>
        <time>2018-03-14T16:55:56Z</time>
      </trkpt>
      <trkpt lat="62.633469806196" lon="17.992275655329">
        <ele>95.6</ele>
        <time>2018-03-14T16:55:57Z</time>
      </trkpt>
      <trkpt lat="62.633508195298" lon="17.992308847653">
        <ele>95</ele>
        <time>2018-03-14T16:55:58Z</time>
      </trkpt>
      <trkpt lat="62.633539543604" lon="17.992347069117">
        <ele>94.6</ele>
        <time>2018-03-14T16:55:59Z</time>
      </trkpt>
      <trkpt lat="62.6335717301" lon="17.992401802924">
        <ele>94.6</ele>
        <time>2018-03-14T16:56:00Z</time>
      </trkpt>
      <trkpt lat="62.633613723419" lon="17.992439186198">
        <ele>94.4</ele>
        <time>2018-03-14T16:56:01Z</time>
      </trkpt>
      <trkpt lat="62.63364884358" lon="17.992511354357">
        <ele>94.2</ele>
        <time>2018-03-14T16:56:02Z</time>
      </trkpt>
      <trkpt lat="62.633674156918" lon="17.992554437323">
        <ele>94.2</ele>
        <time>2018-03-14T16:56:03Z</time>
      </trkpt>
      <trkpt lat="62.633703577387" lon="17.992619480867">
        <ele>94.2</ele>
        <time>2018-03-14T16:56:04Z</time>
      </trkpt>
      <trkpt lat="62.633731321476" lon="17.992675891054">
        <ele>93.8</ele>
        <time>2018-03-14T16:56:05Z</time>
      </trkpt>
      <trkpt lat="62.633760658126" lon="17.992741269874">
        <ele>93.4</ele>
        <time>2018-03-14T16:56:06Z</time>
      </trkpt>
      <trkpt lat="62.633789156586" lon="17.992815030594">
        <ele>92.8</ele>
        <time>2018-03-14T16:56:07Z</time>
      </trkpt>
      <trkpt lat="62.633824276747" lon="17.992881918156">
        <ele>92.2</ele>
        <time>2018-03-14T16:56:08Z</time>
      </trkpt>
      <trkpt lat="62.63385839108" lon="17.992935562316">
        <ele>91.6</ele>
        <time>2018-03-14T16:56:09Z</time>
      </trkpt>
      <trkpt lat="62.6338986242" lon="17.99298803301">
        <ele>91.2</ele>
        <time>2018-03-14T16:56:10Z</time>
      </trkpt>
      <trkpt lat="62.633933660542" lon="17.993029858691">
        <ele>91</ele>
        <time>2018-03-14T16:56:11Z</time>
      </trkpt>
      <trkpt lat="62.633971127635" lon="17.993092890579">
        <ele>91</ele>
        <time>2018-03-14T16:56:12Z</time>
      </trkpt>
      <trkpt lat="62.6340159708" lon="17.993137063192">
        <ele>91</ele>
        <time>2018-03-14T16:56:13Z</time>
      </trkpt>
      <trkpt lat="62.634051845332" lon="17.993190120619">
        <ele>91</ele>
        <time>2018-03-14T16:56:14Z</time>
      </trkpt>
      <trkpt lat="62.634094006289" lon="17.99324954829">
        <ele>91</ele>
        <time>2018-03-14T16:56:15Z</time>
      </trkpt>
      <trkpt lat="62.634144549146" lon="17.993305287925">
        <ele>90.6</ele>
        <time>2018-03-14T16:56:16Z</time>
      </trkpt>
      <trkpt lat="62.634188889397" lon="17.993339988991">
        <ele>90.6</ele>
        <time>2018-03-14T16:56:17Z</time>
      </trkpt>
      <trkpt lat="62.634246975964" lon="17.993368738908">
        <ele>90.2</ele>
        <time>2018-03-14T16:56:18Z</time>
      </trkpt>
      <trkpt lat="62.634292908776" lon="17.993401847413">
        <ele>89.6</ele>
        <time>2018-03-14T16:56:19Z</time>
      </trkpt>
      <trkpt lat="62.634348983687" lon="17.993430932606">
        <ele>88.8</ele>
        <time>2018-03-14T16:56:20Z</time>
      </trkpt>
      <trkpt lat="62.634407321711" lon="17.993457670867">
        <ele>88.2</ele>
        <time>2018-03-14T16:56:21Z</time>
      </trkpt>
      <trkpt lat="62.634471778522" lon="17.993483822395">
        <ele>87.6</ele>
        <time>2018-03-14T16:56:22Z</time>
      </trkpt>
      <trkpt lat="62.634529445994" lon="17.993506118249">
        <ele>86.8</ele>
        <time>2018-03-14T16:56:23Z</time>
      </trkpt>
      <trkpt lat="62.634590298588" lon="17.993540651677">
        <ele>86.2</ele>
        <time>2018-03-14T16:56:24Z</time>
      </trkpt>
      <trkpt lat="62.634656599417" lon="17.993565713558">
        <ele>85.4</ele>
        <time>2018-03-14T16:56:25Z</time>
      </trkpt>
      <trkpt lat="62.634723486979" lon="17.993588009412">
        <ele>84.8</ele>
        <time>2018-03-14T16:56:26Z</time>
      </trkpt>
      <trkpt lat="62.63478375284" lon="17.993606701049">
        <ele>84.2</ele>
        <time>2018-03-14T16:56:27Z</time>
      </trkpt>
      <trkpt lat="62.634845192167" lon="17.99361667551">
        <ele>83.4</ele>
        <time>2018-03-14T16:56:28Z</time>
      </trkpt>
      <trkpt lat="62.63489690849" lon="17.993627320523">
        <ele>83</ele>
        <time>2018-03-14T16:56:29Z</time>
      </trkpt>
      <trkpt lat="62.634961700577" lon="17.993647939997">
        <ele>82.4</ele>
        <time>2018-03-14T16:56:30Z</time>
      </trkpt>
      <trkpt lat="62.635011153787" lon="17.993667218367">
        <ele>81.8</ele>
        <time>2018-03-14T16:56:31Z</time>
      </trkpt>
      <trkpt lat="62.635057086599" lon="17.993684065986">
        <ele>81.4</ele>
        <time>2018-03-14T16:56:32Z</time>
      </trkpt>
      <trkpt lat="62.63511064694" lon="17.993705775107">
        <ele>81</ele>
        <time>2018-03-14T16:56:33Z</time>
      </trkpt>
      <trkpt lat="62.635162279444" lon="17.9937180965">
        <ele>81</ele>
        <time>2018-03-14T16:56:34Z</time>
      </trkpt>
      <trkpt lat="62.635212654663" lon="17.993736871956">
        <ele>80.8</ele>
        <time>2018-03-14T16:56:35Z</time>
      </trkpt>
      <trkpt lat="62.63527912313" lon="17.993751121186">
        <ele>80.6</ele>
        <time>2018-03-14T16:56:36Z</time>
      </trkpt>
      <trkpt lat="62.635330085082" lon="17.993760257457">
        <ele>80.4</ele>
        <time>2018-03-14T16:56:37Z</time>
      </trkpt>
      <trkpt lat="62.635375598799" lon="17.993761933837">
        <ele>80.2</ele>
        <time>2018-03-14T16:56:38Z</time>
      </trkpt>
      <trkpt lat="62.635415999557" lon="17.993759586905">
        <ele>80</ele>
        <time>2018-03-14T16:56:39Z</time>
      </trkpt>
      <trkpt lat="62.635480121092" lon="17.993753468118">
        <ele>79.4</ele>
        <time>2018-03-14T16:56:40Z</time>
      </trkpt>
      <trkpt lat="62.635531334501" lon="17.99375246229">
        <ele>79.4</ele>
        <time>2018-03-14T16:56:41Z</time>
      </trkpt>
      <trkpt lat="62.635597970606" lon="17.993768304081">
        <ele>79</ele>
        <time>2018-03-14T16:56:42Z</time>
      </trkpt>
      <trkpt lat="62.635656057173" lon="17.993778865275">
        <ele>78.6</ele>
        <time>2018-03-14T16:56:43Z</time>
      </trkpt>
      <trkpt lat="62.635707270582" lon="17.993802837509">
        <ele>78.2</ele>
        <time>2018-03-14T16:56:44Z</time>
      </trkpt>
      <trkpt lat="62.635760160371" lon="17.993833179987">
        <ele>77.8</ele>
        <time>2018-03-14T16:56:45Z</time>
      </trkpt>
      <trkpt lat="62.635810954685" lon="17.993855056746">
        <ele>77</ele>
        <time>2018-03-14T16:56:46Z</time>
      </trkpt>
      <trkpt lat="62.63585747423" lon="17.993851703986">
        <ele>76.4</ele>
        <time>2018-03-14T16:56:47Z</time>
      </trkpt>
      <trkpt lat="62.63590608925" lon="17.993848183588">
        <ele>76.4</ele>
        <time>2018-03-14T16:56:48Z</time>
      </trkpt>
      <trkpt lat="62.635961745066" lon="17.993828318485">
        <ele>76.6</ele>
        <time>2018-03-14T16:56:49Z</time>
      </trkpt>
      <trkpt lat="62.63601421576" lon="17.993806022631">
        <ele>76.8</ele>
        <time>2018-03-14T16:56:50Z</time>
      </trkpt>
      <trkpt lat="62.636077582924" lon="17.993779954922">
        <ele>77</ele>
        <time>2018-03-14T16:56:51Z</time>
      </trkpt>
      <trkpt lat="62.636140363355" lon="17.993738967431">
        <ele>76.8</ele>
        <time>2018-03-14T16:56:52Z</time>
      </trkpt>
      <trkpt lat="62.636190403298" lon="17.993694208085">
        <ele>76.2</ele>
        <time>2018-03-14T16:56:53Z</time>
      </trkpt>
      <trkpt lat="62.636240275603" lon="17.993638803726">
        <ele>75.6</ele>
        <time>2018-03-14T16:56:54Z</time>
      </trkpt>
      <trkpt lat="62.636292159564" lon="17.993574346915">
        <ele>74.8</ele>
        <time>2018-03-14T16:56:55Z</time>
      </trkpt>
      <trkpt lat="62.636336415996" lon="17.993514835425">
        <ele>74.2</ele>
        <time>2018-03-14T16:56:56Z</time>
      </trkpt>
      <trkpt lat="62.636384192826" lon="17.993466304224">
        <ele>73.8</ele>
        <time>2018-03-14T16:56:57Z</time>
      </trkpt>
      <trkpt lat="62.636417217512" lon="17.993423472715">
        <ele>73.2</ele>
        <time>2018-03-14T16:56:58Z</time>
      </trkpt>
      <trkpt lat="62.636462563591" lon="17.993357926257">
        <ele>73</ele>
        <time>2018-03-14T16:56:59Z</time>
      </trkpt>
      <trkpt lat="62.636523919099" lon="17.99327217942">
        <ele>73</ele>
        <time>2018-03-14T16:57:00Z</time>
      </trkpt>
      <trkpt lat="62.636580161648" lon="17.993197664329">
        <ele>73.2</ele>
        <time>2018-03-14T16:57:01Z</time>
      </trkpt>
      <trkpt lat="62.63664453464" lon="17.993136308821">
        <ele>72.6</ele>
        <time>2018-03-14T16:57:02Z</time>
      </trkpt>
      <trkpt lat="62.6366981788" lon="17.993052657459">
        <ele>71.8</ele>
        <time>2018-03-14T16:57:03Z</time>
      </trkpt>
      <trkpt lat="62.636735813531" lon="17.992972442676">
        <ele>71</ele>
        <time>2018-03-14T16:57:04Z</time>
      </trkpt>
      <trkpt lat="62.63676104305" lon="17.992908153503">
        <ele>70</ele>
        <time>2018-03-14T16:57:05Z</time>
      </trkpt>
      <trkpt lat="62.636791972261" lon="17.99280530759">
        <ele>69</ele>
        <time>2018-03-14T16:57:06Z</time>
      </trkpt>
      <trkpt lat="62.636810328622" lon="17.992716878545">
        <ele>69</ele>
        <time>2018-03-14T16:57:07Z</time>
      </trkpt>
      <trkpt lat="62.63681720178" lon="17.992651583544">
        <ele>69</ele>
        <time>2018-03-14T16:57:08Z</time>
      </trkpt>
      <trkpt lat="62.636827595336" lon="17.992584444525">
        <ele>69.6</ele>
        <time>2018-03-14T16:57:09Z</time>
      </trkpt>
      <trkpt lat="62.636823823481" lon="17.992524933035">
        <ele>70</ele>
        <time>2018-03-14T16:57:10Z</time>
      </trkpt>
      <trkpt lat="62.636827511517" lon="17.992461398233">
        <ele>70.4</ele>
        <time>2018-03-14T16:57:11Z</time>
      </trkpt>
      <trkpt lat="62.636836731607" lon="17.992380429079">
        <ele>70.4</ele>
        <time>2018-03-14T16:57:12Z</time>
      </trkpt>
      <trkpt lat="62.636837402159" lon="17.992315553173">
        <ele>70.6</ele>
        <time>2018-03-14T16:57:13Z</time>
      </trkpt>
      <trkpt lat="62.636841006376" lon="17.992248246516">
        <ele>70.8</ele>
        <time>2018-03-14T16:57:14Z</time>
      </trkpt>
      <trkpt lat="62.636845784059" lon="17.992180436945">
        <ele>70.8</ele>
        <time>2018-03-14T16:57:15Z</time>
      </trkpt>
      <trkpt lat="62.636856261434" lon="17.992122937111">
        <ele>70.8</ele>
        <time>2018-03-14T16:57:16Z</time>
      </trkpt>
      <trkpt lat="62.636869085741" lon="17.992066275467">
        <ele>70.8</ele>
        <time>2018-03-14T16:57:17Z</time>
      </trkpt>
      <trkpt lat="62.636876042718" lon="17.992021767578">
        <ele>70.8</ele>
        <time>2018-03-14T16:57:18Z</time>
      </trkpt>
      <trkpt lat="62.636897751839" lon="17.991964267744">
        <ele>70.8</ele>
        <time>2018-03-14T16:57:19Z</time>
      </trkpt>
      <trkpt lat="62.636911162879" lon="17.991905678263">
        <ele>71</ele>
        <time>2018-03-14T16:57:20Z</time>
      </trkpt>
      <trkpt lat="62.636918119856" lon="17.991862260021">
        <ele>70.8</ele>
        <time>2018-03-14T16:57:21Z</time>
      </trkpt>
      <trkpt lat="62.636947791782" lon="17.991796294468">
        <ele>71</ele>
        <time>2018-03-14T16:57:22Z</time>
      </trkpt>
      <trkpt lat="62.636965309953" lon="17.991733430218">
        <ele>71</ele>
        <time>2018-03-14T16:57:23Z</time>
      </trkpt>
      <trkpt lat="62.636984169228" lon="17.991689928157">
        <ele>71</ele>
        <time>2018-03-14T16:57:24Z</time>
      </trkpt>
      <trkpt lat="62.637000681571" lon="17.991645168811">
        <ele>71</ele>
        <time>2018-03-14T16:57:25Z</time>
      </trkpt>
      <trkpt lat="62.637022809787" lon="17.991590351185">
        <ele>71</ele>
        <time>2018-03-14T16:57:26Z</time>
      </trkpt>
      <trkpt lat="62.637037561931" lon="17.991535701197">
        <ele>71</ele>
        <time>2018-03-14T16:57:27Z</time>
      </trkpt>
      <trkpt lat="62.637048458401" lon="17.991504771986">
        <ele>71</ele>
        <time>2018-03-14T16:57:28Z</time>
      </trkpt>
      <trkpt lat="62.637079136155" lon="17.991430256895">
        <ele>71</ele>
        <time>2018-03-14T16:57:29Z</time>
      </trkpt>
      <trkpt lat="62.637095564679" lon="17.991368901387">
        <ele>71.2</ele>
        <time>2018-03-14T16:57:30Z</time>
      </trkpt>
      <trkpt lat="62.637110652099" lon="17.991319364358">
        <ele>71.4</ele>
        <time>2018-03-14T16:57:31Z</time>
      </trkpt>
      <trkpt lat="62.637130936297" lon="17.991261613067">
        <ele>71.4</ele>
        <time>2018-03-14T16:57:32Z</time>
      </trkpt>
      <trkpt lat="62.637156333454" lon="17.991212076038">
        <ele>71.6</ele>
        <time>2018-03-14T16:57:33Z</time>
      </trkpt>
      <trkpt lat="62.637178796946" lon="17.99113982406">
        <ele>71.6</ele>
        <time>2018-03-14T16:57:34Z</time>
      </trkpt>
      <trkpt lat="62.637198913506" lon="17.991054077223">
        <ele>71.6</ele>
        <time>2018-03-14T16:57:35Z</time>
      </trkpt>
      <trkpt lat="62.6372094747" lon="17.990998672864">
        <ele>71.6</ele>
        <time>2018-03-14T16:57:36Z</time>
      </trkpt>
      <trkpt lat="62.637235877685" lon="17.990915105321">
        <ele>71.4</ele>
        <time>2018-03-14T16:57:37Z</time>
      </trkpt>
      <trkpt lat="62.63724970782" lon="17.990836734556">
        <ele>71.4</ele>
        <time>2018-03-14T16:57:38Z</time>
      </trkpt>
      <trkpt lat="62.637257335349" lon="17.99078191693">
        <ele>71.2</ele>
        <time>2018-03-14T16:57:39Z</time>
      </trkpt>
      <trkpt lat="62.637273260959" lon="17.990710419323">
        <ele>71.2</ele>
        <time>2018-03-14T16:57:40Z</time>
      </trkpt>
      <trkpt lat="62.637277284271" lon="17.990654847326">
        <ele>71</ele>
        <time>2018-03-14T16:57:41Z</time>
      </trkpt>
      <trkpt lat="62.637287174913" lon="17.990572034154">
        <ele>71</ele>
        <time>2018-03-14T16:57:42Z</time>
      </trkpt>
      <trkpt lat="62.637294383347" lon="17.990490813543">
        <ele>71</ele>
        <time>2018-03-14T16:57:43Z</time>
      </trkpt>
      <trkpt lat="62.637303435799" lon="17.990420740859">
        <ele>71.2</ele>
        <time>2018-03-14T16:57:44Z</time>
      </trkpt>
      <trkpt lat="62.637316008649" lon="17.990331473624">
        <ele>71</ele>
        <time>2018-03-14T16:57:45Z</time>
      </trkpt>
      <trkpt lat="62.637322881807" lon="17.990263999329">
        <ele>71</ele>
        <time>2018-03-14T16:57:46Z</time>
      </trkpt>
      <trkpt lat="62.637326653662" lon="17.990190070971">
        <ele>70.8</ele>
        <time>2018-03-14T16:57:47Z</time>
      </trkpt>
      <trkpt lat="62.63734274691" lon="17.990120417382">
        <ele>70.6</ele>
        <time>2018-03-14T16:57:48Z</time>
      </trkpt>
      <trkpt lat="62.637356660864" lon="17.990059732426">
        <ele>70.4</ele>
        <time>2018-03-14T16:57:49Z</time>
      </trkpt>
      <trkpt lat="62.637366300049" lon="17.989999131289">
        <ele>70.6</ele>
        <time>2018-03-14T16:57:50Z</time>
      </trkpt>
      <trkpt lat="62.637387757713" lon="17.989931489356">
        <ele>70.6</ele>
        <time>2018-03-14T16:57:51Z</time>
      </trkpt>
      <trkpt lat="62.637406868445" lon="17.989869463296">
        <ele>70.6</ele>
        <time>2018-03-14T16:57:52Z</time>
      </trkpt>
      <trkpt lat="62.637422291141" lon="17.989822105561">
        <ele>70.6</ele>
        <time>2018-03-14T16:57:53Z</time>
      </trkpt>
      <trkpt lat="62.637432265602" lon="17.989785895753">
        <ele>70.8</ele>
        <time>2018-03-14T16:57:54Z</time>
      </trkpt>
      <trkpt lat="62.637454729094" lon="17.989728060643">
        <ele>70.8</ele>
        <time>2018-03-14T16:57:55Z</time>
      </trkpt>
      <trkpt lat="62.637466547573" lon="17.989675673768">
        <ele>70.8</ele>
        <time>2018-03-14T16:57:56Z</time>
      </trkpt>
      <trkpt lat="62.637481970269" lon="17.989617168106">
        <ele>71</ele>
        <time>2018-03-14T16:57:57Z</time>
      </trkpt>
      <trkpt lat="62.63750954672" lon="17.98954474849">
        <ele>71</ele>
        <time>2018-03-14T16:57:58Z</time>
      </trkpt>
      <trkpt lat="62.637543409596" lon="17.989497223117">
        <ele>71</ele>
        <time>2018-03-14T16:57:59Z</time>
      </trkpt>
      <trkpt lat="62.637575009359" lon="17.989414409945">
        <ele>71</ele>
        <time>2018-03-14T16:58:00Z</time>
      </trkpt>
      <trkpt lat="62.63759336572" lon="17.98934190651">
        <ele>71</ele>
        <time>2018-03-14T16:58:01Z</time>
      </trkpt>
      <trkpt lat="62.637614152832" lon="17.989271163274">
        <ele>70.8</ele>
        <time>2018-03-14T16:58:02Z</time>
      </trkpt>
      <trkpt lat="62.637654134495" lon="17.989179884383">
        <ele>70.8</ele>
        <time>2018-03-14T16:58:03Z</time>
      </trkpt>
      <trkpt lat="62.637688835561" lon="17.989091790614">
        <ele>70.4</ele>
        <time>2018-03-14T16:58:04Z</time>
      </trkpt>
      <trkpt lat="62.637717166383" lon="17.989013419849">
        <ele>70</ele>
        <time>2018-03-14T16:58:05Z</time>
      </trkpt>
      <trkpt lat="62.637746503033" lon="17.98893286979">
        <ele>69.2</ele>
        <time>2018-03-14T16:58:06Z</time>
      </trkpt>
      <trkpt lat="62.63776938562" lon="17.98884485984">
        <ele>68.8</ele>
        <time>2018-03-14T16:58:07Z</time>
      </trkpt>
      <trkpt lat="62.637782880479" lon="17.988764645057">
        <ele>68.4</ele>
        <time>2018-03-14T16:58:08Z</time>
      </trkpt>
      <trkpt lat="62.637790675646" lon="17.988707564318">
        <ele>68.2</ele>
        <time>2018-03-14T16:58:09Z</time>
      </trkpt>
      <trkpt lat="62.637811630396" lon="17.988614776685">
        <ele>68.2</ele>
        <time>2018-03-14T16:58:10Z</time>
      </trkpt>
      <trkpt lat="62.637822778323" lon="17.988540932146">
        <ele>68.6</ele>
        <time>2018-03-14T16:58:11Z</time>
      </trkpt>
      <trkpt lat="62.637842894883" lon="17.988455185309">
        <ele>68.8</ele>
        <time>2018-03-14T16:58:12Z</time>
      </trkpt>
      <trkpt lat="62.637855886828" lon="17.988371450128">
        <ele>68.4</ele>
        <time>2018-03-14T16:58:13Z</time>
      </trkpt>
      <trkpt lat="62.637870052239" lon="17.988285368015">
        <ele>68.4</ele>
        <time>2018-03-14T16:58:14Z</time>
      </trkpt>
      <trkpt lat="62.637887402772" lon="17.988183192654">
        <ele>68.2</ele>
        <time>2018-03-14T16:58:15Z</time>
      </trkpt>
      <trkpt lat="62.637888157143" lon="17.988119154938">
        <ele>68</ele>
        <time>2018-03-14T16:58:16Z</time>
      </trkpt>
      <trkpt lat="62.637904920943" lon="17.988017901586">
        <ele>67.8</ele>
        <time>2018-03-14T16:58:17Z</time>
      </trkpt>
      <trkpt lat="62.637910117721" lon="17.987923437573">
        <ele>67.8</ele>
        <time>2018-03-14T16:58:18Z</time>
      </trkpt>
      <trkpt lat="62.637939454371" lon="17.987800391281">
        <ele>67.8</ele>
        <time>2018-03-14T16:58:19Z</time>
      </trkpt>
      <trkpt lat="62.637962420777" lon="17.987690839848">
        <ele>67.8</ele>
        <time>2018-03-14T16:58:20Z</time>
      </trkpt>
      <trkpt lat="62.637988739943" lon="17.987601991708">
        <ele>67.4</ele>
        <time>2018-03-14T16:58:21Z</time>
      </trkpt>
      <trkpt lat="62.638010616702" lon="17.987528230988">
        <ele>66.8</ele>
        <time>2018-03-14T16:58:22Z</time>
      </trkpt>
      <trkpt lat="62.638022183724" lon="17.987461762521">
        <ele>66.2</ele>
        <time>2018-03-14T16:58:23Z</time>
      </trkpt>
      <trkpt lat="62.638046994148" lon="17.987346930491">
        <ele>65.8</ele>
        <time>2018-03-14T16:58:24Z</time>
      </trkpt>
      <trkpt lat="62.638058058256" lon="17.98725313703">
        <ele>65.2</ele>
        <time>2018-03-14T16:58:25Z</time>
      </trkpt>
      <trkpt lat="62.638080773205" lon="17.987163031605">
        <ele>64.6</ele>
        <time>2018-03-14T16:58:26Z</time>
      </trkpt>
      <trkpt lat="62.638104996896" lon="17.987047864299">
        <ele>64.6</ele>
        <time>2018-03-14T16:58:27Z</time>
      </trkpt>
      <trkpt lat="62.638117318289" lon="17.986963626204">
        <ele>64.8</ele>
        <time>2018-03-14T16:58:28Z</time>
      </trkpt>
      <trkpt lat="62.638124945818" lon="17.986851224925">
        <ele>64.8</ele>
        <time>2018-03-14T16:58:29Z</time>
      </trkpt>
      <trkpt lat="62.638125867827" lon="17.986741505854">
        <ele>64.6</ele>
        <time>2018-03-14T16:58:30Z</time>
      </trkpt>
      <trkpt lat="62.6381147199" lon="17.986670930256">
        <ele>64.4</ele>
        <time>2018-03-14T16:58:31Z</time>
      </trkpt>
      <trkpt lat="62.63811220533" lon="17.986576047148">
        <ele>64</ele>
        <time>2018-03-14T16:58:32Z</time>
      </trkpt>
      <trkpt lat="62.638104829258" lon="17.986516535658">
        <ele>64</ele>
        <time>2018-03-14T16:58:33Z</time>
      </trkpt>
      <trkpt lat="62.638105667448" lon="17.986465573706">
        <ele>64</ele>
        <time>2018-03-14T16:58:34Z</time>
      </trkpt>
      <trkpt lat="62.638099297204" lon="17.98636968477">
        <ele>63.8</ele>
        <time>2018-03-14T16:58:35Z</time>
      </trkpt>
      <trkpt lat="62.638100554489" lon="17.98628251301">
        <ele>64</ele>
        <time>2018-03-14T16:58:36Z</time>
      </trkpt>
      <trkpt lat="62.638105751267" lon="17.9862079141">
        <ele>64</ele>
        <time>2018-03-14T16:58:37Z</time>
      </trkpt>
      <trkpt lat="62.638109858398" lon="17.986120574702">
        <ele>64.2</ele>
        <time>2018-03-14T16:58:38Z</time>
      </trkpt>
      <trkpt lat="62.638113546434" lon="17.98605536352">
        <ele>64</ele>
        <time>2018-03-14T16:58:39Z</time>
      </trkpt>
      <trkpt lat="62.638129136768" lon="17.985982943904">
        <ele>63.8</ele>
        <time>2018-03-14T16:58:40Z</time>
      </trkpt>
      <trkpt lat="62.638152606088" lon="17.985912452125">
        <ele>64</ele>
        <time>2018-03-14T16:58:41Z</time>
      </trkpt>
      <trkpt lat="62.638166100947" lon="17.985855539024">
        <ele>64</ele>
        <time>2018-03-14T16:58:42Z</time>
      </trkpt>
      <trkpt lat="62.638186720421" lon="17.985801559588">
        <ele>63.8</ele>
        <time>2018-03-14T16:58:43Z</time>
      </trkpt>
      <trkpt lat="62.638198035986" lon="17.985765517418">
        <ele>63.8</ele>
        <time>2018-03-14T16:58:44Z</time>
      </trkpt>
      <trkpt lat="62.638219242193" lon="17.985716818579">
        <ele>63.8</ele>
        <time>2018-03-14T16:58:45Z</time>
      </trkpt>
      <trkpt lat="62.63823625745" lon="17.985675411993">
        <ele>63.8</ele>
        <time>2018-03-14T16:58:46Z</time>
      </trkpt>
      <trkpt lat="62.638253607983" lon="17.985624114765">
        <ele>63.8</ele>
        <time>2018-03-14T16:58:47Z</time>
      </trkpt>
      <trkpt lat="62.638270036507" lon="17.985570722062">
        <ele>63.8</ele>
        <time>2018-03-14T16:58:48Z</time>
      </trkpt>
      <trkpt lat="62.638285123927" lon="17.985526968544">
        <ele>63.8</ele>
        <time>2018-03-14T16:58:49Z</time>
      </trkpt>
      <trkpt lat="62.63830415084" lon="17.985473408203">
        <ele>63.8</ele>
        <time>2018-03-14T16:58:50Z</time>
      </trkpt>
      <trkpt lat="62.638323177753" lon="17.985431414884">
        <ele>63.6</ele>
        <time>2018-03-14T16:58:51Z</time>
      </trkpt>
      <trkpt lat="62.638341366476" lon="17.985395624171">
        <ele>63.6</ele>
        <time>2018-03-14T16:58:52Z</time>
      </trkpt>
      <trkpt lat="62.638362153588" lon="17.985349188445">
        <ele>63.2</ele>
        <time>2018-03-14T16:58:53Z</time>
      </trkpt>
      <trkpt lat="62.638382605424" lon="17.985303339452">
        <ele>63.2</ele>
        <time>2018-03-14T16:58:54Z</time>
      </trkpt>
      <trkpt lat="62.63840976278" lon="17.9852523775">
        <ele>63.2</ele>
        <time>2018-03-14T16:58:55Z</time>
      </trkpt>
      <trkpt lat="62.638434992299" lon="17.985194374752">
        <ele>63.2</ele>
        <time>2018-03-14T16:58:56Z</time>
      </trkpt>
      <trkpt lat="62.638459551266" lon="17.985127906285">
        <ele>63.2</ele>
        <time>2018-03-14T16:58:57Z</time>
      </trkpt>
      <trkpt lat="62.638478829636" lon="17.985065293492">
        <ele>63.4</ele>
        <time>2018-03-14T16:58:58Z</time>
      </trkpt>
      <trkpt lat="62.638523505163" lon="17.984982396501">
        <ele>63.2</ele>
        <time>2018-03-14T16:58:59Z</time>
      </trkpt>
      <trkpt lat="62.638559212057" lon="17.984902097899">
        <ele>63.2</ele>
        <time>2018-03-14T16:59:00Z</time>
      </trkpt>
      <trkpt lat="62.638588045793" lon="17.984844765703">
        <ele>63</ele>
        <time>2018-03-14T16:59:01Z</time>
      </trkpt>
      <trkpt lat="62.638627943637" lon="17.984768993327">
        <ele>63</ele>
        <time>2018-03-14T16:59:02Z</time>
      </trkpt>
      <trkpt lat="62.638655603907" lon="17.984701267575">
        <ele>62.8</ele>
        <time>2018-03-14T16:59:03Z</time>
      </trkpt>
      <trkpt lat="62.638683683272" lon="17.984641420809">
        <ele>62.6</ele>
        <time>2018-03-14T16:59:04Z</time>
      </trkpt>
      <trkpt lat="62.638712852284" lon="17.984563720596">
        <ele>62.4</ele>
        <time>2018-03-14T16:59:05Z</time>
      </trkpt>
      <trkpt lat="62.638742188934" lon="17.984471938791">
        <ele>62.2</ele>
        <time>2018-03-14T16:59:06Z</time>
      </trkpt>
      <trkpt lat="62.638763227503" lon="17.984386275773">
        <ele>62</ele>
        <time>2018-03-14T16:59:07Z</time>
      </trkpt>
      <trkpt lat="62.638775381258" lon="17.98427504796">
        <ele>61.4</ele>
        <time>2018-03-14T16:59:08Z</time>
      </trkpt>
      <trkpt lat="62.638784601348" lon="17.984169771296">
        <ele>60.8</ele>
        <time>2018-03-14T16:59:09Z</time>
      </trkpt>
      <trkpt lat="62.638785355719" lon="17.984037002">
        <ele>60.2</ele>
        <time>2018-03-14T16:59:10Z</time>
      </trkpt>
      <trkpt lat="62.638781332407" lon="17.983946058385">
        <ele>59.8</ele>
        <time>2018-03-14T16:59:11Z</time>
      </trkpt>
      <trkpt lat="62.638782924968" lon="17.983871962389">
        <ele>59.4</ele>
        <time>2018-03-14T16:59:12Z</time>
      </trkpt>
      <trkpt lat="62.638778985475" lon="17.983794429814">
        <ele>59.4</ele>
        <time>2018-03-14T16:59:13Z</time>
      </trkpt>
      <trkpt lat="62.638780158941" lon="17.983697702688">
        <ele>59.4</ele>
        <time>2018-03-14T16:59:14Z</time>
      </trkpt>
      <trkpt lat="62.638775045982" lon="17.983598125716">
        <ele>59.8</ele>
        <time>2018-03-14T16:59:15Z</time>
      </trkpt>
      <trkpt lat="62.638775884172" lon="17.983521598969">
        <ele>59.8</ele>
        <time>2018-03-14T16:59:16Z</time>
      </trkpt>
      <trkpt lat="62.638765490616" lon="17.983444150213">
        <ele>59.8</ele>
        <time>2018-03-14T16:59:17Z</time>
      </trkpt>
      <trkpt lat="62.638762976046" lon="17.983378436117">
        <ele>59.8</ele>
        <time>2018-03-14T16:59:18Z</time>
      </trkpt>
      <trkpt lat="62.638764568607" lon="17.983328899088">
        <ele>59.8</ele>
        <time>2018-03-14T16:59:19Z</time>
      </trkpt>
      <trkpt lat="62.638771106489" lon="17.983264107001">
        <ele>59.8</ele>
        <time>2018-03-14T16:59:20Z</time>
      </trkpt>
      <trkpt lat="62.638769849204" lon="17.983190849195">
        <ele>59.8</ele>
        <time>2018-03-14T16:59:21Z</time>
      </trkpt>
      <trkpt lat="62.638776638543" lon="17.983136450664">
        <ele>59.8</ele>
        <time>2018-03-14T16:59:22Z</time>
      </trkpt>
      <trkpt lat="62.638781500045" lon="17.983060762107">
        <ele>59.8</ele>
        <time>2018-03-14T16:59:23Z</time>
      </trkpt>
      <trkpt lat="62.638777057638" lon="17.982999741875">
        <ele>59.8</ele>
        <time>2018-03-14T16:59:24Z</time>
      </trkpt>
      <trkpt lat="62.638779320751" lon="17.982944253697">
        <ele>59.8</ele>
        <time>2018-03-14T16:59:25Z</time>
      </trkpt>
      <trkpt lat="62.638786696823" lon="17.982861189068">
        <ele>59.8</ele>
        <time>2018-03-14T16:59:26Z</time>
      </trkpt>
      <trkpt lat="62.638788959936" lon="17.982814418066">
        <ele>59.8</ele>
        <time>2018-03-14T16:59:27Z</time>
      </trkpt>
      <trkpt lat="62.638787367375" lon="17.982753481653">
        <ele>59.8</ele>
        <time>2018-03-14T16:59:28Z</time>
      </trkpt>
      <trkpt lat="62.638796252189" lon="17.98269170705">
        <ele>59.8</ele>
        <time>2018-03-14T16:59:29Z</time>
      </trkpt>
      <trkpt lat="62.638787618832" lon="17.982632614655">
        <ele>59.8</ele>
        <time>2018-03-14T16:59:30Z</time>
      </trkpt>
      <trkpt lat="62.638796922741" lon="17.982563799256">
        <ele>60</ele>
        <time>2018-03-14T16:59:31Z</time>
      </trkpt>
      <trkpt lat="62.63880455027" lon="17.982488613613">
        <ele>60</ele>
        <time>2018-03-14T16:59:32Z</time>
      </trkpt>
      <trkpt lat="62.638805304641" lon="17.982427174286">
        <ele>60.2</ele>
        <time>2018-03-14T16:59:33Z</time>
      </trkpt>
      <trkpt lat="62.638819134776" lon="17.982361041095">
        <ele>60.2</ele>
        <time>2018-03-14T16:59:34Z</time>
      </trkpt>
      <trkpt lat="62.638828606323" lon="17.982296751922">
        <ele>60.2</ele>
        <time>2018-03-14T16:59:35Z</time>
      </trkpt>
      <trkpt lat="62.63883640149" lon="17.982237743346">
        <ele>60.2</ele>
        <time>2018-03-14T16:59:36Z</time>
      </trkpt>
      <trkpt lat="62.638863558846" lon="17.982155349269">
        <ele>60.2</ele>
        <time>2018-03-14T16:59:37Z</time>
      </trkpt>
      <trkpt lat="62.638875377325" lon="17.982076391771">
        <ele>60</ele>
        <time>2018-03-14T16:59:38Z</time>
      </trkpt>
      <trkpt lat="62.638897421722" lon="17.982027776751">
        <ele>60</ele>
        <time>2018-03-14T16:59:39Z</time>
      </trkpt>
      <trkpt lat="62.638924914354" lon="17.981942281371">
        <ele>60.2</ele>
        <time>2018-03-14T16:59:40Z</time>
      </trkpt>
      <trkpt lat="62.638936565195" lon="17.981881261139">
        <ele>60</ele>
        <time>2018-03-14T16:59:41Z</time>
      </trkpt>
      <trkpt lat="62.638963722551" lon="17.981799453795">
        <ele>59.8</ele>
        <time>2018-03-14T16:59:42Z</time>
      </trkpt>
      <trkpt lat="62.638983336197" lon="17.981713874596">
        <ele>59.8</ele>
        <time>2018-03-14T16:59:43Z</time>
      </trkpt>
      <trkpt lat="62.638998423617" lon="17.981655871848">
        <ele>59.6</ele>
        <time>2018-03-14T16:59:44Z</time>
      </trkpt>
      <trkpt lat="62.639029269009" lon="17.981545314587">
        <ele>59.4</ele>
        <time>2018-03-14T16:59:45Z</time>
      </trkpt>
      <trkpt lat="62.639044691705" lon="17.981462752872">
        <ele>59.4</ele>
        <time>2018-03-14T16:59:46Z</time>
      </trkpt>
      <trkpt lat="62.639068077206" lon="17.98138329246">
        <ele>59.4</ele>
        <time>2018-03-14T16:59:47Z</time>
      </trkpt>
      <trkpt lat="62.639094815467" lon="17.981295701605">
        <ele>59.2</ele>
        <time>2018-03-14T16:59:48Z</time>
      </trkpt>
      <trkpt lat="62.639111411629" lon="17.981216744107">
        <ele>59.2</ele>
        <time>2018-03-14T16:59:49Z</time>
      </trkpt>
      <trkpt lat="62.639149130179" lon="17.981141390826">
        <ele>59.2</ele>
        <time>2018-03-14T16:59:50Z</time>
      </trkpt>
      <trkpt lat="62.639157679717" lon="17.981026558796">
        <ele>58.8</ele>
        <time>2018-03-14T16:59:51Z</time>
      </trkpt>
      <trkpt lat="62.639199756855" lon="17.980958833044">
        <ele>58.6</ele>
        <time>2018-03-14T16:59:52Z</time>
      </trkpt>
      <trkpt lat="62.639226830392" lon="17.980896723165">
        <ele>58.4</ele>
        <time>2018-03-14T16:59:53Z</time>
      </trkpt>
      <trkpt lat="62.639261280001" lon="17.980836373485">
        <ele>58</ele>
        <time>2018-03-14T16:59:54Z</time>
      </trkpt>
      <trkpt lat="62.639295645791" lon="17.980755571969">
        <ele>57.8</ele>
        <time>2018-03-14T16:59:55Z</time>
      </trkpt>
      <trkpt lat="62.639321462043" lon="17.980687930036">
        <ele>57.6</ele>
        <time>2018-03-14T16:59:56Z</time>
      </trkpt>
      <trkpt lat="62.639360018783" lon="17.980603189027">
        <ele>57.6</ele>
        <time>2018-03-14T16:59:57Z</time>
      </trkpt>
      <trkpt lat="62.639378961877" lon="17.980512664507">
        <ele>57.4</ele>
        <time>2018-03-14T16:59:58Z</time>
      </trkpt>
      <trkpt lat="62.639398743161" lon="17.980436305398">
        <ele>57.2</ele>
        <time>2018-03-14T16:59:59Z</time>
      </trkpt>
      <trkpt lat="62.639418524445" lon="17.980322227739">
        <ele>56.8</ele>
        <time>2018-03-14T17:00:00Z</time>
      </trkpt>
      <trkpt lat="62.639428331268" lon="17.980238576377">
        <ele>56.8</ele>
        <time>2018-03-14T17:00:01Z</time>
      </trkpt>
      <trkpt lat="62.639469318759" lon="17.980111590592">
        <ele>56.6</ele>
        <time>2018-03-14T17:00:02Z</time>
      </trkpt>
      <trkpt lat="62.639474431718" lon="17.980028442144">
        <ele>56.4</ele>
        <time>2018-03-14T17:00:03Z</time>
      </trkpt>
      <trkpt lat="62.639493374812" lon="17.979961303125">
        <ele>56.2</ele>
        <time>2018-03-14T17:00:04Z</time>
      </trkpt>
      <trkpt lat="62.639512066449" lon="17.979868934587">
        <ele>56</ele>
        <time>2018-03-14T17:00:05Z</time>
      </trkpt>
      <trkpt lat="62.639520280711" lon="17.97979995155">
        <ele>56</ele>
        <time>2018-03-14T17:00:06Z</time>
      </trkpt>
      <trkpt lat="62.639543917669" lon="17.979717976568">
        <ele>55.8</ele>
        <time>2018-03-14T17:00:07Z</time>
      </trkpt>
      <trkpt lat="62.639562022573" lon="17.97965243011">
        <ele>55.8</ele>
        <time>2018-03-14T17:00:08Z</time>
      </trkpt>
      <trkpt lat="62.639577612907" lon="17.979599540321">
        <ele>55.6</ele>
        <time>2018-03-14T17:00:09Z</time>
      </trkpt>
      <trkpt lat="62.639609631765" lon="17.979510776">
        <ele>55.6</ele>
        <time>2018-03-14T17:00:10Z</time>
      </trkpt>
      <trkpt lat="62.639634190732" lon="17.979443804619">
        <ele>55.6</ele>
        <time>2018-03-14T17:00:11Z</time>
      </trkpt>
      <trkpt lat="62.639655145482" lon="17.979395357237">
        <ele>55.6</ele>
        <time>2018-03-14T17:00:12Z</time>
      </trkpt>
      <trkpt lat="62.639676100232" lon="17.979340288154">
        <ele>55.4</ele>
        <time>2018-03-14T17:00:13Z</time>
      </trkpt>
      <trkpt lat="62.639692277299" lon="17.979287146908">
        <ele>55.6</ele>
        <time>2018-03-14T17:00:14Z</time>
      </trkpt>
      <trkpt lat="62.639726056356" lon="17.979212967093">
        <ele>55.4</ele>
        <time>2018-03-14T17:00:15Z</time>
      </trkpt>
      <trkpt lat="62.639750531504" lon="17.979146833902">
        <ele>55.4</ele>
        <time>2018-03-14T17:00:16Z</time>
      </trkpt>
      <trkpt lat="62.639784310561" lon="17.979071229164">
        <ele>55.2</ele>
        <time>2018-03-14T17:00:17Z</time>
      </trkpt>
      <trkpt lat="62.639814401582" lon="17.978993948046">
        <ele>55</ele>
        <time>2018-03-14T17:00:18Z</time>
      </trkpt>
      <trkpt lat="62.639837954721" lon="17.978943153732">
        <ele>54.8</ele>
        <time>2018-03-14T17:00:19Z</time>
      </trkpt>
      <trkpt lat="62.639864944439" lon="17.978877523455">
        <ele>54.8</ele>
        <time>2018-03-14T17:00:20Z</time>
      </trkpt>
      <trkpt lat="62.639890928329" lon="17.978815162119">
        <ele>54.6</ele>
        <time>2018-03-14T17:00:21Z</time>
      </trkpt>
      <trkpt lat="62.639927641051" lon="17.978767552927">
        <ele>54.2</ele>
        <time>2018-03-14T17:00:22Z</time>
      </trkpt>
      <trkpt lat="62.639956726244" lon="17.978743161598">
        <ele>54</ele>
        <time>2018-03-14T17:00:23Z</time>
      </trkpt>
      <trkpt lat="62.639999138658" lon="17.978696977329">
        <ele>54.2</ele>
        <time>2018-03-14T17:00:24Z</time>
      </trkpt>
      <trkpt lat="62.640040545244" lon="17.978642830255">
        <ele>54</ele>
        <time>2018-03-14T17:00:25Z</time>
      </trkpt>
      <trkpt lat="62.640087567703" lon="17.978587761172">
        <ele>53.8</ele>
        <time>2018-03-14T17:00:26Z</time>
      </trkpt>
      <trkpt lat="62.64012889047" lon="17.97852590275">
        <ele>53.6</ele>
        <time>2018-03-14T17:00:27Z</time>
      </trkpt>
      <trkpt lat="62.640173817454" lon="17.978477455368">
        <ele>53</ele>
        <time>2018-03-14T17:00:28Z</time>
      </trkpt>
      <trkpt lat="62.640198208783" lon="17.97844543651">
        <ele>52.8</ele>
        <time>2018-03-14T17:00:29Z</time>
      </trkpt>
      <trkpt lat="62.640253194047" lon="17.978369915591">
        <ele>52.6</ele>
        <time>2018-03-14T17:00:30Z</time>
      </trkpt>
      <trkpt lat="62.640299210678" lon="17.978293305025">
        <ele>52.2</ele>
        <time>2018-03-14T17:00:31Z</time>
      </trkpt>
      <trkpt lat="62.640327960595" lon="17.978234464087">
        <ele>51.8</ele>
        <time>2018-03-14T17:00:32Z</time>
      </trkpt>
      <trkpt lat="62.640377162348" lon="17.978171851294">
        <ele>51.8</ele>
        <time>2018-03-14T17:00:33Z</time>
      </trkpt>
      <trkpt lat="62.640386969171" lon="17.978145867404">
        <ele>51.6</ele>
        <time>2018-03-14T17:00:34Z</time>
      </trkpt>
      <trkpt lat="62.640424017169" lon="17.978079398937">
        <ele>51.6</ele>
        <time>2018-03-14T17:00:35Z</time>
      </trkpt>
      <trkpt lat="62.64048176846" lon="17.978007482235">
        <ele>51.6</ele>
        <time>2018-03-14T17:00:36Z</time>
      </trkpt>
      <trkpt lat="62.640521079571" lon="17.977950150039">
        <ele>51.4</ele>
        <time>2018-03-14T17:00:37Z</time>
      </trkpt>
      <trkpt lat="62.64056139651" lon="17.977886279961">
        <ele>51</ele>
        <time>2018-03-14T17:00:38Z</time>
      </trkpt>
      <trkpt lat="62.640596684309" lon="17.977829785955">
        <ele>50.6</ele>
        <time>2018-03-14T17:00:39Z</time>
      </trkpt>
      <trkpt lat="62.640631972108" lon="17.977759880909">
        <ele>50.2</ele>
        <time>2018-03-14T17:00:40Z</time>
      </trkpt>
      <trkpt lat="62.640673294875" lon="17.977694753546">
        <ele>49.6</ele>
        <time>2018-03-14T17:00:41Z</time>
      </trkpt>
      <trkpt lat="62.640701709516" lon="17.977617472428">
        <ele>49</ele>
        <time>2018-03-14T17:00:42Z</time>
      </trkpt>
      <trkpt lat="62.640741355903" lon="17.977541448595">
        <ele>48.6</ele>
        <time>2018-03-14T17:00:43Z</time>
      </trkpt>
      <trkpt lat="62.640773207123" lon="17.977470034807">
        <ele>48.4</ele>
        <time>2018-03-14T17:00:44Z</time>
      </trkpt>
      <trkpt lat="62.640819223754" lon="17.977393172784">
        <ele>48.4</ele>
        <time>2018-03-14T17:00:45Z</time>
      </trkpt>
      <trkpt lat="62.640858870141" lon="17.97732142372">
        <ele>48.4</ele>
        <time>2018-03-14T17:00:46Z</time>
      </trkpt>
      <trkpt lat="62.640896504872" lon="17.977246908629">
        <ele>48.2</ele>
        <time>2018-03-14T17:00:47Z</time>
      </trkpt>
      <trkpt lat="62.64093020011" lon="17.977176752126">
        <ele>48</ele>
        <time>2018-03-14T17:00:48Z</time>
      </trkpt>
      <trkpt lat="62.640966326099" lon="17.977097040257">
        <ele>47.6</ele>
        <time>2018-03-14T17:00:49Z</time>
      </trkpt>
      <trkpt lat="62.641004547563" lon="17.977023614813">
        <ele>47.2</ele>
        <time>2018-03-14T17:00:50Z</time>
      </trkpt>
      <trkpt lat="62.641045199778" lon="17.97695681107">
        <ele>46.6</ele>
        <time>2018-03-14T17:00:51Z</time>
      </trkpt>
      <trkpt lat="62.641090126762" lon="17.976893360087">
        <ele>46.2</ele>
        <time>2018-03-14T17:00:52Z</time>
      </trkpt>
      <trkpt lat="62.641136981583" lon="17.976862263238">
        <ele>45.4</ele>
        <time>2018-03-14T17:00:53Z</time>
      </trkpt>
      <trkpt lat="62.641184423137" lon="17.976830663475">
        <ele>45</ele>
        <time>2018-03-14T17:00:54Z</time>
      </trkpt>
      <trkpt lat="62.641246868292" lon="17.976789424527">
        <ele>45</ele>
        <time>2018-03-14T17:00:55Z</time>
      </trkpt>
      <trkpt lat="62.641305541592" lon="17.976761177524">
        <ele>45</ele>
        <time>2018-03-14T17:00:56Z</time>
      </trkpt>
      <trkpt lat="62.641365304539" lon="17.976729996856">
        <ele>44.4</ele>
        <time>2018-03-14T17:00:57Z</time>
      </trkpt>
      <trkpt lat="62.641423223468" lon="17.976688003537">
        <ele>43.8</ele>
        <time>2018-03-14T17:00:58Z</time>
      </trkpt>
      <trkpt lat="62.641477621999" lon="17.976652045186">
        <ele>43.2</ele>
        <time>2018-03-14T17:00:59Z</time>
      </trkpt>
      <trkpt lat="62.641546605036" lon="17.976594545352">
        <ele>42.2</ele>
        <time>2018-03-14T17:01:00Z</time>
      </trkpt>
      <trkpt lat="62.64159907573" lon="17.976534111853">
        <ele>41</ele>
        <time>2018-03-14T17:01:01Z</time>
      </trkpt>
      <trkpt lat="62.641659006315" lon="17.976467140472">
        <ele>40.4</ele>
        <time>2018-03-14T17:01:02Z</time>
      </trkpt>
      <trkpt lat="62.641718014891" lon="17.976395978141">
        <ele>39.8</ele>
        <time>2018-03-14T17:01:03Z</time>
      </trkpt>
      <trkpt lat="62.641767803377" lon="17.976332610977">
        <ele>39.2</ele>
        <time>2018-03-14T17:01:04Z</time>
      </trkpt>
      <trkpt lat="62.641820776985" lon="17.976258431162">
        <ele>38.6</ele>
        <time>2018-03-14T17:01:05Z</time>
      </trkpt>
      <trkpt lat="62.641882467769" lon="17.976165727348">
        <ele>38</ele>
        <time>2018-03-14T17:01:06Z</time>
      </trkpt>
      <trkpt lat="62.641934687006" lon="17.976081489253">
        <ele>37.4</ele>
        <time>2018-03-14T17:01:07Z</time>
      </trkpt>
      <trkpt lat="62.641982799112" lon="17.976000268642">
        <ele>36.8</ele>
        <time>2018-03-14T17:01:08Z</time>
      </trkpt>
      <trkpt lat="62.642032755236" lon="17.975923238981">
        <ele>36.4</ele>
        <time>2018-03-14T17:01:09Z</time>
      </trkpt>
      <trkpt lat="62.642088159595" lon="17.975849813537">
        <ele>36</ele>
        <time>2018-03-14T17:01:10Z</time>
      </trkpt>
      <trkpt lat="62.642144485963" lon="17.975781501052">
        <ele>35.8</ele>
        <time>2018-03-14T17:01:11Z</time>
      </trkpt>
      <trkpt lat="62.642204416548" lon="17.975710003445">
        <ele>35.4</ele>
        <time>2018-03-14T17:01:12Z</time>
      </trkpt>
      <trkpt lat="62.642263508943" lon="17.975633141422">
        <ele>35</ele>
        <time>2018-03-14T17:01:13Z</time>
      </trkpt>
      <trkpt lat="62.64231153723" lon="17.97554278454">
        <ele>34.6</ele>
        <time>2018-03-14T17:01:14Z</time>
      </trkpt>
      <trkpt lat="62.642356967128" lon="17.975427281958">
        <ele>34</ele>
        <time>2018-03-14T17:01:15Z</time>
      </trkpt>
      <trkpt lat="62.642394434221" lon="17.975321837656">
        <ele>33.2</ele>
        <time>2018-03-14T17:01:16Z</time>
      </trkpt>
      <trkpt lat="62.642427710364" lon="17.97522594872">
        <ele>32.4</ele>
        <time>2018-03-14T17:01:17Z</time>
      </trkpt>
      <trkpt lat="62.642467608208" lon="17.97511279307">
        <ele>31.8</ele>
        <time>2018-03-14T17:01:18Z</time>
      </trkpt>
      <trkpt lat="62.642498705057" lon="17.975053868313">
        <ele>31.2</ele>
        <time>2018-03-14T17:01:19Z</time>
      </trkpt>
      <trkpt lat="62.642534076675" lon="17.974931995487">
        <ele>30.8</ele>
        <time>2018-03-14T17:01:20Z</time>
      </trkpt>
      <trkpt lat="62.642564502972" lon="17.974822360235">
        <ele>30.8</ele>
        <time>2018-03-14T17:01:21Z</time>
      </trkpt>
      <trkpt lat="62.642595432183" lon="17.974720939245">
        <ele>31</ele>
        <time>2018-03-14T17:01:22Z</time>
      </trkpt>
      <trkpt lat="62.642623679186" lon="17.974621446092">
        <ele>31</ele>
        <time>2018-03-14T17:01:23Z</time>
      </trkpt>
      <trkpt lat="62.642644969212" lon="17.974510805012">
        <ele>31</ele>
        <time>2018-03-14T17:01:24Z</time>
      </trkpt>
      <trkpt lat="62.642668522351" lon="17.974397817">
        <ele>30.6</ele>
        <time>2018-03-14T17:01:25Z</time>
      </trkpt>
      <trkpt lat="62.642689980015" lon="17.974281979142">
        <ele>30.4</ele>
        <time>2018-03-14T17:01:26Z</time>
      </trkpt>
      <trkpt lat="62.642679586459" lon="17.974207799327">
        <ele>30.4</ele>
        <time>2018-03-14T17:01:27Z</time>
      </trkpt>
      <trkpt lat="62.642700960304" lon="17.974098834627">
        <ele>30.2</ele>
        <time>2018-03-14T17:01:28Z</time>
      </trkpt>
      <trkpt lat="62.642722585606" lon="17.974000179664">
        <ele>29.8</ele>
        <time>2018-03-14T17:01:29Z</time>
      </trkpt>
      <trkpt lat="62.642724345805" lon="17.973892053154">
        <ele>29.8</ele>
        <time>2018-03-14T17:01:30Z</time>
      </trkpt>
      <trkpt lat="62.642747731306" lon="17.973768755405">
        <ele>29.6</ele>
        <time>2018-03-14T17:01:31Z</time>
      </trkpt>
      <trkpt lat="62.642747060754" lon="17.973654929203">
        <ele>29.6</ele>
        <time>2018-03-14T17:01:32Z</time>
      </trkpt>
      <trkpt lat="62.642751670799" lon="17.97356046519">
        <ele>29.2</ele>
        <time>2018-03-14T17:01:33Z</time>
      </trkpt>
      <trkpt lat="62.642762148174" lon="17.973467007005">
        <ele>29.2</ele>
        <time>2018-03-14T17:01:34Z</time>
      </trkpt>
      <trkpt lat="62.642753850093" lon="17.973377488313">
        <ele>28.8</ele>
        <time>2018-03-14T17:01:35Z</time>
      </trkpt>
      <trkpt lat="62.642738427397" lon="17.973300961566">
        <ele>28.8</ele>
        <time>2018-03-14T17:01:36Z</time>
      </trkpt>
      <trkpt lat="62.642734404085" lon="17.973192835056">
        <ele>28.4</ele>
        <time>2018-03-14T17:01:37Z</time>
      </trkpt>
      <trkpt lat="62.642725267814" lon="17.973126198951">
        <ele>28.4</ele>
        <time>2018-03-14T17:01:38Z</time>
      </trkpt>
      <trkpt lat="62.642720322493" lon="17.973072973886">
        <ele>28.4</ele>
        <time>2018-03-14T17:01:39Z</time>
      </trkpt>
      <trkpt lat="62.642718143199" lon="17.972994267845">
        <ele>28.6</ele>
        <time>2018-03-14T17:01:40Z</time>
      </trkpt>
      <trkpt lat="62.642715796267" lon="17.972943222074">
        <ele>28.4</ele>
        <time>2018-03-14T17:01:41Z</time>
      </trkpt>
      <trkpt lat="62.642699200105" lon="17.972910113569">
        <ele>28.6</ele>
        <time>2018-03-14T17:01:42Z</time>
      </trkpt>
      <trkpt lat="62.64269542825" lon="17.972843896559">
        <ele>28.8</ele>
        <time>2018-03-14T17:01:43Z</time>
      </trkpt>
      <trkpt lat="62.642697859001" lon="17.972786145268">
        <ele>28.6</ele>
        <time>2018-03-14T17:01:44Z</time>
      </trkpt>
      <trkpt lat="62.642690147653" lon="17.972754796962">
        <ele>28.6</ele>
        <time>2018-03-14T17:01:45Z</time>
      </trkpt>
      <trkpt lat="62.642686040522" lon="17.972708780331">
        <ele>28.8</ele>
        <time>2018-03-14T17:01:46Z</time>
      </trkpt>
      <trkpt lat="62.642677323346" lon="17.972642144226">
        <ele>28.8</ele>
        <time>2018-03-14T17:01:47Z</time>
      </trkpt>
      <trkpt lat="62.642670701645" lon="17.972582800374">
        <ele>28.8</ele>
        <time>2018-03-14T17:01:48Z</time>
      </trkpt>
      <trkpt lat="62.64266357703" lon="17.97253535882">
        <ele>29</ele>
        <time>2018-03-14T17:01:49Z</time>
      </trkpt>
      <trkpt lat="62.6426577097" lon="17.97248339104">
        <ele>29</ele>
        <time>2018-03-14T17:01:50Z</time>
      </trkpt>
      <trkpt lat="62.642645891221" lon="17.972396973651">
        <ele>29.2</ele>
        <time>2018-03-14T17:01:51Z</time>
      </trkpt>
      <trkpt lat="62.642638766606" lon="17.972358668368">
        <ele>29.2</ele>
        <time>2018-03-14T17:01:52Z</time>
      </trkpt>
      <trkpt lat="62.64263172581" lon="17.972315836859">
        <ele>29.2</ele>
        <time>2018-03-14T17:01:53Z</time>
      </trkpt>
      <trkpt lat="62.642621080797" lon="17.972236041171">
        <ele>29.2</ele>
        <time>2018-03-14T17:01:54Z</time>
      </trkpt>
      <trkpt lat="62.642607753576" lon="17.972174518025">
        <ele>29.2</ele>
        <time>2018-03-14T17:01:55Z</time>
      </trkpt>
      <trkpt lat="62.642592498518" lon="17.972131854154">
        <ele>29.4</ele>
        <time>2018-03-14T17:01:56Z</time>
      </trkpt>
      <trkpt lat="62.642580428582" lon="17.972044263299">
        <ele>29.4</ele>
        <time>2018-03-14T17:01:57Z</time>
      </trkpt>
      <trkpt lat="62.642587720835" lon="17.97197460971">
        <ele>29.4</ele>
        <time>2018-03-14T17:01:58Z</time>
      </trkpt>
      <trkpt lat="62.642572801053" lon="17.971926162328">
        <ele>29.6</ele>
        <time>2018-03-14T17:01:59Z</time>
      </trkpt>
      <trkpt lat="62.642561820764" lon="17.971848462115">
        <ele>29.8</ele>
        <time>2018-03-14T17:02:00Z</time>
      </trkpt>
      <trkpt lat="62.6425571269" lon="17.971792219566">
        <ele>29.8</ele>
        <time>2018-03-14T17:02:01Z</time>
      </trkpt>
      <trkpt lat="62.642558887099" lon="17.971745448564">
        <ele>30</ele>
        <time>2018-03-14T17:02:02Z</time>
      </trkpt>
      <trkpt lat="62.642580009487" lon="17.971696917363">
        <ele>30.2</ele>
        <time>2018-03-14T17:02:03Z</time>
      </trkpt>
      <trkpt lat="62.642599539314" lon="17.971688954558">
        <ele>30.2</ele>
        <time>2018-03-14T17:02:04Z</time>
      </trkpt>
      <trkpt lat="62.642623511548" lon="17.971702868512">
        <ele>30.2</ele>
        <time>2018-03-14T17:02:05Z</time>
      </trkpt>
      <trkpt lat="62.642651758551" lon="17.971744861831">
        <ele>30.4</ele>
        <time>2018-03-14T17:02:06Z</time>
      </trkpt>
      <trkpt lat="62.64266692979" lon="17.971805462968">
        <ele>30.2</ele>
        <time>2018-03-14T17:02:07Z</time>
      </trkpt>
      <trkpt lat="62.642691824033" lon="17.971859442404">
        <ele>30.2</ele>
        <time>2018-03-14T17:02:08Z</time>
      </trkpt>
      <trkpt lat="62.642711018584" lon="17.971909817623">
        <ele>29.8</ele>
        <time>2018-03-14T17:02:09Z</time>
      </trkpt>
      <trkpt lat="62.642735829008" lon="17.971969832027">
        <ele>29.6</ele>
        <time>2018-03-14T17:02:10Z</time>
      </trkpt>
      <trkpt lat="62.64275158698" lon="17.972031019897">
        <ele>29.4</ele>
        <time>2018-03-14T17:02:11Z</time>
      </trkpt>
      <trkpt lat="62.642766758219" lon="17.972091704853">
        <ele>29.2</ele>
        <time>2018-03-14T17:02:12Z</time>
      </trkpt>
      <trkpt lat="62.642778995793" lon="17.972174853301">
        <ele>29</ele>
        <time>2018-03-14T17:02:13Z</time>
      </trkpt>
      <trkpt lat="62.642797519792" lon="17.972216343706">
        <ele>29</ele>
        <time>2018-03-14T17:02:14Z</time>
      </trkpt>
      <trkpt lat="62.642811349927" lon="17.972302677276">
        <ele>29</ele>
        <time>2018-03-14T17:02:15Z</time>
      </trkpt>
      <trkpt lat="62.64282283313" lon="17.972381215679">
        <ele>29</ele>
        <time>2018-03-14T17:02:16Z</time>
      </trkpt>
      <trkpt lat="62.642839177835" lon="17.972421029704">
        <ele>29</ele>
        <time>2018-03-14T17:02:17Z</time>
      </trkpt>
      <trkpt lat="62.642851163952" lon="17.972519852305">
        <ele>29</ele>
        <time>2018-03-14T17:02:18Z</time>
      </trkpt>
      <trkpt lat="62.642862814793" lon="17.972600821459">
        <ele>29</ele>
        <time>2018-03-14T17:02:19Z</time>
      </trkpt>
      <trkpt lat="62.642876561109" lon="17.972667373745">
        <ele>28.8</ele>
        <time>2018-03-14T17:02:20Z</time>
      </trkpt>
      <trkpt lat="62.642886870846" lon="17.97274239175">
        <ele>28.8</ele>
        <time>2018-03-14T17:02:21Z</time>
      </trkpt>
      <trkpt lat="62.64290413756" lon="17.972797544652">
        <ele>28.8</ele>
        <time>2018-03-14T17:02:22Z</time>
      </trkpt>
      <trkpt lat="62.642910172528" lon="17.972876921245">
        <ele>28.4</ele>
        <time>2018-03-14T17:02:23Z</time>
      </trkpt>
      <trkpt lat="62.642919476437" lon="17.972941964789">
        <ele>28.6</ele>
        <time>2018-03-14T17:02:24Z</time>
      </trkpt>
      <trkpt lat="62.64292676869" lon="17.973016647518">
        <ele>28.4</ele>
        <time>2018-03-14T17:02:25Z</time>
      </trkpt>
      <trkpt lat="62.64293766516" lon="17.973092168437">
        <ele>28.2</ele>
        <time>2018-03-14T17:02:26Z</time>
      </trkpt>
      <trkpt lat="62.642951998209" lon="17.973143130389">
        <ele>27.8</ele>
        <time>2018-03-14T17:02:27Z</time>
      </trkpt>
      <trkpt lat="62.642948896906" lon="17.973185626622">
        <ele>27.8</ele>
        <time>2018-03-14T17:02:28Z</time>
      </trkpt>
      <trkpt lat="62.642948896906" lon="17.97328553887">
        <ele>27.8</ele>
        <time>2018-03-14T17:02:29Z</time>
      </trkpt>
      <trkpt lat="62.642958703729" lon="17.973363993454">
        <ele>27.6</ele>
        <time>2018-03-14T17:02:30Z</time>
      </trkpt>
      <trkpt lat="62.642966247439" lon="17.973436580708">
        <ele>27.4</ele>
        <time>2018-03-14T17:02:31Z</time>
      </trkpt>
      <trkpt lat="62.642974042606" lon="17.973478154932">
        <ele>27.4</ele>
        <time>2018-03-14T17:02:32Z</time>
      </trkpt>
      <trkpt lat="62.642981837773" lon="17.97356130338">
        <ele>27.4</ele>
        <time>2018-03-14T17:02:33Z</time>
      </trkpt>
      <trkpt lat="62.642983095058" lon="17.973593657514">
        <ele>27.4</ele>
        <time>2018-03-14T17:02:34Z</time>
      </trkpt>
      <trkpt lat="62.642986866913" lon="17.973629112951">
        <ele>27.2</ele>
        <time>2018-03-14T17:02:35Z</time>
      </trkpt>
      <trkpt lat="62.642980077574" lon="17.973745202266">
        <ele>27.2</ele>
        <time>2018-03-14T17:02:36Z</time>
      </trkpt>
      <trkpt lat="62.642972617683" lon="17.973848215817">
        <ele>27.4</ele>
        <time>2018-03-14T17:02:37Z</time>
      </trkpt>
      <trkpt lat="62.642978065918" lon="17.973905045099">
        <ele>27.4</ele>
        <time>2018-03-14T17:02:38Z</time>
      </trkpt>
      <trkpt lat="62.64296616362" lon="17.973965897693">
        <ele>27.2</ele>
        <time>2018-03-14T17:02:39Z</time>
      </trkpt>
      <trkpt lat="62.642989297664" lon="17.974027085563">
        <ele>27.2</ele>
        <time>2018-03-14T17:02:40Z</time>
      </trkpt>
      <trkpt lat="62.642979993755" lon="17.974106210699">
        <ele>27</ele>
        <time>2018-03-14T17:02:41Z</time>
      </trkpt>
      <trkpt lat="62.642988710931" lon="17.974184665283">
        <ele>27</ele>
        <time>2018-03-14T17:02:42Z</time>
      </trkpt>
      <trkpt lat="62.642998098659" lon="17.974222216195">
        <ele>27</ele>
        <time>2018-03-14T17:02:43Z</time>
      </trkpt>
      <trkpt lat="62.642987453646" lon="17.974298826761">
        <ele>27</ele>
        <time>2018-03-14T17:02:44Z</time>
      </trkpt>
      <trkpt lat="62.642982592144" lon="17.974369905273">
        <ele>27</ele>
        <time>2018-03-14T17:02:45Z</time>
      </trkpt>
      <trkpt lat="62.642990387311" lon="17.974410641307">
        <ele>27</ele>
        <time>2018-03-14T17:02:46Z</time>
      </trkpt>
      <trkpt lat="62.642979993755" lon="17.974482893285">
        <ele>27</ele>
        <time>2018-03-14T17:02:47Z</time>
      </trkpt>
      <trkpt lat="62.642978065918" lon="17.97453947111">
        <ele>27</ele>
        <time>2018-03-14T17:02:48Z</time>
      </trkpt>
      <trkpt lat="62.642979826117" lon="17.97458557156">
        <ele>27.2</ele>
        <time>2018-03-14T17:02:49Z</time>
      </trkpt>
      <trkpt lat="62.642978568832" lon="17.97466519961">
        <ele>27.2</ele>
        <time>2018-03-14T17:02:50Z</time>
      </trkpt>
      <trkpt lat="62.642989297664" lon="17.974729656421">
        <ele>27</ele>
        <time>2018-03-14T17:02:51Z</time>
      </trkpt>
      <trkpt lat="62.64298879475" lon="17.974810793213">
        <ele>27</ele>
        <time>2018-03-14T17:02:52Z</time>
      </trkpt>
      <trkpt lat="62.643005139455" lon="17.974874579472">
        <ele>27.2</ele>
        <time>2018-03-14T17:02:53Z</time>
      </trkpt>
      <trkpt lat="62.643004552722" lon="17.974936689351">
        <ele>27.2</ele>
        <time>2018-03-14T17:02:54Z</time>
      </trkpt>
      <trkpt lat="62.643002960161" lon="17.975034506124">
        <ele>27.2</ele>
        <time>2018-03-14T17:02:55Z</time>
      </trkpt>
      <trkpt lat="62.642993907709" lon="17.975099633487">
        <ele>27.2</ele>
        <time>2018-03-14T17:02:56Z</time>
      </trkpt>
      <trkpt lat="62.642992231329" lon="17.975150260163">
        <ele>27.2</ele>
        <time>2018-03-14T17:02:57Z</time>
      </trkpt>
      <trkpt lat="62.642974880796" lon="17.975223015055">
        <ele>27</ele>
        <time>2018-03-14T17:02:58Z</time>
      </trkpt>
      <trkpt lat="62.642964068145" lon="17.975271546256">
        <ele>27</ele>
        <time>2018-03-14T17:02:59Z</time>
      </trkpt>
      <trkpt lat="62.642943783947" lon="17.975341786578">
        <ele>27</ele>
        <time>2018-03-14T17:03:00Z</time>
      </trkpt>
      <trkpt lat="62.642931294916" lon="17.975396688023">
        <ele>27</ele>
        <time>2018-03-14T17:03:01Z</time>
      </trkpt>
      <trkpt lat="62.642910507804" lon="17.975451254192">
        <ele>26.8</ele>
        <time>2018-03-14T17:03:02Z</time>
      </trkpt>
      <trkpt lat="62.642895420384" lon="17.97550506599">
        <ele>27</ele>
        <time>2018-03-14T17:03:03Z</time>
      </trkpt>
      <trkpt lat="62.642896761488" lon="17.975524260541">
        <ele>27</ele>
        <time>2018-03-14T17:03:04Z</time>
      </trkpt>
      <trkpt lat="62.642887792855" lon="17.975601038745">
        <ele>27.2</ele>
        <time>2018-03-14T17:03:05Z</time>
      </trkpt>
      <trkpt lat="62.642878572765" lon="17.975679660967">
        <ele>27.4</ele>
        <time>2018-03-14T17:03:06Z</time>
      </trkpt>
      <trkpt lat="62.642882260801" lon="17.975740262104">
        <ele>27.6</ele>
        <time>2018-03-14T17:03:07Z</time>
      </trkpt>
      <trkpt lat="62.642875890557" lon="17.975833133556">
        <ele>27.8</ele>
        <time>2018-03-14T17:03:08Z</time>
      </trkpt>
      <trkpt lat="62.642871112874" lon="17.975888705553">
        <ele>27.8</ele>
        <time>2018-03-14T17:03:09Z</time>
      </trkpt>
      <trkpt lat="62.642864239716" lon="17.975956682762">
        <ele>28</ele>
        <time>2018-03-14T17:03:10Z</time>
      </trkpt>
      <trkpt lat="62.642842446776" lon="17.976021558668">
        <ele>28</ele>
        <time>2018-03-14T17:03:11Z</time>
      </trkpt>
      <trkpt lat="62.642849739029" lon="17.976071598611">
        <ele>28</ele>
        <time>2018-03-14T17:03:12Z</time>
      </trkpt>
      <trkpt lat="62.642843536423" lon="17.976151981032">
        <ele>27.8</ele>
        <time>2018-03-14T17:03:13Z</time>
      </trkpt>
      <trkpt lat="62.642841021853" lon="17.976193974351">
        <ele>27.8</ele>
        <time>2018-03-14T17:03:14Z</time>
      </trkpt>
      <trkpt lat="62.642848146468" lon="17.976249630167">
        <ele>27.6</ele>
        <time>2018-03-14T17:03:15Z</time>
      </trkpt>
      <trkpt lat="62.6428421115" lon="17.976323642344">
        <ele>27.6</ele>
        <time>2018-03-14T17:03:16Z</time>
      </trkpt>
      <trkpt lat="62.642848314106" lon="17.976368988423">
        <ele>27.6</ele>
        <time>2018-03-14T17:03:17Z</time>
      </trkpt>
      <trkpt lat="62.642850996314" lon="17.976418106357">
        <ele>27.6</ele>
        <time>2018-03-14T17:03:18Z</time>
      </trkpt>
      <trkpt lat="62.642847392097" lon="17.976509385248">
        <ele>27.8</ele>
        <time>2018-03-14T17:03:19Z</time>
      </trkpt>
      <trkpt lat="62.642852002142" lon="17.97657040548">
        <ele>27.6</ele>
        <time>2018-03-14T17:03:20Z</time>
      </trkpt>
      <trkpt lat="62.642844709889" lon="17.976630922798">
        <ele>27.8</ele>
        <time>2018-03-14T17:03:21Z</time>
      </trkpt>
      <trkpt lat="62.642841692405" lon="17.976697223627">
        <ele>27.8</ele>
        <time>2018-03-14T17:03:22Z</time>
      </trkpt>
      <trkpt lat="62.642838255826" lon="17.976749945778">
        <ele>27.6</ele>
        <time>2018-03-14T17:03:23Z</time>
      </trkpt>
      <trkpt lat="62.642832556134" lon="17.976817503892">
        <ele>27.8</ele>
        <time>2018-03-14T17:03:24Z</time>
      </trkpt>
      <trkpt lat="62.642822330216" lon="17.976884978187">
        <ele>27.8</ele>
        <time>2018-03-14T17:03:25Z</time>
      </trkpt>
      <trkpt lat="62.642815708515" lon="17.976952368663">
        <ele>27.8</ele>
        <time>2018-03-14T17:03:26Z</time>
      </trkpt>
      <trkpt lat="62.64281612761" lon="17.976999726398">
        <ele>28</ele>
        <time>2018-03-14T17:03:27Z</time>
      </trkpt>
      <trkpt lat="62.642809338271" lon="17.977052113273">
        <ele>28.2</ele>
        <time>2018-03-14T17:03:28Z</time>
      </trkpt>
      <trkpt lat="62.642799866724" lon="17.97712780183">
        <ele>28.4</ele>
        <time>2018-03-14T17:03:29Z</time>
      </trkpt>
      <trkpt lat="62.642791903919" lon="17.97717725504">
        <ele>28.6</ele>
        <time>2018-03-14T17:03:30Z</time>
      </trkpt>
      <trkpt lat="62.642784360209" lon="17.977222936395">
        <ele>28.6</ele>
        <time>2018-03-14T17:03:31Z</time>
      </trkpt>
      <trkpt lat="62.642773631377" lon="17.977291919432">
        <ele>28.6</ele>
        <time>2018-03-14T17:03:32Z</time>
      </trkpt>
      <trkpt lat="62.64276583621" lon="17.977347826705">
        <ele>28.6</ele>
        <time>2018-03-14T17:03:33Z</time>
      </trkpt>
      <trkpt lat="62.642763740735" lon="17.977386718721">
        <ele>28.6</ele>
        <time>2018-03-14T17:03:34Z</time>
      </trkpt>
      <trkpt lat="62.642748737134" lon="17.977446397849">
        <ele>28.6</ele>
        <time>2018-03-14T17:03:35Z</time>
      </trkpt>
      <trkpt lat="62.642734320266" lon="17.977489648453">
        <ele>28.6</ele>
        <time>2018-03-14T17:03:36Z</time>
      </trkpt>
      <trkpt lat="62.642713197878" lon="17.977535832722">
        <ele>28.6</ele>
        <time>2018-03-14T17:03:37Z</time>
      </trkpt>
      <trkpt lat="62.642696434078" lon="17.977569192684">
        <ele>28.8</ele>
        <time>2018-03-14T17:03:38Z</time>
      </trkpt>
      <trkpt lat="62.642678999726" lon="17.977604564302">
        <ele>28.8</ele>
        <time>2018-03-14T17:03:39Z</time>
      </trkpt>
      <trkpt lat="62.642667600342" lon="17.977641779938">
        <ele>29</ele>
        <time>2018-03-14T17:03:40Z</time>
      </trkpt>
      <trkpt lat="62.642647316144" lon="17.977678325022">
        <ele>29</ele>
        <time>2018-03-14T17:03:41Z</time>
      </trkpt>
      <trkpt lat="62.64263507857" lon="17.977708583681">
        <ele>29.2</ele>
        <time>2018-03-14T17:03:42Z</time>
      </trkpt>
      <trkpt lat="62.642611022517" lon="17.977741859824">
        <ele>29.4</ele>
        <time>2018-03-14T17:03:43Z</time>
      </trkpt>
      <trkpt lat="62.642596857106" lon="17.977762898393">
        <ele>29.6</ele>
        <time>2018-03-14T17:03:44Z</time>
      </trkpt>
      <trkpt lat="62.642573136329" lon="17.977794917251">
        <ele>29.6</ele>
        <time>2018-03-14T17:03:45Z</time>
      </trkpt>
      <trkpt lat="62.642558551823" lon="17.977831127059">
        <ele>30</ele>
        <time>2018-03-14T17:03:46Z</time>
      </trkpt>
      <trkpt lat="62.642541536566" lon="17.977857697682">
        <ele>30.2</ele>
        <time>2018-03-14T17:03:47Z</time>
      </trkpt>
      <trkpt lat="62.642520078902" lon="17.977901870295">
        <ele>30.4</ele>
        <time>2018-03-14T17:03:48Z</time>
      </trkpt>
      <trkpt lat="62.642504237111" lon="17.97792827328">
        <ele>30.6</ele>
        <time>2018-03-14T17:03:49Z</time>
      </trkpt>
      <trkpt lat="62.642486970397" lon="17.977962974346">
        <ele>30.6</ele>
        <time>2018-03-14T17:03:50Z</time>
      </trkpt>
      <trkpt lat="62.642468614036" lon="17.977998345964">
        <ele>30.8</ele>
        <time>2018-03-14T17:03:51Z</time>
      </trkpt>
      <trkpt lat="62.642454197168" lon="17.978028520804">
        <ele>31</ele>
        <time>2018-03-14T17:03:52Z</time>
      </trkpt>
      <trkpt lat="62.642436259902" lon="17.978073447788">
        <ele>31.2</ele>
        <time>2018-03-14T17:03:53Z</time>
      </trkpt>
      <trkpt lat="62.642425950165" lon="17.978113597089">
        <ele>31.2</ele>
        <time>2018-03-14T17:03:54Z</time>
      </trkpt>
      <trkpt lat="62.642408851089" lon="17.978154752218">
        <ele>31.4</ele>
        <time>2018-03-14T17:03:55Z</time>
      </trkpt>
      <trkpt lat="62.642387896339" lon="17.978204373066">
        <ele>31.4</ele>
        <time>2018-03-14T17:03:56Z</time>
      </trkpt>
      <trkpt lat="62.642375742584" lon="17.978240163779">
        <ele>31.6</ele>
        <time>2018-03-14T17:03:57Z</time>
      </trkpt>
      <trkpt lat="62.642367360684" lon="17.978270087162">
        <ele>31.8</ele>
        <time>2018-03-14T17:03:58Z</time>
      </trkpt>
      <trkpt lat="62.642348333771" lon="17.978323647503">
        <ele>31.8</ele>
        <time>2018-03-14T17:03:59Z</time>
      </trkpt>
      <trkpt lat="62.642335593283" lon="17.978382404622">
        <ele>32</ele>
        <time>2018-03-14T17:04:00Z</time>
      </trkpt>
      <trkpt lat="62.642322182243" lon="17.978417189507">
        <ele>32</ele>
        <time>2018-03-14T17:04:01Z</time>
      </trkpt>
      <trkpt lat="62.642295779258" lon="17.978481311042">
        <ele>32</ele>
        <time>2018-03-14T17:04:02Z</time>
      </trkpt>
      <trkpt lat="62.642286978263" lon="17.978497320471">
        <ele>32.2</ele>
        <time>2018-03-14T17:04:03Z</time>
      </trkpt>
      <trkpt lat="62.642268035169" lon="17.978533195003">
        <ele>32.2</ele>
        <time>2018-03-14T17:04:04Z</time>
      </trkpt>
      <trkpt lat="62.642257473975" lon="17.978574350132">
        <ele>32.2</ele>
        <time>2018-03-14T17:04:05Z</time>
      </trkpt>
      <trkpt lat="62.642249175894" lon="17.97860301623">
        <ele>32.2</ele>
        <time>2018-03-14T17:04:06Z</time>
      </trkpt>
      <trkpt lat="62.642231154809" lon="17.978628329568">
        <ele>32.4</ele>
        <time>2018-03-14T17:04:07Z</time>
      </trkpt>
      <trkpt lat="62.642210367697" lon="17.978658085313">
        <ele>32.6</ele>
        <time>2018-03-14T17:04:08Z</time>
      </trkpt>
      <trkpt lat="62.642192178974" lon="17.978685661764">
        <ele>33</ele>
        <time>2018-03-14T17:04:09Z</time>
      </trkpt>
      <trkpt lat="62.642170888948" lon="17.978701587374">
        <ele>33.2</ele>
        <time>2018-03-14T17:04:10Z</time>
      </trkpt>
      <trkpt lat="62.642152867863" lon="17.978730756386">
        <ele>33.6</ele>
        <time>2018-03-14T17:04:11Z</time>
      </trkpt>
      <trkpt lat="62.642134762959" lon="17.97874886129">
        <ele>33.8</ele>
        <time>2018-03-14T17:04:12Z</time>
      </trkpt>
      <trkpt lat="62.642105258671" lon="17.978758332837">
        <ele>33.8</ele>
        <time>2018-03-14T17:04:13Z</time>
      </trkpt>
      <trkpt lat="62.642080951161" lon="17.978753555154">
        <ele>34</ele>
        <time>2018-03-14T17:04:14Z</time>
      </trkpt>
      <trkpt lat="62.642063181533" lon="17.978756824095">
        <ele>34.2</ele>
        <time>2018-03-14T17:04:15Z</time>
      </trkpt>
      <trkpt lat="62.642048680846" lon="17.978767552927">
        <ele>34.4</ele>
        <time>2018-03-14T17:04:16Z</time>
      </trkpt>
      <trkpt lat="62.642027893734" lon="17.978778868492">
        <ele>34.4</ele>
        <time>2018-03-14T17:04:17Z</time>
      </trkpt>
      <trkpt lat="62.642005011147" lon="17.978786160745">
        <ele>34.6</ele>
        <time>2018-03-14T17:04:18Z</time>
      </trkpt>
      <trkpt lat="62.64198380494" lon="17.978788004763">
        <ele>34.8</ele>
        <time>2018-03-14T17:04:19Z</time>
      </trkpt>
      <trkpt lat="62.641965197122" lon="17.978808959513">
        <ele>35</ele>
        <time>2018-03-14T17:04:20Z</time>
      </trkpt>
      <trkpt lat="62.641946673123" lon="17.978817173775">
        <ele>35</ele>
        <time>2018-03-14T17:04:21Z</time>
      </trkpt>
      <trkpt lat="62.641941811621" lon="17.978818347241">
        <ele>35</ele>
        <time>2018-03-14T17:04:22Z</time>
      </trkpt>
      <trkpt lat="62.64191088241" lon="17.978832847928">
        <ele>35.2</ele>
        <time>2018-03-14T17:04:23Z</time>
      </trkpt>
      <trkpt lat="62.641889340927" lon="17.978845336959">
        <ele>35.2</ele>
        <time>2018-03-14T17:04:24Z</time>
      </trkpt>
      <trkpt lat="62.641870816928" lon="17.978860675836">
        <ele>35.4</ele>
        <time>2018-03-14T17:04:25Z</time>
      </trkpt>
      <trkpt lat="62.641854388404" lon="17.978869141555">
        <ele>35.6</ele>
        <time>2018-03-14T17:04:26Z</time>
      </trkpt>
      <trkpt lat="62.641832595464" lon="17.978877020541">
        <ele>36</ele>
        <time>2018-03-14T17:04:27Z</time>
      </trkpt>
      <trkpt lat="62.641809629058" lon="17.978881211491">
        <ele>36</ele>
        <time>2018-03-14T17:04:28Z</time>
      </trkpt>
      <trkpt lat="62.641794457819" lon="17.978897807653">
        <ele>36.4</ele>
        <time>2018-03-14T17:04:29Z</time>
      </trkpt>
      <trkpt lat="62.641770820861" lon="17.978901328051">
        <ele>36.8</ele>
        <time>2018-03-14T17:04:30Z</time>
      </trkpt>
      <trkpt lat="62.641751710129" lon="17.978898562024">
        <ele>37</ele>
        <time>2018-03-14T17:04:31Z</time>
      </trkpt>
      <trkpt lat="62.641737041804" lon="17.978902585336">
        <ele>37.2</ele>
        <time>2018-03-14T17:04:32Z</time>
      </trkpt>
      <trkpt lat="62.641720361823" lon="17.97890644101">
        <ele>37.4</ele>
        <time>2018-03-14T17:04:33Z</time>
      </trkpt>
      <trkpt lat="62.641711057914" lon="17.978912643616">
        <ele>37.8</ele>
        <time>2018-03-14T17:04:34Z</time>
      </trkpt>
      <trkpt lat="62.641691444268" lon="17.978908620304">
        <ele>38</ele>
        <time>2018-03-14T17:04:35Z</time>
      </trkpt>
      <trkpt lat="62.64166948369" lon="17.978909961408">
        <ele>38.2</ele>
        <time>2018-03-14T17:04:36Z</time>
      </trkpt>
      <trkpt lat="62.641650540596" lon="17.978908033571">
        <ele>38.4</ele>
        <time>2018-03-14T17:04:37Z</time>
      </trkpt>
      <trkpt lat="62.641631094588" lon="17.978909542313">
        <ele>38.6</ele>
        <time>2018-03-14T17:04:38Z</time>
      </trkpt>
      <trkpt lat="62.641615504254" lon="17.978903255888">
        <ele>38.8</ele>
        <time>2018-03-14T17:04:39Z</time>
      </trkpt>
      <trkpt lat="62.641602763766" lon="17.978893281427">
        <ele>39.2</ele>
        <time>2018-03-14T17:04:40Z</time>
      </trkpt>
      <trkpt lat="62.641588514536" lon="17.978884061337">
        <ele>39.4</ele>
        <time>2018-03-14T17:04:41Z</time>
      </trkpt>
      <trkpt lat="62.641571918374" lon="17.978878026369">
        <ele>39.6</ele>
        <time>2018-03-14T17:04:42Z</time>
      </trkpt>
      <trkpt lat="62.64155548985" lon="17.978869979745">
        <ele>39.6</ele>
        <time>2018-03-14T17:04:43Z</time>
      </trkpt>
      <trkpt lat="62.641537552584" lon="17.97885363504">
        <ele>39.8</ele>
        <time>2018-03-14T17:04:44Z</time>
      </trkpt>
      <trkpt lat="62.641522046069" lon="17.978840726914">
        <ele>40.2</ele>
        <time>2018-03-14T17:04:45Z</time>
      </trkpt>
      <trkpt lat="62.641505617545" lon="17.978830752453">
        <ele>40.4</ele>
        <time>2018-03-14T17:04:46Z</time>
      </trkpt>
      <trkpt lat="62.641485165709" lon="17.978818933974">
        <ele>40.6</ele>
        <time>2018-03-14T17:04:47Z</time>
      </trkpt>
      <trkpt lat="62.641466976986" lon="17.978807618409">
        <ele>40.8</ele>
        <time>2018-03-14T17:04:48Z</time>
      </trkpt>
      <trkpt lat="62.641458762724" lon="17.978805355296">
        <ele>41</ele>
        <time>2018-03-14T17:04:49Z</time>
      </trkpt>
      <trkpt lat="62.641438310888" lon="17.978794291188">
        <ele>41.4</ele>
        <time>2018-03-14T17:04:50Z</time>
      </trkpt>
      <trkpt lat="62.641424145477" lon="17.978784232908">
        <ele>41.6</ele>
        <time>2018-03-14T17:04:51Z</time>
      </trkpt>
      <trkpt lat="62.641402687813" lon="17.978781802157">
        <ele>41.8</ele>
        <time>2018-03-14T17:04:52Z</time>
      </trkpt>
      <trkpt lat="62.641385924013" lon="17.978780125777">
        <ele>42</ele>
        <time>2018-03-14T17:04:53Z</time>
      </trkpt>
      <trkpt lat="62.641361532684" lon="17.978778030302">
        <ele>42.4</ele>
        <time>2018-03-14T17:04:54Z</time>
      </trkpt>
      <trkpt lat="62.641333537138" lon="17.978786076926">
        <ele>42.6</ele>
        <time>2018-03-14T17:04:55Z</time>
      </trkpt>
      <trkpt lat="62.641314761682" lon="17.978795464654">
        <ele>42.8</ele>
        <time>2018-03-14T17:04:56Z</time>
      </trkpt>
      <trkpt lat="62.641297578787" lon="17.978801834898">
        <ele>43</ele>
        <time>2018-03-14T17:04:57Z</time>
      </trkpt>
      <trkpt lat="62.641271259621" lon="17.978791022247">
        <ele>43.2</ele>
        <time>2018-03-14T17:04:58Z</time>
      </trkpt>
      <trkpt lat="62.64124535955" lon="17.978802253993">
        <ele>43.2</ele>
        <time>2018-03-14T17:04:59Z</time>
      </trkpt>
      <trkpt lat="62.641228763388" lon="17.978810300617">
        <ele>43.4</ele>
        <time>2018-03-14T17:05:00Z</time>
      </trkpt>
      <trkpt lat="62.64120345005" lon="17.978817928146">
        <ele>43.4</ele>
        <time>2018-03-14T17:05:01Z</time>
      </trkpt>
      <trkpt lat="62.641184926051" lon="17.978834608127">
        <ele>43.4</ele>
        <time>2018-03-14T17:05:02Z</time>
      </trkpt>
      <trkpt lat="62.641155589401" lon="17.978831674462">
        <ele>43.6</ele>
        <time>2018-03-14T17:05:03Z</time>
      </trkpt>
      <trkpt lat="62.641139831429" lon="17.978840056362">
        <ele>43.6</ele>
        <time>2018-03-14T17:05:04Z</time>
      </trkpt>
      <trkpt lat="62.641122899991" lon="17.978853551221">
        <ele>43.8</ele>
        <time>2018-03-14T17:05:05Z</time>
      </trkpt>
      <trkpt lat="62.64110119087" lon="17.978863358044">
        <ele>44</ele>
        <time>2018-03-14T17:05:06Z</time>
      </trkpt>
      <trkpt lat="62.641073865876" lon="17.978880708577">
        <ele>44.2</ele>
        <time>2018-03-14T17:05:07Z</time>
      </trkpt>
      <trkpt lat="62.641054419868" lon="17.9788988973">
        <ele>44.2</ele>
        <time>2018-03-14T17:05:08Z</time>
      </trkpt>
      <trkpt lat="62.641036231145" lon="17.978922115163">
        <ele>44.4</ele>
        <time>2018-03-14T17:05:09Z</time>
      </trkpt>
      <trkpt lat="62.641019551164" lon="17.978945081569">
        <ele>44.6</ele>
        <time>2018-03-14T17:05:10Z</time>
      </trkpt>
      <trkpt lat="62.641002619726" lon="17.978974250581">
        <ele>44.8</ele>
        <time>2018-03-14T17:05:11Z</time>
      </trkpt>
      <trkpt lat="62.640992645265" lon="17.979009203104">
        <ele>45</ele>
        <time>2018-03-14T17:05:12Z</time>
      </trkpt>
      <trkpt lat="62.640973031619" lon="17.979062176712">
        <ele>45.4</ele>
        <time>2018-03-14T17:05:13Z</time>
      </trkpt>
      <trkpt lat="62.640959033846" lon="17.979090088439">
        <ele>45.6</ele>
        <time>2018-03-14T17:05:14Z</time>
      </trkpt>
      <trkpt lat="62.640948807928" lon="17.97914113421">
        <ele>45.8</ele>
        <time>2018-03-14T17:05:15Z</time>
      </trkpt>
      <trkpt lat="62.640940090752" lon="17.979215397844">
        <ele>45.8</ele>
        <time>2018-03-14T17:05:16Z</time>
      </trkpt>
      <trkpt lat="62.640936486535" lon="17.979232999834">
        <ele>45.8</ele>
        <time>2018-03-14T17:05:17Z</time>
      </trkpt>
      <trkpt lat="62.640921650572" lon="17.979295528808">
        <ele>45.8</ele>
        <time>2018-03-14T17:05:18Z</time>
      </trkpt>
      <trkpt lat="62.640903545668" lon="17.97935906361">
        <ele>45.8</ele>
        <time>2018-03-14T17:05:19Z</time>
      </trkpt>
      <trkpt lat="62.640920812382" lon="17.979403571499">
        <ele>45.8</ele>
        <time>2018-03-14T17:05:20Z</time>
      </trkpt>
      <trkpt lat="62.640916202337" lon="17.979490827078">
        <ele>45.8</ele>
        <time>2018-03-14T17:05:21Z</time>
      </trkpt>
      <trkpt lat="62.640910670283" lon="17.979551763491">
        <ele>45.8</ele>
        <time>2018-03-14T17:05:22Z</time>
      </trkpt>
      <trkpt lat="62.640908742446" lon="17.979576909191">
        <ele>45.8</ele>
        <time>2018-03-14T17:05:23Z</time>
      </trkpt>
      <trkpt lat="62.640898684166" lon="17.979652681567">
        <ele>46</ele>
        <time>2018-03-14T17:05:24Z</time>
      </trkpt>
      <trkpt lat="62.640897343062" lon="17.979705571356">
        <ele>46</ele>
        <time>2018-03-14T17:05:25Z</time>
      </trkpt>
      <trkpt lat="62.640897175424" lon="17.979749073417">
        <ele>46</ele>
        <time>2018-03-14T17:05:26Z</time>
      </trkpt>
      <trkpt lat="62.640890888999" lon="17.979805232147">
        <ele>46</ele>
        <time>2018-03-14T17:05:27Z</time>
      </trkpt>
      <trkpt lat="62.640895331406" lon="17.979857032289">
        <ele>46</ele>
        <time>2018-03-14T17:05:28Z</time>
      </trkpt>
      <trkpt lat="62.64089164337" lon="17.979900869626">
        <ele>46.2</ele>
        <time>2018-03-14T17:05:29Z</time>
      </trkpt>
      <trkpt lat="62.640883596746" lon="17.979986532644">
        <ele>46.2</ele>
        <time>2018-03-14T17:05:30Z</time>
      </trkpt>
      <trkpt lat="62.640887536239" lon="17.980019389692">
        <ele>46.2</ele>
        <time>2018-03-14T17:05:31Z</time>
      </trkpt>
      <trkpt lat="62.640884602574" lon="17.980097760457">
        <ele>46.6</ele>
        <time>2018-03-14T17:05:32Z</time>
      </trkpt>
      <trkpt lat="62.640897594519" lon="17.980151739893">
        <ele>46.6</ele>
        <time>2018-03-14T17:05:33Z</time>
      </trkpt>
      <trkpt lat="62.640906395514" lon="17.980194990497">
        <ele>46.6</ele>
        <time>2018-03-14T17:05:34Z</time>
      </trkpt>
      <trkpt lat="62.640912179025" lon="17.980284676827">
        <ele>46.6</ele>
        <time>2018-03-14T17:05:35Z</time>
      </trkpt>
      <trkpt lat="62.640912430482" lon="17.980339075358">
        <ele>46.6</ele>
        <time>2018-03-14T17:05:36Z</time>
      </trkpt>
      <trkpt lat="62.640916453794" lon="17.980423229634">
        <ele>46.4</ele>
        <time>2018-03-14T17:05:37Z</time>
      </trkpt>
      <trkpt lat="62.640923997504" lon="17.980481232382">
        <ele>46.4</ele>
        <time>2018-03-14T17:05:38Z</time>
      </trkpt>
      <trkpt lat="62.640927853178" lon="17.980539821863">
        <ele>46.2</ele>
        <time>2018-03-14T17:05:39Z</time>
      </trkpt>
      <trkpt lat="62.640942856779" lon="17.980631268392">
        <ele>46.2</ele>
        <time>2018-03-14T17:05:40Z</time>
      </trkpt>
      <trkpt lat="62.640969092126" lon="17.980686505113">
        <ele>46</ele>
        <time>2018-03-14T17:05:41Z</time>
      </trkpt>
      <trkpt lat="62.640972193429" lon="17.980752470666">
        <ele>46</ele>
        <time>2018-03-14T17:05:42Z</time>
      </trkpt>
      <trkpt lat="62.640986526478" lon="17.980871074551">
        <ele>46</ele>
        <time>2018-03-14T17:05:43Z</time>
      </trkpt>
      <trkpt lat="62.64101150454" lon="17.980956821388">
        <ele>45.8</ele>
        <time>2018-03-14T17:05:44Z</time>
      </trkpt>
      <trkpt lat="62.641032878385" lon="17.981041981492">
        <ele>45.8</ele>
        <time>2018-03-14T17:05:45Z</time>
      </trkpt>
      <trkpt lat="62.641057688809" lon="17.981133008926">
        <ele>45.6</ele>
        <time>2018-03-14T17:05:46Z</time>
      </trkpt>
      <trkpt lat="62.641073279143" lon="17.981243063273">
        <ele>45</ele>
        <time>2018-03-14T17:05:47Z</time>
      </trkpt>
      <trkpt lat="62.641076380446" lon="17.981345657729">
        <ele>44.2</ele>
        <time>2018-03-14T17:05:48Z</time>
      </trkpt>
      <trkpt lat="62.641065567795" lon="17.981428303263">
        <ele>43.4</ele>
        <time>2018-03-14T17:05:49Z</time>
      </trkpt>
      <trkpt lat="62.641068752917" lon="17.98149812449">
        <ele>42.6</ele>
        <time>2018-03-14T17:05:50Z</time>
      </trkpt>
      <trkpt lat="62.641066908899" lon="17.981592253227">
        <ele>42.2</ele>
        <time>2018-03-14T17:05:51Z</time>
      </trkpt>
      <trkpt lat="62.641070680754" lon="17.981629887958">
        <ele>42.2</ele>
        <time>2018-03-14T17:05:52Z</time>
      </trkpt>
      <trkpt lat="62.641071770401" lon="17.981718317003">
        <ele>42.2</ele>
        <time>2018-03-14T17:05:53Z</time>
      </trkpt>
      <trkpt lat="62.641063556139" lon="17.98178897642">
        <ele>42.4</ele>
        <time>2018-03-14T17:05:54Z</time>
      </trkpt>
      <trkpt lat="62.641088198925" lon="17.98186022257">
        <ele>42.6</ele>
        <time>2018-03-14T17:05:55Z</time>
      </trkpt>
      <trkpt lat="62.641079900844" lon="17.981945382674">
        <ele>43</ele>
        <time>2018-03-14T17:05:56Z</time>
      </trkpt>
      <trkpt lat="62.641091300228" lon="17.982008749838">
        <ele>43.2</ele>
        <time>2018-03-14T17:05:57Z</time>
      </trkpt>
      <trkpt lat="62.641101442327" lon="17.982063818921">
        <ele>43.2</ele>
        <time>2018-03-14T17:05:58Z</time>
      </trkpt>
      <trkpt lat="62.641103118707" lon="17.982146715912">
        <ele>43</ele>
        <time>2018-03-14T17:05:59Z</time>
      </trkpt>
      <trkpt lat="62.641117619394" lon="17.982205892126">
        <ele>43</ele>
        <time>2018-03-14T17:06:00Z</time>
      </trkpt>
      <trkpt lat="62.641120385421" lon="17.982282083597">
        <ele>43</ele>
        <time>2018-03-14T17:06:01Z</time>
      </trkpt>
      <trkpt lat="62.641140418162" lon="17.982350228444">
        <ele>43</ele>
        <time>2018-03-14T17:06:02Z</time>
      </trkpt>
      <trkpt lat="62.641145782578" lon="17.982404291699">
        <ele>43</ele>
        <time>2018-03-14T17:06:03Z</time>
      </trkpt>
      <trkpt lat="62.641156679048" lon="17.982468329415">
        <ele>43</ele>
        <time>2018-03-14T17:06:04Z</time>
      </trkpt>
      <trkpt lat="62.64117746616" lon="17.982525326335">
        <ele>43</ele>
        <time>2018-03-14T17:06:05Z</time>
      </trkpt>
      <trkpt lat="62.641176879427" lon="17.98263219556">
        <ele>43</ele>
        <time>2018-03-14T17:06:06Z</time>
      </trkpt>
      <trkpt lat="62.641182160024" lon="17.982701513873">
        <ele>42.8</ele>
        <time>2018-03-14T17:06:07Z</time>
      </trkpt>
      <trkpt lat="62.641188697906" lon="17.982790110556">
        <ele>42.6</ele>
        <time>2018-03-14T17:06:08Z</time>
      </trkpt>
      <trkpt lat="62.641192050666" lon="17.982874600108">
        <ele>42.4</ele>
        <time>2018-03-14T17:06:09Z</time>
      </trkpt>
      <trkpt lat="62.641206970448" lon="17.982942409679">
        <ele>42.2</ele>
        <time>2018-03-14T17:06:10Z</time>
      </trkpt>
      <trkpt lat="62.641211748131" lon="17.983046680515">
        <ele>42</ele>
        <time>2018-03-14T17:06:11Z</time>
      </trkpt>
      <trkpt lat="62.641219878574" lon="17.983124464547">
        <ele>41.8</ele>
        <time>2018-03-14T17:06:12Z</time>
      </trkpt>
      <trkpt lat="62.641231277958" lon="17.983204930787">
        <ele>41.8</ele>
        <time>2018-03-14T17:06:13Z</time>
      </trkpt>
      <trkpt lat="62.641244940455" lon="17.983271063978">
        <ele>41.6</ele>
        <time>2018-03-14T17:06:14Z</time>
      </trkpt>
      <trkpt lat="62.64125877059" lon="17.983387991483">
        <ele>41.4</ele>
        <time>2018-03-14T17:06:15Z</time>
      </trkpt>
      <trkpt lat="62.641278970969" lon="17.983460243461">
        <ele>41.4</ele>
        <time>2018-03-14T17:06:16Z</time>
      </trkpt>
      <trkpt lat="62.641268493594" lon="17.983592174567">
        <ele>41.4</ele>
        <time>2018-03-14T17:06:17Z</time>
      </trkpt>
      <trkpt lat="62.64127385801" lon="17.983692925005">
        <ele>41</ele>
        <time>2018-03-14T17:06:18Z</time>
      </trkpt>
      <trkpt lat="62.641269499422" lon="17.983802392619">
        <ele>40.8</ele>
        <time>2018-03-14T17:06:19Z</time>
      </trkpt>
      <trkpt lat="62.641268577413" lon="17.983917392287">
        <ele>40.6</ele>
        <time>2018-03-14T17:06:20Z</time>
      </trkpt>
      <trkpt lat="62.641266062843" lon="17.984026440806">
        <ele>40.4</ele>
        <time>2018-03-14T17:06:21Z</time>
      </trkpt>
      <trkpt lat="62.641263967368" lon="17.984129621995">
        <ele>40</ele>
        <time>2018-03-14T17:06:22Z</time>
      </trkpt>
      <trkpt lat="62.641260111694" lon="17.984225427112">
        <ele>39.6</ele>
        <time>2018-03-14T17:06:23Z</time>
      </trkpt>
      <trkpt lat="62.641255585468" lon="17.984338834219">
        <ele>39</ele>
        <time>2018-03-14T17:06:24Z</time>
      </trkpt>
      <trkpt lat="62.641254914916" lon="17.984452911878">
        <ele>38.6</ele>
        <time>2018-03-14T17:06:25Z</time>
      </trkpt>
      <trkpt lat="62.64125374145" lon="17.984541089466">
        <ele>38.2</ele>
        <time>2018-03-14T17:06:26Z</time>
      </trkpt>
      <trkpt lat="62.64124787412" lon="17.98464468975">
        <ele>37.8</ele>
        <time>2018-03-14T17:06:27Z</time>
      </trkpt>
      <trkpt lat="62.641240414229" lon="17.984745356369">
        <ele>37.2</ele>
        <time>2018-03-14T17:06:28Z</time>
      </trkpt>
      <trkpt lat="62.641226416456" lon="17.984823056582">
        <ele>36.8</ele>
        <time>2018-03-14T17:06:29Z</time>
      </trkpt>
      <trkpt lat="62.641212753959" lon="17.984914167835">
        <ele>36.8</ele>
        <time>2018-03-14T17:06:30Z</time>
      </trkpt>
      <trkpt lat="62.641203869145" lon="17.984968482547">
        <ele>36.6</ele>
        <time>2018-03-14T17:06:31Z</time>
      </trkpt>
      <trkpt lat="62.641186267155" lon="17.985066383139">
        <ele>36.8</ele>
        <time>2018-03-14T17:06:32Z</time>
      </trkpt>
      <trkpt lat="62.641189368458" lon="17.985134444167">
        <ele>36.8</ele>
        <time>2018-03-14T17:06:33Z</time>
      </trkpt>
      <trkpt lat="62.641189368458" lon="17.985205103584">
        <ele>37</ele>
        <time>2018-03-14T17:06:34Z</time>
      </trkpt>
      <trkpt lat="62.641181824748" lon="17.985309961153">
        <ele>37.2</ele>
        <time>2018-03-14T17:06:35Z</time>
      </trkpt>
      <trkpt lat="62.641174867771" lon="17.985381710217">
        <ele>37.2</ele>
        <time>2018-03-14T17:06:36Z</time>
      </trkpt>
      <trkpt lat="62.64115567322" lon="17.985485142863">
        <ele>37</ele>
        <time>2018-03-14T17:06:37Z</time>
      </trkpt>
      <trkpt lat="62.6411405858" lon="17.985564351818">
        <ele>36.8</ele>
        <time>2018-03-14T17:06:38Z</time>
      </trkpt>
      <trkpt lat="62.641129018778" lon="17.985624785317">
        <ele>36.8</ele>
        <time>2018-03-14T17:06:39Z</time>
      </trkpt>
      <trkpt lat="62.641110578598" lon="17.985721596262">
        <ele>36.8</ele>
        <time>2018-03-14T17:06:40Z</time>
      </trkpt>
      <trkpt lat="62.641106639105" lon="17.985790327842">
        <ele>36.6</ele>
        <time>2018-03-14T17:06:41Z</time>
      </trkpt>
      <trkpt lat="62.641097419015" lon="17.985845396925">
        <ele>36.6</ele>
        <time>2018-03-14T17:06:42Z</time>
      </trkpt>
      <trkpt lat="62.64107604517" lon="17.985941034404">
        <ele>36.6</ele>
        <time>2018-03-14T17:06:43Z</time>
      </trkpt>
      <trkpt lat="62.641066154528" lon="17.985998618057">
        <ele>36.6</ele>
        <time>2018-03-14T17:06:44Z</time>
      </trkpt>
      <trkpt lat="62.641065903071" lon="17.986058129547">
        <ele>36.6</ele>
        <time>2018-03-14T17:06:45Z</time>
      </trkpt>
      <trkpt lat="62.641050815651" lon="17.986150665723">
        <ele>36.6</ele>
        <time>2018-03-14T17:06:46Z</time>
      </trkpt>
      <trkpt lat="62.641037236973" lon="17.986214787258">
        <ele>36.6</ele>
        <time>2018-03-14T17:06:47Z</time>
      </trkpt>
      <trkpt lat="62.641030615272" lon="17.986297935706">
        <ele>36.4</ele>
        <time>2018-03-14T17:06:48Z</time>
      </trkpt>
      <trkpt lat="62.641020221716" lon="17.986376641747">
        <ele>36.4</ele>
        <time>2018-03-14T17:06:49Z</time>
      </trkpt>
      <trkpt lat="62.64100731359" lon="17.98646440024">
        <ele>36.6</ele>
        <time>2018-03-14T17:06:50Z</time>
      </trkpt>
      <trkpt lat="62.640991052704" lon="17.986553918932">
        <ele>36.6</ele>
        <time>2018-03-14T17:06:51Z</time>
      </trkpt>
      <trkpt lat="62.640984933917" lon="17.986584764324">
        <ele>36.6</ele>
        <time>2018-03-14T17:06:52Z</time>
      </trkpt>
      <trkpt lat="62.640972696343" lon="17.986697249422">
        <ele>36.6</ele>
        <time>2018-03-14T17:06:53Z</time>
      </trkpt>
      <trkpt lat="62.640955094353" lon="17.986780984603">
        <ele>36.6</ele>
        <time>2018-03-14T17:06:54Z</time>
      </trkpt>
      <trkpt lat="62.640933385232" lon="17.986859774463">
        <ele>36.6</ele>
        <time>2018-03-14T17:06:55Z</time>
      </trkpt>
      <trkpt lat="62.640924248961" lon="17.986918363944">
        <ele>36.4</ele>
        <time>2018-03-14T17:06:56Z</time>
      </trkpt>
      <trkpt lat="62.640926092979" lon="17.986964883489">
        <ele>36.6</ele>
        <time>2018-03-14T17:06:57Z</time>
      </trkpt>
      <trkpt lat="62.640926512074" lon="17.987047445204">
        <ele>36.4</ele>
        <time>2018-03-14T17:06:58Z</time>
      </trkpt>
      <trkpt lat="62.640920728563" lon="17.987100167355">
        <ele>36.4</ele>
        <time>2018-03-14T17:06:59Z</time>
      </trkpt>
      <trkpt lat="62.640925841522" lon="17.987158840655">
        <ele>36.4</ele>
        <time>2018-03-14T17:07:00Z</time>
      </trkpt>
      <trkpt lat="62.640923326952" lon="17.987239390714">
        <ele>36.4</ele>
        <time>2018-03-14T17:07:01Z</time>
      </trkpt>
      <trkpt lat="62.640916118518" lon="17.987307200285">
        <ele>36.2</ele>
        <time>2018-03-14T17:07:02Z</time>
      </trkpt>
      <trkpt lat="62.640909580636" lon="17.987360676807">
        <ele>36.4</ele>
        <time>2018-03-14T17:07:03Z</time>
      </trkpt>
      <trkpt lat="62.640896421053" lon="17.987444914902">
        <ele>36.2</ele>
        <time>2018-03-14T17:07:04Z</time>
      </trkpt>
      <trkpt lat="62.640891140456" lon="17.987500486899">
        <ele>36.2</ele>
        <time>2018-03-14T17:07:05Z</time>
      </trkpt>
      <trkpt lat="62.640881165995" lon="17.987572990334">
        <ele>36.2</ele>
        <time>2018-03-14T17:07:06Z</time>
      </trkpt>
      <trkpt lat="62.640862139082" lon="17.987660665008">
        <ele>36</ele>
        <time>2018-03-14T17:07:07Z</time>
      </trkpt>
      <trkpt lat="62.640849230956" lon="17.987712297512">
        <ele>36</ele>
        <time>2018-03-14T17:07:08Z</time>
      </trkpt>
      <trkpt lat="62.640834059717" lon="17.987775664676">
        <ele>36</ele>
        <time>2018-03-14T17:07:09Z</time>
      </trkpt>
      <trkpt lat="62.640820648677" lon="17.987852945794">
        <ele>35.8</ele>
        <time>2018-03-14T17:07:10Z</time>
      </trkpt>
      <trkpt lat="62.640821654505" lon="17.987917989338">
        <ele>36</ele>
        <time>2018-03-14T17:07:11Z</time>
      </trkpt>
      <trkpt lat="62.640795670615" lon="17.987998958492">
        <ele>35.8</ele>
        <time>2018-03-14T17:07:12Z</time>
      </trkpt>
      <trkpt lat="62.640784522688" lon="17.988081604026">
        <ele>35.8</ele>
        <time>2018-03-14T17:07:13Z</time>
      </trkpt>
      <trkpt lat="62.640787959267" lon="17.988128626485">
        <ele>36</ele>
        <time>2018-03-14T17:07:14Z</time>
      </trkpt>
      <trkpt lat="62.64076842944" lon="17.988204063585">
        <ele>36</ele>
        <time>2018-03-14T17:07:15Z</time>
      </trkpt>
      <trkpt lat="62.640745295396" lon="17.988280674151">
        <ele>36</ele>
        <time>2018-03-14T17:07:16Z</time>
      </trkpt>
      <trkpt lat="62.640735823849" lon="17.988319985262">
        <ele>36</ele>
        <time>2018-03-14T17:07:17Z</time>
      </trkpt>
      <trkpt lat="62.640707828303" lon="17.988385615539">
        <ele>36</ele>
        <time>2018-03-14T17:07:18Z</time>
      </trkpt>
      <trkpt lat="62.640694417263" lon="17.988433224731">
        <ele>35.8</ele>
        <time>2018-03-14T17:07:19Z</time>
      </trkpt>
      <trkpt lat="62.640684275164" lon="17.988481001561">
        <ele>35.8</ele>
        <time>2018-03-14T17:07:20Z</time>
      </trkpt>
      <trkpt lat="62.640662901319" lon="17.988518217197">
        <ele>35.8</ele>
        <time>2018-03-14T17:07:21Z</time>
      </trkpt>
      <trkpt lat="62.640635743963" lon="17.988570939348">
        <ele>35.8</ele>
        <time>2018-03-14T17:07:22Z</time>
      </trkpt>
      <trkpt lat="62.640619399258" lon="17.988607819708">
        <ele>35.8</ele>
        <time>2018-03-14T17:07:23Z</time>
      </trkpt>
      <trkpt lat="62.640591403712" lon="17.988648052828">
        <ele>35.8</ele>
        <time>2018-03-14T17:07:24Z</time>
      </trkpt>
      <trkpt lat="62.640571538609" lon="17.988696751667">
        <ele>35.8</ele>
        <time>2018-03-14T17:07:25Z</time>
      </trkpt>
      <trkpt lat="62.640550332402" lon="17.988733799665">
        <ele>36</ele>
        <time>2018-03-14T17:07:26Z</time>
      </trkpt>
      <trkpt lat="62.64054295633" lon="17.988766656713">
        <ele>36</ele>
        <time>2018-03-14T17:07:27Z</time>
      </trkpt>
      <trkpt lat="62.640522755951" lon="17.988818205398">
        <ele>36.2</ele>
        <time>2018-03-14T17:07:28Z</time>
      </trkpt>
      <trkpt lat="62.640493084025" lon="17.988874280309">
        <ele>36.4</ele>
        <time>2018-03-14T17:07:29Z</time>
      </trkpt>
      <trkpt lat="62.640470369076" lon="17.98891862056">
        <ele>36.6</ele>
        <time>2018-03-14T17:07:30Z</time>
      </trkpt>
      <trkpt lat="62.640458382959" lon="17.988959188956">
        <ele>36.6</ele>
        <time>2018-03-14T17:07:31Z</time>
      </trkpt>
      <trkpt lat="62.640433823992" lon="17.989018113713">
        <ele>37</ele>
        <time>2018-03-14T17:07:32Z</time>
      </trkpt>
      <trkpt lat="62.640415467631" lon="17.98906362743">
        <ele>37</ele>
        <time>2018-03-14T17:07:33Z</time>
      </trkpt>
      <trkpt lat="62.640402056591" lon="17.989103692912">
        <ele>37.2</ele>
        <time>2018-03-14T17:07:34Z</time>
      </trkpt>
      <trkpt lat="62.640370121552" lon="17.989166221886">
        <ele>37.2</ele>
        <time>2018-03-14T17:07:35Z</time>
      </trkpt>
      <trkpt lat="62.640351932829" lon="17.9892086343">
        <ele>37.2</ele>
        <time>2018-03-14T17:07:36Z</time>
      </trkpt>
      <trkpt lat="62.640332403002" lon="17.989245766117">
        <ele>37.2</ele>
        <time>2018-03-14T17:07:37Z</time>
      </trkpt>
      <trkpt lat="62.640300384144" lon="17.989305109969">
        <ele>37.4</ele>
        <time>2018-03-14T17:07:38Z</time>
      </trkpt>
      <trkpt lat="62.640278172109" lon="17.989347941478">
        <ele>37.4</ele>
        <time>2018-03-14T17:07:39Z</time>
      </trkpt>
      <trkpt lat="62.64025713354" lon="17.989389515702">
        <ele>37.4</ele>
        <time>2018-03-14T17:07:40Z</time>
      </trkpt>
      <trkpt lat="62.640240202102" lon="17.989438046903">
        <ele>37.6</ele>
        <time>2018-03-14T17:07:41Z</time>
      </trkpt>
      <trkpt lat="62.640226204329" lon="17.989479956403">
        <ele>37.6</ele>
        <time>2018-03-14T17:07:42Z</time>
      </trkpt>
      <trkpt lat="62.640214553488" lon="17.989512226718">
        <ele>37.6</ele>
        <time>2018-03-14T17:07:43Z</time>
      </trkpt>
      <trkpt lat="62.640204998122" lon="17.989555058227">
        <ele>37.6</ele>
        <time>2018-03-14T17:07:44Z</time>
      </trkpt>
      <trkpt lat="62.640185384476" lon="17.98962018559">
        <ele>37.6</ele>
        <time>2018-03-14T17:07:45Z</time>
      </trkpt>
      <trkpt lat="62.640173063083" lon="17.989669974076">
        <ele>37.6</ele>
        <time>2018-03-14T17:07:46Z</time>
      </trkpt>
      <trkpt lat="62.640167028115" lon="17.989713140861">
        <ele>37.8</ele>
        <time>2018-03-14T17:07:47Z</time>
      </trkpt>
      <trkpt lat="62.640151270143" lon="17.989775753654">
        <ele>38</ele>
        <time>2018-03-14T17:07:48Z</time>
      </trkpt>
      <trkpt lat="62.640144061709" lon="17.989815148584">
        <ele>38</ele>
        <time>2018-03-14T17:07:49Z</time>
      </trkpt>
      <trkpt lat="62.640146827736" lon="17.989853872962">
        <ele>38.2</ele>
        <time>2018-03-14T17:07:50Z</time>
      </trkpt>
      <trkpt lat="62.640125370072" lon="17.989908774407">
        <ele>38.4</ele>
        <time>2018-03-14T17:07:51Z</time>
      </trkpt>
      <trkpt lat="62.640110282652" lon="17.989978260358">
        <ele>38.6</ele>
        <time>2018-03-14T17:07:52Z</time>
      </trkpt>
      <trkpt lat="62.640109528281" lon="17.990006842637">
        <ele>38.8</ele>
        <time>2018-03-14T17:07:53Z</time>
      </trkpt>
      <trkpt lat="62.640090836644" lon="17.99006274991">
        <ele>39</ele>
        <time>2018-03-14T17:07:54Z</time>
      </trkpt>
      <trkpt lat="62.640073234654" lon="17.99011890864">
        <ele>39</ele>
        <time>2018-03-14T17:07:55Z</time>
      </trkpt>
      <trkpt lat="62.640060577985" lon="17.990159812312">
        <ele>39</ele>
        <time>2018-03-14T17:07:56Z</time>
      </trkpt>
      <trkpt lat="62.64005345337" lon="17.99019350755">
        <ele>39.2</ele>
        <time>2018-03-14T17:07:57Z</time>
      </trkpt>
      <trkpt lat="62.640037192484" lon="17.990239440362">
        <ele>39.4</ele>
        <time>2018-03-14T17:07:58Z</time>
      </trkpt>
      <trkpt lat="62.640023110892" lon="17.99028822302">
        <ele>39.6</ele>
        <time>2018-03-14T17:07:59Z</time>
      </trkpt>
      <trkpt lat="62.640009280757" lon="17.99034521994">
        <ele>39.8</ele>
        <time>2018-03-14T17:08:00Z</time>
      </trkpt>
      <trkpt lat="62.639996791726" lon="17.990384531051">
        <ele>40</ele>
        <time>2018-03-14T17:08:01Z</time>
      </trkpt>
      <trkpt lat="62.639973070949" lon="17.990429625673">
        <ele>40</ele>
        <time>2018-03-14T17:08:02Z</time>
      </trkpt>
      <trkpt lat="62.63996544342" lon="17.990458543228">
        <ele>40.2</ele>
        <time>2018-03-14T17:08:03Z</time>
      </trkpt>
      <trkpt lat="62.639944153394" lon="17.99050531423">
        <ele>40.2</ele>
        <time>2018-03-14T17:08:04Z</time>
      </trkpt>
      <trkpt lat="62.639919007694" lon="17.990569771041">
        <ele>40.4</ele>
        <time>2018-03-14T17:08:05Z</time>
      </trkpt>
      <trkpt lat="62.639904674645" lon="17.990600700252">
        <ele>40.2</ele>
        <time>2018-03-14T17:08:06Z</time>
      </trkpt>
      <trkpt lat="62.63989335908" lon="17.990640514277">
        <ele>40.4</ele>
        <time>2018-03-14T17:08:07Z</time>
      </trkpt>
      <trkpt lat="62.639873661615" lon="17.990688123469">
        <ele>40.2</ele>
        <time>2018-03-14T17:08:08Z</time>
      </trkpt>
      <trkpt lat="62.63985731691" lon="17.990734391557">
        <ele>40.2</ele>
        <time>2018-03-14T17:08:09Z</time>
      </trkpt>
      <trkpt lat="62.639844576422" lon="17.99076599132">
        <ele>40.4</ele>
        <time>2018-03-14T17:08:10Z</time>
      </trkpt>
      <trkpt lat="62.639823956948" lon="17.99080287168">
        <ele>40.4</ele>
        <time>2018-03-14T17:08:11Z</time>
      </trkpt>
      <trkpt lat="62.639802583103" lon="17.990839332945">
        <ele>40.4</ele>
        <time>2018-03-14T17:08:12Z</time>
      </trkpt>
      <trkpt lat="62.639785148751" lon="17.990878560237">
        <ele>40.4</ele>
        <time>2018-03-14T17:08:13Z</time>
      </trkpt>
      <trkpt lat="62.639772911177" lon="17.990928935456">
        <ele>40.6</ele>
        <time>2018-03-14T17:08:14Z</time>
      </trkpt>
      <trkpt lat="62.639755812101" lon="17.9909688333">
        <ele>40.6</ele>
        <time>2018-03-14T17:08:15Z</time>
      </trkpt>
      <trkpt lat="62.639740640862" lon="17.99101241918">
        <ele>40.8</ele>
        <time>2018-03-14T17:08:16Z</time>
      </trkpt>
      <trkpt lat="62.639722284501" lon="17.991071008661">
        <ele>41</ele>
        <time>2018-03-14T17:08:17Z</time>
      </trkpt>
      <trkpt lat="62.639712477678" lon="17.991111912333">
        <ele>41.2</ele>
        <time>2018-03-14T17:08:18Z</time>
      </trkpt>
      <trkpt lat="62.639704598692" lon="17.991158683335">
        <ele>41.4</ele>
        <time>2018-03-14T17:08:19Z</time>
      </trkpt>
      <trkpt lat="62.639696552068" lon="17.991219955024">
        <ele>41.6</ele>
        <time>2018-03-14T17:08:20Z</time>
      </trkpt>
      <trkpt lat="62.639692612575" lon="17.991265384922">
        <ele>41.6</ele>
        <time>2018-03-14T17:08:21Z</time>
      </trkpt>
      <trkpt lat="62.639686661426" lon="17.991336547253">
        <ele>41.6</ele>
        <time>2018-03-14T17:08:22Z</time>
      </trkpt>
      <trkpt lat="62.63968297339" lon="17.991372337966">
        <ele>41.8</ele>
        <time>2018-03-14T17:08:23Z</time>
      </trkpt>
      <trkpt lat="62.639679872087" lon="17.991412487267">
        <ele>41.8</ele>
        <time>2018-03-14T17:08:24Z</time>
      </trkpt>
      <trkpt lat="62.639671993101" lon="17.991464622685">
        <ele>42</ele>
        <time>2018-03-14T17:08:25Z</time>
      </trkpt>
      <trkpt lat="62.639666628685" lon="17.991506783642">
        <ele>42</ele>
        <time>2018-03-14T17:08:26Z</time>
      </trkpt>
      <trkpt lat="62.63966285683" lon="17.991539724509">
        <ele>42.2</ele>
        <time>2018-03-14T17:08:27Z</time>
      </trkpt>
      <trkpt lat="62.639652044179" lon="17.991591776108">
        <ele>42.2</ele>
        <time>2018-03-14T17:08:28Z</time>
      </trkpt>
      <trkpt lat="62.639638968415" lon="17.991644246802">
        <ele>42.4</ele>
        <time>2018-03-14T17:08:29Z</time>
      </trkpt>
      <trkpt lat="62.639639471329" lon="17.991680708067">
        <ele>42.4</ele>
        <time>2018-03-14T17:08:30Z</time>
      </trkpt>
      <trkpt lat="62.639628742497" lon="17.991743907593">
        <ele>42.6</ele>
        <time>2018-03-14T17:08:31Z</time>
      </trkpt>
      <trkpt lat="62.63962178552" lon="17.991809705508">
        <ele>42.6</ele>
        <time>2018-03-14T17:08:32Z</time>
      </trkpt>
      <trkpt lat="62.639616169647" lon="17.991840047986">
        <ele>42.8</ele>
        <time>2018-03-14T17:08:33Z</time>
      </trkpt>
      <trkpt lat="62.639600998408" lon="17.991900397666">
        <ele>42.8</ele>
        <time>2018-03-14T17:08:34Z</time>
      </trkpt>
      <trkpt lat="62.639597142734" lon="17.991948845048">
        <ele>43</ele>
        <time>2018-03-14T17:08:35Z</time>
      </trkpt>
      <trkpt lat="62.639590856309" lon="17.992012715126">
        <ele>43</ele>
        <time>2018-03-14T17:08:36Z</time>
      </trkpt>
      <trkpt lat="62.639572080853" lon="17.992092426995">
        <ele>43.2</ele>
        <time>2018-03-14T17:08:37Z</time>
      </trkpt>
      <trkpt lat="62.639567973722" lon="17.99213056464">
        <ele>43.4</ele>
        <time>2018-03-14T17:08:38Z</time>
      </trkpt>
      <trkpt lat="62.639555065596" lon="17.992186052818">
        <ele>43.4</ele>
        <time>2018-03-14T17:08:39Z</time>
      </trkpt>
      <trkpt lat="62.639535535769" lon="17.992255622588">
        <ele>43.4</ele>
        <time>2018-03-14T17:08:40Z</time>
      </trkpt>
      <trkpt lat="62.639530925724" lon="17.992292000034">
        <ele>43.6</ele>
        <time>2018-03-14T17:08:41Z</time>
      </trkpt>
      <trkpt lat="62.639517347046" lon="17.992342375253">
        <ele>43.6</ele>
        <time>2018-03-14T17:08:42Z</time>
      </trkpt>
      <trkpt lat="62.639503433092" lon="17.992404401313">
        <ele>43.6</ele>
        <time>2018-03-14T17:08:43Z</time>
      </trkpt>
      <trkpt lat="62.639499493599" lon="17.992443460967">
        <ele>43.6</ele>
        <time>2018-03-14T17:08:44Z</time>
      </trkpt>
      <trkpt lat="62.639495051192" lon="17.992505151751">
        <ele>43.6</ele>
        <time>2018-03-14T17:08:45Z</time>
      </trkpt>
      <trkpt lat="62.639492871898" lon="17.992575559711">
        <ele>43.6</ele>
        <time>2018-03-14T17:08:46Z</time>
      </trkpt>
      <trkpt lat="62.639495554106" lon="17.992614535546">
        <ele>43.6</ele>
        <time>2018-03-14T17:08:47Z</time>
      </trkpt>
      <trkpt lat="62.63949438064" lon="17.992685865515">
        <ele>43.8</ele>
        <time>2018-03-14T17:08:48Z</time>
      </trkpt>
      <trkpt lat="62.639494548278" lon="17.992754680914">
        <ele>43.8</ele>
        <time>2018-03-14T17:08:49Z</time>
      </trkpt>
      <trkpt lat="62.639501840531" lon="17.992793992025">
        <ele>43.8</ele>
        <time>2018-03-14T17:08:50Z</time>
      </trkpt>
      <trkpt lat="62.639501169979" lon="17.992885019459">
        <ele>44</ele>
        <time>2018-03-14T17:08:51Z</time>
      </trkpt>
      <trkpt lat="62.639503349273" lon="17.992943860397">
        <ele>44</ele>
        <time>2018-03-14T17:08:52Z</time>
      </trkpt>
      <trkpt lat="62.639507875499" lon="17.992977052721">
        <ele>44</ele>
        <time>2018-03-14T17:08:53Z</time>
      </trkpt>
      <trkpt lat="62.639506785852" lon="17.993030613062">
        <ele>44</ele>
        <time>2018-03-14T17:08:54Z</time>
      </trkpt>
      <trkpt lat="62.639507372585" lon="17.993092303846">
        <ele>44</ele>
        <time>2018-03-14T17:08:55Z</time>
      </trkpt>
      <trkpt lat="62.63951282082" lon="17.993130190034">
        <ele>44.2</ele>
        <time>2018-03-14T17:08:56Z</time>
      </trkpt>
      <trkpt lat="62.639509048965" lon="17.993176541941">
        <ele>44.2</ele>
        <time>2018-03-14T17:08:57Z</time>
      </trkpt>
      <trkpt lat="62.639501589074" lon="17.993258433104">
        <ele>44.4</ele>
        <time>2018-03-14T17:08:58Z</time>
      </trkpt>
      <trkpt lat="62.639502091988" lon="17.993302018984">
        <ele>44.4</ele>
        <time>2018-03-14T17:08:59Z</time>
      </trkpt>
      <trkpt lat="62.63949354245" lon="17.993371002021">
        <ele>44.6</ele>
        <time>2018-03-14T17:09:00Z</time>
      </trkpt>
      <trkpt lat="62.639488429491" lon="17.993422718344">
        <ele>44.6</ele>
        <time>2018-03-14T17:09:01Z</time>
      </trkpt>
      <trkpt lat="62.639484238541" lon="17.993474015572">
        <ele>44.6</ele>
        <time>2018-03-14T17:09:02Z</time>
      </trkpt>
      <trkpt lat="62.63947594046" lon="17.993537466555">
        <ele>44.8</ele>
        <time>2018-03-14T17:09:03Z</time>
      </trkpt>
      <trkpt lat="62.639462780877" lon="17.993583483186">
        <ele>44.8</ele>
        <time>2018-03-14T17:09:04Z</time>
      </trkpt>
      <trkpt lat="62.639446771448" lon="17.993645257789">
        <ele>44.8</ele>
        <time>2018-03-14T17:09:05Z</time>
      </trkpt>
      <trkpt lat="62.639430426743" lon="17.993693705171">
        <ele>44.8</ele>
        <time>2018-03-14T17:09:06Z</time>
      </trkpt>
      <trkpt lat="62.639412405658" lon="17.993740476173">
        <ele>45</ele>
        <time>2018-03-14T17:09:07Z</time>
      </trkpt>
      <trkpt lat="62.639400670998" lon="17.993782385673">
        <ele>45</ele>
        <time>2018-03-14T17:09:08Z</time>
      </trkpt>
      <trkpt lat="62.639378291325" lon="17.993818176386">
        <ele>45</ele>
        <time>2018-03-14T17:09:09Z</time>
      </trkpt>
      <trkpt lat="62.639350631055" lon="17.993869054519">
        <ele>45</ele>
        <time>2018-03-14T17:09:10Z</time>
      </trkpt>
      <trkpt lat="62.639338980214" lon="17.993904509956">
        <ele>45</ele>
        <time>2018-03-14T17:09:11Z</time>
      </trkpt>
      <trkpt lat="62.639320959129" lon="17.993935942081">
        <ele>45</ele>
        <time>2018-03-14T17:09:12Z</time>
      </trkpt>
      <trkpt lat="62.639297825085" lon="17.99398212635">
        <ele>45</ele>
        <time>2018-03-14T17:09:13Z</time>
      </trkpt>
      <trkpt lat="62.639277876163" lon="17.994026801877">
        <ele>45</ele>
        <time>2018-03-14T17:09:14Z</time>
      </trkpt>
      <trkpt lat="62.639260022716" lon="17.994076422725">
        <ele>45.2</ele>
        <time>2018-03-14T17:09:15Z</time>
      </trkpt>
      <trkpt lat="62.639243845649" lon="17.994116823483">
        <ele>45.4</ele>
        <time>2018-03-14T17:09:16Z</time>
      </trkpt>
      <trkpt lat="62.639229847876" lon="17.994155044947">
        <ele>45.6</ele>
        <time>2018-03-14T17:09:17Z</time>
      </trkpt>
      <trkpt lat="62.639212916438" lon="17.994205755442">
        <ele>45.8</ele>
        <time>2018-03-14T17:09:18Z</time>
      </trkpt>
      <trkpt lat="62.639198834846" lon="17.994256046842">
        <ele>46.2</ele>
        <time>2018-03-14T17:09:19Z</time>
      </trkpt>
      <trkpt lat="62.639192129326" lon="17.99428890389">
        <ele>46.2</ele>
        <time>2018-03-14T17:09:20Z</time>
      </trkpt>
      <trkpt lat="62.639172934775" lon="17.994343889154">
        <ele>46.6</ele>
        <time>2018-03-14T17:09:21Z</time>
      </trkpt>
      <trkpt lat="62.63915659007" lon="17.994395018744">
        <ele>46.6</ele>
        <time>2018-03-14T17:09:22Z</time>
      </trkpt>
      <trkpt lat="62.63914904636" lon="17.994419829168">
        <ele>46.6</ele>
        <time>2018-03-14T17:09:23Z</time>
      </trkpt>
      <trkpt lat="62.639132701655" lon="17.994463415048">
        <ele>46.6</ele>
        <time>2018-03-14T17:09:24Z</time>
      </trkpt>
      <trkpt lat="62.639109986706" lon="17.994520831063">
        <ele>46.8</ele>
        <time>2018-03-14T17:09:25Z</time>
      </trkpt>
      <trkpt lat="62.639094899286" lon="17.994561986192">
        <ele>47</ele>
        <time>2018-03-14T17:09:26Z</time>
      </trkpt>
      <trkpt lat="62.639080985332" lon="17.994608170461">
        <ele>47</ele>
        <time>2018-03-14T17:09:27Z</time>
      </trkpt>
      <trkpt lat="62.639060449677" lon="17.99466106025">
        <ele>47</ele>
        <time>2018-03-14T17:09:28Z</time>
      </trkpt>
      <trkpt lat="62.639038070004" lon="17.994711854564">
        <ele>47</ele>
        <time>2018-03-14T17:09:29Z</time>
      </trkpt>
      <trkpt lat="62.63902247967" lon="17.994751668589">
        <ele>47.2</ele>
        <time>2018-03-14T17:09:30Z</time>
      </trkpt>
      <trkpt lat="62.639002027834" lon="17.994795254469">
        <ele>47.2</ele>
        <time>2018-03-14T17:09:31Z</time>
      </trkpt>
      <trkpt lat="62.63898895207" lon="17.994830542268">
        <ele>47.4</ele>
        <time>2018-03-14T17:09:32Z</time>
      </trkpt>
      <trkpt lat="62.638976463039" lon="17.99486138766">
        <ele>47.4</ele>
        <time>2018-03-14T17:09:33Z</time>
      </trkpt>
      <trkpt lat="62.638951065882" lon="17.994905308816">
        <ele>47.6</ele>
        <time>2018-03-14T17:09:34Z</time>
      </trkpt>
      <trkpt lat="62.638927848019" lon="17.994949146153">
        <ele>47.6</ele>
        <time>2018-03-14T17:09:35Z</time>
      </trkpt>
      <trkpt lat="62.638915275169" lon="17.994977393156">
        <ele>47.8</ele>
        <time>2018-03-14T17:09:36Z</time>
      </trkpt>
      <trkpt lat="62.638901193577" lon="17.995009160557">
        <ele>47.8</ele>
        <time>2018-03-14T17:09:37Z</time>
      </trkpt>
      <trkpt lat="62.638879316818" lon="17.995064564916">
        <ele>48</ele>
        <time>2018-03-14T17:09:38Z</time>
      </trkpt>
      <trkpt lat="62.638866492511" lon="17.995095577946">
        <ele>48.2</ele>
        <time>2018-03-14T17:09:39Z</time>
      </trkpt>
      <trkpt lat="62.63884729796" lon="17.995146036984">
        <ele>48.4</ele>
        <time>2018-03-14T17:09:40Z</time>
      </trkpt>
      <trkpt lat="62.638823661002" lon="17.995179564584">
        <ele>48.4</ele>
        <time>2018-03-14T17:09:41Z</time>
      </trkpt>
      <trkpt lat="62.638807819211" lon="17.995222731369">
        <ele>48.6</ele>
        <time>2018-03-14T17:09:42Z</time>
      </trkpt>
      <trkpt lat="62.638796000732" lon="17.995252738571">
        <ele>48.6</ele>
        <time>2018-03-14T17:09:43Z</time>
      </trkpt>
      <trkpt lat="62.638777057638" lon="17.995284254515">
        <ele>48.8</ele>
        <time>2018-03-14T17:09:44Z</time>
      </trkpt>
      <trkpt lat="62.638752833947" lon="17.995326415472">
        <ele>48.8</ele>
        <time>2018-03-14T17:09:45Z</time>
      </trkpt>
      <trkpt lat="62.638734812862" lon="17.9953693308">
        <ele>49</ele>
        <time>2018-03-14T17:09:46Z</time>
      </trkpt>
      <trkpt lat="62.63871402575" lon="17.995399673278">
        <ele>49</ele>
        <time>2018-03-14T17:09:47Z</time>
      </trkpt>
      <trkpt lat="62.638689802059" lon="17.995451976334">
        <ele>49</ele>
        <time>2018-03-14T17:09:48Z</time>
      </trkpt>
      <trkpt lat="62.638682928901" lon="17.995475445654">
        <ele>49.2</ele>
        <time>2018-03-14T17:09:49Z</time>
      </trkpt>
      <trkpt lat="62.638653173156" lon="17.995527832529">
        <ele>49.2</ele>
        <time>2018-03-14T17:09:50Z</time>
      </trkpt>
      <trkpt lat="62.638632218406" lon="17.995575693178">
        <ele>49.2</ele>
        <time>2018-03-14T17:09:51Z</time>
      </trkpt>
      <trkpt lat="62.638616963348" lon="17.995606873846">
        <ele>49.4</ele>
        <time>2018-03-14T17:09:52Z</time>
      </trkpt>
      <trkpt lat="62.638595589503" lon="17.995649705355">
        <ele>49.4</ele>
        <time>2018-03-14T17:09:53Z</time>
      </trkpt>
      <trkpt lat="62.638577065504" lon="17.995697985099">
        <ele>49.4</ele>
        <time>2018-03-14T17:09:54Z</time>
      </trkpt>
      <trkpt lat="62.638566001396" lon="17.995727070292">
        <ele>49.4</ele>
        <time>2018-03-14T17:09:55Z</time>
      </trkpt>
      <trkpt lat="62.638540939515" lon="17.995772164914">
        <ele>49.4</ele>
        <time>2018-03-14T17:09:56Z</time>
      </trkpt>
      <trkpt lat="62.638518811299" lon="17.9958051896">
        <ele>49.4</ele>
        <time>2018-03-14T17:09:57Z</time>
      </trkpt>
      <trkpt lat="62.638510932313" lon="17.99583704082">
        <ele>49.6</ele>
        <time>2018-03-14T17:09:58Z</time>
      </trkpt>
      <trkpt lat="62.638498024187" lon="17.995870316963">
        <ele>49.8</ele>
        <time>2018-03-14T17:09:59Z</time>
      </trkpt>
      <trkpt lat="62.638470866831" lon="17.995919351078">
        <ele>50</ele>
        <time>2018-03-14T17:10:00Z</time>
      </trkpt>
      <trkpt lat="62.638451420823" lon="17.995957907818">
        <ele>50</ele>
        <time>2018-03-14T17:10:01Z</time>
      </trkpt>
      <trkpt lat="62.638436165765" lon="17.995990178133">
        <ele>50.4</ele>
        <time>2018-03-14T17:10:02Z</time>
      </trkpt>
      <trkpt lat="62.638416049205" lon="17.996025549751">
        <ele>50.4</ele>
        <time>2018-03-14T17:10:03Z</time>
      </trkpt>
      <trkpt lat="62.638391657876" lon="17.996078020445">
        <ele>50.6</ele>
        <time>2018-03-14T17:10:04Z</time>
      </trkpt>
      <trkpt lat="62.638372211868" lon="17.996115906633">
        <ele>50.6</ele>
        <time>2018-03-14T17:10:05Z</time>
      </trkpt>
      <trkpt lat="62.638359136104" lon="17.996152619355">
        <ele>50.8</ele>
        <time>2018-03-14T17:10:06Z</time>
      </trkpt>
      <trkpt lat="62.638332733119" lon="17.996206850248">
        <ele>50.8</ele>
        <time>2018-03-14T17:10:07Z</time>
      </trkpt>
      <trkpt lat="62.638332230205" lon="17.996233588509">
        <ele>50.8</ele>
        <time>2018-03-14T17:10:08Z</time>
      </trkpt>
      <trkpt lat="62.638311526912" lon="17.996276755294">
        <ele>50.8</ele>
        <time>2018-03-14T17:10:09Z</time>
      </trkpt>
      <trkpt lat="62.638286465031" lon="17.996329812721">
        <ele>51</ele>
        <time>2018-03-14T17:10:10Z</time>
      </trkpt>
      <trkpt lat="62.638267521937" lon="17.99637767337">
        <ele>51</ele>
        <time>2018-03-14T17:10:11Z</time>
      </trkpt>
      <trkpt lat="62.638251596327" lon="17.996399298672">
        <ele>51</ele>
        <time>2018-03-14T17:10:12Z</time>
      </trkpt>
      <trkpt lat="62.638229384292" lon="17.996446153493">
        <ele>51.2</ele>
        <time>2018-03-14T17:10:13Z</time>
      </trkpt>
      <trkpt lat="62.638218990736" lon="17.996488985002">
        <ele>51.2</ele>
        <time>2018-03-14T17:10:14Z</time>
      </trkpt>
      <trkpt lat="62.638200131461" lon="17.996519914213">
        <ele>51.2</ele>
        <time>2018-03-14T17:10:15Z</time>
      </trkpt>
      <trkpt lat="62.638173225562" lon="17.996563919188">
        <ele>51.4</ele>
        <time>2018-03-14T17:10:16Z</time>
      </trkpt>
      <trkpt lat="62.6381566294" lon="17.996587472327">
        <ele>51.4</ele>
        <time>2018-03-14T17:10:17Z</time>
      </trkpt>
      <trkpt lat="62.638144391826" lon="17.996622341031">
        <ele>51.4</ele>
        <time>2018-03-14T17:10:18Z</time>
      </trkpt>
      <trkpt lat="62.638112540606" lon="17.996663077065">
        <ele>51.6</ele>
        <time>2018-03-14T17:10:19Z</time>
      </trkpt>
      <trkpt lat="62.638084628879" lon="17.996705740936">
        <ele>51.6</ele>
        <time>2018-03-14T17:10:20Z</time>
      </trkpt>
      <trkpt lat="62.638071217839" lon="17.996734574672">
        <ele>51.8</ele>
        <time>2018-03-14T17:10:21Z</time>
      </trkpt>
      <trkpt lat="62.638046491234" lon="17.996771119756">
        <ele>52</ele>
        <time>2018-03-14T17:10:22Z</time>
      </trkpt>
      <trkpt lat="62.638026039398" lon="17.99680850303">
        <ele>52.2</ele>
        <time>2018-03-14T17:10:23Z</time>
      </trkpt>
      <trkpt lat="62.63800240244" lon="17.996835576567">
        <ele>52.4</ele>
        <time>2018-03-14T17:10:24Z</time>
      </trkpt>
      <trkpt lat="62.637987566477" lon="17.996862650104">
        <ele>52.6</ele>
        <time>2018-03-14T17:10:25Z</time>
      </trkpt>
      <trkpt lat="62.637971221772" lon="17.996881928474">
        <ele>52.8</ele>
        <time>2018-03-14T17:10:26Z</time>
      </trkpt>
      <trkpt lat="62.637947668633" lon="17.996906990355">
        <ele>53</ele>
        <time>2018-03-14T17:10:27Z</time>
      </trkpt>
      <trkpt lat="62.637925791874" lon="17.996931381684">
        <ele>53</ele>
        <time>2018-03-14T17:10:28Z</time>
      </trkpt>
      <trkpt lat="62.637912632291" lon="17.9969786556">
        <ele>53.2</ele>
        <time>2018-03-14T17:10:29Z</time>
      </trkpt>
      <trkpt lat="62.637890504075" lon="17.997011764105">
        <ele>53.2</ele>
        <time>2018-03-14T17:10:30Z</time>
      </trkpt>
      <trkpt lat="62.637866531841" lon="17.997041352212">
        <ele>53.2</ele>
        <time>2018-03-14T17:10:31Z</time>
      </trkpt>
      <trkpt lat="62.637858569036" lon="17.997073622527">
        <ele>53.4</ele>
        <time>2018-03-14T17:10:32Z</time>
      </trkpt>
      <trkpt lat="62.637835686449" lon="17.997122405185">
        <ele>53.4</ele>
        <time>2018-03-14T17:10:33Z</time>
      </trkpt>
      <trkpt lat="62.637821185762" lon="17.997170182015">
        <ele>53.6</ele>
        <time>2018-03-14T17:10:34Z</time>
      </trkpt>
      <trkpt lat="62.637810792206" lon="17.997193567516">
        <ele>53.6</ele>
        <time>2018-03-14T17:10:35Z</time>
      </trkpt>
      <trkpt lat="62.637785478868" lon="17.997234555007">
        <ele>53.6</ele>
        <time>2018-03-14T17:10:36Z</time>
      </trkpt>
      <trkpt lat="62.637770307629" lon="17.997273949937">
        <ele>53.8</ele>
        <time>2018-03-14T17:10:37Z</time>
      </trkpt>
      <trkpt lat="62.637754465838" lon="17.997312171401">
        <ele>53.8</ele>
        <time>2018-03-14T17:10:38Z</time>
      </trkpt>
      <trkpt lat="62.637733091993" lon="17.997362127525">
        <ele>53.8</ele>
        <time>2018-03-14T17:10:39Z</time>
      </trkpt>
      <trkpt lat="62.637711131415" lon="17.997414598219">
        <ele>53.8</ele>
        <time>2018-03-14T17:10:40Z</time>
      </trkpt>
      <trkpt lat="62.637703839162" lon="17.99744971838">
        <ele>53.8</ele>
        <time>2018-03-14T17:10:41Z</time>
      </trkpt>
      <trkpt lat="62.637680202204" lon="17.997500345056">
        <ele>54</ele>
        <time>2018-03-14T17:10:42Z</time>
      </trkpt>
      <trkpt lat="62.63766545006" lon="17.997565640057">
        <ele>54</ele>
        <time>2018-03-14T17:10:43Z</time>
      </trkpt>
      <trkpt lat="62.637659079816" lon="17.997590450481">
        <ele>54</ele>
        <time>2018-03-14T17:10:44Z</time>
      </trkpt>
      <trkpt lat="62.637633179745" lon="17.997651135437">
        <ele>54</ele>
        <time>2018-03-14T17:10:45Z</time>
      </trkpt>
      <trkpt lat="62.637618846696" lon="17.997709389642">
        <ele>54.2</ele>
        <time>2018-03-14T17:10:46Z</time>
      </trkpt>
      <trkpt lat="62.63761348228" lon="17.997747108192">
        <ele>54.2</ele>
        <time>2018-03-14T17:10:47Z</time>
      </trkpt>
      <trkpt lat="62.637589845322" lon="17.997828244984">
        <ele>54.2</ele>
        <time>2018-03-14T17:10:48Z</time>
      </trkpt>
      <trkpt lat="62.637581798698" lon="17.997861940222">
        <ele>54.4</ele>
        <time>2018-03-14T17:10:49Z</time>
      </trkpt>
      <trkpt lat="62.637566795097" lon="17.997913824183">
        <ele>54.4</ele>
        <time>2018-03-14T17:10:50Z</time>
      </trkpt>
      <trkpt lat="62.637551707677" lon="17.997978951546">
        <ele>54.4</ele>
        <time>2018-03-14T17:10:51Z</time>
      </trkpt>
      <trkpt lat="62.63754726527" lon="17.998017005372">
        <ele>54.2</ele>
        <time>2018-03-14T17:10:52Z</time>
      </trkpt>
      <trkpt lat="62.637521700475" lon="17.998067296772">
        <ele>54.2</ele>
        <time>2018-03-14T17:10:53Z</time>
      </trkpt>
      <trkpt lat="62.637502422105" lon="17.998102836028">
        <ele>54.4</ele>
        <time>2018-03-14T17:10:54Z</time>
      </trkpt>
      <trkpt lat="62.637479120423" lon="17.998135860714">
        <ele>54.4</ele>
        <time>2018-03-14T17:10:55Z</time>
      </trkpt>
      <trkpt lat="62.637458752406" lon="17.998172154341">
        <ele>54.2</ele>
        <time>2018-03-14T17:10:56Z</time>
      </trkpt>
      <trkpt lat="62.637431511231" lon="17.998208699425">
        <ele>54.2</ele>
        <time>2018-03-14T17:10:57Z</time>
      </trkpt>
      <trkpt lat="62.637404270056" lon="17.998249100183">
        <ele>54.2</ele>
        <time>2018-03-14T17:10:58Z</time>
      </trkpt>
      <trkpt lat="62.637383063849" lon="17.998277179548">
        <ele>54.4</ele>
        <time>2018-03-14T17:10:59Z</time>
      </trkpt>
      <trkpt lat="62.637361606185" lon="17.998305929465">
        <ele>54.6</ele>
        <time>2018-03-14T17:11:00Z</time>
      </trkpt>
      <trkpt lat="62.637345010023" lon="17.998334595563">
        <ele>54.8</ele>
        <time>2018-03-14T17:11:01Z</time>
      </trkpt>
      <trkpt lat="62.637318020305" lon="17.998390251379">
        <ele>55</ele>
        <time>2018-03-14T17:11:02Z</time>
      </trkpt>
      <trkpt lat="62.637299663944" lon="17.998427467015">
        <ele>55.2</ele>
        <time>2018-03-14T17:11:03Z</time>
      </trkpt>
      <trkpt lat="62.637284325067" lon="17.998463173909">
        <ele>55.4</ele>
        <time>2018-03-14T17:11:04Z</time>
      </trkpt>
      <trkpt lat="62.63725808972" lon="17.998522853037">
        <ele>55.4</ele>
        <time>2018-03-14T17:11:05Z</time>
      </trkpt>
      <trkpt lat="62.637247612345" lon="17.998571719514">
        <ele>55.6</ele>
        <time>2018-03-14T17:11:06Z</time>
      </trkpt>
      <trkpt lat="62.637213162736" lon="17.998648413899">
        <ele>55.6</ele>
        <time>2018-03-14T17:11:07Z</time>
      </trkpt>
      <trkpt lat="62.63719103452" lon="17.998695184901">
        <ele>55.8</ele>
        <time>2018-03-14T17:11:08Z</time>
      </trkpt>
      <trkpt lat="62.63717007977" lon="17.998743380826">
        <ele>55.8</ele>
        <time>2018-03-14T17:11:09Z</time>
      </trkpt>
      <trkpt lat="62.637146778088" lon="17.99880088066">
        <ele>55.6</ele>
        <time>2018-03-14T17:11:10Z</time>
      </trkpt>
      <trkpt lat="62.637135378704" lon="17.99881764446">
        <ele>55.6</ele>
        <time>2018-03-14T17:11:11Z</time>
      </trkpt>
      <trkpt lat="62.63711475923" lon="17.99884614292">
        <ele>55.6</ele>
        <time>2018-03-14T17:11:12Z</time>
      </trkpt>
      <trkpt lat="62.637092044281" lon="17.998881263081">
        <ele>55.4</ele>
        <time>2018-03-14T17:11:13Z</time>
      </trkpt>
      <trkpt lat="62.637077375956" lon="17.998910599731">
        <ele>55.4</ele>
        <time>2018-03-14T17:11:14Z</time>
      </trkpt>
      <trkpt lat="62.637056505025" lon="17.9989400202">
        <ele>55.4</ele>
        <time>2018-03-14T17:11:15Z</time>
      </trkpt>
      <trkpt lat="62.637028928574" lon="17.998977319655">
        <ele>55.6</ele>
        <time>2018-03-14T17:11:16Z</time>
      </trkpt>
      <trkpt lat="62.637012751507" lon="17.99900204626">
        <ele>55.6</ele>
        <time>2018-03-14T17:11:17Z</time>
      </trkpt>
      <trkpt lat="62.636990874748" lon="17.999035909136">
        <ele>55.8</ele>
        <time>2018-03-14T17:11:18Z</time>
      </trkpt>
      <trkpt lat="62.636974613862" lon="17.999064742872">
        <ele>56</ele>
        <time>2018-03-14T17:11:19Z</time>
      </trkpt>
      <trkpt lat="62.636949551981" lon="17.999100617404">
        <ele>55.8</ele>
        <time>2018-03-14T17:11:20Z</time>
      </trkpt>
      <trkpt lat="62.63692616648" lon="17.999131881891">
        <ele>56</ele>
        <time>2018-03-14T17:11:21Z</time>
      </trkpt>
      <trkpt lat="62.636909151223" lon="17.9991579496">
        <ele>56.2</ele>
        <time>2018-03-14T17:11:22Z</time>
      </trkpt>
      <trkpt lat="62.636888196473" lon="17.999186783336">
        <ele>56.4</ele>
        <time>2018-03-14T17:11:23Z</time>
      </trkpt>
      <trkpt lat="62.636865984438" lon="17.999213186321">
        <ele>56.8</ele>
        <time>2018-03-14T17:11:24Z</time>
      </trkpt>
      <trkpt lat="62.636845448783" lon="17.999257442753">
        <ele>56.8</ele>
        <time>2018-03-14T17:11:25Z</time>
      </trkpt>
      <trkpt lat="62.636832792114" lon="17.99929038362">
        <ele>57.2</ele>
        <time>2018-03-14T17:11:26Z</time>
      </trkpt>
      <trkpt lat="62.636809490432" lon="17.999317121881">
        <ele>57.4</ele>
        <time>2018-03-14T17:11:27Z</time>
      </trkpt>
      <trkpt lat="62.636785685836" lon="17.999356768268">
        <ele>57.6</ele>
        <time>2018-03-14T17:11:28Z</time>
      </trkpt>
      <trkpt lat="62.636773867357" lon="17.999376214276">
        <ele>57.6</ele>
        <time>2018-03-14T17:11:29Z</time>
      </trkpt>
      <trkpt lat="62.63674427925" lon="17.999422063269">
        <ele>57.6</ele>
        <time>2018-03-14T17:11:30Z</time>
      </trkpt>
      <trkpt lat="62.636718965912" lon="17.999467660805">
        <ele>57.6</ele>
        <time>2018-03-14T17:11:31Z</time>
      </trkpt>
      <trkpt lat="62.636699519904" lon="17.999504373527">
        <ele>57.6</ele>
        <time>2018-03-14T17:11:32Z</time>
      </trkpt>
      <trkpt lat="62.636680073896" lon="17.999559861705">
        <ele>57.8</ele>
        <time>2018-03-14T17:11:33Z</time>
      </trkpt>
      <trkpt lat="62.636662723363" lon="17.999608644363">
        <ele>58</ele>
        <time>2018-03-14T17:11:34Z</time>
      </trkpt>
      <trkpt lat="62.636654090006" lon="17.999661198876">
        <ele>58</ele>
        <time>2018-03-14T17:11:35Z</time>
      </trkpt>
      <trkpt lat="62.636650988703" lon="17.99969858215">
        <ele>58</ele>
        <time>2018-03-14T17:11:36Z</time>
      </trkpt>
      <trkpt lat="62.636629614858" lon="17.999759267106">
        <ele>58</ele>
        <time>2018-03-14T17:11:37Z</time>
      </trkpt>
      <trkpt lat="62.636616203818" lon="17.999807295393">
        <ele>58.2</ele>
        <time>2018-03-14T17:11:38Z</time>
      </trkpt>
      <trkpt lat="62.636606899909" lon="17.999840990631">
        <ele>58</ele>
        <time>2018-03-14T17:11:39Z</time>
      </trkpt>
      <trkpt lat="62.636592063946" lon="17.999888516004">
        <ele>58</ele>
        <time>2018-03-14T17:11:40Z</time>
      </trkpt>
      <trkpt lat="62.63657077392" lon="17.999952050806">
        <ele>57.8</ele>
        <time>2018-03-14T17:11:41Z</time>
      </trkpt>
      <trkpt lat="62.636562308201" lon="18.000006365518">
        <ele>57.8</ele>
        <time>2018-03-14T17:11:42Z</time>
      </trkpt>
      <trkpt lat="62.636547891333" lon="18.000050957226">
        <ele>57.8</ele>
        <time>2018-03-14T17:11:43Z</time>
      </trkpt>
      <trkpt lat="62.636532887732" lon="18.000113905295">
        <ele>57.8</ele>
        <time>2018-03-14T17:11:44Z</time>
      </trkpt>
      <trkpt lat="62.636520231063" lon="18.000165789256">
        <ele>57.8</ele>
        <time>2018-03-14T17:11:45Z</time>
      </trkpt>
      <trkpt lat="62.636511178611" lon="18.000228737325">
        <ele>58</ele>
        <time>2018-03-14T17:11:46Z</time>
      </trkpt>
      <trkpt lat="62.636510759516" lon="18.000274837775">
        <ele>58</ele>
        <time>2018-03-14T17:11:47Z</time>
      </trkpt>
      <trkpt lat="62.636482009599" lon="18.000346922115">
        <ele>58.2</ele>
        <time>2018-03-14T17:11:48Z</time>
      </trkpt>
      <trkpt lat="62.636477986287" lon="18.000400482456">
        <ele>58</ele>
        <time>2018-03-14T17:11:49Z</time>
      </trkpt>
      <trkpt lat="62.636471196948" lon="18.000453372245">
        <ele>58</ele>
        <time>2018-03-14T17:11:50Z</time>
      </trkpt>
      <trkpt lat="62.636447224714" lon="18.000516739409">
        <ele>58</ele>
        <time>2018-03-14T17:11:51Z</time>
      </trkpt>
      <trkpt lat="62.636437417891" lon="18.000562253126">
        <ele>58</ele>
        <time>2018-03-14T17:11:52Z</time>
      </trkpt>
      <trkpt lat="62.636425347955" lon="18.000600223133">
        <ele>58.2</ele>
        <time>2018-03-14T17:11:53Z</time>
      </trkpt>
      <trkpt lat="62.63640145954" lon="18.000650346895">
        <ele>58.2</ele>
        <time>2018-03-14T17:11:54Z</time>
      </trkpt>
      <trkpt lat="62.636383438455" lon="18.00069938101">
        <ele>58.2</ele>
        <time>2018-03-14T17:11:55Z</time>
      </trkpt>
      <trkpt lat="62.63637296108" lon="18.000746571107">
        <ele>58.2</ele>
        <time>2018-03-14T17:11:56Z</time>
      </trkpt>
      <trkpt lat="62.636349910855" lon="18.000795186127">
        <ele>58.2</ele>
        <time>2018-03-14T17:11:57Z</time>
      </trkpt>
      <trkpt lat="62.636330716304" lon="18.000849333201">
        <ele>58.2</ele>
        <time>2018-03-14T17:11:58Z</time>
      </trkpt>
      <trkpt lat="62.636318981644" lon="18.000898618773">
        <ele>58.4</ele>
        <time>2018-03-14T17:11:59Z</time>
      </trkpt>
      <trkpt lat="62.6362874657" lon="18.000964081412">
        <ele>58.2</ele>
        <time>2018-03-14T17:12:00Z</time>
      </trkpt>
      <trkpt lat="62.636275982497" lon="18.001020826875">
        <ele>58.2</ele>
        <time>2018-03-14T17:12:01Z</time>
      </trkpt>
      <trkpt lat="62.636259553973" lon="18.001063239289">
        <ele>58.2</ele>
        <time>2018-03-14T17:12:02Z</time>
      </trkpt>
      <trkpt lat="62.636241029974" lon="18.001123337512">
        <ele>58.2</ele>
        <time>2018-03-14T17:12:03Z</time>
      </trkpt>
      <trkpt lat="62.636228540943" lon="18.001176897853">
        <ele>58.2</ele>
        <time>2018-03-14T17:12:04Z</time>
      </trkpt>
      <trkpt lat="62.636212447695" lon="18.00122241157">
        <ele>58.2</ele>
        <time>2018-03-14T17:12:05Z</time>
      </trkpt>
      <trkpt lat="62.636190906212" lon="18.001273205884">
        <ele>58.2</ele>
        <time>2018-03-14T17:12:06Z</time>
      </trkpt>
      <trkpt lat="62.636176656982" lon="18.001318049049">
        <ele>58.2</ele>
        <time>2018-03-14T17:12:07Z</time>
      </trkpt>
      <trkpt lat="62.6361533553" lon="18.00135652197">
        <ele>58.2</ele>
        <time>2018-03-14T17:12:08Z</time>
      </trkpt>
      <trkpt lat="62.636128712514" lon="18.001412596881">
        <ele>58.2</ele>
        <time>2018-03-14T17:12:09Z</time>
      </trkpt>
      <trkpt lat="62.636121671718" lon="18.001457523865">
        <ele>58.2</ele>
        <time>2018-03-14T17:12:10Z</time>
      </trkpt>
      <trkpt lat="62.636090826326" lon="18.001507563808">
        <ele>58.2</ele>
        <time>2018-03-14T17:12:11Z</time>
      </trkpt>
      <trkpt lat="62.636069620119" lon="18.001564979823">
        <ele>58.2</ele>
        <time>2018-03-14T17:12:12Z</time>
      </trkpt>
      <trkpt lat="62.636049503559" lon="18.001623736942">
        <ele>58.2</ele>
        <time>2018-03-14T17:12:13Z</time>
      </trkpt>
      <trkpt lat="62.636028297352" lon="18.001668496288">
        <ele>58.2</ele>
        <time>2018-03-14T17:12:14Z</time>
      </trkpt>
      <trkpt lat="62.636000637082" lon="18.001749465442">
        <ele>58.2</ele>
        <time>2018-03-14T17:12:15Z</time>
      </trkpt>
      <trkpt lat="62.635997032865" lon="18.001794140969">
        <ele>58.2</ele>
        <time>2018-03-14T17:12:16Z</time>
      </trkpt>
      <trkpt lat="62.635967863853" lon="18.001844516188">
        <ele>58.2</ele>
        <time>2018-03-14T17:12:17Z</time>
      </trkpt>
      <trkpt lat="62.635944394533" lon="18.001888688801">
        <ele>58.4</ele>
        <time>2018-03-14T17:12:18Z</time>
      </trkpt>
      <trkpt lat="62.635930899674" lon="18.001920372383">
        <ele>58.4</ele>
        <time>2018-03-14T17:12:19Z</time>
      </trkpt>
      <trkpt lat="62.635902820309" lon="18.001968652127">
        <ele>58.4</ele>
        <time>2018-03-14T17:12:20Z</time>
      </trkpt>
      <trkpt lat="62.635875998229" lon="18.002021625735">
        <ele>58.4</ele>
        <time>2018-03-14T17:12:21Z</time>
      </trkpt>
      <trkpt lat="62.635855546393" lon="18.002071665678">
        <ele>58.4</ele>
        <time>2018-03-14T17:12:22Z</time>
      </trkpt>
      <trkpt lat="62.635828808132" lon="18.002135787213">
        <ele>58.4</ele>
        <time>2018-03-14T17:12:23Z</time>
      </trkpt>
      <trkpt lat="62.635808104839" lon="18.002193119409">
        <ele>58.4</ele>
        <time>2018-03-14T17:12:24Z</time>
      </trkpt>
      <trkpt lat="62.6358013155" lon="18.002249613415">
        <ele>58.4</ele>
        <time>2018-03-14T17:12:25Z</time>
      </trkpt>
      <trkpt lat="62.635770553927" lon="18.002339132107">
        <ele>58.4</ele>
        <time>2018-03-14T17:12:26Z</time>
      </trkpt>
      <trkpt lat="62.635762507303" lon="18.002394368828">
        <ele>58.4</ele>
        <time>2018-03-14T17:12:27Z</time>
      </trkpt>
      <trkpt lat="62.635746078779" lon="18.002450276101">
        <ele>58.4</ele>
        <time>2018-03-14T17:12:28Z</time>
      </trkpt>
      <trkpt lat="62.635735349947" lon="18.002530993798">
        <ele>58.2</ele>
        <time>2018-03-14T17:12:29Z</time>
      </trkpt>
      <trkpt lat="62.635735349947" lon="18.002604335423">
        <ele>58.2</ele>
        <time>2018-03-14T17:12:30Z</time>
      </trkpt>
      <trkpt lat="62.635708108772" lon="18.002712294295">
        <ele>58</ele>
        <time>2018-03-14T17:12:31Z</time>
      </trkpt>
      <trkpt lat="62.635688243669" lon="18.002813212371">
        <ele>57.8</ele>
        <time>2018-03-14T17:12:32Z</time>
      </trkpt>
      <trkpt lat="62.635660164304" lon="18.002905916185">
        <ele>57.2</ele>
        <time>2018-03-14T17:12:33Z</time>
      </trkpt>
      <trkpt lat="62.635636527346" lon="18.002985879511">
        <ele>56.8</ele>
        <time>2018-03-14T17:12:34Z</time>
      </trkpt>
      <trkpt lat="62.6356085318" lon="18.003071039615">
        <ele>56.2</ele>
        <time>2018-03-14T17:12:35Z</time>
      </trkpt>
      <trkpt lat="62.635584308109" lon="18.003150500027">
        <ele>55.6</ele>
        <time>2018-03-14T17:12:36Z</time>
      </trkpt>
      <trkpt lat="62.635560252056" lon="18.003225098937">
        <ele>55.2</ele>
        <time>2018-03-14T17:12:37Z</time>
      </trkpt>
      <trkpt lat="62.6355498585" lon="18.003270528835">
        <ele>55</ele>
        <time>2018-03-14T17:12:38Z</time>
      </trkpt>
      <trkpt lat="62.635528400836" lon="18.003350827437">
        <ele>55</ele>
        <time>2018-03-14T17:12:39Z</time>
      </trkpt>
      <trkpt lat="62.635506440258" lon="18.003420061931">
        <ele>55.2</ele>
        <time>2018-03-14T17:12:40Z</time>
      </trkpt>
      <trkpt lat="62.635486072241" lon="18.003498432696">
        <ele>55.2</ele>
        <time>2018-03-14T17:12:41Z</time>
      </trkpt>
      <trkpt lat="62.635463022016" lon="18.003571271407">
        <ele>55.2</ele>
        <time>2018-03-14T17:12:42Z</time>
      </trkpt>
      <trkpt lat="62.635450365347" lon="18.003659448995">
        <ele>55.4</ele>
        <time>2018-03-14T17:12:43Z</time>
      </trkpt>
      <trkpt lat="62.63541658629" lon="18.003768665152">
        <ele>55.6</ele>
        <time>2018-03-14T17:12:44Z</time>
      </trkpt>
      <trkpt lat="62.635399906309" lon="18.003840498035">
        <ele>55.4</ele>
        <time>2018-03-14T17:12:45Z</time>
      </trkpt>
      <trkpt lat="62.635384818889" lon="18.003911492728">
        <ele>55.4</ele>
        <time>2018-03-14T17:12:46Z</time>
      </trkpt>
      <trkpt lat="62.635375598799" lon="18.003989444398">
        <ele>55.2</ele>
        <time>2018-03-14T17:12:47Z</time>
      </trkpt>
      <trkpt lat="62.635367635994" lon="18.004056583417">
        <ele>55</ele>
        <time>2018-03-14T17:12:48Z</time>
      </trkpt>
      <trkpt lat="62.635339975724" lon="18.004137720209">
        <ele>54.8</ele>
        <time>2018-03-14T17:12:49Z</time>
      </trkpt>
      <trkpt lat="62.635320362078" lon="18.004211061834">
        <ele>54.6</ele>
        <time>2018-03-14T17:12:50Z</time>
      </trkpt>
      <trkpt lat="62.635296557482" lon="18.004288845866">
        <ele>54.6</ele>
        <time>2018-03-14T17:12:51Z</time>
      </trkpt>
      <trkpt lat="62.635280045139" lon="18.004355817247">
        <ele>54.8</ele>
        <time>2018-03-14T17:12:52Z</time>
      </trkpt>
      <trkpt lat="62.635256156724" lon="18.004420609334">
        <ele>54.8</ele>
        <time>2018-03-14T17:12:53Z</time>
      </trkpt>
      <trkpt lat="62.635230005196" lon="18.004486742525">
        <ele>54.6</ele>
        <time>2018-03-14T17:12:54Z</time>
      </trkpt>
      <trkpt lat="62.635202093469" lon="18.00454918768">
        <ele>54.6</ele>
        <time>2018-03-14T17:12:55Z</time>
      </trkpt>
      <trkpt lat="62.635188179515" lon="18.004589672257">
        <ele>54.6</ele>
        <time>2018-03-14T17:12:56Z</time>
      </trkpt>
      <trkpt lat="62.635156076838" lon="18.004636024164">
        <ele>54.4</ele>
        <time>2018-03-14T17:12:57Z</time>
      </trkpt>
      <trkpt lat="62.635125985817" lon="18.004683381899">
        <ele>54.2</ele>
        <time>2018-03-14T17:12:58Z</time>
      </trkpt>
      <trkpt lat="62.635104360515" lon="18.004726381046">
        <ele>54.2</ele>
        <time>2018-03-14T17:12:59Z</time>
      </trkpt>
      <trkpt lat="62.635065217042" lon="18.004779773749">
        <ele>54.2</ele>
        <time>2018-03-14T17:13:00Z</time>
      </trkpt>
      <trkpt lat="62.635042669731" lon="18.004819336317">
        <ele>54.2</ele>
        <time>2018-03-14T17:13:01Z</time>
      </trkpt>
      <trkpt lat="62.635019032773" lon="18.00485596522">
        <ele>54.2</ele>
        <time>2018-03-14T17:13:02Z</time>
      </trkpt>
      <trkpt lat="62.634994809082" lon="18.00490374205">
        <ele>54.2</ele>
        <time>2018-03-14T17:13:03Z</time>
      </trkpt>
      <trkpt lat="62.634981481861" lon="18.004936515279">
        <ele>54.2</ele>
        <time>2018-03-14T17:13:04Z</time>
      </trkpt>
      <trkpt lat="62.634954659781" lon="18.00498169372">
        <ele>54.4</ele>
        <time>2018-03-14T17:13:05Z</time>
      </trkpt>
      <trkpt lat="62.634935129954" lon="18.005022345935">
        <ele>54.6</ele>
        <time>2018-03-14T17:13:06Z</time>
      </trkpt>
      <trkpt lat="62.634920545448" lon="18.005056627906">
        <ele>54.4</ele>
        <time>2018-03-14T17:13:07Z</time>
      </trkpt>
      <trkpt lat="62.634891460255" lon="18.00512083326">
        <ele>54.6</ele>
        <time>2018-03-14T17:13:08Z</time>
      </trkpt>
      <trkpt lat="62.634869415858" lon="18.00517531561">
        <ele>54.6</ele>
        <time>2018-03-14T17:13:09Z</time>
      </trkpt>
      <trkpt lat="62.634855082809" lon="18.005213453255">
        <ele>54.6</ele>
        <time>2018-03-14T17:13:10Z</time>
      </trkpt>
      <trkpt lat="62.634822058123" lon="18.005268438519">
        <ele>54.6</ele>
        <time>2018-03-14T17:13:11Z</time>
      </trkpt>
      <trkpt lat="62.634793308206" lon="18.00531110239">
        <ele>54.6</ele>
        <time>2018-03-14T17:13:12Z</time>
      </trkpt>
      <trkpt lat="62.634768833058" lon="18.005352844252">
        <ele>54.6</ele>
        <time>2018-03-14T17:13:13Z</time>
      </trkpt>
      <trkpt lat="62.63474184334" lon="18.00537229026">
        <ele>54.6</ele>
        <time>2018-03-14T17:13:14Z</time>
      </trkpt>
      <trkpt lat="62.634708148102" lon="18.005409924991">
        <ele>54.4</ele>
        <time>2018-03-14T17:13:15Z</time>
      </trkpt>
      <trkpt lat="62.63469239013" lon="18.005431634112">
        <ele>54.4</ele>
        <time>2018-03-14T17:13:16Z</time>
      </trkpt>
      <trkpt lat="62.634672860303" lon="18.005457534183">
        <ele>54.6</ele>
        <time>2018-03-14T17:13:17Z</time>
      </trkpt>
      <trkpt lat="62.634640338531" lon="18.00549047505">
        <ele>54.6</ele>
        <time>2018-03-14T17:13:18Z</time>
      </trkpt>
      <trkpt lat="62.634615109012" lon="18.005522661546">
        <ele>54.8</ele>
        <time>2018-03-14T17:13:19Z</time>
      </trkpt>
      <trkpt lat="62.634599015764" lon="18.005548226341">
        <ele>54.8</ele>
        <time>2018-03-14T17:13:20Z</time>
      </trkpt>
      <trkpt lat="62.634581246136" lon="18.005584687606">
        <ele>54.8</ele>
        <time>2018-03-14T17:13:21Z</time>
      </trkpt>
      <trkpt lat="62.634556687169" lon="18.005624669269">
        <ele>54.8</ele>
        <time>2018-03-14T17:13:22Z</time>
      </trkpt>
      <trkpt lat="62.634547718536" lon="18.005652916272">
        <ele>55</ele>
        <time>2018-03-14T17:13:23Z</time>
      </trkpt>
      <trkpt lat="62.634522069922" lon="18.005698681446">
        <ele>55.2</ele>
        <time>2018-03-14T17:13:24Z</time>
      </trkpt>
      <trkpt lat="62.634501953362" lon="18.005741512955">
        <ele>55.2</ele>
        <time>2018-03-14T17:13:25Z</time>
      </trkpt>
      <trkpt lat="62.634489129055" lon="18.005769508501">
        <ele>55.4</ele>
        <time>2018-03-14T17:13:26Z</time>
      </trkpt>
      <trkpt lat="62.634462977527" lon="18.005821476281">
        <ele>55.4</ele>
        <time>2018-03-14T17:13:27Z</time>
      </trkpt>
      <trkpt lat="62.634445291718" lon="18.005867492912">
        <ele>55.6</ele>
        <time>2018-03-14T17:13:28Z</time>
      </trkpt>
      <trkpt lat="62.63443338942" lon="18.005901691064">
        <ele>55.8</ele>
        <time>2018-03-14T17:13:29Z</time>
      </trkpt>
      <trkpt lat="62.63440656734" lon="18.005951814826">
        <ele>55.8</ele>
        <time>2018-03-14T17:13:30Z</time>
      </trkpt>
      <trkpt lat="62.634382846563" lon="18.006007722099">
        <ele>55.8</ele>
        <time>2018-03-14T17:13:31Z</time>
      </trkpt>
      <trkpt lat="62.634366166582" lon="18.006047536124">
        <ele>55.8</ele>
        <time>2018-03-14T17:13:32Z</time>
      </trkpt>
      <trkpt lat="62.634347642583" lon="18.006106377062">
        <ele>55.8</ele>
        <time>2018-03-14T17:13:33Z</time>
      </trkpt>
      <trkpt lat="62.634334231543" lon="18.006140323757">
        <ele>55.8</ele>
        <time>2018-03-14T17:13:34Z</time>
      </trkpt>
      <trkpt lat="62.634300871581" lon="18.006204026197">
        <ele>55.8</ele>
        <time>2018-03-14T17:13:35Z</time>
      </trkpt>
      <trkpt lat="62.634304140522" lon="18.00622808225">
        <ele>55.6</ele>
        <time>2018-03-14T17:13:36Z</time>
      </trkpt>
      <trkpt lat="62.634281257935" lon="18.006277786917">
        <ele>55.8</ele>
        <time>2018-03-14T17:13:37Z</time>
      </trkpt>
      <trkpt lat="62.63426072228" lon="18.00632615048">
        <ele>55.6</ele>
        <time>2018-03-14T17:13:38Z</time>
      </trkpt>
      <trkpt lat="62.634243623204" lon="18.006356995872">
        <ele>55.6</ele>
        <time>2018-03-14T17:13:39Z</time>
      </trkpt>
      <trkpt lat="62.634223339006" lon="18.006400917028">
        <ele>55.6</ele>
        <time>2018-03-14T17:13:40Z</time>
      </trkpt>
      <trkpt lat="62.63419953441" lon="18.00645439355">
        <ele>55.6</ele>
        <time>2018-03-14T17:13:41Z</time>
      </trkpt>
      <trkpt lat="62.634189895225" lon="18.006494039937">
        <ele>55.6</ele>
        <time>2018-03-14T17:13:42Z</time>
      </trkpt>
      <trkpt lat="62.634164246611" lon="18.00655329997">
        <ele>55.6</ele>
        <time>2018-03-14T17:13:43Z</time>
      </trkpt>
      <trkpt lat="62.634149662105" lon="18.006598646049">
        <ele>55.6</ele>
        <time>2018-03-14T17:13:44Z</time>
      </trkpt>
      <trkpt lat="62.634132311572" lon="18.006633514753">
        <ele>55.6</ele>
        <time>2018-03-14T17:13:45Z</time>
      </trkpt>
      <trkpt lat="62.634108674614" lon="18.006694702623">
        <ele>55.6</ele>
        <time>2018-03-14T17:13:46Z</time>
      </trkpt>
      <trkpt lat="62.634094090108" lon="18.006729655146">
        <ele>55.6</ele>
        <time>2018-03-14T17:13:47Z</time>
      </trkpt>
      <trkpt lat="62.634070536969" lon="18.006787909351">
        <ele>55.6</ele>
        <time>2018-03-14T17:13:48Z</time>
      </trkpt>
      <trkpt lat="62.634052599703" lon="18.006839038941">
        <ele>55.6</ele>
        <time>2018-03-14T17:13:49Z</time>
      </trkpt>
      <trkpt lat="62.634043211975" lon="18.006876422215">
        <ele>55.6</ele>
        <time>2018-03-14T17:13:50Z</time>
      </trkpt>
      <trkpt lat="62.634020916121" lon="18.006945321433">
        <ele>55.8</ele>
        <time>2018-03-14T17:13:51Z</time>
      </trkpt>
      <trkpt lat="62.634008091814" lon="18.006986225105">
        <ele>55.8</ele>
        <time>2018-03-14T17:13:52Z</time>
      </trkpt>
      <trkpt lat="62.63399166329" lon="18.007031990279">
        <ele>55.8</ele>
        <time>2018-03-14T17:13:53Z</time>
      </trkpt>
      <trkpt lat="62.633974648033" lon="18.007088987199">
        <ele>55.8</ele>
        <time>2018-03-14T17:13:54Z</time>
      </trkpt>
      <trkpt lat="62.633967523418" lon="18.007141038798">
        <ele>55.8</ele>
        <time>2018-03-14T17:13:55Z</time>
      </trkpt>
      <trkpt lat="62.633944389374" lon="18.007201891392">
        <ele>55.6</ele>
        <time>2018-03-14T17:13:56Z</time>
      </trkpt>
      <trkpt lat="62.633928379945" lon="18.007245225815">
        <ele>55.6</ele>
        <time>2018-03-14T17:13:57Z</time>
      </trkpt>
      <trkpt lat="62.633907257557" lon="18.007292918826">
        <ele>55.6</ele>
        <time>2018-03-14T17:13:58Z</time>
      </trkpt>
      <trkpt lat="62.633883369142" lon="18.00734455133">
        <ele>55.6</ele>
        <time>2018-03-14T17:13:59Z</time>
      </trkpt>
      <trkpt lat="62.633868197903" lon="18.007388472486">
        <ele>55.8</ele>
        <time>2018-03-14T17:14:00Z</time>
      </trkpt>
      <trkpt lat="62.633831988095" lon="18.007419317878">
        <ele>55.8</ele>
        <time>2018-03-14T17:14:01Z</time>
      </trkpt>
      <trkpt lat="62.633801310341" lon="18.007439434438">
        <ele>55.6</ele>
        <time>2018-03-14T17:14:02Z</time>
      </trkpt>
      <trkpt lat="62.633777757202" lon="18.007437171325">
        <ele>55.6</ele>
        <time>2018-03-14T17:14:03Z</time>
      </trkpt>
      <trkpt lat="62.633744481059" lon="18.007420994258">
        <ele>55.4</ele>
        <time>2018-03-14T17:14:04Z</time>
      </trkpt>
      <trkpt lat="62.633721598472" lon="18.007397189662">
        <ele>55.6</ele>
        <time>2018-03-14T17:14:05Z</time>
      </trkpt>
      <trkpt lat="62.633697626238" lon="18.00737640255">
        <ele>55.6</ele>
        <time>2018-03-14T17:14:06Z</time>
      </trkpt>
      <trkpt lat="62.633668708683" lon="18.007348909918">
        <ele>55.4</ele>
        <time>2018-03-14T17:14:07Z</time>
      </trkpt>
      <trkpt lat="62.633641216051" lon="18.007328793358">
        <ele>55.4</ele>
        <time>2018-03-14T17:14:08Z</time>
      </trkpt>
      <trkpt lat="62.633623027328" lon="18.007309179712">
        <ele>55.6</ele>
        <time>2018-03-14T17:14:09Z</time>
      </trkpt>
      <trkpt lat="62.633600144741" lon="18.007286045668">
        <ele>55.6</ele>
        <time>2018-03-14T17:14:10Z</time>
      </trkpt>
      <trkpt lat="62.633578016525" lon="18.007271125886">
        <ele>55.8</ele>
        <time>2018-03-14T17:14:11Z</time>
      </trkpt>
      <trkpt lat="62.633556223585" lon="18.007254948819">
        <ele>55.8</ele>
        <time>2018-03-14T17:14:12Z</time>
      </trkpt>
      <trkpt lat="62.633528898591" lon="18.007243717073">
        <ele>56.2</ele>
        <time>2018-03-14T17:14:13Z</time>
      </trkpt>
      <trkpt lat="62.633503752891" lon="18.007213542233">
        <ele>56.4</ele>
        <time>2018-03-14T17:14:14Z</time>
      </trkpt>
      <trkpt lat="62.633479613019" lon="18.007189318542">
        <ele>56.8</ele>
        <time>2018-03-14T17:14:15Z</time>
      </trkpt>
      <trkpt lat="62.633460669925" lon="18.007178254434">
        <ele>57</ele>
        <time>2018-03-14T17:14:16Z</time>
      </trkpt>
      <trkpt lat="62.633442397383" lon="18.007150677983">
        <ele>57</ele>
        <time>2018-03-14T17:14:17Z</time>
      </trkpt>
      <trkpt lat="62.633416916407" lon="18.007111702148">
        <ele>57.2</ele>
        <time>2018-03-14T17:14:18Z</time>
      </trkpt>
      <trkpt lat="62.633399314417" lon="18.007089154837">
        <ele>57</ele>
        <time>2018-03-14T17:14:19Z</time>
      </trkpt>
      <trkpt lat="62.633375426002" lon="18.007053950857">
        <ele>57.2</ele>
        <time>2018-03-14T17:14:20Z</time>
      </trkpt>
      <trkpt lat="62.633354555071" lon="18.007001396344">
        <ele>57.2</ele>
        <time>2018-03-14T17:14:21Z</time>
      </trkpt>
      <trkpt lat="62.633341646945" lon="18.006976334463">
        <ele>57.2</ele>
        <time>2018-03-14T17:14:22Z</time>
      </trkpt>
      <trkpt lat="62.633322368575" lon="18.006920930104">
        <ele>57.4</ele>
        <time>2018-03-14T17:14:23Z</time>
      </trkpt>
      <trkpt lat="62.633308957535" lon="18.006864436098">
        <ele>57.4</ele>
        <time>2018-03-14T17:14:24Z</time>
      </trkpt>
      <trkpt lat="62.633299402169" lon="18.006815401983">
        <ele>57.6</ele>
        <time>2018-03-14T17:14:25Z</time>
      </trkpt>
      <trkpt lat="62.633291523183" lon="18.006774833587">
        <ele>57.6</ele>
        <time>2018-03-14T17:14:26Z</time>
      </trkpt>
      <trkpt lat="62.633288924794" lon="18.006725799472">
        <ele>57.6</ele>
        <time>2018-03-14T17:14:27Z</time>
      </trkpt>
      <trkpt lat="62.63328590731" lon="18.006659666281">
        <ele>57.6</ele>
        <time>2018-03-14T17:14:28Z</time>
      </trkpt>
      <trkpt lat="62.633280459075" lon="18.006621696274">
        <ele>57.8</ele>
        <time>2018-03-14T17:14:29Z</time>
      </trkpt>
      <trkpt lat="62.633275429935" lon="18.006577020747">
        <ele>57.8</ele>
        <time>2018-03-14T17:14:30Z</time>
      </trkpt>
      <trkpt lat="62.633276016668" lon="18.006515413782">
        <ele>57.8</ele>
        <time>2018-03-14T17:14:31Z</time>
      </trkpt>
      <trkpt lat="62.633275932849" lon="18.006459590328">
        <ele>58</ele>
        <time>2018-03-14T17:14:32Z</time>
      </trkpt>
      <trkpt lat="62.633276603401" lon="18.006430337497">
        <ele>58.2</ele>
        <time>2018-03-14T17:14:33Z</time>
      </trkpt>
      <trkpt lat="62.633272160994" lon="18.006401839037">
        <ele>58.4</ele>
        <time>2018-03-14T17:14:34Z</time>
      </trkpt>
      <trkpt lat="62.63327165808" lon="18.006326485756">
        <ele>58.6</ele>
        <time>2018-03-14T17:14:35Z</time>
      </trkpt>
      <trkpt lat="62.633267718587" lon="18.006272254863">
        <ele>58.8</ele>
        <time>2018-03-14T17:14:36Z</time>
      </trkpt>
      <trkpt lat="62.63326746713" lon="18.006228501345">
        <ele>58.8</ele>
        <time>2018-03-14T17:14:37Z</time>
      </trkpt>
      <trkpt lat="62.633261851257" lon="18.006188352044">
        <ele>59</ele>
        <time>2018-03-14T17:14:38Z</time>
      </trkpt>
      <trkpt lat="62.633262605628" lon="18.006148286562">
        <ele>59</ele>
        <time>2018-03-14T17:14:39Z</time>
      </trkpt>
      <trkpt lat="62.633264030551" lon="18.006112328211">
        <ele>59.2</ele>
        <time>2018-03-14T17:14:40Z</time>
      </trkpt>
      <trkpt lat="62.633263108542" lon="18.006074358204">
        <ele>59.4</ele>
        <time>2018-03-14T17:14:41Z</time>
      </trkpt>
      <trkpt lat="62.633260007239" lon="18.006039824776">
        <ele>59.6</ele>
        <time>2018-03-14T17:14:42Z</time>
      </trkpt>
      <trkpt lat="62.633258330859" lon="18.005993053774">
        <ele>59.8</ele>
        <time>2018-03-14T17:14:43Z</time>
      </trkpt>
      <trkpt lat="62.633255061918" lon="18.005940750718">
        <ele>60</ele>
        <time>2018-03-14T17:14:44Z</time>
      </trkpt>
      <trkpt lat="62.633255564832" lon="18.005901942521">
        <ele>60.2</ele>
        <time>2018-03-14T17:14:45Z</time>
      </trkpt>
      <trkpt lat="62.633258414678" lon="18.00587688064">
        <ele>60.2</ele>
        <time>2018-03-14T17:14:46Z</time>
      </trkpt>
      <trkpt lat="62.633258917592" lon="18.005853495139">
        <ele>60.4</ele>
        <time>2018-03-14T17:14:47Z</time>
      </trkpt>
      <trkpt lat="62.633260845429" lon="18.005833546217">
        <ele>60.6</ele>
        <time>2018-03-14T17:14:48Z</time>
      </trkpt>
      <trkpt lat="62.633265455474" lon="18.005806137404">
        <ele>60.8</ele>
        <time>2018-03-14T17:14:49Z</time>
      </trkpt>
      <trkpt lat="62.633263946732" lon="18.005789960337">
        <ele>61</ele>
        <time>2018-03-14T17:14:50Z</time>
      </trkpt>
      <trkpt lat="62.633260510153" lon="18.005773196537">
        <ele>61</ele>
        <time>2018-03-14T17:14:51Z</time>
      </trkpt>
      <trkpt lat="62.633263611456" lon="18.005760036954">
        <ele>61.2</ele>
        <time>2018-03-14T17:14:52Z</time>
      </trkpt>
      <trkpt lat="62.633265623112" lon="18.005746374457">
        <ele>61.6</ele>
        <time>2018-03-14T17:14:53Z</time>
      </trkpt>
      <trkpt lat="62.633263443818" lon="18.005728437191">
        <ele>62</ele>
        <time>2018-03-14T17:14:54Z</time>
      </trkpt>
      <trkpt lat="62.63326243799" lon="18.005701028378">
        <ele>62.2</ele>
        <time>2018-03-14T17:14:55Z</time>
      </trkpt>
      <trkpt lat="62.633259671963" lon="18.005686024777">
        <ele>62.8</ele>
        <time>2018-03-14T17:14:56Z</time>
      </trkpt>
      <trkpt lat="62.633264784922" lon="18.005681917646">
        <ele>63.2</ele>
        <time>2018-03-14T17:14:57Z</time>
      </trkpt>
      <trkpt lat="62.633264365827" lon="18.005660124706">
        <ele>63.4</ele>
        <time>2018-03-14T17:14:58Z</time>
      </trkpt>
      <trkpt lat="62.633267215673" lon="18.005631374789">
        <ele>63.8</ele>
        <time>2018-03-14T17:14:59Z</time>
      </trkpt>
      <trkpt lat="62.633267634768" lon="18.005606312908">
        <ele>64.2</ele>
        <time>2018-03-14T17:15:00Z</time>
      </trkpt>
      <trkpt lat="62.633265204017" lon="18.005584603787">
        <ele>64.4</ele>
        <time>2018-03-14T17:15:01Z</time>
      </trkpt>
      <trkpt lat="62.633265874569" lon="18.005568259082">
        <ele>64.6</ele>
        <time>2018-03-14T17:15:02Z</time>
      </trkpt>
      <trkpt lat="62.633268892053" lon="18.005547052875">
        <ele>64.8</ele>
        <time>2018-03-14T17:15:03Z</time>
      </trkpt>
      <trkpt lat="62.633266964216" lon="18.005523583555">
        <ele>65</ele>
        <time>2018-03-14T17:15:04Z</time>
      </trkpt>
      <trkpt lat="62.633266545121" lon="18.005497515846">
        <ele>65</ele>
        <time>2018-03-14T17:15:05Z</time>
      </trkpt>
      <trkpt lat="62.633267383311" lon="18.005466586635">
        <ele>65.2</ele>
        <time>2018-03-14T17:15:06Z</time>
      </trkpt>
      <trkpt lat="62.633264030551" lon="18.005447643541">
        <ele>65.4</ele>
        <time>2018-03-14T17:15:07Z</time>
      </trkpt>
      <trkpt lat="62.63326243799" lon="18.005424090402">
        <ele>65.4</ele>
        <time>2018-03-14T17:15:08Z</time>
      </trkpt>
      <trkpt lat="62.63326243799" lon="18.005407997154">
        <ele>65.6</ele>
        <time>2018-03-14T17:15:09Z</time>
      </trkpt>
      <trkpt lat="62.633266964216" lon="18.005385533662">
        <ele>65.8</ele>
        <time>2018-03-14T17:15:10Z</time>
      </trkpt>
      <trkpt lat="62.63326914351" lon="18.005349742949">
        <ele>66.2</ele>
        <time>2018-03-14T17:15:11Z</time>
      </trkpt>
      <trkpt lat="62.633267802406" lon="18.005328452923">
        <ele>66.4</ele>
        <time>2018-03-14T17:15:12Z</time>
      </trkpt>
      <trkpt lat="62.63326243799" lon="18.005303474861">
        <ele>66.6</ele>
        <time>2018-03-14T17:15:13Z</time>
      </trkpt>
      <trkpt lat="62.633264617284" lon="18.005283023025">
        <ele>66.8</ele>
        <time>2018-03-14T17:15:14Z</time>
      </trkpt>
      <trkpt lat="62.63326327618" lon="18.005258631696">
        <ele>67.2</ele>
        <time>2018-03-14T17:15:15Z</time>
      </trkpt>
      <trkpt lat="62.633262186533" lon="18.005238682774">
        <ele>67.6</ele>
        <time>2018-03-14T17:15:16Z</time>
      </trkpt>
      <trkpt lat="62.63325992342" lon="18.005212615065">
        <ele>68</ele>
        <time>2018-03-14T17:15:17Z</time>
      </trkpt>
      <trkpt lat="62.633254559004" lon="18.005173723049">
        <ele>68.2</ele>
        <time>2018-03-14T17:15:18Z</time>
      </trkpt>
      <trkpt lat="62.633257325031" lon="18.0051426262">
        <ele>68.8</ele>
        <time>2018-03-14T17:15:19Z</time>
      </trkpt>
      <trkpt lat="62.633260677791" lon="18.005112367541">
        <ele>69</ele>
        <time>2018-03-14T17:15:20Z</time>
      </trkpt>
      <trkpt lat="62.63325824704" lon="18.00508646747">
        <ele>69.4</ele>
        <time>2018-03-14T17:15:21Z</time>
      </trkpt>
      <trkpt lat="62.633257325031" lon="18.005064506892">
        <ele>69.6</ele>
        <time>2018-03-14T17:15:22Z</time>
      </trkpt>
      <trkpt lat="62.633250954787" lon="18.005039780287">
        <ele>69.8</ele>
        <time>2018-03-14T17:15:23Z</time>
      </trkpt>
      <trkpt lat="62.633246177104" lon="18.005018490261">
        <ele>69.8</ele>
        <time>2018-03-14T17:15:24Z</time>
      </trkpt>
      <trkpt lat="62.633240980326" lon="18.004994769484">
        <ele>70.2</ele>
        <time>2018-03-14T17:15:25Z</time>
      </trkpt>
      <trkpt lat="62.633237040833" lon="18.004971551621">
        <ele>70.4</ele>
        <time>2018-03-14T17:15:26Z</time>
      </trkpt>
      <trkpt lat="62.633231173503" lon="18.004948333758">
        <ele>70.4</ele>
        <time>2018-03-14T17:15:27Z</time>
      </trkpt>
      <trkpt lat="62.633220360852" lon="18.004921846954">
        <ele>70.6</ele>
        <time>2018-03-14T17:15:28Z</time>
      </trkpt>
      <trkpt lat="62.633210218753" lon="18.004902233308">
        <ele>70.8</ele>
        <time>2018-03-14T17:15:29Z</time>
      </trkpt>
      <trkpt lat="62.633196891532" lon="18.004883206395">
        <ele>71.2</ele>
        <time>2018-03-14T17:15:30Z</time>
      </trkpt>
      <trkpt lat="62.633183480492" lon="18.004867364604">
        <ele>71.4</ele>
        <time>2018-03-14T17:15:31Z</time>
      </trkpt>
      <trkpt lat="62.633168728348" lon="18.004853702107">
        <ele>71.6</ele>
        <time>2018-03-14T17:15:32Z</time>
      </trkpt>
      <trkpt lat="62.633150204349" lon="18.004845152569">
        <ele>71.8</ele>
        <time>2018-03-14T17:15:33Z</time>
      </trkpt>
      <trkpt lat="62.63313754768" lon="18.004833669366">
        <ele>72</ele>
        <time>2018-03-14T17:15:34Z</time>
      </trkpt>
      <trkpt lat="62.63312665121" lon="18.004827047665">
        <ele>72.4</ele>
        <time>2018-03-14T17:15:35Z</time>
      </trkpt>
      <trkpt lat="62.633108043392" lon="18.004814307177">
        <ele>72.8</ele>
        <time>2018-03-14T17:15:36Z</time>
      </trkpt>
      <trkpt lat="62.633093794162" lon="18.004816737928">
        <ele>73.4</ele>
        <time>2018-03-14T17:15:37Z</time>
      </trkpt>
      <trkpt lat="62.633076946543" lon="18.004819420136">
        <ele>73.8</ele>
        <time>2018-03-14T17:15:38Z</time>
      </trkpt>
      <trkpt lat="62.633065044245" lon="18.004825455104">
        <ele>74.2</ele>
        <time>2018-03-14T17:15:39Z</time>
      </trkpt>
      <trkpt lat="62.633044340952" lon="18.004839620515">
        <ele>74.6</ele>
        <time>2018-03-14T17:15:40Z</time>
      </trkpt>
      <trkpt lat="62.633024308211" lon="18.004853953564">
        <ele>74.8</ele>
        <time>2018-03-14T17:15:41Z</time>
      </trkpt>
      <trkpt lat="62.633010058981" lon="18.004867113147">
        <ele>75</ele>
        <time>2018-03-14T17:15:42Z</time>
      </trkpt>
      <trkpt lat="62.632984829462" lon="18.004885050413">
        <ele>75.2</ele>
        <time>2018-03-14T17:15:43Z</time>
      </trkpt>
      <trkpt lat="62.632968317119" lon="18.00491882947">
        <ele>75.2</ele>
        <time>2018-03-14T17:15:44Z</time>
      </trkpt>
      <trkpt lat="62.632947949102" lon="18.004951183604">
        <ele>75.2</ele>
        <time>2018-03-14T17:15:45Z</time>
      </trkpt>
      <trkpt lat="62.632935711528" lon="18.004980520254">
        <ele>75.2</ele>
        <time>2018-03-14T17:15:46Z</time>
      </trkpt>
      <trkpt lat="62.632919785918" lon="18.005016478605">
        <ele>75.2</ele>
        <time>2018-03-14T17:15:47Z</time>
      </trkpt>
      <trkpt lat="62.632908386534" lon="18.005060148304">
        <ele>75.2</ele>
        <time>2018-03-14T17:15:48Z</time>
      </trkpt>
      <trkpt lat="62.632892712381" lon="18.005108847143">
        <ele>75.2</ele>
        <time>2018-03-14T17:15:49Z</time>
      </trkpt>
      <trkpt lat="62.632868656328" lon="18.005182272587">
        <ele>75.2</ele>
        <time>2018-03-14T17:15:50Z</time>
      </trkpt>
      <trkpt lat="62.632856670211" lon="18.005231893435">
        <ele>75.4</ele>
        <time>2018-03-14T17:15:51Z</time>
      </trkpt>
      <trkpt lat="62.632848036854" lon="18.005264247569">
        <ele>75.2</ele>
        <time>2018-03-14T17:15:52Z</time>
      </trkpt>
      <trkpt lat="62.632809983028" lon="18.005320071023">
        <ele>75.4</ele>
        <time>2018-03-14T17:15:53Z</time>
      </trkpt>
      <trkpt lat="62.632776539247" lon="18.005351000234">
        <ele>75.4</ele>
        <time>2018-03-14T17:15:54Z</time>
      </trkpt>
      <trkpt lat="62.632752231737" lon="18.005358963039">
        <ele>75.2</ele>
        <time>2018-03-14T17:15:55Z</time>
      </trkpt>
      <trkpt lat="62.632733707738" lon="18.005347731293">
        <ele>75.2</ele>
        <time>2018-03-14T17:15:56Z</time>
      </trkpt>
      <trkpt lat="62.632711328065" lon="18.005354436813">
        <ele>75</ele>
        <time>2018-03-14T17:15:57Z</time>
      </trkpt>
      <trkpt lat="62.63269079241" lon="18.005359549772">
        <ele>75.2</ele>
        <time>2018-03-14T17:15:58Z</time>
      </trkpt>
      <trkpt lat="62.632674447705" lon="18.005356280831">
        <ele>75.2</ele>
        <time>2018-03-14T17:15:59Z</time>
      </trkpt>
      <trkpt lat="62.632649804919" lon="18.005357705754">
        <ele>75.4</ele>
        <time>2018-03-14T17:16:00Z</time>
      </trkpt>
      <trkpt lat="62.632629353083" lon="18.005365249464">
        <ele>75.8</ele>
        <time>2018-03-14T17:16:01Z</time>
      </trkpt>
      <trkpt lat="62.632612924559" lon="18.005374553373">
        <ele>76</ele>
        <time>2018-03-14T17:16:02Z</time>
      </trkpt>
      <trkpt lat="62.632594568198" lon="18.005378828142">
        <ele>76.2</ele>
        <time>2018-03-14T17:16:03Z</time>
      </trkpt>
      <trkpt lat="62.632574116362" lon="18.005381845626">
        <ele>76.4</ele>
        <time>2018-03-14T17:16:04Z</time>
      </trkpt>
      <trkpt lat="62.632551569051" lon="18.005387796775">
        <ele>76.6</ele>
        <time>2018-03-14T17:16:05Z</time>
      </trkpt>
      <trkpt lat="62.632513263768" lon="18.005395424304">
        <ele>76.6</ele>
        <time>2018-03-14T17:16:06Z</time>
      </trkpt>
      <trkpt lat="62.632483591842" lon="18.005365920016">
        <ele>76.8</ele>
        <time>2018-03-14T17:16:07Z</time>
      </trkpt>
      <trkpt lat="62.632466241309" lon="18.005365333283">
        <ele>76.8</ele>
        <time>2018-03-14T17:16:08Z</time>
      </trkpt>
      <trkpt lat="62.632450483337" lon="18.005360052686">
        <ele>76.8</ele>
        <time>2018-03-14T17:16:09Z</time>
      </trkpt>
      <trkpt lat="62.632421565782" lon="18.00536139379">
        <ele>77</ele>
        <time>2018-03-14T17:16:10Z</time>
      </trkpt>
      <trkpt lat="62.632396084806" lon="18.005370110966">
        <ele>77</ele>
        <time>2018-03-14T17:16:11Z</time>
      </trkpt>
      <trkpt lat="62.632381416481" lon="18.005379498694">
        <ele>77</ele>
        <time>2018-03-14T17:16:12Z</time>
      </trkpt>
      <trkpt lat="62.632350068175" lon="18.005406320774">
        <ele>77</ele>
        <time>2018-03-14T17:16:13Z</time>
      </trkpt>
      <trkpt lat="62.632322407905" lon="18.005414702674">
        <ele>77.2</ele>
        <time>2018-03-14T17:16:14Z</time>
      </trkpt>
      <trkpt lat="62.632295921101" lon="18.005436998528">
        <ele>77.4</ele>
        <time>2018-03-14T17:16:15Z</time>
      </trkpt>
      <trkpt lat="62.632278319111" lon="18.005448817007">
        <ele>77.4</ele>
        <time>2018-03-14T17:16:16Z</time>
      </trkpt>
      <trkpt lat="62.632247473719" lon="18.005464994074">
        <ele>77.4</ele>
        <time>2018-03-14T17:16:17Z</time>
      </trkpt>
      <trkpt lat="62.632215957775" lon="18.005477315467">
        <ele>77.4</ele>
        <time>2018-03-14T17:16:18Z</time>
      </trkpt>
      <trkpt lat="62.632199026337" lon="18.00549969514">
        <ele>77.4</ele>
        <time>2018-03-14T17:16:19Z</time>
      </trkpt>
      <trkpt lat="62.632167342755" lon="18.005508831411">
        <ele>77.4</ele>
        <time>2018-03-14T17:16:20Z</time>
      </trkpt>
      <trkpt lat="62.632134318069" lon="18.00551394437">
        <ele>77.4</ele>
        <time>2018-03-14T17:16:21Z</time>
      </trkpt>
      <trkpt lat="62.632111016387" lon="18.005518889691">
        <ele>77.6</ele>
        <time>2018-03-14T17:16:22Z</time>
      </trkpt>
      <trkpt lat="62.632094587863" lon="18.005525343754">
        <ele>77.6</ele>
        <time>2018-03-14T17:16:23Z</time>
      </trkpt>
      <trkpt lat="62.632061814634" lon="18.005537329871">
        <ele>77.8</ele>
        <time>2018-03-14T17:16:24Z</time>
      </trkpt>
      <trkpt lat="62.632039351142" lon="18.005552668748">
        <ele>78</ele>
        <time>2018-03-14T17:16:25Z</time>
      </trkpt>
      <trkpt lat="62.632029544319" lon="18.005553087843">
        <ele>78</ele>
        <time>2018-03-14T17:16:26Z</time>
      </trkpt>
      <trkpt lat="62.631987718638" lon="18.005564990141">
        <ele>78</ele>
        <time>2018-03-14T17:16:27Z</time>
      </trkpt>
      <trkpt lat="62.631961064196" lon="18.005575635154">
        <ele>78</ele>
        <time>2018-03-14T17:16:28Z</time>
      </trkpt>
      <trkpt lat="62.631938852161" lon="18.005584184692">
        <ele>78</ele>
        <time>2018-03-14T17:16:29Z</time>
      </trkpt>
      <trkpt lat="62.631895182462" lon="18.005599523569">
        <ele>78.2</ele>
        <time>2018-03-14T17:16:30Z</time>
      </trkpt>
      <trkpt lat="62.631872383694" lon="18.005600780854">
        <ele>78</ele>
        <time>2018-03-14T17:16:31Z</time>
      </trkpt>
      <trkpt lat="62.631850255478" lon="18.005593488601">
        <ele>78</ele>
        <time>2018-03-14T17:16:32Z</time>
      </trkpt>
      <trkpt lat="62.631810944367" lon="18.005583011226">
        <ele>78</ele>
        <time>2018-03-14T17:16:33Z</time>
      </trkpt>
      <trkpt lat="62.631792923282" lon="18.005571192747">
        <ele>78.2</ele>
        <time>2018-03-14T17:16:34Z</time>
      </trkpt>
      <trkpt lat="62.631773728731" lon="18.005556189146">
        <ele>78.2</ele>
        <time>2018-03-14T17:16:35Z</time>
      </trkpt>
      <trkpt lat="62.631743386253" lon="18.00551478256">
        <ele>78.2</ele>
        <time>2018-03-14T17:16:36Z</time>
      </trkpt>
      <trkpt lat="62.63172016839" lon="18.005479746218">
        <ele>78.2</ele>
        <time>2018-03-14T17:16:37Z</time>
      </trkpt>
      <trkpt lat="62.631709691015" lon="18.005447308265">
        <ele>78.2</ele>
        <time>2018-03-14T17:16:38Z</time>
      </trkpt>
      <trkpt lat="62.631687898075" lon="18.005391317173">
        <ele>78.4</ele>
        <time>2018-03-14T17:16:39Z</time>
      </trkpt>
      <trkpt lat="62.631671385732" lon="18.005341696325">
        <ele>78.4</ele>
        <time>2018-03-14T17:16:40Z</time>
      </trkpt>
      <trkpt lat="62.631660070167" lon="18.005306995259">
        <ele>78.6</ele>
        <time>2018-03-14T17:16:41Z</time>
      </trkpt>
      <trkpt lat="62.631650850077" lon="18.00527003108">
        <ele>78.6</ele>
        <time>2018-03-14T17:16:42Z</time>
      </trkpt>
      <trkpt lat="62.631629224775" lon="18.005215800187">
        <ele>78.6</ele>
        <time>2018-03-14T17:16:43Z</time>
      </trkpt>
      <trkpt lat="62.631611874242" lon="18.005170454108">
        <ele>78.4</ele>
        <time>2018-03-14T17:16:44Z</time>
      </trkpt>
      <trkpt lat="62.631593769338" lon="18.00512921516">
        <ele>78.4</ele>
        <time>2018-03-14T17:16:45Z</time>
      </trkpt>
      <trkpt lat="62.631567282534" lon="18.00508311471">
        <ele>78.4</ele>
        <time>2018-03-14T17:16:46Z</time>
      </trkpt>
      <trkpt lat="62.631553955313" lon="18.005046401988">
        <ele>78.6</ele>
        <time>2018-03-14T17:16:47Z</time>
      </trkpt>
      <trkpt lat="62.631540963368" lon="18.005013209664">
        <ele>78.6</ele>
        <time>2018-03-14T17:16:48Z</time>
      </trkpt>
      <trkpt lat="62.631528558156" lon="18.004987309593">
        <ele>78.8</ele>
        <time>2018-03-14T17:16:49Z</time>
      </trkpt>
      <trkpt lat="62.631510872347" lon="18.004950345414">
        <ele>78.8</ele>
        <time>2018-03-14T17:16:50Z</time>
      </trkpt>
      <trkpt lat="62.631487067751" lon="18.004911034303">
        <ele>79</ele>
        <time>2018-03-14T17:16:51Z</time>
      </trkpt>
      <trkpt lat="62.63147793148" lon="18.004886726793">
        <ele>79</ele>
        <time>2018-03-14T17:16:52Z</time>
      </trkpt>
      <trkpt lat="62.631455216531" lon="18.004842973275">
        <ele>79.2</ele>
        <time>2018-03-14T17:16:53Z</time>
      </trkpt>
      <trkpt lat="62.631433675048" lon="18.004816905566">
        <ele>79.2</ele>
        <time>2018-03-14T17:16:54Z</time>
      </trkpt>
      <trkpt lat="62.63141339085" lon="18.004792011323">
        <ele>79.2</ele>
        <time>2018-03-14T17:16:55Z</time>
      </trkpt>
      <trkpt lat="62.631400231267" lon="18.00477549898">
        <ele>79.4</ele>
        <time>2018-03-14T17:16:56Z</time>
      </trkpt>
      <trkpt lat="62.631372822454" lon="18.004747671072">
        <ele>79.6</ele>
        <time>2018-03-14T17:16:57Z</time>
      </trkpt>
      <trkpt lat="62.631347341478" lon="18.004725878132">
        <ele>79.6</ele>
        <time>2018-03-14T17:16:58Z</time>
      </trkpt>
      <trkpt lat="62.631329990945" lon="18.00471934025">
        <ele>79.8</ele>
        <time>2018-03-14T17:16:59Z</time>
      </trkpt>
      <trkpt lat="62.63130442615" lon="18.004698469319">
        <ele>80.2</ele>
        <time>2018-03-14T17:17:00Z</time>
      </trkpt>
      <trkpt lat="62.631281543563" lon="18.004681034967">
        <ele>80.4</ele>
        <time>2018-03-14T17:17:01Z</time>
      </trkpt>
      <trkpt lat="62.631267629609" lon="18.004665612271">
        <ele>80.4</ele>
        <time>2018-03-14T17:17:02Z</time>
      </trkpt>
      <trkpt lat="62.631252961284" lon="18.004661924235">
        <ele>80.4</ele>
        <time>2018-03-14T17:17:03Z</time>
      </trkpt>
      <trkpt lat="62.631230833068" lon="18.004646333901">
        <ele>80.6</ele>
        <time>2018-03-14T17:17:04Z</time>
      </trkpt>
      <trkpt lat="62.631203088979" lon="18.004623702771">
        <ele>80.8</ele>
        <time>2018-03-14T17:17:05Z</time>
      </trkpt>
      <trkpt lat="62.631185151713" lon="18.004608950627">
        <ele>80.8</ele>
        <time>2018-03-14T17:17:06Z</time>
      </trkpt>
      <trkpt lat="62.631166376257" lon="18.004571734991">
        <ele>81</ele>
        <time>2018-03-14T17:17:07Z</time>
      </trkpt>
      <trkpt lat="62.631141733471" lon="18.00454415854">
        <ele>81</ele>
        <time>2018-03-14T17:17:08Z</time>
      </trkpt>
      <trkpt lat="62.631122036006" lon="18.004538375029">
        <ele>81</ele>
        <time>2018-03-14T17:17:09Z</time>
      </trkpt>
      <trkpt lat="62.631103428188" lon="18.004522617057">
        <ele>81</ele>
        <time>2018-03-14T17:17:10Z</time>
      </trkpt>
      <trkpt lat="62.631071744606" lon="18.004494789149">
        <ele>81.2</ele>
        <time>2018-03-14T17:17:11Z</time>
      </trkpt>
      <trkpt lat="62.631057243919" lon="18.00447375058">
        <ele>81.2</ele>
        <time>2018-03-14T17:17:12Z</time>
      </trkpt>
      <trkpt lat="62.631045676897" lon="18.004455142762">
        <ele>81.4</ele>
        <time>2018-03-14T17:17:13Z</time>
      </trkpt>
      <trkpt lat="62.631023213405" lon="18.004419938782">
        <ele>81.4</ele>
        <time>2018-03-14T17:17:14Z</time>
      </trkpt>
      <trkpt lat="62.63099094309" lon="18.004398229661">
        <ele>81.6</ele>
        <time>2018-03-14T17:17:15Z</time>
      </trkpt>
      <trkpt lat="62.630977280593" lon="18.00437316778">
        <ele>81.6</ele>
        <time>2018-03-14T17:17:16Z</time>
      </trkpt>
      <trkpt lat="62.630952973083" lon="18.004336957972">
        <ele>81.8</ele>
        <time>2018-03-14T17:17:17Z</time>
      </trkpt>
      <trkpt lat="62.630928833211" lon="18.004306783132">
        <ele>81.8</ele>
        <time>2018-03-14T17:17:18Z</time>
      </trkpt>
      <trkpt lat="62.630923133519" lon="18.004274680455">
        <ele>82</ele>
        <time>2018-03-14T17:17:19Z</time>
      </trkpt>
      <trkpt lat="62.630904777158" lon="18.004236626629">
        <ele>82</ele>
        <time>2018-03-14T17:17:20Z</time>
      </trkpt>
      <trkpt lat="62.630883235675" lon="18.004199746269">
        <ele>82.2</ele>
        <time>2018-03-14T17:17:21Z</time>
      </trkpt>
      <trkpt lat="62.630870914282" lon="18.0041703258">
        <ele>82.4</ele>
        <time>2018-03-14T17:17:22Z</time>
      </trkpt>
      <trkpt lat="62.630863202934" lon="18.004133026345">
        <ele>82.6</ele>
        <time>2018-03-14T17:17:23Z</time>
      </trkpt>
      <trkpt lat="62.630854234301" lon="18.004102935324">
        <ele>82.6</ele>
        <time>2018-03-14T17:17:24Z</time>
      </trkpt>
      <trkpt lat="62.630843589288" lon="18.004071670837">
        <ele>82.8</ele>
        <time>2018-03-14T17:17:25Z</time>
      </trkpt>
      <trkpt lat="62.630829842972" lon="18.004031940631">
        <ele>83</ele>
        <time>2018-03-14T17:17:26Z</time>
      </trkpt>
      <trkpt lat="62.630815426104" lon="18.003989779674">
        <ele>83.4</ele>
        <time>2018-03-14T17:17:27Z</time>
      </trkpt>
      <trkpt lat="62.630801931245" lon="18.003938566265">
        <ele>83.6</ele>
        <time>2018-03-14T17:17:28Z</time>
      </trkpt>
      <trkpt lat="62.630801176874" lon="18.003900344801">
        <ele>83.8</ele>
        <time>2018-03-14T17:17:29Z</time>
      </trkpt>
      <trkpt lat="62.630796231553" lon="18.003860446957">
        <ele>83.8</ele>
        <time>2018-03-14T17:17:30Z</time>
      </trkpt>
      <trkpt lat="62.630794974268" lon="18.003824320968">
        <ele>84</ele>
        <time>2018-03-14T17:17:31Z</time>
      </trkpt>
      <trkpt lat="62.630797656476" lon="18.003759445062">
        <ele>84.2</ele>
        <time>2018-03-14T17:17:32Z</time>
      </trkpt>
      <trkpt lat="62.630795393363" lon="18.003726504195">
        <ele>84.2</ele>
        <time>2018-03-14T17:17:33Z</time>
      </trkpt>
      <trkpt lat="62.630800506322" lon="18.003671518931">
        <ele>84.2</ele>
        <time>2018-03-14T17:17:34Z</time>
      </trkpt>
      <trkpt lat="62.630804110539" lon="18.003612258898">
        <ele>84.4</ele>
        <time>2018-03-14T17:17:35Z</time>
      </trkpt>
      <trkpt lat="62.630806122195" lon="18.003566912819">
        <ele>84.6</ele>
        <time>2018-03-14T17:17:36Z</time>
      </trkpt>
      <trkpt lat="62.630806625109" lon="18.003523410758">
        <ele>84.6</ele>
        <time>2018-03-14T17:17:37Z</time>
      </trkpt>
      <trkpt lat="62.630815342285" lon="18.003460797965">
        <ele>84.4</ele>
        <time>2018-03-14T17:17:38Z</time>
      </trkpt>
      <trkpt lat="62.630816264294" lon="18.003417463542">
        <ele>84.4</ele>
        <time>2018-03-14T17:17:39Z</time>
      </trkpt>
      <trkpt lat="62.630823053633" lon="18.003379577354">
        <ele>84.4</ele>
        <time>2018-03-14T17:17:40Z</time>
      </trkpt>
      <trkpt lat="62.630817186303" lon="18.003302212417">
        <ele>84.4</ele>
        <time>2018-03-14T17:17:41Z</time>
      </trkpt>
      <trkpt lat="62.630823640366" lon="18.003242868565">
        <ele>84.6</ele>
        <time>2018-03-14T17:17:42Z</time>
      </trkpt>
      <trkpt lat="62.630821293434" lon="18.003203305997">
        <ele>84.8</ele>
        <time>2018-03-14T17:17:43Z</time>
      </trkpt>
      <trkpt lat="62.630824897651" lon="18.003153768968">
        <ele>85</ele>
        <time>2018-03-14T17:17:44Z</time>
      </trkpt>
      <trkpt lat="62.630829759153" lon="18.00307900242">
        <ele>85.2</ele>
        <time>2018-03-14T17:17:45Z</time>
      </trkpt>
      <trkpt lat="62.630829507696" lon="18.003034494531">
        <ele>85.4</ele>
        <time>2018-03-14T17:17:46Z</time>
      </trkpt>
      <trkpt lat="62.630832776637" lon="18.002990657194">
        <ele>85.4</ele>
        <time>2018-03-14T17:17:47Z</time>
      </trkpt>
      <trkpt lat="62.630836632311" lon="18.002950424074">
        <ele>85.6</ele>
        <time>2018-03-14T17:17:48Z</time>
      </trkpt>
      <trkpt lat="62.630837721958" lon="18.002894516801">
        <ele>85.6</ele>
        <time>2018-03-14T17:17:49Z</time>
      </trkpt>
      <trkpt lat="62.630836548492" lon="18.002831401094">
        <ele>85.8</ele>
        <time>2018-03-14T17:17:50Z</time>
      </trkpt>
      <trkpt lat="62.630837302863" lon="18.002789575413">
        <ele>85.8</ele>
        <time>2018-03-14T17:17:51Z</time>
      </trkpt>
      <trkpt lat="62.630837721958" lon="18.002722604032">
        <ele>86</ele>
        <time>2018-03-14T17:17:52Z</time>
      </trkpt>
      <trkpt lat="62.63083252518" lon="18.002664601284">
        <ele>86.2</ele>
        <time>2018-03-14T17:17:53Z</time>
      </trkpt>
      <trkpt lat="62.630829591515" lon="18.002618249377">
        <ele>86.2</ele>
        <time>2018-03-14T17:17:54Z</time>
      </trkpt>
      <trkpt lat="62.630830262067" lon="18.00257189747">
        <ele>86.2</ele>
        <time>2018-03-14T17:17:55Z</time>
      </trkpt>
      <trkpt lat="62.63082749604" lon="18.002500818958">
        <ele>86.2</ele>
        <time>2018-03-14T17:17:56Z</time>
      </trkpt>
      <trkpt lat="62.630822047805" lon="18.002458071268">
        <ele>86.4</ele>
        <time>2018-03-14T17:17:57Z</time>
      </trkpt>
      <trkpt lat="62.630817102484" lon="18.002421777641">
        <ele>86.4</ele>
        <time>2018-03-14T17:17:58Z</time>
      </trkpt>
      <trkpt lat="62.630815509923" lon="18.00235480626">
        <ele>86.6</ele>
        <time>2018-03-14T17:17:59Z</time>
      </trkpt>
      <trkpt lat="62.630807547118" lon="18.002304598679">
        <ele>86.8</ele>
        <time>2018-03-14T17:18:00Z</time>
      </trkpt>
      <trkpt lat="62.630808888222" lon="18.002266377215">
        <ele>86.8</ele>
        <time>2018-03-14T17:18:01Z</time>
      </trkpt>
      <trkpt lat="62.630798410847" lon="18.00221818129">
        <ele>86.8</ele>
        <time>2018-03-14T17:18:02Z</time>
      </trkpt>
      <trkpt lat="62.630802266521" lon="18.002141235448">
        <ele>87.2</ele>
        <time>2018-03-14T17:18:03Z</time>
      </trkpt>
      <trkpt lat="62.630798662304" lon="18.002106618201">
        <ele>87.2</ele>
        <time>2018-03-14T17:18:04Z</time>
      </trkpt>
      <trkpt lat="62.630796063915" lon="18.002077281551">
        <ele>87.4</ele>
        <time>2018-03-14T17:18:05Z</time>
      </trkpt>
      <trkpt lat="62.630785502721" lon="18.0019994137">
        <ele>87.4</ele>
        <time>2018-03-14T17:18:06Z</time>
      </trkpt>
      <trkpt lat="62.630758680641" lon="18.001963036254">
        <ele>87.8</ele>
        <time>2018-03-14T17:18:07Z</time>
      </trkpt>
      <trkpt lat="62.630760692297" lon="18.001916768166">
        <ele>87.8</ele>
        <time>2018-03-14T17:18:08Z</time>
      </trkpt>
      <trkpt lat="62.630760021745" lon="18.001854239192">
        <ele>88</ele>
        <time>2018-03-14T17:18:09Z</time>
      </trkpt>
      <trkpt lat="62.630752394216" lon="18.001811323864">
        <ele>88.2</ele>
        <time>2018-03-14T17:18:10Z</time>
      </trkpt>
      <trkpt lat="62.630755076424" lon="18.001739993895">
        <ele>88.2</ele>
        <time>2018-03-14T17:18:11Z</time>
      </trkpt>
      <trkpt lat="62.630755160243" lon="18.001672184324">
        <ele>88.2</ele>
        <time>2018-03-14T17:18:12Z</time>
      </trkpt>
      <trkpt lat="62.630753567682" lon="18.001640416923">
        <ele>88.2</ele>
        <time>2018-03-14T17:18:13Z</time>
      </trkpt>
      <trkpt lat="62.630753902958" lon="18.001598088328">
        <ele>88.2</ele>
        <time>2018-03-14T17:18:14Z</time>
      </trkpt>
      <trkpt lat="62.630753986777" lon="18.001517119174">
        <ele>88.4</ele>
        <time>2018-03-14T17:18:15Z</time>
      </trkpt>
      <trkpt lat="62.630742084479" lon="18.001497421709">
        <ele>88.4</ele>
        <time>2018-03-14T17:18:16Z</time>
      </trkpt>
      <trkpt lat="62.630739234633" lon="18.001430366509">
        <ele>88.4</ele>
        <time>2018-03-14T17:18:17Z</time>
      </trkpt>
      <trkpt lat="62.630729763086" lon="18.001361718748">
        <ele>88.4</ele>
        <time>2018-03-14T17:18:18Z</time>
      </trkpt>
      <trkpt lat="62.630722219376" lon="18.001328191148">
        <ele>88.6</ele>
        <time>2018-03-14T17:18:19Z</time>
      </trkpt>
      <trkpt lat="62.630718950435" lon="18.001273457341">
        <ele>88.6</ele>
        <time>2018-03-14T17:18:20Z</time>
      </trkpt>
      <trkpt lat="62.630716603503" lon="18.001190644169">
        <ele>88.6</ele>
        <time>2018-03-14T17:18:21Z</time>
      </trkpt>
      <trkpt lat="62.63071266401" lon="18.001152171248">
        <ele>88.8</ele>
        <time>2018-03-14T17:18:22Z</time>
      </trkpt>
      <trkpt lat="62.63070847306" lon="18.001109675015">
        <ele>88.8</ele>
        <time>2018-03-14T17:18:23Z</time>
      </trkpt>
      <trkpt lat="62.630699672065" lon="18.001043541824">
        <ele>88.8</ele>
        <time>2018-03-14T17:18:24Z</time>
      </trkpt>
      <trkpt lat="62.630687685948" lon="18.000999788306">
        <ele>89</ele>
        <time>2018-03-14T17:18:25Z</time>
      </trkpt>
      <trkpt lat="62.630683830274" lon="18.00095670534">
        <ele>89</ele>
        <time>2018-03-14T17:18:26Z</time>
      </trkpt>
      <trkpt lat="62.630676538021" lon="18.000884118086">
        <ele>89.2</ele>
        <time>2018-03-14T17:18:27Z</time>
      </trkpt>
      <trkpt lat="62.630663043162" lon="18.000845309889">
        <ele>89.2</ele>
        <time>2018-03-14T17:18:28Z</time>
      </trkpt>
      <trkpt lat="62.630659355126" lon="18.00080247838">
        <ele>89.2</ele>
        <time>2018-03-14T17:18:29Z</time>
      </trkpt>
      <trkpt lat="62.630642758964" lon="18.00073290861">
        <ele>89.2</ele>
        <time>2018-03-14T17:18:30Z</time>
      </trkpt>
      <trkpt lat="62.630640747308" lon="18.000709942204">
        <ele>89.4</ele>
        <time>2018-03-14T17:18:31Z</time>
      </trkpt>
      <trkpt lat="62.630629515562" lon="18.000655711311">
        <ele>89.4</ele>
        <time>2018-03-14T17:18:32Z</time>
      </trkpt>
      <trkpt lat="62.630617780902" lon="18.00059209269">
        <ele>89.4</ele>
        <time>2018-03-14T17:18:33Z</time>
      </trkpt>
      <trkpt lat="62.630600095093" lon="18.000561163479">
        <ele>89.6</ele>
        <time>2018-03-14T17:18:34Z</time>
      </trkpt>
      <trkpt lat="62.630593138116" lon="18.000504166559">
        <ele>89.6</ele>
        <time>2018-03-14T17:18:35Z</time>
      </trkpt>
      <trkpt lat="62.630581403456" lon="18.000424538509">
        <ele>89.8</ele>
        <time>2018-03-14T17:18:36Z</time>
      </trkpt>
      <trkpt lat="62.630569584977" lon="18.00039092709">
        <ele>89.8</ele>
        <time>2018-03-14T17:18:37Z</time>
      </trkpt>
      <trkpt lat="62.630559023783" lon="18.00035320854">
        <ele>89.8</ele>
        <time>2018-03-14T17:18:38Z</time>
      </trkpt>
      <trkpt lat="62.630541254155" lon="18.000299899656">
        <ele>89.8</ele>
        <time>2018-03-14T17:18:39Z</time>
      </trkpt>
      <trkpt lat="62.630524490355" lon="18.000261762011">
        <ele>90</ele>
        <time>2018-03-14T17:18:40Z</time>
      </trkpt>
      <trkpt lat="62.630518706844" lon="18.000214823371">
        <ele>90</ele>
        <time>2018-03-14T17:18:41Z</time>
      </trkpt>
      <trkpt lat="62.630502362139" lon="18.00014952837">
        <ele>90</ele>
        <time>2018-03-14T17:18:42Z</time>
      </trkpt>
      <trkpt lat="62.630491717126" lon="18.000100829531">
        <ele>90</ele>
        <time>2018-03-14T17:18:43Z</time>
      </trkpt>
      <trkpt lat="62.630487358538" lon="18.000073420718">
        <ele>90</ele>
        <time>2018-03-14T17:18:44Z</time>
      </trkpt>
      <trkpt lat="62.630472271118" lon="18.000009383002">
        <ele>90</ele>
        <time>2018-03-14T17:18:45Z</time>
      </trkpt>
      <trkpt lat="62.630458860078" lon="17.999947943675">
        <ele>90.2</ele>
        <time>2018-03-14T17:18:46Z</time>
      </trkpt>
      <trkpt lat="62.630447712151" lon="17.999913829342">
        <ele>90.4</ele>
        <time>2018-03-14T17:18:47Z</time>
      </trkpt>
      <trkpt lat="62.630434468749" lon="17.999860855734">
        <ele>90.4</ele>
        <time>2018-03-14T17:18:48Z</time>
      </trkpt>
      <trkpt lat="62.630417704949" lon="17.999808887954">
        <ele>90.6</ele>
        <time>2018-03-14T17:18:49Z</time>
      </trkpt>
      <trkpt lat="62.630409742144" lon="17.999762368409">
        <ele>90.8</ele>
        <time>2018-03-14T17:18:50Z</time>
      </trkpt>
      <trkpt lat="62.630395576733" lon="17.999725823325">
        <ele>90.8</ele>
        <time>2018-03-14T17:18:51Z</time>
      </trkpt>
      <trkpt lat="62.630380070218" lon="17.999659522496">
        <ele>91</ele>
        <time>2018-03-14T17:18:52Z</time>
      </trkpt>
      <trkpt lat="62.630376130725" lon="17.999601771205">
        <ele>91.2</ele>
        <time>2018-03-14T17:18:53Z</time>
      </trkpt>
      <trkpt lat="62.630356768536" lon="17.99956447175">
        <ele>91.2</ele>
        <time>2018-03-14T17:18:54Z</time>
      </trkpt>
      <trkpt lat="62.630339166546" lon="17.999505295536">
        <ele>91.4</ele>
        <time>2018-03-14T17:18:55Z</time>
      </trkpt>
      <trkpt lat="62.630324246764" lon="17.999450897005">
        <ele>91.4</ele>
        <time>2018-03-14T17:18:56Z</time>
      </trkpt>
      <trkpt lat="62.630314942855" lon="17.999419967794">
        <ele>91.6</ele>
        <time>2018-03-14T17:18:57Z</time>
      </trkpt>
      <trkpt lat="62.630298765788" lon="17.999355594802">
        <ele>91.6</ele>
        <time>2018-03-14T17:18:58Z</time>
      </trkpt>
      <trkpt lat="62.630293820467" lon="17.999296502407">
        <ele>91.8</ele>
        <time>2018-03-14T17:18:59Z</time>
      </trkpt>
      <trkpt lat="62.630284935653" lon="17.999271189069">
        <ele>91.8</ele>
        <time>2018-03-14T17:19:00Z</time>
      </trkpt>
      <trkpt lat="62.630267249844" lon="17.999192650666">
        <ele>91.8</ele>
        <time>2018-03-14T17:19:01Z</time>
      </trkpt>
      <trkpt lat="62.630258113573" lon="17.999135905203">
        <ele>91.8</ele>
        <time>2018-03-14T17:19:02Z</time>
      </trkpt>
      <trkpt lat="62.630250905139" lon="17.99910514363">
        <ele>92</ele>
        <time>2018-03-14T17:19:03Z</time>
      </trkpt>
      <trkpt lat="62.630241768868" lon="17.999025683218">
        <ele>92</ele>
        <time>2018-03-14T17:19:04Z</time>
      </trkpt>
      <trkpt lat="62.630235650081" lon="17.998960388217">
        <ele>92</ele>
        <time>2018-03-14T17:19:05Z</time>
      </trkpt>
      <trkpt lat="62.630230872398" lon="17.998925687151">
        <ele>92.2</ele>
        <time>2018-03-14T17:19:06Z</time>
      </trkpt>
      <trkpt lat="62.630227016724" lon="17.998851842612">
        <ele>92.2</ele>
        <time>2018-03-14T17:19:07Z</time>
      </trkpt>
      <trkpt lat="62.630227352" lon="17.998785122688">
        <ele>92.2</ele>
        <time>2018-03-14T17:19:08Z</time>
      </trkpt>
      <trkpt lat="62.630217461358" lon="17.998737764953">
        <ele>92.4</ele>
        <time>2018-03-14T17:19:09Z</time>
      </trkpt>
      <trkpt lat="62.630212599856" lon="17.998663752776">
        <ele>92.6</ele>
        <time>2018-03-14T17:19:10Z</time>
      </trkpt>
      <trkpt lat="62.63020388268" lon="17.998623519656">
        <ele>92.8</ele>
        <time>2018-03-14T17:19:11Z</time>
      </trkpt>
      <trkpt lat="62.630199104997" lon="17.998551183859">
        <ele>92.8</ele>
        <time>2018-03-14T17:19:12Z</time>
      </trkpt>
      <trkpt lat="62.630195919875" lon="17.998478680424">
        <ele>92.8</ele>
        <time>2018-03-14T17:19:13Z</time>
      </trkpt>
      <trkpt lat="62.630191812744" lon="17.998439704589">
        <ele>93</ele>
        <time>2018-03-14T17:19:14Z</time>
      </trkpt>
      <trkpt lat="62.630190890735" lon="17.998373487579">
        <ele>93</ele>
        <time>2018-03-14T17:19:15Z</time>
      </trkpt>
      <trkpt lat="62.630198685902" lon="17.998297463746">
        <ele>93</ele>
        <time>2018-03-14T17:19:16Z</time>
      </trkpt>
      <trkpt lat="62.630198434445" lon="17.998245663604">
        <ele>93</ele>
        <time>2018-03-14T17:19:17Z</time>
      </trkpt>
      <trkpt lat="62.630196758065" lon="17.998178356947">
        <ele>93</ele>
        <time>2018-03-14T17:19:18Z</time>
      </trkpt>
      <trkpt lat="62.630206061974" lon="17.998102333114">
        <ele>93</ele>
        <time>2018-03-14T17:19:19Z</time>
      </trkpt>
      <trkpt lat="62.630213438046" lon="17.998034858819">
        <ele>93.2</ele>
        <time>2018-03-14T17:19:20Z</time>
      </trkpt>
      <trkpt lat="62.63022819019" lon="17.997967887438">
        <ele>93.2</ele>
        <time>2018-03-14T17:19:21Z</time>
      </trkpt>
      <trkpt lat="62.630235063348" lon="17.997907034844">
        <ele>93</ele>
        <time>2018-03-14T17:19:22Z</time>
      </trkpt>
      <trkpt lat="62.630246546551" lon="17.997840817834">
        <ele>93</ele>
        <time>2018-03-14T17:19:23Z</time>
      </trkpt>
      <trkpt lat="62.630253587347" lon="17.997778540317">
        <ele>93</ele>
        <time>2018-03-14T17:19:24Z</time>
      </trkpt>
      <trkpt lat="62.630259873772" lon="17.997727913641">
        <ele>93.2</ele>
        <time>2018-03-14T17:19:25Z</time>
      </trkpt>
      <trkpt lat="62.630274374459" lon="17.99765088398">
        <ele>93.4</ele>
        <time>2018-03-14T17:19:26Z</time>
      </trkpt>
      <trkpt lat="62.630281582893" lon="17.997599251476">
        <ele>93.4</ele>
        <time>2018-03-14T17:19:27Z</time>
      </trkpt>
      <trkpt lat="62.630288875146" lon="17.997567148799">
        <ele>93.4</ele>
        <time>2018-03-14T17:19:28Z</time>
      </trkpt>
      <trkpt lat="62.630302537643" lon="17.997500261237">
        <ele>93.4</ele>
        <time>2018-03-14T17:19:29Z</time>
      </trkpt>
      <trkpt lat="62.630318044158" lon="17.997429937096">
        <ele>93.4</ele>
        <time>2018-03-14T17:19:30Z</time>
      </trkpt>
      <trkpt lat="62.630327180429" lon="17.997380316248">
        <ele>93.6</ele>
        <time>2018-03-14T17:19:31Z</time>
      </trkpt>
      <trkpt lat="62.630351907034" lon="17.997313261048">
        <ele>93.6</ele>
        <time>2018-03-14T17:19:32Z</time>
      </trkpt>
      <trkpt lat="62.630376633639" lon="17.99727956581">
        <ele>93.8</ele>
        <time>2018-03-14T17:19:33Z</time>
      </trkpt>
      <trkpt lat="62.630396079647" lon="17.99721837794">
        <ele>93.8</ele>
        <time>2018-03-14T17:19:34Z</time>
      </trkpt>
      <trkpt lat="62.630418040225" lon="17.997143695211">
        <ele>93.8</ele>
        <time>2018-03-14T17:19:35Z</time>
      </trkpt>
      <trkpt lat="62.630428769057" lon="17.997096337476">
        <ele>93.8</ele>
        <time>2018-03-14T17:19:36Z</time>
      </trkpt>
      <trkpt lat="62.630451735463" lon="17.997030791018">
        <ele>93.8</ele>
        <time>2018-03-14T17:19:37Z</time>
      </trkpt>
      <trkpt lat="62.630462799571" lon="17.99697781741">
        <ele>93.6</ele>
        <time>2018-03-14T17:19:38Z</time>
      </trkpt>
      <trkpt lat="62.630478138448" lon="17.996938590118">
        <ele>93.6</ele>
        <time>2018-03-14T17:19:39Z</time>
      </trkpt>
      <trkpt lat="62.630504122338" lon="17.996871954013">
        <ele>93.6</ele>
        <time>2018-03-14T17:19:40Z</time>
      </trkpt>
      <trkpt lat="62.630520467043" lon="17.996820740604">
        <ele>93.6</ele>
        <time>2018-03-14T17:19:41Z</time>
      </trkpt>
      <trkpt lat="62.630530860599" lon="17.996783776425">
        <ele>93.6</ele>
        <time>2018-03-14T17:19:42Z</time>
      </trkpt>
      <trkpt lat="62.630552988815" lon="17.996721247451">
        <ele>93.8</ele>
        <time>2018-03-14T17:19:43Z</time>
      </trkpt>
      <trkpt lat="62.630568076235" lon="17.996671291327">
        <ele>93.8</ele>
        <time>2018-03-14T17:19:44Z</time>
      </trkpt>
      <trkpt lat="62.630582074008" lon="17.996623346859">
        <ele>93.8</ele>
        <time>2018-03-14T17:19:45Z</time>
      </trkpt>
      <trkpt lat="62.630606130061" lon="17.9965595606">
        <ele>93.8</ele>
        <time>2018-03-14T17:19:46Z</time>
      </trkpt>
      <trkpt lat="62.630620044015" lon="17.996508179553">
        <ele>93.8</ele>
        <time>2018-03-14T17:19:47Z</time>
      </trkpt>
      <trkpt lat="62.630631946313" lon="17.996466856786">
        <ele>93.8</ele>
        <time>2018-03-14T17:19:48Z</time>
      </trkpt>
      <trkpt lat="62.630648877751" lon="17.996425953114">
        <ele>93.8</ele>
        <time>2018-03-14T17:19:49Z</time>
      </trkpt>
      <trkpt lat="62.630666144465" lon="17.99636258595">
        <ele>93.8</ele>
        <time>2018-03-14T17:19:50Z</time>
      </trkpt>
      <trkpt lat="62.630676789478" lon="17.996314976758">
        <ele>93.8</ele>
        <time>2018-03-14T17:19:51Z</time>
      </trkpt>
      <trkpt lat="62.630694894382" lon="17.996243060056">
        <ele>94</ele>
        <time>2018-03-14T17:19:52Z</time>
      </trkpt>
      <trkpt lat="62.630703360101" lon="17.996178100331">
        <ele>94.2</ele>
        <time>2018-03-14T17:19:53Z</time>
      </trkpt>
      <trkpt lat="62.630718196064" lon="17.996123282705">
        <ele>94.2</ele>
        <time>2018-03-14T17:19:54Z</time>
      </trkpt>
      <trkpt lat="62.630751807483" lon="17.996043906112">
        <ele>94.4</ele>
        <time>2018-03-14T17:19:55Z</time>
      </trkpt>
      <trkpt lat="62.630767649274" lon="17.995984226984">
        <ele>94.4</ele>
        <time>2018-03-14T17:19:56Z</time>
      </trkpt>
      <trkpt lat="62.630786592368" lon="17.995952040488">
        <ele>94.4</ele>
        <time>2018-03-14T17:19:57Z</time>
      </trkpt>
      <trkpt lat="62.630821963986" lon="17.995903760744">
        <ele>94.2</ele>
        <time>2018-03-14T17:19:58Z</time>
      </trkpt>
      <trkpt lat="62.630846858229" lon="17.99585631919">
        <ele>94.4</ele>
        <time>2018-03-14T17:19:59Z</time>
      </trkpt>
      <trkpt lat="62.630874518499" lon="17.995824551789">
        <ele>94.4</ele>
        <time>2018-03-14T17:20:00Z</time>
      </trkpt>
      <trkpt lat="62.630905782986" lon="17.995790688913">
        <ele>94.4</ele>
        <time>2018-03-14T17:20:01Z</time>
      </trkpt>
      <trkpt lat="62.630928162659" lon="17.9957632801">
        <ele>94.2</ele>
        <time>2018-03-14T17:20:02Z</time>
      </trkpt>
      <trkpt lat="62.630955068558" lon="17.995735955106">
        <ele>94.4</ele>
        <time>2018-03-14T17:20:03Z</time>
      </trkpt>
      <trkpt lat="62.63098675214" lon="17.995703852429">
        <ele>94.2</ele>
        <time>2018-03-14T17:20:04Z</time>
      </trkpt>
      <trkpt lat="62.631018854817" lon="17.995669738096">
        <ele>94.2</ele>
        <time>2018-03-14T17:20:05Z</time>
      </trkpt>
      <trkpt lat="62.631040731576" lon="17.995635959039">
        <ele>94.2</ele>
        <time>2018-03-14T17:20:06Z</time>
      </trkpt>
      <trkpt lat="62.631081383791" lon="17.995605951837">
        <ele>94.4</ele>
        <time>2018-03-14T17:20:07Z</time>
      </trkpt>
      <trkpt lat="62.631102087084" lon="17.995572927151">
        <ele>94.4</ele>
        <time>2018-03-14T17:20:08Z</time>
      </trkpt>
      <trkpt lat="62.631123963843" lon="17.99554954165">
        <ele>94.4</ele>
        <time>2018-03-14T17:20:09Z</time>
      </trkpt>
      <trkpt lat="62.631147097887" lon="17.995517774249">
        <ele>94.4</ele>
        <time>2018-03-14T17:20:10Z</time>
      </trkpt>
      <trkpt lat="62.631181631315" lon="17.995479888061">
        <ele>94.4</ele>
        <time>2018-03-14T17:20:11Z</time>
      </trkpt>
      <trkpt lat="62.631204178626" lon="17.995445941366">
        <ele>94.4</ele>
        <time>2018-03-14T17:20:12Z</time>
      </trkpt>
      <trkpt lat="62.6312247981" lon="17.995418029639">
        <ele>94.4</ele>
        <time>2018-03-14T17:20:13Z</time>
      </trkpt>
      <trkpt lat="62.631252290732" lon="17.995381149279">
        <ele>94.4</ele>
        <time>2018-03-14T17:20:14Z</time>
      </trkpt>
      <trkpt lat="62.631284393409" lon="17.99533245044">
        <ele>94.6</ele>
        <time>2018-03-14T17:20:15Z</time>
      </trkpt>
      <trkpt lat="62.631302833589" lon="17.995301940324">
        <ele>94.6</ele>
        <time>2018-03-14T17:20:16Z</time>
      </trkpt>
      <trkpt lat="62.631318759199" lon="17.995261958661">
        <ele>94.8</ele>
        <time>2018-03-14T17:20:17Z</time>
      </trkpt>
      <trkpt lat="62.63135136479" lon="17.995205213198">
        <ele>94.6</ele>
        <time>2018-03-14T17:20:18Z</time>
      </trkpt>
      <trkpt lat="62.631371732807" lon="17.995168668114">
        <ele>94.8</ele>
        <time>2018-03-14T17:20:19Z</time>
      </trkpt>
      <trkpt lat="62.631387155503" lon="17.995122651483">
        <ele>94.8</ele>
        <time>2018-03-14T17:20:20Z</time>
      </trkpt>
      <trkpt lat="62.63141674361" lon="17.99506171507">
        <ele>94.8</ele>
        <time>2018-03-14T17:20:21Z</time>
      </trkpt>
      <trkpt lat="62.631433172134" lon="17.995017542457">
        <ele>94.8</ele>
        <time>2018-03-14T17:20:22Z</time>
      </trkpt>
      <trkpt lat="62.631444990613" lon="17.994972364016">
        <ele>95</ele>
        <time>2018-03-14T17:20:23Z</time>
      </trkpt>
      <trkpt lat="62.63146116768" lon="17.994922240254">
        <ele>94.8</ele>
        <time>2018-03-14T17:20:24Z</time>
      </trkpt>
      <trkpt lat="62.631478685851" lon="17.994860633289">
        <ele>95</ele>
        <time>2018-03-14T17:20:25Z</time>
      </trkpt>
      <trkpt lat="62.631487654484" lon="17.99478008323">
        <ele>95</ele>
        <time>2018-03-14T17:20:26Z</time>
      </trkpt>
      <trkpt lat="62.631486900113" lon="17.994727361079">
        <ele>95</ele>
        <time>2018-03-14T17:20:27Z</time>
      </trkpt>
      <trkpt lat="62.631503580094" lon="17.99463256179">
        <ele>95.2</ele>
        <time>2018-03-14T17:20:28Z</time>
      </trkpt>
      <trkpt lat="62.631505172655" lon="17.994550251532">
        <ele>95.2</ele>
        <time>2018-03-14T17:20:29Z</time>
      </trkpt>
      <trkpt lat="62.631513470736" lon="17.994498619028">
        <ele>95.2</ele>
        <time>2018-03-14T17:20:30Z</time>
      </trkpt>
      <trkpt lat="62.631512967822" lon="17.994413123648">
        <ele>95.2</ele>
        <time>2018-03-14T17:20:31Z</time>
      </trkpt>
      <trkpt lat="62.63150056261" lon="17.994330142838">
        <ele>95.2</ele>
        <time>2018-03-14T17:20:32Z</time>
      </trkpt>
      <trkpt lat="62.631498215678" lon="17.994259064326">
        <ele>95</ele>
        <time>2018-03-14T17:20:33Z</time>
      </trkpt>
      <trkpt lat="62.631484720819" lon="17.994168288349">
        <ele>95.2</ele>
        <time>2018-03-14T17:20:34Z</time>
      </trkpt>
      <trkpt lat="62.631479775498" lon="17.994064185151">
        <ele>94.8</ele>
        <time>2018-03-14T17:20:35Z</time>
      </trkpt>
      <trkpt lat="62.631470303951" lon="17.993995453571">
        <ele>94.6</ele>
        <time>2018-03-14T17:20:36Z</time>
      </trkpt>
      <trkpt lat="62.631467789381" lon="17.993899732273">
        <ele>94.4</ele>
        <time>2018-03-14T17:20:37Z</time>
      </trkpt>
      <trkpt lat="62.631439207102" lon="17.993838460584">
        <ele>94.4</ele>
        <time>2018-03-14T17:20:38Z</time>
      </trkpt>
      <trkpt lat="62.631440799663" lon="17.993769058452">
        <ele>94</ele>
        <time>2018-03-14T17:20:39Z</time>
      </trkpt>
      <trkpt lat="62.631444655337" lon="17.993695633008">
        <ele>94</ele>
        <time>2018-03-14T17:20:40Z</time>
      </trkpt>
      <trkpt lat="62.631439542378" lon="17.993638636088">
        <ele>94</ele>
        <time>2018-03-14T17:20:41Z</time>
      </trkpt>
      <trkpt lat="62.631442811319" lon="17.993545094084">
        <ele>94</ele>
        <time>2018-03-14T17:20:42Z</time>
      </trkpt>
      <trkpt lat="62.631457647282" lon="17.993464711663">
        <ele>93.8</ele>
        <time>2018-03-14T17:20:43Z</time>
      </trkpt>
      <trkpt lat="62.631453037237" lon="17.993415006996">
        <ele>93.8</ele>
        <time>2018-03-14T17:20:44Z</time>
      </trkpt>
      <trkpt lat="62.631458820748" lon="17.993308892142">
        <ele>93.6</ele>
        <time>2018-03-14T17:20:45Z</time>
      </trkpt>
      <trkpt lat="62.63144608026" lon="17.993239825286">
        <ele>93.4</ele>
        <time>2018-03-14T17:20:46Z</time>
      </trkpt>
      <trkpt lat="62.631463849888" lon="17.993140332133">
        <ele>93.4</ele>
        <time>2018-03-14T17:20:47Z</time>
      </trkpt>
      <trkpt lat="62.6314762551" lon="17.993045532844">
        <ele>93.4</ele>
        <time>2018-03-14T17:20:48Z</time>
      </trkpt>
      <trkpt lat="62.631481368059" lon="17.992978896739">
        <ele>93.4</ele>
        <time>2018-03-14T17:20:49Z</time>
      </trkpt>
      <trkpt lat="62.63149888623" lon="17.992877811025">
        <ele>93.2</ele>
        <time>2018-03-14T17:20:50Z</time>
      </trkpt>
      <trkpt lat="62.63151062089" lon="17.992796506595">
        <ele>93.2</ele>
        <time>2018-03-14T17:20:51Z</time>
      </trkpt>
      <trkpt lat="62.631515566211" lon="17.992734564354">
        <ele>93</ele>
        <time>2018-03-14T17:20:52Z</time>
      </trkpt>
      <trkpt lat="62.631520260075" lon="17.992667760611">
        <ele>92.8</ele>
        <time>2018-03-14T17:20:53Z</time>
      </trkpt>
      <trkpt lat="62.631533419658" lon="17.992626437844">
        <ele>92.8</ele>
        <time>2018-03-14T17:20:54Z</time>
      </trkpt>
      <trkpt lat="62.63155253039" lon="17.992534404582">
        <ele>92.6</ele>
        <time>2018-03-14T17:20:55Z</time>
      </trkpt>
      <trkpt lat="62.631574826244" lon="17.992473216712">
        <ele>92.8</ele>
        <time>2018-03-14T17:20:56Z</time>
      </trkpt>
      <trkpt lat="62.631602486514" lon="17.99243398942">
        <ele>92.8</ele>
        <time>2018-03-14T17:20:57Z</time>
      </trkpt>
      <trkpt lat="62.631622435436" lon="17.992383949477">
        <ele>93</ele>
        <time>2018-03-14T17:20:58Z</time>
      </trkpt>
      <trkpt lat="62.631657639416" lon="17.992359893424">
        <ele>93</ele>
        <time>2018-03-14T17:20:59Z</time>
      </trkpt>
      <trkpt lat="62.631697956355" lon="17.992334496267">
        <ele>92.8</ele>
        <time>2018-03-14T17:21:00Z</time>
      </trkpt>
      <trkpt lat="62.631726119539" lon="17.99230658454">
        <ele>92.8</ele>
        <time>2018-03-14T17:21:01Z</time>
      </trkpt>
      <trkpt lat="62.631765346831" lon="17.992289653102">
        <ele>92.6</ele>
        <time>2018-03-14T17:21:02Z</time>
      </trkpt>
      <trkpt lat="62.631786553038" lon="17.992274565682">
        <ele>92.4</ele>
        <time>2018-03-14T17:21:03Z</time>
      </trkpt>
      <trkpt lat="62.63181404567" lon="17.992288060541">
        <ele>92.6</ele>
        <time>2018-03-14T17:21:04Z</time>
      </trkpt>
      <trkpt lat="62.631841622121" lon="17.992277583166">
        <ele>92.6</ele>
        <time>2018-03-14T17:21:05Z</time>
      </trkpt>
      <trkpt lat="62.631871377866" lon="17.992261825194">
        <ele>92.6</ele>
        <time>2018-03-14T17:21:06Z</time>
      </trkpt>
      <trkpt lat="62.631887471114" lon="17.992257466606">
        <ele>92.8</ele>
        <time>2018-03-14T17:21:07Z</time>
      </trkpt>
      <trkpt lat="62.631901133611" lon="17.992236511856">
        <ele>93</ele>
        <time>2018-03-14T17:21:08Z</time>
      </trkpt>
      <trkpt lat="62.631928710062" lon="17.99223198563">
        <ele>93.2</ele>
        <time>2018-03-14T17:21:09Z</time>
      </trkpt>
      <trkpt lat="62.631948407527" lon="17.99221941278">
        <ele>93.2</ele>
        <time>2018-03-14T17:21:10Z</time>
      </trkpt>
      <trkpt lat="62.631965841879" lon="17.992205750283">
        <ele>93.2</ele>
        <time>2018-03-14T17:21:11Z</time>
      </trkpt>
      <trkpt lat="62.631986964267" lon="17.992200050591">
        <ele>93.6</ele>
        <time>2018-03-14T17:21:12Z</time>
      </trkpt>
      <trkpt lat="62.632022922618" lon="17.992204157722">
        <ele>93.6</ele>
        <time>2018-03-14T17:21:13Z</time>
      </trkpt>
      <trkpt lat="62.632043961187" lon="17.992187393922">
        <ele>93.8</ele>
        <time>2018-03-14T17:21:14Z</time>
      </trkpt>
      <trkpt lat="62.632066173222" lon="17.992163505507">
        <ele>94</ele>
        <time>2018-03-14T17:21:15Z</time>
      </trkpt>
      <trkpt lat="62.632086960334" lon="17.992159314557">
        <ele>94</ele>
        <time>2018-03-14T17:21:16Z</time>
      </trkpt>
      <trkpt lat="62.63212585235" lon="17.992137018703">
        <ele>94</ele>
        <time>2018-03-14T17:21:17Z</time>
      </trkpt>
      <trkpt lat="62.632150830412" lon="17.992124110577">
        <ele>94.2</ele>
        <time>2018-03-14T17:21:18Z</time>
      </trkpt>
      <trkpt lat="62.632170024963" lon="17.992110950994">
        <ele>94.2</ele>
        <time>2018-03-14T17:21:19Z</time>
      </trkpt>
      <trkpt lat="62.632207659694" lon="17.992095444479">
        <ele>94.2</ele>
        <time>2018-03-14T17:21:20Z</time>
      </trkpt>
      <trkpt lat="62.632227357159" lon="17.9920668622">
        <ele>94.4</ele>
        <time>2018-03-14T17:21:21Z</time>
      </trkpt>
      <trkpt lat="62.632243953321" lon="17.992057055377">
        <ele>94.4</ele>
        <time>2018-03-14T17:21:22Z</time>
      </trkpt>
      <trkpt lat="62.632282342423" lon="17.99203836374">
        <ele>94.4</ele>
        <time>2018-03-14T17:21:23Z</time>
      </trkpt>
      <trkpt lat="62.632314780376" lon="17.992015062058">
        <ele>94.4</ele>
        <time>2018-03-14T17:21:24Z</time>
      </trkpt>
      <trkpt lat="62.632346380139" lon="17.991994274946">
        <ele>94.4</ele>
        <time>2018-03-14T17:21:25Z</time>
      </trkpt>
      <trkpt lat="62.632385104517" lon="17.991959992975">
        <ele>94.4</ele>
        <time>2018-03-14T17:21:26Z</time>
      </trkpt>
      <trkpt lat="62.6323982641" lon="17.991950437609">
        <ele>94.4</ele>
        <time>2018-03-14T17:21:27Z</time>
      </trkpt>
      <trkpt lat="62.632436988478" lon="17.991939373501">
        <ele>94.2</ele>
        <time>2018-03-14T17:21:28Z</time>
      </trkpt>
      <trkpt lat="62.632467917689" lon="17.991913808706">
        <ele>94.4</ele>
        <time>2018-03-14T17:21:29Z</time>
      </trkpt>
      <trkpt lat="62.632502702574" lon="17.991888160092">
        <ele>94.2</ele>
        <time>2018-03-14T17:21:30Z</time>
      </trkpt>
      <trkpt lat="62.632534721432" lon="17.991891009938">
        <ele>94.2</ele>
        <time>2018-03-14T17:21:31Z</time>
      </trkpt>
      <trkpt lat="62.632564980091" lon="17.991869719912">
        <ele>94</ele>
        <time>2018-03-14T17:21:32Z</time>
      </trkpt>
      <trkpt lat="62.632588700868" lon="17.991872653577">
        <ele>94</ele>
        <time>2018-03-14T17:21:33Z</time>
      </trkpt>
      <trkpt lat="62.632601441356" lon="17.991843568384">
        <ele>94</ele>
        <time>2018-03-14T17:21:34Z</time>
      </trkpt>
      <trkpt lat="62.632607979238" lon="17.991816746304">
        <ele>93.8</ele>
        <time>2018-03-14T17:21:35Z</time>
      </trkpt>
      <trkpt lat="62.632618456613" lon="17.991752708588">
        <ele>94</ele>
        <time>2018-03-14T17:21:36Z</time>
      </trkpt>
      <trkpt lat="62.632627844341" lon="17.99169470584">
        <ele>94</ele>
        <time>2018-03-14T17:21:37Z</time>
      </trkpt>
      <trkpt lat="62.632634382223" lon="17.991637625101">
        <ele>94</ele>
        <time>2018-03-14T17:21:38Z</time>
      </trkpt>
      <trkpt lat="62.632648296177" lon="17.991597978714">
        <ele>94</ele>
        <time>2018-03-14T17:21:39Z</time>
      </trkpt>
      <trkpt lat="62.632658103" lon="17.991564870209">
        <ele>94</ele>
        <time>2018-03-14T17:21:40Z</time>
      </trkpt>
      <trkpt lat="62.632674196248" lon="17.991529330953">
        <ele>93.8</ele>
        <time>2018-03-14T17:21:41Z</time>
      </trkpt>
      <trkpt lat="62.632700263957" lon="17.991493707878">
        <ele>93.8</ele>
        <time>2018-03-14T17:21:42Z</time>
      </trkpt>
      <trkpt lat="62.632716021929" lon="17.991431095085">
        <ele>93.8</ele>
        <time>2018-03-14T17:21:43Z</time>
      </trkpt>
      <trkpt lat="62.632724487648" lon="17.991412319629">
        <ele>93.6</ele>
        <time>2018-03-14T17:21:44Z</time>
      </trkpt>
      <trkpt lat="62.632755416859" lon="17.991341492574">
        <ele>93.8</ele>
        <time>2018-03-14T17:21:45Z</time>
      </trkpt>
      <trkpt lat="62.632774359953" lon="17.991285250025">
        <ele>93.6</ele>
        <time>2018-03-14T17:21:46Z</time>
      </trkpt>
      <trkpt lat="62.632788693002" lon="17.991252812072">
        <ele>93.6</ele>
        <time>2018-03-14T17:21:47Z</time>
      </trkpt>
      <trkpt lat="62.632818951661" lon="17.991202772129">
        <ele>93.6</ele>
        <time>2018-03-14T17:21:48Z</time>
      </trkpt>
      <trkpt lat="62.632845941379" lon="17.99113060397">
        <ele>93.6</ele>
        <time>2018-03-14T17:21:49Z</time>
      </trkpt>
      <trkpt lat="62.632866896129" lon="17.991089365022">
        <ele>93.6</ele>
        <time>2018-03-14T17:21:50Z</time>
      </trkpt>
      <trkpt lat="62.632885671585" lon="17.991009317877">
        <ele>93.4</ele>
        <time>2018-03-14T17:21:51Z</time>
      </trkpt>
      <trkpt lat="62.632893047657" lon="17.990966067273">
        <ele>93.6</ele>
        <time>2018-03-14T17:21:52Z</time>
      </trkpt>
      <trkpt lat="62.632919702099" lon="17.990898676797">
        <ele>93.6</ele>
        <time>2018-03-14T17:21:53Z</time>
      </trkpt>
      <trkpt lat="62.632934538062" lon="17.99084897213">
        <ele>93.6</ele>
        <time>2018-03-14T17:21:54Z</time>
      </trkpt>
      <trkpt lat="62.632945350713" lon="17.990799686558">
        <ele>93.6</ele>
        <time>2018-03-14T17:21:55Z</time>
      </trkpt>
      <trkpt lat="62.632967646567" lon="17.990733972462">
        <ele>93.6</ele>
        <time>2018-03-14T17:21:56Z</time>
      </trkpt>
      <trkpt lat="62.632973932992" lon="17.990688291107">
        <ele>93.8</ele>
        <time>2018-03-14T17:21:57Z</time>
      </trkpt>
      <trkpt lat="62.632990948249" lon="17.990644537589">
        <ele>93.6</ele>
        <time>2018-03-14T17:21:58Z</time>
      </trkpt>
      <trkpt lat="62.633008969334" lon="17.990596006388">
        <ele>93.6</ele>
        <time>2018-03-14T17:21:59Z</time>
      </trkpt>
      <trkpt lat="62.633019865804" lon="17.990546301721">
        <ele>93.6</ele>
        <time>2018-03-14T17:22:00Z</time>
      </trkpt>
      <trkpt lat="62.633039730907" lon="17.990511349198">
        <ele>93.6</ele>
        <time>2018-03-14T17:22:01Z</time>
      </trkpt>
      <trkpt lat="62.633072420317" lon="17.99047094844">
        <ele>93.4</ele>
        <time>2018-03-14T17:22:02Z</time>
      </trkpt>
      <trkpt lat="62.63309060904" lon="17.990419902669">
        <ele>93.6</ele>
        <time>2018-03-14T17:22:03Z</time>
      </trkpt>
      <trkpt lat="62.633107037564" lon="17.990398947919">
        <ele>93.4</ele>
        <time>2018-03-14T17:22:04Z</time>
      </trkpt>
      <trkpt lat="62.63314257682" lon="17.990367431975">
        <ele>93.4</ele>
        <time>2018-03-14T17:22:05Z</time>
      </trkpt>
      <trkpt lat="62.633169315081" lon="17.990342873008">
        <ele>93.4</ele>
        <time>2018-03-14T17:22:06Z</time>
      </trkpt>
      <trkpt lat="62.633191108021" lon="17.990317643489">
        <ele>93.4</ele>
        <time>2018-03-14T17:22:07Z</time>
      </trkpt>
      <trkpt lat="62.633224635621" lon="17.990309261589">
        <ele>93.4</ele>
        <time>2018-03-14T17:22:08Z</time>
      </trkpt>
      <trkpt lat="62.633258414678" lon="17.990298197481">
        <ele>93.6</ele>
        <time>2018-03-14T17:22:09Z</time>
      </trkpt>
      <trkpt lat="62.633281632541" lon="17.990280176396">
        <ele>93.6</ele>
        <time>2018-03-14T17:22:10Z</time>
      </trkpt>
      <trkpt lat="62.633309460449" lon="17.990270788668">
        <ele>93.6</ele>
        <time>2018-03-14T17:22:11Z</time>
      </trkpt>
      <trkpt lat="62.633340473479" lon="17.990248492814">
        <ele>93.6</ele>
        <time>2018-03-14T17:22:12Z</time>
      </trkpt>
      <trkpt lat="62.633372576156" lon="17.990219156164">
        <ele>93.6</ele>
        <time>2018-03-14T17:22:13Z</time>
      </trkpt>
      <trkpt lat="62.633387495938" lon="17.990174480637">
        <ele>93.6</ele>
        <time>2018-03-14T17:22:14Z</time>
      </trkpt>
      <trkpt lat="62.633423957203" lon="17.990146736548">
        <ele>93.6</ele>
        <time>2018-03-14T17:22:15Z</time>
      </trkpt>
      <trkpt lat="62.633457652441" lon="17.990117818993">
        <ele>93.6</ele>
        <time>2018-03-14T17:22:16Z</time>
      </trkpt>
      <trkpt lat="62.63348120558" lon="17.990060989711">
        <ele>93.6</ele>
        <time>2018-03-14T17:22:17Z</time>
      </trkpt>
      <trkpt lat="62.63351640956" lon="17.990014386347">
        <ele>93.8</ele>
        <time>2018-03-14T17:22:18Z</time>
      </trkpt>
      <trkpt lat="62.633532083713" lon="17.989951605916">
        <ele>93.8</ele>
        <time>2018-03-14T17:22:19Z</time>
      </trkpt>
      <trkpt lat="62.633555469214" lon="17.989872648418">
        <ele>93.6</ele>
        <time>2018-03-14T17:22:20Z</time>
      </trkpt>
      <trkpt lat="62.633589415909" lon="17.989795618757">
        <ele>93.6</ele>
        <time>2018-03-14T17:22:21Z</time>
      </trkpt>
      <trkpt lat="62.633597965447" lon="17.989745746452">
        <ele>93.6</ele>
        <time>2018-03-14T17:22:22Z</time>
      </trkpt>
      <trkpt lat="62.633633420884" lon="17.989672656284">
        <ele>93.4</ele>
        <time>2018-03-14T17:22:23Z</time>
      </trkpt>
      <trkpt lat="62.633652447797" lon="17.989618676848">
        <ele>93.2</ele>
        <time>2018-03-14T17:22:24Z</time>
      </trkpt>
      <trkpt lat="62.633677677316" lon="17.989555477322">
        <ele>93</ele>
        <time>2018-03-14T17:22:25Z</time>
      </trkpt>
      <trkpt lat="62.633707600699" lon="17.989504766827">
        <ele>92.8</ele>
        <time>2018-03-14T17:22:26Z</time>
      </trkpt>
      <trkpt lat="62.633734925693" lon="17.989476268367">
        <ele>92.8</ele>
        <time>2018-03-14T17:22:27Z</time>
      </trkpt>
      <trkpt lat="62.633761412497" lon="17.989443662776">
        <ele>92.8</ele>
        <time>2018-03-14T17:22:28Z</time>
      </trkpt>
      <trkpt lat="62.633795275373" lon="17.989425138777">
        <ele>92.6</ele>
        <time>2018-03-14T17:22:29Z</time>
      </trkpt>
      <trkpt lat="62.633815727209" lon="17.98940057981">
        <ele>92.6</ele>
        <time>2018-03-14T17:22:30Z</time>
      </trkpt>
      <trkpt lat="62.633848584257" lon="17.989371913712">
        <ele>92.8</ele>
        <time>2018-03-14T17:22:31Z</time>
      </trkpt>
      <trkpt lat="62.633866437704" lon="17.989340649225">
        <ele>92.6</ele>
        <time>2018-03-14T17:22:32Z</time>
      </trkpt>
      <trkpt lat="62.633914801267" lon="17.989301338114">
        <ele>92.8</ele>
        <time>2018-03-14T17:22:33Z</time>
      </trkpt>
      <trkpt lat="62.633933325266" lon="17.989247861592">
        <ele>92.8</ele>
        <time>2018-03-14T17:22:34Z</time>
      </trkpt>
      <trkpt lat="62.633988813444" lon="17.989202264056">
        <ele>92.6</ele>
        <time>2018-03-14T17:22:35Z</time>
      </trkpt>
      <trkpt lat="62.634023346872" lon="17.989144345127">
        <ele>92.6</ele>
        <time>2018-03-14T17:22:36Z</time>
      </trkpt>
      <trkpt lat="62.634041787052" lon="17.989087767302">
        <ele>92.4</ele>
        <time>2018-03-14T17:22:37Z</time>
      </trkpt>
      <trkpt lat="62.634089647701" lon="17.989042840318">
        <ele>92.4</ele>
        <time>2018-03-14T17:22:38Z</time>
      </trkpt>
      <trkpt lat="62.634125857509" lon="17.989017191704">
        <ele>92</ele>
        <time>2018-03-14T17:22:39Z</time>
      </trkpt>
      <trkpt lat="62.634162402593" lon="17.988962709354">
        <ele>91.6</ele>
        <time>2018-03-14T17:22:40Z</time>
      </trkpt>
      <trkpt lat="62.634192661252" lon="17.988894480688">
        <ele>91.6</ele>
        <time>2018-03-14T17:22:41Z</time>
      </trkpt>
      <trkpt lat="62.634208503043" lon="17.988832538447">
        <ele>91.2</ele>
        <time>2018-03-14T17:22:42Z</time>
      </trkpt>
      <trkpt lat="62.634228954879" lon="17.98878367197">
        <ele>91</ele>
        <time>2018-03-14T17:22:43Z</time>
      </trkpt>
      <trkpt lat="62.634261979565" lon="17.988721478272">
        <ele>90.8</ele>
        <time>2018-03-14T17:22:44Z</time>
      </trkpt>
      <trkpt lat="62.634281090297" lon="17.988652495235">
        <ele>90.8</ele>
        <time>2018-03-14T17:22:45Z</time>
      </trkpt>
      <trkpt lat="62.634307409463" lon="17.988611088649">
        <ele>90.8</ele>
        <time>2018-03-14T17:22:46Z</time>
      </trkpt>
      <trkpt lat="62.634351414438" lon="17.988550236055">
        <ele>90.8</ele>
        <time>2018-03-14T17:22:47Z</time>
      </trkpt>
      <trkpt lat="62.634377314509" lon="17.988501621035">
        <ele>90.6</ele>
        <time>2018-03-14T17:22:48Z</time>
      </trkpt>
      <trkpt lat="62.634417547629" lon="17.988487455624">
        <ele>90.6</ele>
        <time>2018-03-14T17:22:49Z</time>
      </trkpt>
      <trkpt lat="62.63446272607" lon="17.988450826721">
        <ele>90.4</ele>
        <time>2018-03-14T17:22:50Z</time>
      </trkpt>
      <trkpt lat="62.634503294466" lon="17.988428782324">
        <ele>90</ele>
        <time>2018-03-14T17:22:51Z</time>
      </trkpt>
      <trkpt lat="62.634548305269" lon="17.988414533094">
        <ele>90</ele>
        <time>2018-03-14T17:22:52Z</time>
      </trkpt>
      <trkpt lat="62.634591136778" lon="17.988389471213">
        <ele>89.8</ele>
        <time>2018-03-14T17:22:53Z</time>
      </trkpt>
      <trkpt lat="62.634634974115" lon="17.988373545603">
        <ele>89.6</ele>
        <time>2018-03-14T17:22:54Z</time>
      </trkpt>
      <trkpt lat="62.634682080393" lon="17.988318560339">
        <ele>89.6</ele>
        <time>2018-03-14T17:22:55Z</time>
      </trkpt>
      <trkpt lat="62.634709237749" lon="17.988285703291">
        <ele>89.4</ele>
        <time>2018-03-14T17:22:56Z</time>
      </trkpt>
      <trkpt lat="62.63475190162" lon="17.988260976686">
        <ele>89.2</ele>
        <time>2018-03-14T17:22:57Z</time>
      </trkpt>
      <trkpt lat="62.634788865799" lon="17.988252678605">
        <ele>89</ele>
        <time>2018-03-14T17:22:58Z</time>
      </trkpt>
      <trkpt lat="62.63483069148" lon="17.988228371095">
        <ele>88.8</ele>
        <time>2018-03-14T17:22:59Z</time>
      </trkpt>
      <trkpt lat="62.634870421686" lon="17.988187048328">
        <ele>88.6</ele>
        <time>2018-03-14T17:23:00Z</time>
      </trkpt>
      <trkpt lat="62.634897998137" lon="17.988160226248">
        <ele>88.2</ele>
        <time>2018-03-14T17:23:01Z</time>
      </trkpt>
      <trkpt lat="62.634926915692" lon="17.988084789148">
        <ele>88</ele>
        <time>2018-03-14T17:23:02Z</time>
      </trkpt>
      <trkpt lat="62.634946445519" lon="17.98802846278">
        <ele>87.8</ele>
        <time>2018-03-14T17:23:03Z</time>
      </trkpt>
      <trkpt lat="62.634970250115" lon="17.98797230405">
        <ele>87.6</ele>
        <time>2018-03-14T17:23:04Z</time>
      </trkpt>
      <trkpt lat="62.634983409698" lon="17.987891921629">
        <ele>87.4</ele>
        <time>2018-03-14T17:23:05Z</time>
      </trkpt>
      <trkpt lat="62.635004532086" lon="17.98783232632">
        <ele>87.2</ele>
        <time>2018-03-14T17:23:06Z</time>
      </trkpt>
      <trkpt lat="62.635017440212" lon="17.987759906704">
        <ele>86.8</ele>
        <time>2018-03-14T17:23:07Z</time>
      </trkpt>
      <trkpt lat="62.635028923415" lon="17.987707100734">
        <ele>86.6</ele>
        <time>2018-03-14T17:23:08Z</time>
      </trkpt>
      <trkpt lat="62.635040155161" lon="17.987653121298">
        <ele>86.4</ele>
        <time>2018-03-14T17:23:09Z</time>
      </trkpt>
      <trkpt lat="62.635047112138" lon="17.987602159346">
        <ele>86.4</ele>
        <time>2018-03-14T17:23:10Z</time>
      </trkpt>
      <trkpt lat="62.635039987523" lon="17.987563686425">
        <ele>86.4</ele>
        <time>2018-03-14T17:23:11Z</time>
      </trkpt>
      <trkpt lat="62.635015763832" lon="17.987542731675">
        <ele>86.4</ele>
        <time>2018-03-14T17:23:12Z</time>
      </trkpt>
      <trkpt lat="62.63499749129" lon="17.987543821322">
        <ele>86.4</ele>
        <time>2018-03-14T17:23:13Z</time>
      </trkpt>
      <trkpt lat="62.63498743301" lon="17.987567709737">
        <ele>86.4</ele>
        <time>2018-03-14T17:23:14Z</time>
      </trkpt>
      <trkpt lat="62.634979721662" lon="17.987581958967">
        <ele>86.4</ele>
        <time>2018-03-14T17:23:15Z</time>
      </trkpt>
      <trkpt lat="62.634954995057" lon="17.987629735797">
        <ele>86.2</ele>
        <time>2018-03-14T17:23:16Z</time>
      </trkpt>
      <trkpt lat="62.63492875971" lon="17.987679356645">
        <ele>86.2</ele>
        <time>2018-03-14T17:23:17Z</time>
      </trkpt>
      <trkpt lat="62.634904703657" lon="17.98771749429">
        <ele>86.2</ele>
        <time>2018-03-14T17:23:18Z</time>
      </trkpt>
      <trkpt lat="62.634889783875" lon="17.987747752949">
        <ele>86.2</ele>
        <time>2018-03-14T17:23:19Z</time>
      </trkpt>
      <trkpt lat="62.634868996763" lon="17.987792344657">
        <ele>86.2</ele>
        <time>2018-03-14T17:23:20Z</time>
      </trkpt>
      <trkpt lat="62.634846784728" lon="17.98783064994">
        <ele>86.2</ele>
        <time>2018-03-14T17:23:21Z</time>
      </trkpt>
      <trkpt lat="62.634831278213" lon="17.987863758445">
        <ele>86</ele>
        <time>2018-03-14T17:23:22Z</time>
      </trkpt>
      <trkpt lat="62.634816274612" lon="17.987894855294">
        <ele>86</ele>
        <time>2018-03-14T17:23:23Z</time>
      </trkpt>
      <trkpt lat="62.634795990414" lon="17.987916815872">
        <ele>86.2</ele>
        <time>2018-03-14T17:23:24Z</time>
      </trkpt>
      <trkpt lat="62.634770760895" lon="17.987944727599">
        <ele>86.2</ele>
        <time>2018-03-14T17:23:25Z</time>
      </trkpt>
      <trkpt lat="62.634752320715" lon="17.987971717317">
        <ele>86.4</ele>
        <time>2018-03-14T17:23:26Z</time>
      </trkpt>
      <trkpt lat="62.634745782833" lon="17.987996695379">
        <ele>86.4</ele>
        <time>2018-03-14T17:23:27Z</time>
      </trkpt>
      <trkpt lat="62.634725498635" lon="17.988015973749">
        <ele>86.6</ele>
        <time>2018-03-14T17:23:28Z</time>
      </trkpt>
      <trkpt lat="62.634703705695" lon="17.98803600649">
        <ele>86.8</ele>
        <time>2018-03-14T17:23:29Z</time>
      </trkpt>
      <trkpt lat="62.634690294655" lon="17.988059308172">
        <ele>86.8</ele>
        <time>2018-03-14T17:23:30Z</time>
      </trkpt>
      <trkpt lat="62.634670681009" lon="17.988073557402">
        <ele>87</ele>
        <time>2018-03-14T17:23:31Z</time>
      </trkpt>
      <trkpt lat="62.634638326875" lon="17.988092081401">
        <ele>87</ele>
        <time>2018-03-14T17:23:32Z</time>
      </trkpt>
      <trkpt lat="62.634626759853" lon="17.988098703102">
        <ele>87.2</ele>
        <time>2018-03-14T17:23:33Z</time>
      </trkpt>
      <trkpt lat="62.6346110857" lon="17.988105492441">
        <ele>87.2</ele>
        <time>2018-03-14T17:23:34Z</time>
      </trkpt>
      <trkpt lat="62.634588873665" lon="17.988110689219">
        <ele>87.4</ele>
        <time>2018-03-14T17:23:35Z</time>
      </trkpt>
      <trkpt lat="62.634572780417" lon="17.988116221273">
        <ele>87.2</ele>
        <time>2018-03-14T17:23:36Z</time>
      </trkpt>
      <trkpt lat="62.634554759332" lon="17.988129380856">
        <ele>87.4</ele>
        <time>2018-03-14T17:23:37Z</time>
      </trkpt>
      <trkpt lat="62.634527099062" lon="17.988135164367">
        <ele>87.6</ele>
        <time>2018-03-14T17:23:38Z</time>
      </trkpt>
      <trkpt lat="62.634507736873" lon="17.988141953706">
        <ele>87.6</ele>
        <time>2018-03-14T17:23:39Z</time>
      </trkpt>
      <trkpt lat="62.63449541548" lon="17.988159723334">
        <ele>87.8</ele>
        <time>2018-03-14T17:23:40Z</time>
      </trkpt>
      <trkpt lat="62.634469012495" lon="17.988163579008">
        <ele>87.6</ele>
        <time>2018-03-14T17:23:41Z</time>
      </trkpt>
      <trkpt lat="62.634447554831" lon="17.988164920112">
        <ele>87.8</ele>
        <time>2018-03-14T17:23:42Z</time>
      </trkpt>
      <trkpt lat="62.634432132135" lon="17.98817598422">
        <ele>88</ele>
        <time>2018-03-14T17:23:43Z</time>
      </trkpt>
      <trkpt lat="62.63439902363" lon="17.988193083296">
        <ele>88</ele>
        <time>2018-03-14T17:23:44Z</time>
      </trkpt>
      <trkpt lat="62.634357365587" lon="17.988191239278">
        <ele>88</ele>
        <time>2018-03-14T17:23:45Z</time>
      </trkpt>
      <trkpt lat="62.63433783576" lon="17.988183025016">
        <ele>88.2</ele>
        <time>2018-03-14T17:23:46Z</time>
      </trkpt>
      <trkpt lat="62.634313192974" lon="17.988199202083">
        <ele>88.4</ele>
        <time>2018-03-14T17:23:47Z</time>
      </trkpt>
      <trkpt lat="62.634277234623" lon="17.988194340581">
        <ele>88.4</ele>
        <time>2018-03-14T17:23:48Z</time>
      </trkpt>
      <trkpt lat="62.634255860778" lon="17.988192580382">
        <ele>88.6</ele>
        <time>2018-03-14T17:23:49Z</time>
      </trkpt>
      <trkpt lat="62.634235157485" lon="17.988195849323">
        <ele>88.8</ele>
        <time>2018-03-14T17:23:50Z</time>
      </trkpt>
      <trkpt lat="62.634208167767" lon="17.988194592038">
        <ele>88.8</ele>
        <time>2018-03-14T17:23:51Z</time>
      </trkpt>
      <trkpt lat="62.634182602972" lon="17.988194508219">
        <ele>88.8</ele>
        <time>2018-03-14T17:23:52Z</time>
      </trkpt>
      <trkpt lat="62.634164246611" lon="17.988188976165">
        <ele>89</ele>
        <time>2018-03-14T17:23:53Z</time>
      </trkpt>
      <trkpt lat="62.634131138106" lon="17.988190065812">
        <ele>89</ele>
        <time>2018-03-14T17:23:54Z</time>
      </trkpt>
      <trkpt lat="62.634094928298" lon="17.988170619804">
        <ele>89</ele>
        <time>2018-03-14T17:23:55Z</time>
      </trkpt>
      <trkpt lat="62.634078667412" lon="17.988179253161">
        <ele>88.8</ele>
        <time>2018-03-14T17:23:56Z</time>
      </trkpt>
      <trkpt lat="62.634043044337" lon="17.988158466049">
        <ele>88.8</ele>
        <time>2018-03-14T17:23:57Z</time>
      </trkpt>
      <trkpt lat="62.634011528393" lon="17.988144300638">
        <ele>89</ele>
        <time>2018-03-14T17:23:58Z</time>
      </trkpt>
      <trkpt lat="62.63399250148" lon="17.988131979245">
        <ele>89</ele>
        <time>2018-03-14T17:23:59Z</time>
      </trkpt>
      <trkpt lat="62.633971882006" lon="17.988110773038">
        <ele>89</ele>
        <time>2018-03-14T17:24:00Z</time>
      </trkpt>
      <trkpt lat="62.633942964451" lon="17.988081520207">
        <ele>89</ele>
        <time>2018-03-14T17:24:01Z</time>
      </trkpt>
      <trkpt lat="62.633924859547" lon="17.988063582941">
        <ele>89</ele>
        <time>2018-03-14T17:24:02Z</time>
      </trkpt>
      <trkpt lat="62.633915136543" lon="17.988052267376">
        <ele>89.2</ele>
        <time>2018-03-14T17:24:03Z</time>
      </trkpt>
      <trkpt lat="62.633887895368" lon="17.98802930097">
        <ele>89.4</ele>
        <time>2018-03-14T17:24:04Z</time>
      </trkpt>
      <trkpt lat="62.633857971985" lon="17.988001808338">
        <ele>89.4</ele>
        <time>2018-03-14T17:24:05Z</time>
      </trkpt>
      <trkpt lat="62.63384162728" lon="17.987971717317">
        <ele>89.6</ele>
        <time>2018-03-14T17:24:06Z</time>
      </trkpt>
      <trkpt lat="62.633817906503" lon="17.987948415635">
        <ele>89.8</ele>
        <time>2018-03-14T17:24:07Z</time>
      </trkpt>
      <trkpt lat="62.633786893473" lon="17.987917737881">
        <ele>90</ele>
        <time>2018-03-14T17:24:08Z</time>
      </trkpt>
      <trkpt lat="62.633767698922" lon="17.987897453683">
        <ele>90</ele>
        <time>2018-03-14T17:24:09Z</time>
      </trkpt>
      <trkpt lat="62.63374272086" lon="17.987882366263">
        <ele>90</ele>
        <time>2018-03-14T17:24:10Z</time>
      </trkpt>
      <trkpt lat="62.633712126925" lon="17.987848000473">
        <ele>90</ele>
        <time>2018-03-14T17:24:11Z</time>
      </trkpt>
      <trkpt lat="62.63368740032" lon="17.987822435678">
        <ele>90</ele>
        <time>2018-03-14T17:24:12Z</time>
      </trkpt>
      <trkpt lat="62.633660997335" lon="17.987805839516">
        <ele>90</ele>
        <time>2018-03-14T17:24:13Z</time>
      </trkpt>
      <trkpt lat="62.633645658458" lon="17.987777173418">
        <ele>90</ele>
        <time>2018-03-14T17:24:14Z</time>
      </trkpt>
      <trkpt lat="62.63361783055" lon="17.987749261691">
        <ele>90.2</ele>
        <time>2018-03-14T17:24:15Z</time>
      </trkpt>
      <trkpt lat="62.633593187764" lon="17.987717745747">
        <ele>90.2</ele>
        <time>2018-03-14T17:24:16Z</time>
      </trkpt>
      <trkpt lat="62.633581956018" lon="17.98769402497">
        <ele>90.4</ele>
        <time>2018-03-14T17:24:17Z</time>
      </trkpt>
      <trkpt lat="62.633564521666" lon="17.987661084103">
        <ele>90.6</ele>
        <time>2018-03-14T17:24:18Z</time>
      </trkpt>
      <trkpt lat="62.633546081486" lon="17.987643230656">
        <ele>90.8</ele>
        <time>2018-03-14T17:24:19Z</time>
      </trkpt>
      <trkpt lat="62.633519007949" lon="17.98760936778">
        <ele>90.8</ele>
        <time>2018-03-14T17:24:20Z</time>
      </trkpt>
      <trkpt lat="62.63349545481" lon="17.987576259275">
        <ele>91</ele>
        <time>2018-03-14T17:24:21Z</time>
      </trkpt>
      <trkpt lat="62.633486402358" lon="17.987554131059">
        <ele>91.2</ele>
        <time>2018-03-14T17:24:22Z</time>
      </trkpt>
      <trkpt lat="62.633447091247" lon="17.987512892111">
        <ele>91.4</ele>
        <time>2018-03-14T17:24:23Z</time>
      </trkpt>
      <trkpt lat="62.633428064334" lon="17.987475676475">
        <ele>91.6</ele>
        <time>2018-03-14T17:24:24Z</time>
      </trkpt>
      <trkpt lat="62.63340828305" lon="17.98743837702">
        <ele>91.8</ele>
        <time>2018-03-14T17:24:25Z</time>
      </trkpt>
      <trkpt lat="62.633391183974" lon="17.987403843592">
        <ele>92</ele>
        <time>2018-03-14T17:24:26Z</time>
      </trkpt>
      <trkpt lat="62.633378611124" lon="17.987376183322">
        <ele>92.4</ele>
        <time>2018-03-14T17:24:27Z</time>
      </trkpt>
      <trkpt lat="62.633356650546" lon="17.987331759252">
        <ele>92.4</ele>
        <time>2018-03-14T17:24:28Z</time>
      </trkpt>
      <trkpt lat="62.633335109063" lon="17.987288508648">
        <ele>93</ele>
        <time>2018-03-14T17:24:29Z</time>
      </trkpt>
      <trkpt lat="62.633317171797" lon="17.987242575836">
        <ele>93.2</ele>
        <time>2018-03-14T17:24:30Z</time>
      </trkpt>
      <trkpt lat="62.633287416052" lon="17.98716009794">
        <ele>93.2</ele>
        <time>2018-03-14T17:24:31Z</time>
      </trkpt>
      <trkpt lat="62.633279788523" lon="17.987106956694">
        <ele>93</ele>
        <time>2018-03-14T17:24:32Z</time>
      </trkpt>
      <trkpt lat="62.633266712759" lon="17.986997824356">
        <ele>93</ele>
        <time>2018-03-14T17:24:33Z</time>
      </trkpt>
      <trkpt lat="62.633240896507" lon="17.986910736415">
        <ele>92.8</ele>
        <time>2018-03-14T17:24:34Z</time>
      </trkpt>
      <trkpt lat="62.633219019748" lon="17.986796826394">
        <ele>92.2</ele>
        <time>2018-03-14T17:24:35Z</time>
      </trkpt>
      <trkpt lat="62.633205105794" lon="17.986694651033">
        <ele>91.4</ele>
        <time>2018-03-14T17:24:36Z</time>
      </trkpt>
      <trkpt lat="62.633196891532" lon="17.986560121538">
        <ele>90.8</ele>
        <time>2018-03-14T17:24:37Z</time>
      </trkpt>
      <trkpt lat="62.633185156872" lon="17.986463226774">
        <ele>90.4</ele>
        <time>2018-03-14T17:24:38Z</time>
      </trkpt>
      <trkpt lat="62.633183145216" lon="17.986389466054">
        <ele>90</ele>
        <time>2018-03-14T17:24:39Z</time>
      </trkpt>
      <trkpt lat="62.633168895986" lon="17.986298270982">
        <ele>89.8</ele>
        <time>2018-03-14T17:24:40Z</time>
      </trkpt>
      <trkpt lat="62.633167051968" lon="17.986189054825">
        <ele>90</ele>
        <time>2018-03-14T17:24:41Z</time>
      </trkpt>
      <trkpt lat="62.633168895986" lon="17.986092662975">
        <ele>90</ele>
        <time>2018-03-14T17:24:42Z</time>
      </trkpt>
      <trkpt lat="62.633169817995" lon="17.985967940303">
        <ele>90</ele>
        <time>2018-03-14T17:24:43Z</time>
      </trkpt>
      <trkpt lat="62.63316856071" lon="17.98587766724">
        <ele>89.8</ele>
        <time>2018-03-14T17:24:44Z</time>
      </trkpt>
      <trkpt lat="62.633165627045" lon="17.985803738882">
        <ele>89.4</ele>
        <time>2018-03-14T17:24:45Z</time>
      </trkpt>
      <trkpt lat="62.633160430267" lon="17.985693013983">
        <ele>88.8</ele>
        <time>2018-03-14T17:24:46Z</time>
      </trkpt>
      <trkpt lat="62.633148360331" lon="17.985590670984">
        <ele>88.4</ele>
        <time>2018-03-14T17:24:47Z</time>
      </trkpt>
      <trkpt lat="62.633140816621" lon="17.985509869468">
        <ele>88.2</ele>
        <time>2018-03-14T17:24:48Z</time>
      </trkpt>
      <trkpt lat="62.633141990087" lon="17.985411382143">
        <ele>88</ele>
        <time>2018-03-14T17:24:49Z</time>
      </trkpt>
      <trkpt lat="62.633123549907" lon="17.985329155704">
        <ele>88</ele>
        <time>2018-03-14T17:24:50Z</time>
      </trkpt>
      <trkpt lat="62.63312413664" lon="17.985222873212">
        <ele>88.2</ele>
        <time>2018-03-14T17:24:51Z</time>
      </trkpt>
      <trkpt lat="62.63314341501" lon="17.985082811663">
        <ele>87.6</ele>
        <time>2018-03-14T17:24:52Z</time>
      </trkpt>
      <trkpt lat="62.633163447751" lon="17.984945935236">
        <ele>87</ele>
        <time>2018-03-14T17:24:53Z</time>
      </trkpt>
      <trkpt lat="62.63318532451" lon="17.984842334952">
        <ele>86.2</ele>
        <time>2018-03-14T17:24:54Z</time>
      </trkpt>
      <trkpt lat="62.6332113084" lon="17.984715349167">
        <ele>85.4</ele>
        <time>2018-03-14T17:24:55Z</time>
      </trkpt>
      <trkpt lat="62.633242656706" lon="17.984613089987">
        <ele>84.4</ele>
        <time>2018-03-14T17:24:56Z</time>
      </trkpt>
      <trkpt lat="62.633259336687" lon="17.984519464164">
        <ele>84</ele>
        <time>2018-03-14T17:24:57Z</time>
      </trkpt>
      <trkpt lat="62.633261180705" lon="17.984451235498">
        <ele>84</ele>
        <time>2018-03-14T17:24:58Z</time>
      </trkpt>
      <trkpt lat="62.633279704704" lon="17.98436641067">
        <ele>84</ele>
        <time>2018-03-14T17:24:59Z</time>
      </trkpt>
      <trkpt lat="62.633291523183" lon="17.984271192286">
        <ele>84</ele>
        <time>2018-03-14T17:25:00Z</time>
      </trkpt>
      <trkpt lat="62.633292696649" lon="17.984214530642">
        <ele>84.4</ele>
        <time>2018-03-14T17:25:01Z</time>
      </trkpt>
      <trkpt lat="62.633300910911" lon="17.984116546231">
        <ele>84.6</ele>
        <time>2018-03-14T17:25:02Z</time>
      </trkpt>
      <trkpt lat="62.633305101861" lon="17.984034235973">
        <ele>84.6</ele>
        <time>2018-03-14T17:25:03Z</time>
      </trkpt>
      <trkpt lat="62.633311472105" lon="17.983895850804">
        <ele>84.8</ele>
        <time>2018-03-14T17:25:05Z</time>
      </trkpt>
      <trkpt lat="62.633327313896" lon="17.983826364853">
        <ele>84.8</ele>
        <time>2018-03-14T17:25:06Z</time>
      </trkpt>
      <trkpt lat="62.633336450167" lon="17.983756459807">
        <ele>85</ele>
        <time>2018-03-14T17:25:07Z</time>
      </trkpt>
      <trkpt lat="62.633349358293" lon="17.983687812046">
        <ele>85</ele>
        <time>2018-03-14T17:25:08Z</time>
      </trkpt>
      <trkpt lat="62.633364948627" lon="17.983612794041">
        <ele>85</ele>
        <time>2018-03-14T17:25:09Z</time>
      </trkpt>
      <trkpt lat="62.633377689115" lon="17.983550265067">
        <ele>85</ele>
        <time>2018-03-14T17:25:10Z</time>
      </trkpt>
      <trkpt lat="62.63338900468" lon="17.983497291459">
        <ele>85.2</ele>
        <time>2018-03-14T17:25:11Z</time>
      </trkpt>
      <trkpt lat="62.63340744486" lon="17.983422189635">
        <ele>85</ele>
        <time>2018-03-14T17:25:12Z</time>
      </trkpt>
      <trkpt lat="62.633422448461" lon="17.983352619865">
        <ele>85.2</ele>
        <time>2018-03-14T17:25:13Z</time>
      </trkpt>
      <trkpt lat="62.63342672323" lon="17.983294784755">
        <ele>85.2</ele>
        <time>2018-03-14T17:25:14Z</time>
      </trkpt>
      <trkpt lat="62.633451114559" lon="17.983230830858">
        <ele>85.2</ele>
        <time>2018-03-14T17:25:15Z</time>
      </trkpt>
      <trkpt lat="62.633467626902" lon="17.983161009631">
        <ele>85.2</ele>
        <time>2018-03-14T17:25:16Z</time>
      </trkpt>
      <trkpt lat="62.633479110105" lon="17.983112394611">
        <ele>85.2</ele>
        <time>2018-03-14T17:25:17Z</time>
      </trkpt>
      <trkpt lat="62.633484893616" lon="17.983037376606">
        <ele>85.2</ele>
        <time>2018-03-14T17:25:18Z</time>
      </trkpt>
      <trkpt lat="62.633506518918" lon="17.982967303922">
        <ele>85.2</ele>
        <time>2018-03-14T17:25:19Z</time>
      </trkpt>
      <trkpt lat="62.63351389499" lon="17.982911229011">
        <ele>85.2</ele>
        <time>2018-03-14T17:25:20Z</time>
      </trkpt>
      <trkpt lat="62.633534933559" lon="17.982838977033">
        <ele>85.2</ele>
        <time>2018-03-14T17:25:21Z</time>
      </trkpt>
      <trkpt lat="62.633538705414" lon="17.98278223157">
        <ele>85.2</ele>
        <time>2018-03-14T17:25:22Z</time>
      </trkpt>
      <trkpt lat="62.633548009323" lon="17.98273026379">
        <ele>85.2</ele>
        <time>2018-03-14T17:25:23Z</time>
      </trkpt>
      <trkpt lat="62.633568461159" lon="17.982665890798">
        <ele>85.2</ele>
        <time>2018-03-14T17:25:24Z</time>
      </trkpt>
      <trkpt lat="62.633573825575" lon="17.982607971869">
        <ele>85.2</ele>
        <time>2018-03-14T17:25:25Z</time>
      </trkpt>
      <trkpt lat="62.633580279638" lon="17.982558267202">
        <ele>85.2</ele>
        <time>2018-03-14T17:25:26Z</time>
      </trkpt>
      <trkpt lat="62.633594780325" lon="17.982493810391">
        <ele>85</ele>
        <time>2018-03-14T17:25:27Z</time>
      </trkpt>
      <trkpt lat="62.633604838605" lon="17.982424911173">
        <ele>85.2</ele>
        <time>2018-03-14T17:25:28Z</time>
      </trkpt>
      <trkpt lat="62.633612549953" lon="17.982377050524">
        <ele>85.2</ele>
        <time>2018-03-14T17:25:29Z</time>
      </trkpt>
      <trkpt lat="62.633621350948" lon="17.982288118565">
        <ele>85.2</ele>
        <time>2018-03-14T17:25:30Z</time>
      </trkpt>
      <trkpt lat="62.633623949337" lon="17.982233971491">
        <ele>85.2</ele>
        <time>2018-03-14T17:25:31Z</time>
      </trkpt>
      <trkpt lat="62.633645155544" lon="17.982160378409">
        <ele>85.2</ele>
        <time>2018-03-14T17:25:32Z</time>
      </trkpt>
      <trkpt lat="62.6336471672" lon="17.982088126431">
        <ele>85.2</ele>
        <time>2018-03-14T17:25:33Z</time>
      </trkpt>
      <trkpt lat="62.63365303453" lon="17.982048899139">
        <ele>85.2</ele>
        <time>2018-03-14T17:25:34Z</time>
      </trkpt>
      <trkpt lat="62.633671809986" lon="17.981965499234">
        <ele>85.2</ele>
        <time>2018-03-14T17:25:35Z</time>
      </trkpt>
      <trkpt lat="62.633675414203" lon="17.981897605844">
        <ele>85.2</ele>
        <time>2018-03-14T17:25:36Z</time>
      </trkpt>
      <trkpt lat="62.633682957913" lon="17.981836417974">
        <ele>85.2</ele>
        <time>2018-03-14T17:25:37Z</time>
      </trkpt>
      <trkpt lat="62.633691339813" lon="17.981784701651">
        <ele>85.2</ele>
        <time>2018-03-14T17:25:38Z</time>
      </trkpt>
      <trkpt lat="62.633697877695" lon="17.981723346143">
        <ele>85.4</ele>
        <time>2018-03-14T17:25:39Z</time>
      </trkpt>
      <trkpt lat="62.633706008138" lon="17.981644388645">
        <ele>85.4</ele>
        <time>2018-03-14T17:25:40Z</time>
      </trkpt>
      <trkpt lat="62.633701481912" lon="17.981605915724">
        <ele>85.6</ele>
        <time>2018-03-14T17:25:41Z</time>
      </trkpt>
      <trkpt lat="62.633711540192" lon="17.981539111981">
        <ele>85.4</ele>
        <time>2018-03-14T17:25:42Z</time>
      </trkpt>
      <trkpt lat="62.633715647323" lon="17.981463088148">
        <ele>85.4</ele>
        <time>2018-03-14T17:25:43Z</time>
      </trkpt>
      <trkpt lat="62.633735009512" lon="17.98141598187">
        <ele>85.4</ele>
        <time>2018-03-14T17:25:44Z</time>
      </trkpt>
      <trkpt lat="62.633744564878" lon="17.981364517004">
        <ele>85.4</ele>
        <time>2018-03-14T17:25:45Z</time>
      </trkpt>
      <trkpt lat="62.633761412497" lon="17.981285391868">
        <ele>85.6</ele>
        <time>2018-03-14T17:25:46Z</time>
      </trkpt>
      <trkpt lat="62.633772644243" lon="17.981227472939">
        <ele>85.4</ele>
        <time>2018-03-14T17:25:47Z</time>
      </trkpt>
      <trkpt lat="62.633778176297" lon="17.981171733304">
        <ele>85.6</ele>
        <time>2018-03-14T17:25:48Z</time>
      </trkpt>
      <trkpt lat="62.633804579282" lon="17.98110249881">
        <ele>85.6</ele>
        <time>2018-03-14T17:25:49Z</time>
      </trkpt>
      <trkpt lat="62.633817403589" lon="17.981066875735">
        <ele>85.6</ele>
        <time>2018-03-14T17:25:50Z</time>
      </trkpt>
      <trkpt lat="62.633831988095" lon="17.981029660099">
        <ele>85.6</ele>
        <time>2018-03-14T17:25:51Z</time>
      </trkpt>
      <trkpt lat="62.633852104655" lon="17.980980039251">
        <ele>85.6</ele>
        <time>2018-03-14T17:25:52Z</time>
      </trkpt>
      <trkpt lat="62.633877250355" lon="17.980933938801">
        <ele>85.8</ele>
        <time>2018-03-14T17:25:53Z</time>
      </trkpt>
      <trkpt lat="62.633886218988" lon="17.980897645174">
        <ele>85.8</ele>
        <time>2018-03-14T17:25:54Z</time>
      </trkpt>
      <trkpt lat="62.633907425195" lon="17.980836373485">
        <ele>86</ele>
        <time>2018-03-14T17:25:55Z</time>
      </trkpt>
      <trkpt lat="62.633936007474" lon="17.980773257778">
        <ele>86</ele>
        <time>2018-03-14T17:25:56Z</time>
      </trkpt>
      <trkpt lat="62.633953022731" lon="17.980732689382">
        <ele>86.2</ele>
        <time>2018-03-14T17:25:57Z</time>
      </trkpt>
      <trkpt lat="62.633959057699" lon="17.980699999972">
        <ele>86.2</ele>
        <time>2018-03-14T17:25:58Z</time>
      </trkpt>
      <trkpt lat="62.633989232539" lon="17.980628670003">
        <ele>86.4</ele>
        <time>2018-03-14T17:25:59Z</time>
      </trkpt>
      <trkpt lat="62.634000967199" lon="17.980582653372">
        <ele>86.4</ele>
        <time>2018-03-14T17:26:00Z</time>
      </trkpt>
      <trkpt lat="62.634013791506" lon="17.980538732216">
        <ele>86.6</ele>
        <time>2018-03-14T17:26:01Z</time>
      </trkpt>
      <trkpt lat="62.63403189641" lon="17.980486177703">
        <ele>86.6</ele>
        <time>2018-03-14T17:26:02Z</time>
      </trkpt>
      <trkpt lat="62.634051845332" lon="17.980439071425">
        <ele>86.6</ele>
        <time>2018-03-14T17:26:03Z</time>
      </trkpt>
      <trkpt lat="62.634069028227" lon="17.98039255188">
        <ele>86.6</ele>
        <time>2018-03-14T17:26:04Z</time>
      </trkpt>
      <trkpt lat="62.634097107592" lon="17.980340667919">
        <ele>86.6</ele>
        <time>2018-03-14T17:26:05Z</time>
      </trkpt>
      <trkpt lat="62.634099370705" lon="17.9803070565">
        <ele>86.8</ele>
        <time>2018-03-14T17:26:06Z</time>
      </trkpt>
      <trkpt lat="62.634114374306" lon="17.980260453136">
        <ele>86.8</ele>
        <time>2018-03-14T17:26:07Z</time>
      </trkpt>
      <trkpt lat="62.634142788947" lon="17.980220387654">
        <ele>86.8</ele>
        <time>2018-03-14T17:26:08Z</time>
      </trkpt>
      <trkpt lat="62.634149578286" lon="17.980179735439">
        <ele>86.8</ele>
        <time>2018-03-14T17:26:09Z</time>
      </trkpt>
      <trkpt lat="62.634186039551" lon="17.980115697723">
        <ele>86.8</ele>
        <time>2018-03-14T17:26:10Z</time>
      </trkpt>
      <trkpt lat="62.634200791695" lon="17.98007906882">
        <ele>87</ele>
        <time>2018-03-14T17:26:11Z</time>
      </trkpt>
      <trkpt lat="62.634210263242" lon="17.98004637941">
        <ele>87</ele>
        <time>2018-03-14T17:26:12Z</time>
      </trkpt>
      <trkpt lat="62.634246892145" lon="17.979998099666">
        <ele>87</ele>
        <time>2018-03-14T17:26:13Z</time>
      </trkpt>
      <trkpt lat="62.63424060572" lon="17.97996088403">
        <ele>86.8</ele>
        <time>2018-03-14T17:26:14Z</time>
      </trkpt>
      <trkpt lat="62.63425820771" lon="17.979899528522">
        <ele>86.8</ele>
        <time>2018-03-14T17:26:15Z</time>
      </trkpt>
      <trkpt lat="62.634282431401" lon="17.979838424471">
        <ele>86.8</ele>
        <time>2018-03-14T17:26:16Z</time>
      </trkpt>
      <trkpt lat="62.634303302332" lon="17.979766172493">
        <ele>86.8</ele>
        <time>2018-03-14T17:26:17Z</time>
      </trkpt>
      <trkpt lat="62.634312606241" lon="17.979724179174">
        <ele>86.8</ele>
        <time>2018-03-14T17:26:18Z</time>
      </trkpt>
      <trkpt lat="62.634329956774" lon="17.979660560553">
        <ele>86.8</ele>
        <time>2018-03-14T17:26:19Z</time>
      </trkpt>
      <trkpt lat="62.634335991742" lon="17.979598366855">
        <ele>86.8</ele>
        <time>2018-03-14T17:26:20Z</time>
      </trkpt>
      <trkpt lat="62.634355018655" lon="17.979521756289">
        <ele>86.8</ele>
        <time>2018-03-14T17:26:21Z</time>
      </trkpt>
      <trkpt lat="62.634364071107" lon="17.979469537052">
        <ele>86.8</ele>
        <time>2018-03-14T17:26:22Z</time>
      </trkpt>
      <trkpt lat="62.634372285369" lon="17.979420922032">
        <ele>86.8</ele>
        <time>2018-03-14T17:26:23Z</time>
      </trkpt>
      <trkpt lat="62.634387456608" lon="17.979342802724">
        <ele>86.8</ele>
        <time>2018-03-14T17:26:24Z</time>
      </trkpt>
      <trkpt lat="62.634404807141" lon="17.979277842999">
        <ele>86.8</ele>
        <time>2018-03-14T17:26:25Z</time>
      </trkpt>
      <trkpt lat="62.634410590652" lon="17.979234257119">
        <ele>86.8</ele>
        <time>2018-03-14T17:26:26Z</time>
      </trkpt>
      <trkpt lat="62.63442081657" lon="17.979165609358">
        <ele>86.8</ele>
        <time>2018-03-14T17:26:27Z</time>
      </trkpt>
      <trkpt lat="62.634434646705" lon="17.979097045416">
        <ele>86.8</ele>
        <time>2018-03-14T17:26:28Z</time>
      </trkpt>
      <trkpt lat="62.634439592026" lon="17.979053459536">
        <ele>86.6</ele>
        <time>2018-03-14T17:26:29Z</time>
      </trkpt>
      <trkpt lat="62.634451075229" lon="17.978972406563">
        <ele>86.8</ele>
        <time>2018-03-14T17:26:30Z</time>
      </trkpt>
      <trkpt lat="62.634459960043" lon="17.978909374675">
        <ele>86.8</ele>
        <time>2018-03-14T17:26:31Z</time>
      </trkpt>
      <trkpt lat="62.634470688875" lon="17.978861011112">
        <ele>86.6</ele>
        <time>2018-03-14T17:26:32Z</time>
      </trkpt>
      <trkpt lat="62.634485860114" lon="17.978782724166">
        <ele>86.6</ele>
        <time>2018-03-14T17:26:33Z</time>
      </trkpt>
      <trkpt lat="62.634491475987" lon="17.978728157997">
        <ele>86.6</ele>
        <time>2018-03-14T17:26:34Z</time>
      </trkpt>
      <trkpt lat="62.634504384113" lon="17.978669065602">
        <ele>86.6</ele>
        <time>2018-03-14T17:26:35Z</time>
      </trkpt>
      <trkpt lat="62.634520225904" lon="17.978598238547">
        <ele>86.6</ele>
        <time>2018-03-14T17:26:36Z</time>
      </trkpt>
      <trkpt lat="62.634520980275" lon="17.978549874984">
        <ele>86.8</ele>
        <time>2018-03-14T17:26:37Z</time>
      </trkpt>
      <trkpt lat="62.634536151514" lon="17.9784630385">
        <ele>86.8</ele>
        <time>2018-03-14T17:26:38Z</time>
      </trkpt>
      <trkpt lat="62.634544198138" lon="17.978399419879">
        <ele>86.6</ele>
        <time>2018-03-14T17:26:39Z</time>
      </trkpt>
      <trkpt lat="62.634552915314" lon="17.978339908389">
        <ele>86.6</ele>
        <time>2018-03-14T17:26:40Z</time>
      </trkpt>
      <trkpt lat="62.634566577811" lon="17.978246282566">
        <ele>86.4</ele>
        <time>2018-03-14T17:26:41Z</time>
      </trkpt>
      <trkpt lat="62.634582671059" lon="17.97815793734">
        <ele>86.4</ele>
        <time>2018-03-14T17:26:42Z</time>
      </trkpt>
      <trkpt lat="62.634596417375" lon="17.978075459444">
        <ele>86.2</ele>
        <time>2018-03-14T17:26:43Z</time>
      </trkpt>
      <trkpt lat="62.634607062388" lon="17.978000525258">
        <ele>86</ele>
        <time>2018-03-14T17:26:44Z</time>
      </trkpt>
      <trkpt lat="62.634615025193" lon="17.977935649352">
        <ele>86</ele>
        <time>2018-03-14T17:26:45Z</time>
      </trkpt>
      <trkpt lat="62.634627178948" lon="17.977854680198">
        <ele>85.8</ele>
        <time>2018-03-14T17:26:46Z</time>
      </trkpt>
      <trkpt lat="62.63463287864" lon="17.977790977758">
        <ele>85.6</ele>
        <time>2018-03-14T17:26:47Z</time>
      </trkpt>
      <trkpt lat="62.634640254712" lon="17.97772459311">
        <ele>85.4</ele>
        <time>2018-03-14T17:26:48Z</time>
      </trkpt>
      <trkpt lat="62.63465467158" lon="17.977644378327">
        <ele>85.2</ele>
        <time>2018-03-14T17:26:49Z</time>
      </trkpt>
      <trkpt lat="62.634669256086" lon="17.977574724738">
        <ele>85.2</ele>
        <time>2018-03-14T17:26:50Z</time>
      </trkpt>
      <trkpt lat="62.634684678782" lon="17.97749995819">
        <ele>85</ele>
        <time>2018-03-14T17:26:51Z</time>
      </trkpt>
      <trkpt lat="62.634706304084" lon="17.97741697738">
        <ele>85</ele>
        <time>2018-03-14T17:26:52Z</time>
      </trkpt>
      <trkpt lat="62.634716362364" lon="17.977362830306">
        <ele>85</ele>
        <time>2018-03-14T17:26:53Z</time>
      </trkpt>
      <trkpt lat="62.634728516119" lon="17.977290578328">
        <ele>85</ele>
        <time>2018-03-14T17:26:54Z</time>
      </trkpt>
      <trkpt lat="62.63474184334" lon="17.977226121517">
        <ele>85</ele>
        <time>2018-03-14T17:26:55Z</time>
      </trkpt>
      <trkpt lat="62.634753410362" lon="17.977167532036">
        <ele>85</ele>
        <time>2018-03-14T17:26:56Z</time>
      </trkpt>
      <trkpt lat="62.634767324316" lon="17.977093855135">
        <ele>85</ele>
        <time>2018-03-14T17:26:57Z</time>
      </trkpt>
      <trkpt lat="62.634780902994" lon="17.977017663664">
        <ele>85</ele>
        <time>2018-03-14T17:26:58Z</time>
      </trkpt>
      <trkpt lat="62.634789117256" lon="17.976940382546">
        <ele>85</ele>
        <time>2018-03-14T17:26:59Z</time>
      </trkpt>
      <trkpt lat="62.634799426993" lon="17.976870309862">
        <ele>85</ele>
        <time>2018-03-14T17:27:00Z</time>
      </trkpt>
      <trkpt lat="62.634813760042" lon="17.976794872762">
        <ele>84.8</ele>
        <time>2018-03-14T17:27:01Z</time>
      </trkpt>
      <trkpt lat="62.634824907969" lon="17.976733684892">
        <ele>84.6</ele>
        <time>2018-03-14T17:27:02Z</time>
      </trkpt>
      <trkpt lat="62.634832703136" lon="17.976677945257">
        <ele>84.6</ele>
        <time>2018-03-14T17:27:03Z</time>
      </trkpt>
      <trkpt lat="62.63485248442" lon="17.976577027181">
        <ele>84.4</ele>
        <time>2018-03-14T17:27:04Z</time>
      </trkpt>
      <trkpt lat="62.634867907116" lon="17.976507205954">
        <ele>84.4</ele>
        <time>2018-03-14T17:27:05Z</time>
      </trkpt>
      <trkpt lat="62.634885425287" lon="17.976434031967">
        <ele>84.4</ele>
        <time>2018-03-14T17:27:06Z</time>
      </trkpt>
      <trkpt lat="62.634898501051" lon="17.976361863808">
        <ele>84.4</ele>
        <time>2018-03-14T17:27:07Z</time>
      </trkpt>
      <trkpt lat="62.634908559331" lon="17.976301933223">
        <ele>84.4</ele>
        <time>2018-03-14T17:27:08Z</time>
      </trkpt>
      <trkpt lat="62.634926412778" lon="17.976223143363">
        <ele>84.4</ele>
        <time>2018-03-14T17:27:09Z</time>
      </trkpt>
      <trkpt lat="62.634952731944" lon="17.976146700435">
        <ele>84.4</ele>
        <time>2018-03-14T17:27:10Z</time>
      </trkpt>
      <trkpt lat="62.634972680866" lon="17.976082914176">
        <ele>84.2</ele>
        <time>2018-03-14T17:27:11Z</time>
      </trkpt>
      <trkpt lat="62.634998413299" lon="17.975988198706">
        <ele>84</ele>
        <time>2018-03-14T17:27:12Z</time>
      </trkpt>
      <trkpt lat="62.635014925642" lon="17.975920724411">
        <ele>83.8</ele>
        <time>2018-03-14T17:27:13Z</time>
      </trkpt>
      <trkpt lat="62.635034455469" lon="17.975825086932">
        <ele>83.6</ele>
        <time>2018-03-14T17:27:14Z</time>
      </trkpt>
      <trkpt lat="62.635049961984" lon="17.975749063099">
        <ele>83.4</ele>
        <time>2018-03-14T17:27:15Z</time>
      </trkpt>
      <trkpt lat="62.635065300861" lon="17.975665579375">
        <ele>83.2</ele>
        <time>2018-03-14T17:27:16Z</time>
      </trkpt>
      <trkpt lat="62.635076616426" lon="17.975595087596">
        <ele>83</ele>
        <time>2018-03-14T17:27:17Z</time>
      </trkpt>
      <trkpt lat="62.63508466305" lon="17.975513950804">
        <ele>82.8</ele>
        <time>2018-03-14T17:27:18Z</time>
      </trkpt>
      <trkpt lat="62.635093631683" lon="17.975438597523">
        <ele>82.8</ele>
        <time>2018-03-14T17:27:19Z</time>
      </trkpt>
      <trkpt lat="62.635103522325" lon="17.975359807663">
        <ele>82.6</ele>
        <time>2018-03-14T17:27:20Z</time>
      </trkpt>
      <trkpt lat="62.635110144026" lon="17.97528210745">
        <ele>82.6</ele>
        <time>2018-03-14T17:27:21Z</time>
      </trkpt>
      <trkpt lat="62.635114754071" lon="17.975195187147">
        <ele>82.4</ele>
        <time>2018-03-14T17:27:22Z</time>
      </trkpt>
      <trkpt lat="62.635111568949" lon="17.975120169142">
        <ele>82.4</ele>
        <time>2018-03-14T17:27:23Z</time>
      </trkpt>
      <trkpt lat="62.635101845945" lon="17.975023777292">
        <ele>82.6</ele>
        <time>2018-03-14T17:27:24Z</time>
      </trkpt>
      <trkpt lat="62.635087429077" lon="17.974939874473">
        <ele>82.2</ele>
        <time>2018-03-14T17:27:25Z</time>
      </trkpt>
      <trkpt lat="62.635072676933" lon="17.974864353554">
        <ele>82</ele>
        <time>2018-03-14T17:27:26Z</time>
      </trkpt>
      <trkpt lat="62.635053230925" lon="17.974786066608">
        <ele>81.4</ele>
        <time>2018-03-14T17:27:27Z</time>
      </trkpt>
      <trkpt lat="62.635036550944" lon="17.974716413019">
        <ele>81</ele>
        <time>2018-03-14T17:27:28Z</time>
      </trkpt>
      <trkpt lat="62.63501090233" lon="17.974625134128">
        <ele>80.6</ele>
        <time>2018-03-14T17:27:29Z</time>
      </trkpt>
      <trkpt lat="62.634987013915" lon="17.974533100866">
        <ele>80.6</ele>
        <time>2018-03-14T17:27:30Z</time>
      </trkpt>
      <trkpt lat="62.63496396369" lon="17.974446180563">
        <ele>80.2</ele>
        <time>2018-03-14T17:27:31Z</time>
      </trkpt>
      <trkpt lat="62.634938147438" lon="17.974360852821">
        <ele>79.8</ele>
        <time>2018-03-14T17:27:32Z</time>
      </trkpt>
      <trkpt lat="62.634923060018" lon="17.974296982743">
        <ele>79.8</ele>
        <time>2018-03-14T17:27:33Z</time>
      </trkpt>
      <trkpt lat="62.634903362553" lon="17.974210146259">
        <ele>79.4</ele>
        <time>2018-03-14T17:27:34Z</time>
      </trkpt>
      <trkpt lat="62.634890622065" lon="17.974121968671">
        <ele>79</ele>
        <time>2018-03-14T17:27:35Z</time>
      </trkpt>
      <trkpt lat="62.63488014469" lon="17.974041418612">
        <ele>79.2</ele>
        <time>2018-03-14T17:27:36Z</time>
      </trkpt>
      <trkpt lat="62.634867404202" lon="17.973976458887">
        <ele>79.4</ele>
        <time>2018-03-14T17:27:37Z</time>
      </trkpt>
      <trkpt lat="62.634846868547" lon="17.973920719252">
        <ele>79.2</ele>
        <time>2018-03-14T17:27:38Z</time>
      </trkpt>
      <trkpt lat="62.634822141942" lon="17.973859112287">
        <ele>79.2</ele>
        <time>2018-03-14T17:27:39Z</time>
      </trkpt>
      <trkpt lat="62.634804875228" lon="17.973787111766">
        <ele>79.2</ele>
        <time>2018-03-14T17:27:40Z</time>
      </trkpt>
      <trkpt lat="62.634789117256" lon="17.973719218376">
        <ele>79.2</ele>
        <time>2018-03-14T17:27:41Z</time>
      </trkpt>
      <trkpt lat="62.634775119483" lon="17.973637913946">
        <ele>79.2</ele>
        <time>2018-03-14T17:27:42Z</time>
      </trkpt>
      <trkpt lat="62.63476279809" lon="17.97357303804">
        <ele>79</ele>
        <time>2018-03-14T17:27:43Z</time>
      </trkpt>
      <trkpt lat="62.63474351972" lon="17.973487961755">
        <ele>79</ele>
        <time>2018-03-14T17:27:44Z</time>
      </trkpt>
      <trkpt lat="62.634729689585" lon="17.973425851876">
        <ele>78.8</ele>
        <time>2018-03-14T17:27:45Z</time>
      </trkpt>
      <trkpt lat="62.634719379848" lon="17.973336417003">
        <ele>78.8</ele>
        <time>2018-03-14T17:27:46Z</time>
      </trkpt>
      <trkpt lat="62.634715524174" lon="17.973266176681">
        <ele>78.6</ele>
        <time>2018-03-14T17:27:47Z</time>
      </trkpt>
      <trkpt lat="62.634712255233" lon="17.973208760666">
        <ele>78.6</ele>
        <time>2018-03-14T17:27:48Z</time>
      </trkpt>
      <trkpt lat="62.634716027088" lon="17.973118571422">
        <ele>78.4</ele>
        <time>2018-03-14T17:27:49Z</time>
      </trkpt>
      <trkpt lat="62.63472088859" lon="17.973039697743">
        <ele>78.6</ele>
        <time>2018-03-14T17:27:50Z</time>
      </trkpt>
      <trkpt lat="62.634729186671" lon="17.972971469077">
        <ele>78.4</ele>
        <time>2018-03-14T17:27:51Z</time>
      </trkpt>
      <trkpt lat="62.63474771067" lon="17.972879938729">
        <ele>78.4</ele>
        <time>2018-03-14T17:27:52Z</time>
      </trkpt>
      <trkpt lat="62.634764306832" lon="17.972806848561">
        <ele>78.2</ele>
        <time>2018-03-14T17:27:53Z</time>
      </trkpt>
      <trkpt lat="62.634785764496" lon="17.972719592982">
        <ele>78.2</ele>
        <time>2018-03-14T17:27:54Z</time>
      </trkpt>
      <trkpt lat="62.634808479445" lon="17.972639042923">
        <ele>78</ele>
        <time>2018-03-14T17:27:55Z</time>
      </trkpt>
      <trkpt lat="62.634828679824" lon="17.972573580284">
        <ele>77.8</ele>
        <time>2018-03-14T17:27:56Z</time>
      </trkpt>
      <trkpt lat="62.634850472764" lon="17.972501747401">
        <ele>77.8</ele>
        <time>2018-03-14T17:27:57Z</time>
      </trkpt>
      <trkpt lat="62.634872265704" lon="17.972432177631">
        <ele>77.8</ele>
        <time>2018-03-14T17:27:58Z</time>
      </trkpt>
      <trkpt lat="62.634897076128" lon="17.972355734703">
        <ele>77.6</ele>
        <time>2018-03-14T17:27:59Z</time>
      </trkpt>
      <trkpt lat="62.634923143837" lon="17.972282141621">
        <ele>77.6</ele>
        <time>2018-03-14T17:28:00Z</time>
      </trkpt>
      <trkpt lat="62.634948121899" lon="17.972202681209">
        <ele>77.2</ele>
        <time>2018-03-14T17:28:01Z</time>
      </trkpt>
      <trkpt lat="62.634965807708" lon="17.972136548018">
        <ele>77.2</ele>
        <time>2018-03-14T17:28:02Z</time>
      </trkpt>
      <trkpt lat="62.634986259544" lon="17.972079215822">
        <ele>77.2</ele>
        <time>2018-03-14T17:28:03Z</time>
      </trkpt>
      <trkpt lat="62.635015177099" lon="17.971980225583">
        <ele>77</ele>
        <time>2018-03-14T17:28:04Z</time>
      </trkpt>
      <trkpt lat="62.63503688622" lon="17.971878385498">
        <ele>76.8</ele>
        <time>2018-03-14T17:28:05Z</time>
      </trkpt>
      <trkpt lat="62.635057338056" lon="17.971776545413">
        <ele>76.4</ele>
        <time>2018-03-14T17:28:06Z</time>
      </trkpt>
      <trkpt lat="62.635075107684" lon="17.971668502722">
        <ele>75.6</ele>
        <time>2018-03-14T17:28:07Z</time>
      </trkpt>
      <trkpt lat="62.635088854" lon="17.971575966546">
        <ele>75.2</ele>
        <time>2018-03-14T17:28:08Z</time>
      </trkpt>
      <trkpt lat="62.635102013583" lon="17.971473036814">
        <ele>74.4</ele>
        <time>2018-03-14T17:28:09Z</time>
      </trkpt>
      <trkpt lat="62.635117268641" lon="17.971363904476">
        <ele>73.4</ele>
        <time>2018-03-14T17:28:10Z</time>
      </trkpt>
      <trkpt lat="62.635127578378" lon="17.971264243685">
        <ele>73</ele>
        <time>2018-03-14T17:28:11Z</time>
      </trkpt>
      <trkpt lat="62.635145180368" lon="17.971146561809">
        <ele>73.2</ele>
        <time>2018-03-14T17:28:12Z</time>
      </trkpt>
      <trkpt lat="62.635158591408" lon="17.971047990665">
        <ele>73</ele>
        <time>2018-03-14T17:28:13Z</time>
      </trkpt>
      <trkpt lat="62.635172170086" lon="17.970927961857">
        <ele>73</ele>
        <time>2018-03-14T17:28:14Z</time>
      </trkpt>
      <trkpt lat="62.635180803443" lon="17.970822852831">
        <ele>72.8</ele>
        <time>2018-03-14T17:28:15Z</time>
      </trkpt>
      <trkpt lat="62.635193124836" lon="17.970699052168">
        <ele>72.6</ele>
        <time>2018-03-14T17:28:16Z</time>
      </trkpt>
      <trkpt lat="62.635205781505" lon="17.970593691685">
        <ele>71.8</ele>
        <time>2018-03-14T17:28:17Z</time>
      </trkpt>
      <trkpt lat="62.635218605812" lon="17.970493025066">
        <ele>71.2</ele>
        <time>2018-03-14T17:28:18Z</time>
      </trkpt>
      <trkpt lat="62.635230424291" lon="17.970380959063">
        <ele>70.6</ele>
        <time>2018-03-14T17:28:19Z</time>
      </trkpt>
      <trkpt lat="62.635241572218" lon="17.97027476039">
        <ele>70.4</ele>
        <time>2018-03-14T17:28:20Z</time>
      </trkpt>
      <trkpt lat="62.635255821448" lon="17.970171411563">
        <ele>69.8</ele>
        <time>2018-03-14T17:28:21Z</time>
      </trkpt>
      <trkpt lat="62.635274513085" lon="17.970060435207">
        <ele>69.4</ele>
        <time>2018-03-14T17:28:22Z</time>
      </trkpt>
      <trkpt lat="62.635293037084" lon="17.969964210995">
        <ele>69.2</ele>
        <time>2018-03-14T17:28:23Z</time>
      </trkpt>
      <trkpt lat="62.635319859164" lon="17.969845858567">
        <ele>68.8</ele>
        <time>2018-03-14T17:28:24Z</time>
      </trkpt>
      <trkpt lat="62.635345256321" lon="17.969733624926">
        <ele>68.4</ele>
        <time>2018-03-14T17:28:25Z</time>
      </trkpt>
      <trkpt lat="62.635369060917" lon="17.969633125945">
        <ele>67.8</ele>
        <time>2018-03-14T17:28:26Z</time>
      </trkpt>
      <trkpt lat="62.635393284608" lon="17.969536566457">
        <ele>67.6</ele>
        <time>2018-03-14T17:28:27Z</time>
      </trkpt>
      <trkpt lat="62.635417759756" lon="17.969440593702">
        <ele>67.2</ele>
        <time>2018-03-14T17:28:28Z</time>
      </trkpt>
      <trkpt lat="62.635448521329" lon="17.969323833835">
        <ele>66.8</ele>
        <time>2018-03-14T17:28:29Z</time>
      </trkpt>
      <trkpt lat="62.635477103608" lon="17.969213444212">
        <ele>66.4</ele>
        <time>2018-03-14T17:28:30Z</time>
      </trkpt>
      <trkpt lat="62.635508284276" lon="17.969089056816">
        <ele>66</ele>
        <time>2018-03-14T17:28:31Z</time>
      </trkpt>
      <trkpt lat="62.635538878211" lon="17.968975733528">
        <ele>65.4</ele>
        <time>2018-03-14T17:28:32Z</time>
      </trkpt>
      <trkpt lat="62.635566287024" lon="17.96889426146">
        <ele>64.8</ele>
        <time>2018-03-14T17:28:33Z</time>
      </trkpt>
      <trkpt lat="62.635606939239" lon="17.968777250136">
        <ele>64.4</ele>
        <time>2018-03-14T17:28:34Z</time>
      </trkpt>
      <trkpt lat="62.635645328341" lon="17.968675661508">
        <ele>64</ele>
        <time>2018-03-14T17:28:35Z</time>
      </trkpt>
      <trkpt lat="62.635684639452" lon="17.968591507232">
        <ele>63.8</ele>
        <time>2018-03-14T17:28:36Z</time>
      </trkpt>
      <trkpt lat="62.635728895884" lon="17.968520261082">
        <ele>63.6</ele>
        <time>2018-03-14T17:28:37Z</time>
      </trkpt>
      <trkpt lat="62.635770721565" lon="17.968474244451">
        <ele>63.2</ele>
        <time>2018-03-14T17:28:38Z</time>
      </trkpt>
      <trkpt lat="62.635820426232" lon="17.968430155657">
        <ele>62.8</ele>
        <time>2018-03-14T17:28:39Z</time>
      </trkpt>
      <trkpt lat="62.635875746772" lon="17.968396125143">
        <ele>62</ele>
        <time>2018-03-14T17:28:40Z</time>
      </trkpt>
      <trkpt lat="62.635921931041" lon="17.968379780438">
        <ele>61.4</ele>
        <time>2018-03-14T17:28:41Z</time>
      </trkpt>
      <trkpt lat="62.635967780034" lon="17.96837542185">
        <ele>60.8</ele>
        <time>2018-03-14T17:28:42Z</time>
      </trkpt>
      <trkpt lat="62.636008432249" lon="17.9683712309">
        <ele>60.8</ele>
        <time>2018-03-14T17:28:43Z</time>
      </trkpt>
    </trkseg>
  </trk>
</gpx>